<?xml version="1.0" encoding="UTF-8" standalone="yes"?>
<gpx version="1.1" 
  creator="Peakbagger.com" 
  xmlns="http://www.topografix.com/GPX/1/1" 
  xmlns:xsi="http://www.w3.org/2001/XMLSchema-instance" 
  xsi:schemaLocation="http://www.topografix.com/GPX/1/1 http://www.topografix.com/GPX/1/1/gpx.xsd">
<metadata><name><![CDATA[Ascent of Mount Hood on 2019-11-22]]></name><desc><![CDATA[Generated by Peakbagger.com]]></desc><author><name><![CDATA[Krzysztof Ostrowski]]></name></author></metadata>
<trk><name>Mount Hood #1</name>
<trkseg>
<trkpt lat="45.330642" lon="-121.709354"><ele>1786</ele><time>2019-11-22T09:29:00Z</time></trkpt>
<trkpt lat="45.330676" lon="-121.709544"><ele>1795</ele><time>2019-11-22T09:29:00Z</time></trkpt>
<trkpt lat="45.330717" lon="-121.70958"><ele>1797</ele><time>2019-11-22T09:29:00Z</time></trkpt>
<trkpt lat="45.330722" lon="-121.709585"><ele>1797</ele><time>2019-11-22T09:29:00Z</time></trkpt>
<trkpt lat="45.330833" lon="-121.709701"><ele>1802</ele><time>2019-11-22T09:30:00Z</time></trkpt>
<trkpt lat="45.330852" lon="-121.709741"><ele>1804</ele><time>2019-11-22T09:30:00Z</time></trkpt>
<trkpt lat="45.330863" lon="-121.709753"><ele>1804</ele><time>2019-11-22T09:30:00Z</time></trkpt>
<trkpt lat="45.330904" lon="-121.709797"><ele>1806</ele><time>2019-11-22T09:30:00Z</time></trkpt>
<trkpt lat="45.33093" lon="-121.709848"><ele>1807</ele><time>2019-11-22T09:30:00Z</time></trkpt>
<trkpt lat="45.330966" lon="-121.709893"><ele>1807</ele><time>2019-11-22T09:30:00Z</time></trkpt>
<trkpt lat="45.330981" lon="-121.709937"><ele>1806</ele><time>2019-11-22T09:30:00Z</time></trkpt>
<trkpt lat="45.330985" lon="-121.70995"><ele>1806</ele><time>2019-11-22T09:30:00Z</time></trkpt>
<trkpt lat="45.330989" lon="-121.709994"><ele>1806</ele><time>2019-11-22T09:30:00Z</time></trkpt>
<trkpt lat="45.331013" lon="-121.710054"><ele>1807</ele><time>2019-11-22T09:30:00Z</time></trkpt>
<trkpt lat="45.331071" lon="-121.710103"><ele>1805</ele><time>2019-11-22T09:30:00Z</time></trkpt>
<trkpt lat="45.331102" lon="-121.710117"><ele>1806</ele><time>2019-11-22T09:30:00Z</time></trkpt>
<trkpt lat="45.331114" lon="-121.710125"><ele>1806</ele><time>2019-11-22T09:30:00Z</time></trkpt>
<trkpt lat="45.331218" lon="-121.710219"><ele>1806</ele><time>2019-11-22T09:31:00Z</time></trkpt>
<trkpt lat="45.331275" lon="-121.710202"><ele>1808</ele><time>2019-11-22T09:31:00Z</time></trkpt>
<trkpt lat="45.331284" lon="-121.710199"><ele>1808</ele><time>2019-11-22T09:31:00Z</time></trkpt>
<trkpt lat="45.331313" lon="-121.710191"><ele>1809</ele><time>2019-11-22T09:31:00Z</time></trkpt>
<trkpt lat="45.331353" lon="-121.710224"><ele>1809</ele><time>2019-11-22T09:31:00Z</time></trkpt>
<trkpt lat="45.331409" lon="-121.710243"><ele>1810</ele><time>2019-11-22T09:31:00Z</time></trkpt>
<trkpt lat="45.331431" lon="-121.710271"><ele>1810</ele><time>2019-11-22T09:31:00Z</time></trkpt>
<trkpt lat="45.331438" lon="-121.710284"><ele>1809</ele><time>2019-11-22T09:31:00Z</time></trkpt>
<trkpt lat="45.331464" lon="-121.710286"><ele>1811</ele><time>2019-11-22T09:31:00Z</time></trkpt>
<trkpt lat="45.331551" lon="-121.710357"><ele>1813</ele><time>2019-11-22T09:31:00Z</time></trkpt>
<trkpt lat="45.331593" lon="-121.710365"><ele>1815</ele><time>2019-11-22T09:31:00Z</time></trkpt>
<trkpt lat="45.33161" lon="-121.710368"><ele>1816</ele><time>2019-11-22T09:31:00Z</time></trkpt>
<trkpt lat="45.331704" lon="-121.710391"><ele>1817</ele><time>2019-11-22T09:31:00Z</time></trkpt>
<trkpt lat="45.331788" lon="-121.710447"><ele>1822</ele><time>2019-11-22T09:32:00Z</time></trkpt>
<trkpt lat="45.331805" lon="-121.710459"><ele>1821</ele><time>2019-11-22T09:32:00Z</time></trkpt>
<trkpt lat="45.33195" lon="-121.710533"><ele>1823</ele><time>2019-11-22T09:32:00Z</time></trkpt>
<trkpt lat="45.331965" lon="-121.71054"><ele>1823</ele><time>2019-11-22T09:32:00Z</time></trkpt>
<trkpt lat="45.332025" lon="-121.710565"><ele>1823</ele><time>2019-11-22T09:32:00Z</time></trkpt>
<trkpt lat="45.332047" lon="-121.71062"><ele>1824</ele><time>2019-11-22T09:32:00Z</time></trkpt>
<trkpt lat="45.332086" lon="-121.710659"><ele>1826</ele><time>2019-11-22T09:32:00Z</time></trkpt>
<trkpt lat="45.332092" lon="-121.710667"><ele>1827</ele><time>2019-11-22T09:32:00Z</time></trkpt>
<trkpt lat="45.332109" lon="-121.710698"><ele>1827</ele><time>2019-11-22T09:32:00Z</time></trkpt>
<trkpt lat="45.332171" lon="-121.710744"><ele>1829</ele><time>2019-11-22T09:32:00Z</time></trkpt>
<trkpt lat="45.332244" lon="-121.710779"><ele>1832</ele><time>2019-11-22T09:33:00Z</time></trkpt>
<trkpt lat="45.332255" lon="-121.710782"><ele>1832</ele><time>2019-11-22T09:33:00Z</time></trkpt>
<trkpt lat="45.332369" lon="-121.71085"><ele>1833</ele><time>2019-11-22T09:33:00Z</time></trkpt>
<trkpt lat="45.33242" lon="-121.710867"><ele>1833</ele><time>2019-11-22T09:33:00Z</time></trkpt>
<trkpt lat="45.33243" lon="-121.710874"><ele>1832</ele><time>2019-11-22T09:33:00Z</time></trkpt>
<trkpt lat="45.332529" lon="-121.710915"><ele>1835</ele><time>2019-11-22T09:33:00Z</time></trkpt>
<trkpt lat="45.332588" lon="-121.710972"><ele>1835</ele><time>2019-11-22T09:33:00Z</time></trkpt>
<trkpt lat="45.332597" lon="-121.71098"><ele>1835</ele><time>2019-11-22T09:33:00Z</time></trkpt>
<trkpt lat="45.33268" lon="-121.711045"><ele>1838</ele><time>2019-11-22T09:33:00Z</time></trkpt>
<trkpt lat="45.332743" lon="-121.711079"><ele>1839</ele><time>2019-11-22T09:34:00Z</time></trkpt>
<trkpt lat="45.332752" lon="-121.711085"><ele>1839</ele><time>2019-11-22T09:34:00Z</time></trkpt>
<trkpt lat="45.332816" lon="-121.711149"><ele>1841</ele><time>2019-11-22T09:34:00Z</time></trkpt>
<trkpt lat="45.33284" lon="-121.711153"><ele>1841</ele><time>2019-11-22T09:34:00Z</time></trkpt>
<trkpt lat="45.332883" lon="-121.711187"><ele>1843</ele><time>2019-11-22T09:34:00Z</time></trkpt>
<trkpt lat="45.332921" lon="-121.711203"><ele>1844</ele><time>2019-11-22T09:34:00Z</time></trkpt>
<trkpt lat="45.33293" lon="-121.711207"><ele>1843</ele><time>2019-11-22T09:34:00Z</time></trkpt>
<trkpt lat="45.332958" lon="-121.711215"><ele>1844</ele><time>2019-11-22T09:34:00Z</time></trkpt>
<trkpt lat="45.333046" lon="-121.711194"><ele>1846</ele><time>2019-11-22T09:34:00Z</time></trkpt>
<trkpt lat="45.333073" lon="-121.7112"><ele>1847</ele><time>2019-11-22T09:35:00Z</time></trkpt>
<trkpt lat="45.333087" lon="-121.711196"><ele>1848</ele><time>2019-11-22T09:35:00Z</time></trkpt>
<trkpt lat="45.333111" lon="-121.71117"><ele>1849</ele><time>2019-11-22T09:35:00Z</time></trkpt>
<trkpt lat="45.333162" lon="-121.711171"><ele>1851</ele><time>2019-11-22T09:35:00Z</time></trkpt>
<trkpt lat="45.333243" lon="-121.711204"><ele>1851</ele><time>2019-11-22T09:35:00Z</time></trkpt>
<trkpt lat="45.333251" lon="-121.711205"><ele>1851</ele><time>2019-11-22T09:35:00Z</time></trkpt>
<trkpt lat="45.33328" lon="-121.711204"><ele>1853</ele><time>2019-11-22T09:35:00Z</time></trkpt>
<trkpt lat="45.333411" lon="-121.711236"><ele>1855</ele><time>2019-11-22T09:35:00Z</time></trkpt>
<trkpt lat="45.33342" lon="-121.711236"><ele>1855</ele><time>2019-11-22T09:35:00Z</time></trkpt>
<trkpt lat="45.33349" lon="-121.711249"><ele>1857</ele><time>2019-11-22T09:35:00Z</time></trkpt>
<trkpt lat="45.333528" lon="-121.711286"><ele>1858</ele><time>2019-11-22T09:36:00Z</time></trkpt>
<trkpt lat="45.333577" lon="-121.711314"><ele>1858</ele><time>2019-11-22T09:36:00Z</time></trkpt>
<trkpt lat="45.333586" lon="-121.711324"><ele>1858</ele><time>2019-11-22T09:36:00Z</time></trkpt>
<trkpt lat="45.333653" lon="-121.711394"><ele>1859</ele><time>2019-11-22T09:36:00Z</time></trkpt>
<trkpt lat="45.333734" lon="-121.711434"><ele>1860</ele><time>2019-11-22T09:36:00Z</time></trkpt>
<trkpt lat="45.333745" lon="-121.711437"><ele>1861</ele><time>2019-11-22T09:36:00Z</time></trkpt>
<trkpt lat="45.333826" lon="-121.711456"><ele>1863</ele><time>2019-11-22T09:36:00Z</time></trkpt>
<trkpt lat="45.333906" lon="-121.711457"><ele>1865</ele><time>2019-11-22T09:36:00Z</time></trkpt>
<trkpt lat="45.333919" lon="-121.711454"><ele>1865</ele><time>2019-11-22T09:36:00Z</time></trkpt>
<trkpt lat="45.33398" lon="-121.711459"><ele>1866</ele><time>2019-11-22T09:36:00Z</time></trkpt>
<trkpt lat="45.334087" lon="-121.711501"><ele>1868</ele><time>2019-11-22T09:37:00Z</time></trkpt>
<trkpt lat="45.334096" lon="-121.711505"><ele>1868</ele><time>2019-11-22T09:37:00Z</time></trkpt>
<trkpt lat="45.334119" lon="-121.711533"><ele>1869</ele><time>2019-11-22T09:37:00Z</time></trkpt>
<trkpt lat="45.334095" lon="-121.711575"><ele>1867</ele><time>2019-11-22T09:37:00Z</time></trkpt>
<trkpt lat="45.33409" lon="-121.711612"><ele>1869</ele><time>2019-11-22T09:37:00Z</time></trkpt>
<trkpt lat="45.334101" lon="-121.71165"><ele>1870</ele><time>2019-11-22T09:37:00Z</time></trkpt>
<trkpt lat="45.334123" lon="-121.711675"><ele>1870</ele><time>2019-11-22T09:37:00Z</time></trkpt>
<trkpt lat="45.334133" lon="-121.71168"><ele>1870</ele><time>2019-11-22T09:37:00Z</time></trkpt>
<trkpt lat="45.334213" lon="-121.711719"><ele>1872</ele><time>2019-11-22T09:37:00Z</time></trkpt>
<trkpt lat="45.334238" lon="-121.711721"><ele>1872</ele><time>2019-11-22T09:37:00Z</time></trkpt>
<trkpt lat="45.334263" lon="-121.711706"><ele>1875</ele><time>2019-11-22T09:37:00Z</time></trkpt>
<trkpt lat="45.334322" lon="-121.711707"><ele>1876</ele><time>2019-11-22T09:37:00Z</time></trkpt>
<trkpt lat="45.334352" lon="-121.711706"><ele>1876</ele><time>2019-11-22T09:37:00Z</time></trkpt>
<trkpt lat="45.334427" lon="-121.711707"><ele>1877</ele><time>2019-11-22T09:38:00Z</time></trkpt>
<trkpt lat="45.334452" lon="-121.711703"><ele>1877</ele><time>2019-11-22T09:38:00Z</time></trkpt>
<trkpt lat="45.334467" lon="-121.711685"><ele>1878</ele><time>2019-11-22T09:38:00Z</time></trkpt>
<trkpt lat="45.334519" lon="-121.711688"><ele>1879</ele><time>2019-11-22T09:38:00Z</time></trkpt>
<trkpt lat="45.334535" lon="-121.711685"><ele>1879</ele><time>2019-11-22T09:38:00Z</time></trkpt>
<trkpt lat="45.334681" lon="-121.711663"><ele>1882</ele><time>2019-11-22T09:38:00Z</time></trkpt>
<trkpt lat="45.334705" lon="-121.711627"><ele>1884</ele><time>2019-11-22T09:38:00Z</time></trkpt>
<trkpt lat="45.334707" lon="-121.711618"><ele>1885</ele><time>2019-11-22T09:38:00Z</time></trkpt>
<trkpt lat="45.334738" lon="-121.711603"><ele>1886</ele><time>2019-11-22T09:38:00Z</time></trkpt>
<trkpt lat="45.334845" lon="-121.711601"><ele>1888</ele><time>2019-11-22T09:38:00Z</time></trkpt>
<trkpt lat="45.334882" lon="-121.71161"><ele>1887</ele><time>2019-11-22T09:38:00Z</time></trkpt>
<trkpt lat="45.334893" lon="-121.71161"><ele>1888</ele><time>2019-11-22T09:38:00Z</time></trkpt>
<trkpt lat="45.335067" lon="-121.711616"><ele>1889</ele><time>2019-11-22T09:39:00Z</time></trkpt>
<trkpt lat="45.335093" lon="-121.711613"><ele>1889</ele><time>2019-11-22T09:39:00Z</time></trkpt>
<trkpt lat="45.335113" lon="-121.711606"><ele>1890</ele><time>2019-11-22T09:39:00Z</time></trkpt>
<trkpt lat="45.335132" lon="-121.711629"><ele>1889</ele><time>2019-11-22T09:39:00Z</time></trkpt>
<trkpt lat="45.335158" lon="-121.711632"><ele>1890</ele><time>2019-11-22T09:39:00Z</time></trkpt>
<trkpt lat="45.335196" lon="-121.711591"><ele>1891</ele><time>2019-11-22T09:39:00Z</time></trkpt>
<trkpt lat="45.33522" lon="-121.711588"><ele>1891</ele><time>2019-11-22T09:39:00Z</time></trkpt>
<trkpt lat="45.335271" lon="-121.711604"><ele>1892</ele><time>2019-11-22T09:39:00Z</time></trkpt>
<trkpt lat="45.335285" lon="-121.711607"><ele>1892</ele><time>2019-11-22T09:39:00Z</time></trkpt>
<trkpt lat="45.335402" lon="-121.711621"><ele>1895</ele><time>2019-11-22T09:39:00Z</time></trkpt>
<trkpt lat="45.335451" lon="-121.711654"><ele>1893</ele><time>2019-11-22T09:40:00Z</time></trkpt>
<trkpt lat="45.335458" lon="-121.711663"><ele>1894</ele><time>2019-11-22T09:40:00Z</time></trkpt>
<trkpt lat="45.335521" lon="-121.711713"><ele>1894</ele><time>2019-11-22T09:40:00Z</time></trkpt>
<trkpt lat="45.335598" lon="-121.711751"><ele>1894</ele><time>2019-11-22T09:40:00Z</time></trkpt>
<trkpt lat="45.335619" lon="-121.71175"><ele>1894</ele><time>2019-11-22T09:40:00Z</time></trkpt>
<trkpt lat="45.335632" lon="-121.711744"><ele>1894</ele><time>2019-11-22T09:40:00Z</time></trkpt>
<trkpt lat="45.335645" lon="-121.711738"><ele>1895</ele><time>2019-11-22T09:40:00Z</time></trkpt>
<trkpt lat="45.335654" lon="-121.711709"><ele>1896</ele><time>2019-11-22T09:40:00Z</time></trkpt>
<trkpt lat="45.335692" lon="-121.711702"><ele>1898</ele><time>2019-11-22T09:40:00Z</time></trkpt>
<trkpt lat="45.335786" lon="-121.711715"><ele>1901</ele><time>2019-11-22T09:40:00Z</time></trkpt>
<trkpt lat="45.335796" lon="-121.711718"><ele>1901</ele><time>2019-11-22T09:40:00Z</time></trkpt>
<trkpt lat="45.335845" lon="-121.711754"><ele>1899</ele><time>2019-11-22T09:40:00Z</time></trkpt>
<trkpt lat="45.335935" lon="-121.711878"><ele>1900</ele><time>2019-11-22T09:41:00Z</time></trkpt>
<trkpt lat="45.33594" lon="-121.711889"><ele>1901</ele><time>2019-11-22T09:41:00Z</time></trkpt>
<trkpt lat="45.33599" lon="-121.712005"><ele>1902</ele><time>2019-11-22T09:41:00Z</time></trkpt>
<trkpt lat="45.336041" lon="-121.712085"><ele>1904</ele><time>2019-11-22T09:41:00Z</time></trkpt>
<trkpt lat="45.336047" lon="-121.712097"><ele>1904</ele><time>2019-11-22T09:41:00Z</time></trkpt>
<trkpt lat="45.336111" lon="-121.712162"><ele>1903</ele><time>2019-11-22T09:41:00Z</time></trkpt>
<trkpt lat="45.336208" lon="-121.712204"><ele>1902</ele><time>2019-11-22T09:41:00Z</time></trkpt>
<trkpt lat="45.336214" lon="-121.712207"><ele>1902</ele><time>2019-11-22T09:41:00Z</time></trkpt>
<trkpt lat="45.336312" lon="-121.712236"><ele>1905</ele><time>2019-11-22T09:41:00Z</time></trkpt>
<trkpt lat="45.336381" lon="-121.712281"><ele>1905</ele><time>2019-11-22T09:41:00Z</time></trkpt>
<trkpt lat="45.336394" lon="-121.712286"><ele>1905</ele><time>2019-11-22T09:41:00Z</time></trkpt>
<trkpt lat="45.33655" lon="-121.712383"><ele>1904</ele><time>2019-11-22T09:42:00Z</time></trkpt>
<trkpt lat="45.336567" lon="-121.712362"><ele>1908</ele><time>2019-11-22T09:42:00Z</time></trkpt>
<trkpt lat="45.336614" lon="-121.712339"><ele>1909</ele><time>2019-11-22T09:42:00Z</time></trkpt>
<trkpt lat="45.336692" lon="-121.712333"><ele>1908</ele><time>2019-11-22T09:42:00Z</time></trkpt>
<trkpt lat="45.336702" lon="-121.712331"><ele>1907</ele><time>2019-11-22T09:42:00Z</time></trkpt>
<trkpt lat="45.336781" lon="-121.712344"><ele>1912</ele><time>2019-11-22T09:42:00Z</time></trkpt>
<trkpt lat="45.336869" lon="-121.712372"><ele>1915</ele><time>2019-11-22T09:42:00Z</time></trkpt>
<trkpt lat="45.336876" lon="-121.712374"><ele>1914</ele><time>2019-11-22T09:42:00Z</time></trkpt>
<trkpt lat="45.336944" lon="-121.712413"><ele>1915</ele><time>2019-11-22T09:43:00Z</time></trkpt>
<trkpt lat="45.336995" lon="-121.712421"><ele>1915</ele><time>2019-11-22T09:43:00Z</time></trkpt>
<trkpt lat="45.337047" lon="-121.712453"><ele>1917</ele><time>2019-11-22T09:43:00Z</time></trkpt>
<trkpt lat="45.337055" lon="-121.712458"><ele>1917</ele><time>2019-11-22T09:43:00Z</time></trkpt>
<trkpt lat="45.337171" lon="-121.712536"><ele>1917</ele><time>2019-11-22T09:43:00Z</time></trkpt>
<trkpt lat="45.337202" lon="-121.712543"><ele>1916</ele><time>2019-11-22T09:43:00Z</time></trkpt>
<trkpt lat="45.337212" lon="-121.712544"><ele>1916</ele><time>2019-11-22T09:43:00Z</time></trkpt>
<trkpt lat="45.33726" lon="-121.71255"><ele>1916</ele><time>2019-11-22T09:43:00Z</time></trkpt>
<trkpt lat="45.337323" lon="-121.712581"><ele>1916</ele><time>2019-11-22T09:43:00Z</time></trkpt>
<trkpt lat="45.33735" lon="-121.712607"><ele>1916</ele><time>2019-11-22T09:43:00Z</time></trkpt>
<trkpt lat="45.337359" lon="-121.712614"><ele>1916</ele><time>2019-11-22T09:43:00Z</time></trkpt>
<trkpt lat="45.337413" lon="-121.712646"><ele>1918</ele><time>2019-11-22T09:43:00Z</time></trkpt>
<trkpt lat="45.337495" lon="-121.71275"><ele>1921</ele><time>2019-11-22T09:44:00Z</time></trkpt>
<trkpt lat="45.337503" lon="-121.712764"><ele>1921</ele><time>2019-11-22T09:44:00Z</time></trkpt>
<trkpt lat="45.337524" lon="-121.712804"><ele>1921</ele><time>2019-11-22T09:44:00Z</time></trkpt>
<trkpt lat="45.337584" lon="-121.712853"><ele>1919</ele><time>2019-11-22T09:44:00Z</time></trkpt>
<trkpt lat="45.337606" lon="-121.712913"><ele>1926</ele><time>2019-11-22T09:44:00Z</time></trkpt>
<trkpt lat="45.337629" lon="-121.712944"><ele>1925</ele><time>2019-11-22T09:44:00Z</time></trkpt>
<trkpt lat="45.337635" lon="-121.712948"><ele>1925</ele><time>2019-11-22T09:44:00Z</time></trkpt>
<trkpt lat="45.337678" lon="-121.712977"><ele>1926</ele><time>2019-11-22T09:44:00Z</time></trkpt>
<trkpt lat="45.337765" lon="-121.713112"><ele>1925</ele><time>2019-11-22T09:45:00Z</time></trkpt>
<trkpt lat="45.337772" lon="-121.713125"><ele>1926</ele><time>2019-11-22T09:45:00Z</time></trkpt>
<trkpt lat="45.337821" lon="-121.7132"><ele>1926</ele><time>2019-11-22T09:45:00Z</time></trkpt>
<trkpt lat="45.337842" lon="-121.713194"><ele>1925</ele><time>2019-11-22T09:45:00Z</time></trkpt>
<trkpt lat="45.337892" lon="-121.713264"><ele>1926</ele><time>2019-11-22T09:45:00Z</time></trkpt>
<trkpt lat="45.337898" lon="-121.713277"><ele>1926</ele><time>2019-11-22T09:45:00Z</time></trkpt>
<trkpt lat="45.337934" lon="-121.713342"><ele>1926</ele><time>2019-11-22T09:45:00Z</time></trkpt>
<trkpt lat="45.33797" lon="-121.713383"><ele>1927</ele><time>2019-11-22T09:45:00Z</time></trkpt>
<trkpt lat="45.338039" lon="-121.71344"><ele>1929</ele><time>2019-11-22T09:45:00Z</time></trkpt>
<trkpt lat="45.338049" lon="-121.713446"><ele>1929</ele><time>2019-11-22T09:45:00Z</time></trkpt>
<trkpt lat="45.338197" lon="-121.713589"><ele>1931</ele><time>2019-11-22T09:46:00Z</time></trkpt>
<trkpt lat="45.338206" lon="-121.713594"><ele>1931</ele><time>2019-11-22T09:46:00Z</time></trkpt>
<trkpt lat="45.338324" lon="-121.713675"><ele>1933</ele><time>2019-11-22T09:46:00Z</time></trkpt>
<trkpt lat="45.33834" lon="-121.713707"><ele>1932</ele><time>2019-11-22T09:46:00Z</time></trkpt>
<trkpt lat="45.338345" lon="-121.713718"><ele>1932</ele><time>2019-11-22T09:46:00Z</time></trkpt>
<trkpt lat="45.338366" lon="-121.713749"><ele>1934</ele><time>2019-11-22T09:46:00Z</time></trkpt>
<trkpt lat="45.338443" lon="-121.713772"><ele>1940</ele><time>2019-11-22T09:46:00Z</time></trkpt>
<trkpt lat="45.338511" lon="-121.713813"><ele>1940</ele><time>2019-11-22T09:47:00Z</time></trkpt>
<trkpt lat="45.338517" lon="-121.713817"><ele>1940</ele><time>2019-11-22T09:47:00Z</time></trkpt>
<trkpt lat="45.338612" lon="-121.713911"><ele>1939</ele><time>2019-11-22T09:47:00Z</time></trkpt>
<trkpt lat="45.338645" lon="-121.713972"><ele>1941</ele><time>2019-11-22T09:47:00Z</time></trkpt>
<trkpt lat="45.338657" lon="-121.71399"><ele>1941</ele><time>2019-11-22T09:47:00Z</time></trkpt>
<trkpt lat="45.338669" lon="-121.714008"><ele>1941</ele><time>2019-11-22T09:47:00Z</time></trkpt>
<trkpt lat="45.338714" lon="-121.714006"><ele>1947</ele><time>2019-11-22T09:47:00Z</time></trkpt>
<trkpt lat="45.338832" lon="-121.714049"><ele>1951</ele><time>2019-11-22T09:47:00Z</time></trkpt>
<trkpt lat="45.338839" lon="-121.714044"><ele>1952</ele><time>2019-11-22T09:47:00Z</time></trkpt>
<trkpt lat="45.338843" lon="-121.71404"><ele>1952</ele><time>2019-11-22T09:47:00Z</time></trkpt>
<trkpt lat="45.338928" lon="-121.713915"><ele>1954</ele><time>2019-11-22T09:48:00Z</time></trkpt>
<trkpt lat="45.338954" lon="-121.713835"><ele>1957</ele><time>2019-11-22T09:48:00Z</time></trkpt>
<trkpt lat="45.338959" lon="-121.713814"><ele>1957</ele><time>2019-11-22T09:48:00Z</time></trkpt>
<trkpt lat="45.338964" lon="-121.713734"><ele>1959</ele><time>2019-11-22T09:48:00Z</time></trkpt>
<trkpt lat="45.338992" lon="-121.713608"><ele>1962</ele><time>2019-11-22T09:48:00Z</time></trkpt>
<trkpt lat="45.338992" lon="-121.713557"><ele>1963</ele><time>2019-11-22T09:48:00Z</time></trkpt>
<trkpt lat="45.33899" lon="-121.713542"><ele>1963</ele><time>2019-11-22T09:48:00Z</time></trkpt>
<trkpt lat="45.338988" lon="-121.713388"><ele>1965</ele><time>2019-11-22T09:48:00Z</time></trkpt>
<trkpt lat="45.338967" lon="-121.713286"><ele>1968</ele><time>2019-11-22T09:49:00Z</time></trkpt>
<trkpt lat="45.338965" lon="-121.713272"><ele>1968</ele><time>2019-11-22T09:49:00Z</time></trkpt>
<trkpt lat="45.338943" lon="-121.713098"><ele>1969</ele><time>2019-11-22T09:49:00Z</time></trkpt>
<trkpt lat="45.338945" lon="-121.713025"><ele>1969</ele><time>2019-11-22T09:49:00Z</time></trkpt>
<trkpt lat="45.33894" lon="-121.713012"><ele>1969</ele><time>2019-11-22T09:49:00Z</time></trkpt>
<trkpt lat="45.338917" lon="-121.712885"><ele>1970</ele><time>2019-11-22T09:49:00Z</time></trkpt>
<trkpt lat="45.338918" lon="-121.71278"><ele>1970</ele><time>2019-11-22T09:49:00Z</time></trkpt>
<trkpt lat="45.338916" lon="-121.71277"><ele>1970</ele><time>2019-11-22T09:49:00Z</time></trkpt>
<trkpt lat="45.338912" lon="-121.712729"><ele>1970</ele><time>2019-11-22T09:49:00Z</time></trkpt>
<trkpt lat="45.338924" lon="-121.712642"><ele>1971</ele><time>2019-11-22T09:49:00Z</time></trkpt>
<trkpt lat="45.338952" lon="-121.712551"><ele>1970</ele><time>2019-11-22T09:49:00Z</time></trkpt>
<trkpt lat="45.338957" lon="-121.71254"><ele>1970</ele><time>2019-11-22T09:49:00Z</time></trkpt>
<trkpt lat="45.339028" lon="-121.712331"><ele>1975</ele><time>2019-11-22T09:50:00Z</time></trkpt>
<trkpt lat="45.33903" lon="-121.712322"><ele>1975</ele><time>2019-11-22T09:50:00Z</time></trkpt>
<trkpt lat="45.339092" lon="-121.712134"><ele>1975</ele><time>2019-11-22T09:50:00Z</time></trkpt>
<trkpt lat="45.339098" lon="-121.712123"><ele>1975</ele><time>2019-11-22T09:50:00Z</time></trkpt>
<trkpt lat="45.339206" lon="-121.711908"><ele>1972</ele><time>2019-11-22T09:50:00Z</time></trkpt>
<trkpt lat="45.33921" lon="-121.711899"><ele>1972</ele><time>2019-11-22T09:50:00Z</time></trkpt>
<trkpt lat="45.339314" lon="-121.711759"><ele>1976</ele><time>2019-11-22T09:51:00Z</time></trkpt>
<trkpt lat="45.339341" lon="-121.711746"><ele>1976</ele><time>2019-11-22T09:51:00Z</time></trkpt>
<trkpt lat="45.339351" lon="-121.711743"><ele>1976</ele><time>2019-11-22T09:51:00Z</time></trkpt>
<trkpt lat="45.339402" lon="-121.711739"><ele>1978</ele><time>2019-11-22T09:51:00Z</time></trkpt>
<trkpt lat="45.339518" lon="-121.711774"><ele>1980</ele><time>2019-11-22T09:51:00Z</time></trkpt>
<trkpt lat="45.339524" lon="-121.711775"><ele>1980</ele><time>2019-11-22T09:51:00Z</time></trkpt>
<trkpt lat="45.339602" lon="-121.711813"><ele>1982</ele><time>2019-11-22T09:51:00Z</time></trkpt>
<trkpt lat="45.339649" lon="-121.711816"><ele>1985</ele><time>2019-11-22T09:51:00Z</time></trkpt>
<trkpt lat="45.339701" lon="-121.711841"><ele>1987</ele><time>2019-11-22T09:52:00Z</time></trkpt>
<trkpt lat="45.339705" lon="-121.711842"><ele>1987</ele><time>2019-11-22T09:52:00Z</time></trkpt>
<trkpt lat="45.339746" lon="-121.711881"><ele>1989</ele><time>2019-11-22T09:52:00Z</time></trkpt>
<trkpt lat="45.339864" lon="-121.711953"><ele>1993</ele><time>2019-11-22T09:52:00Z</time></trkpt>
<trkpt lat="45.339869" lon="-121.711959"><ele>1993</ele><time>2019-11-22T09:52:00Z</time></trkpt>
<trkpt lat="45.339986" lon="-121.712033"><ele>1995</ele><time>2019-11-22T09:52:00Z</time></trkpt>
<trkpt lat="45.340027" lon="-121.712078"><ele>1995</ele><time>2019-11-22T09:52:00Z</time></trkpt>
<trkpt lat="45.340035" lon="-121.712085"><ele>1995</ele><time>2019-11-22T09:52:00Z</time></trkpt>
<trkpt lat="45.340079" lon="-121.712161"><ele>1992</ele><time>2019-11-22T09:53:00Z</time></trkpt>
<trkpt lat="45.340112" lon="-121.712179"><ele>1993</ele><time>2019-11-22T09:53:00Z</time></trkpt>
<trkpt lat="45.34011" lon="-121.712142"><ele>1991</ele><time>2019-11-22T09:54:00Z</time></trkpt>
<trkpt lat="45.340134" lon="-121.712166"><ele>1986</ele><time>2019-11-22T09:55:00Z</time></trkpt>
<trkpt lat="45.340136" lon="-121.712171"><ele>1986</ele><time>2019-11-22T09:55:00Z</time></trkpt>
<trkpt lat="45.340188" lon="-121.712251"><ele>1987</ele><time>2019-11-22T09:55:00Z</time></trkpt>
<trkpt lat="45.340272" lon="-121.712324"><ele>1988</ele><time>2019-11-22T09:55:00Z</time></trkpt>
<trkpt lat="45.340281" lon="-121.712333"><ele>1989</ele><time>2019-11-22T09:55:00Z</time></trkpt>
<trkpt lat="45.340323" lon="-121.71238"><ele>1989</ele><time>2019-11-22T09:56:00Z</time></trkpt>
<trkpt lat="45.340333" lon="-121.712409"><ele>1988</ele><time>2019-11-22T09:56:00Z</time></trkpt>
<trkpt lat="45.340408" lon="-121.71251"><ele>1994</ele><time>2019-11-22T09:56:00Z</time></trkpt>
<trkpt lat="45.340416" lon="-121.712519"><ele>1994</ele><time>2019-11-22T09:56:00Z</time></trkpt>
<trkpt lat="45.340474" lon="-121.712594"><ele>1994</ele><time>2019-11-22T09:57:00Z</time></trkpt>
<trkpt lat="45.340499" lon="-121.712643"><ele>1994</ele><time>2019-11-22T09:57:00Z</time></trkpt>
<trkpt lat="45.340544" lon="-121.712683"><ele>1996</ele><time>2019-11-22T09:57:00Z</time></trkpt>
<trkpt lat="45.340554" lon="-121.712691"><ele>1996</ele><time>2019-11-22T09:57:00Z</time></trkpt>
<trkpt lat="45.340603" lon="-121.712728"><ele>1996</ele><time>2019-11-22T09:57:00Z</time></trkpt>
<trkpt lat="45.34065" lon="-121.712798"><ele>1998</ele><time>2019-11-22T09:57:00Z</time></trkpt>
<trkpt lat="45.34069" lon="-121.712831"><ele>2000</ele><time>2019-11-22T09:57:00Z</time></trkpt>
<trkpt lat="45.340702" lon="-121.712835"><ele>2000</ele><time>2019-11-22T09:57:00Z</time></trkpt>
<trkpt lat="45.340787" lon="-121.712907"><ele>2001</ele><time>2019-11-22T09:58:00Z</time></trkpt>
<trkpt lat="45.340858" lon="-121.712946"><ele>2003</ele><time>2019-11-22T09:58:00Z</time></trkpt>
<trkpt lat="45.340862" lon="-121.712947"><ele>2005</ele><time>2019-11-22T09:58:00Z</time></trkpt>
<trkpt lat="45.340908" lon="-121.712969"><ele>2007</ele><time>2019-11-22T09:58:00Z</time></trkpt>
<trkpt lat="45.340955" lon="-121.713018"><ele>2006</ele><time>2019-11-22T09:58:00Z</time></trkpt>
<trkpt lat="45.341" lon="-121.71304"><ele>2003</ele><time>2019-11-22T09:58:00Z</time></trkpt>
<trkpt lat="45.34101" lon="-121.713043"><ele>2004</ele><time>2019-11-22T09:58:00Z</time></trkpt>
<trkpt lat="45.341033" lon="-121.713048"><ele>2003</ele><time>2019-11-22T09:58:00Z</time></trkpt>
<trkpt lat="45.341113" lon="-121.713116"><ele>2003</ele><time>2019-11-22T09:58:00Z</time></trkpt>
<trkpt lat="45.341164" lon="-121.713137"><ele>2002</ele><time>2019-11-22T09:58:00Z</time></trkpt>
<trkpt lat="45.341172" lon="-121.71314"><ele>2005</ele><time>2019-11-22T09:58:00Z</time></trkpt>
<trkpt lat="45.341198" lon="-121.713168"><ele>2005</ele><time>2019-11-22T09:59:00Z</time></trkpt>
<trkpt lat="45.341242" lon="-121.713194"><ele>2008</ele><time>2019-11-22T09:59:00Z</time></trkpt>
<trkpt lat="45.341307" lon="-121.713305"><ele>2011</ele><time>2019-11-22T09:59:00Z</time></trkpt>
<trkpt lat="45.341313" lon="-121.713315"><ele>2010</ele><time>2019-11-22T09:59:00Z</time></trkpt>
<trkpt lat="45.341408" lon="-121.713426"><ele>2012</ele><time>2019-11-22T09:59:00Z</time></trkpt>
<trkpt lat="45.341458" lon="-121.713466"><ele>2013</ele><time>2019-11-22T09:59:00Z</time></trkpt>
<trkpt lat="45.341466" lon="-121.713469"><ele>2013</ele><time>2019-11-22T09:59:00Z</time></trkpt>
<trkpt lat="45.341475" lon="-121.713473"><ele>2011</ele><time>2019-11-22T09:59:00Z</time></trkpt>
<trkpt lat="45.341531" lon="-121.713414"><ele>2017</ele><time>2019-11-22T10:00:00Z</time></trkpt>
<trkpt lat="45.341555" lon="-121.713408"><ele>2018</ele><time>2019-11-22T10:00:00Z</time></trkpt>
<trkpt lat="45.341578" lon="-121.713358"><ele>2019</ele><time>2019-11-22T10:00:00Z</time></trkpt>
<trkpt lat="45.341603" lon="-121.713337"><ele>2017</ele><time>2019-11-22T10:00:00Z</time></trkpt>
<trkpt lat="45.341605" lon="-121.713329"><ele>2017</ele><time>2019-11-22T10:00:00Z</time></trkpt>
<trkpt lat="45.341634" lon="-121.713231"><ele>2021</ele><time>2019-11-22T10:00:00Z</time></trkpt>
<trkpt lat="45.341652" lon="-121.713109"><ele>2026</ele><time>2019-11-22T10:00:00Z</time></trkpt>
<trkpt lat="45.341655" lon="-121.713098"><ele>2026</ele><time>2019-11-22T10:00:00Z</time></trkpt>
<trkpt lat="45.341664" lon="-121.713054"><ele>2028</ele><time>2019-11-22T10:00:00Z</time></trkpt>
<trkpt lat="45.341717" lon="-121.712949"><ele>2027</ele><time>2019-11-22T10:00:00Z</time></trkpt>
<trkpt lat="45.341729" lon="-121.712876"><ele>2028</ele><time>2019-11-22T10:01:00Z</time></trkpt>
<trkpt lat="45.341732" lon="-121.712865"><ele>2028</ele><time>2019-11-22T10:01:00Z</time></trkpt>
<trkpt lat="45.341736" lon="-121.712783"><ele>2029</ele><time>2019-11-22T10:01:00Z</time></trkpt>
<trkpt lat="45.341757" lon="-121.7127"><ele>2028</ele><time>2019-11-22T10:01:00Z</time></trkpt>
<trkpt lat="45.341751" lon="-121.712622"><ele>2029</ele><time>2019-11-22T10:01:00Z</time></trkpt>
<trkpt lat="45.341752" lon="-121.712612"><ele>2029</ele><time>2019-11-22T10:01:00Z</time></trkpt>
<trkpt lat="45.341753" lon="-121.712555"><ele>2027</ele><time>2019-11-22T10:01:00Z</time></trkpt>
<trkpt lat="45.341797" lon="-121.712402"><ele>2028</ele><time>2019-11-22T10:01:00Z</time></trkpt>
<trkpt lat="45.341804" lon="-121.712394"><ele>2029</ele><time>2019-11-22T10:01:00Z</time></trkpt>
<trkpt lat="45.341845" lon="-121.712342"><ele>2028</ele><time>2019-11-22T10:01:00Z</time></trkpt>
<trkpt lat="45.341854" lon="-121.712309"><ele>2030</ele><time>2019-11-22T10:02:00Z</time></trkpt>
<trkpt lat="45.341875" lon="-121.712296"><ele>2030</ele><time>2019-11-22T10:02:00Z</time></trkpt>
<trkpt lat="45.341901" lon="-121.712296"><ele>2030</ele><time>2019-11-22T10:02:00Z</time></trkpt>
<trkpt lat="45.341921" lon="-121.712277"><ele>2031</ele><time>2019-11-22T10:02:00Z</time></trkpt>
<trkpt lat="45.341946" lon="-121.712308"><ele>2033</ele><time>2019-11-22T10:02:00Z</time></trkpt>
<trkpt lat="45.341955" lon="-121.712314"><ele>2032</ele><time>2019-11-22T10:02:00Z</time></trkpt>
<trkpt lat="45.342035" lon="-121.712342"><ele>2030</ele><time>2019-11-22T10:02:00Z</time></trkpt>
<trkpt lat="45.342057" lon="-121.712362"><ele>2030</ele><time>2019-11-22T10:02:00Z</time></trkpt>
<trkpt lat="45.342103" lon="-121.712373"><ele>2032</ele><time>2019-11-22T10:02:00Z</time></trkpt>
<trkpt lat="45.342129" lon="-121.712394"><ele>2032</ele><time>2019-11-22T10:02:00Z</time></trkpt>
<trkpt lat="45.342137" lon="-121.712397"><ele>2033</ele><time>2019-11-22T10:02:00Z</time></trkpt>
<trkpt lat="45.342193" lon="-121.712434"><ele>2035</ele><time>2019-11-22T10:02:00Z</time></trkpt>
<trkpt lat="45.342314" lon="-121.712459"><ele>2044</ele><time>2019-11-22T10:03:00Z</time></trkpt>
<trkpt lat="45.342317" lon="-121.712461"><ele>2044</ele><time>2019-11-22T10:03:00Z</time></trkpt>
<trkpt lat="45.342336" lon="-121.712504"><ele>2044</ele><time>2019-11-22T10:03:00Z</time></trkpt>
<trkpt lat="45.342424" lon="-121.712555"><ele>2042</ele><time>2019-11-22T10:03:00Z</time></trkpt>
<trkpt lat="45.342445" lon="-121.71259"><ele>2041</ele><time>2019-11-22T10:03:00Z</time></trkpt>
<trkpt lat="45.342451" lon="-121.7126"><ele>2041</ele><time>2019-11-22T10:03:00Z</time></trkpt>
<trkpt lat="45.342584" lon="-121.712743"><ele>2045</ele><time>2019-11-22T10:04:00Z</time></trkpt>
<trkpt lat="45.34259" lon="-121.71275"><ele>2045</ele><time>2019-11-22T10:04:00Z</time></trkpt>
<trkpt lat="45.342632" lon="-121.7128"><ele>2046</ele><time>2019-11-22T10:04:00Z</time></trkpt>
<trkpt lat="45.342739" lon="-121.712879"><ele>2049</ele><time>2019-11-22T10:04:00Z</time></trkpt>
<trkpt lat="45.342744" lon="-121.712888"><ele>2050</ele><time>2019-11-22T10:04:00Z</time></trkpt>
<trkpt lat="45.342802" lon="-121.712962"><ele>2050</ele><time>2019-11-22T10:04:00Z</time></trkpt>
<trkpt lat="45.342901" lon="-121.713024"><ele>2050</ele><time>2019-11-22T10:04:00Z</time></trkpt>
<trkpt lat="45.34291" lon="-121.713024"><ele>2050</ele><time>2019-11-22T10:04:00Z</time></trkpt>
<trkpt lat="45.342981" lon="-121.713008"><ele>2051</ele><time>2019-11-22T10:05:00Z</time></trkpt>
<trkpt lat="45.342999" lon="-121.712983"><ele>2053</ele><time>2019-11-22T10:05:00Z</time></trkpt>
<trkpt lat="45.343012" lon="-121.712914"><ele>2055</ele><time>2019-11-22T10:05:00Z</time></trkpt>
<trkpt lat="45.343009" lon="-121.712871"><ele>2056</ele><time>2019-11-22T10:05:00Z</time></trkpt>
<trkpt lat="45.343007" lon="-121.712855"><ele>2056</ele><time>2019-11-22T10:05:00Z</time></trkpt>
<trkpt lat="45.343007" lon="-121.712778"><ele>2059</ele><time>2019-11-22T10:05:00Z</time></trkpt>
<trkpt lat="45.343019" lon="-121.712711"><ele>2058</ele><time>2019-11-22T10:05:00Z</time></trkpt>
<trkpt lat="45.343015" lon="-121.712613"><ele>2060</ele><time>2019-11-22T10:05:00Z</time></trkpt>
<trkpt lat="45.343017" lon="-121.712605"><ele>2058</ele><time>2019-11-22T10:05:00Z</time></trkpt>
<trkpt lat="45.343053" lon="-121.712357"><ele>2062</ele><time>2019-11-22T10:06:00Z</time></trkpt>
<trkpt lat="45.343057" lon="-121.712349"><ele>2061</ele><time>2019-11-22T10:06:00Z</time></trkpt>
<trkpt lat="45.343079" lon="-121.712311"><ele>2062</ele><time>2019-11-22T10:06:00Z</time></trkpt>
<trkpt lat="45.343092" lon="-121.712261"><ele>2063</ele><time>2019-11-22T10:06:00Z</time></trkpt>
<trkpt lat="45.343089" lon="-121.712165"><ele>2068</ele><time>2019-11-22T10:06:00Z</time></trkpt>
<trkpt lat="45.343101" lon="-121.712128"><ele>2068</ele><time>2019-11-22T10:06:00Z</time></trkpt>
<trkpt lat="45.343105" lon="-121.712119"><ele>2068</ele><time>2019-11-22T10:06:00Z</time></trkpt>
<trkpt lat="45.343128" lon="-121.712083"><ele>2070</ele><time>2019-11-22T10:06:00Z</time></trkpt>
<trkpt lat="45.343224" lon="-121.712052"><ele>2068</ele><time>2019-11-22T10:06:00Z</time></trkpt>
<trkpt lat="45.343273" lon="-121.71201"><ele>2068</ele><time>2019-11-22T10:07:00Z</time></trkpt>
<trkpt lat="45.343277" lon="-121.712002"><ele>2067</ele><time>2019-11-22T10:07:00Z</time></trkpt>
<trkpt lat="45.343332" lon="-121.711793"><ele>2070</ele><time>2019-11-22T10:07:00Z</time></trkpt>
<trkpt lat="45.343334" lon="-121.711783"><ele>2071</ele><time>2019-11-22T10:07:00Z</time></trkpt>
<trkpt lat="45.34334" lon="-121.711707"><ele>2073</ele><time>2019-11-22T10:07:00Z</time></trkpt>
<trkpt lat="45.343329" lon="-121.711649"><ele>2073</ele><time>2019-11-22T10:07:00Z</time></trkpt>
<trkpt lat="45.343353" lon="-121.711553"><ele>2073</ele><time>2019-11-22T10:07:00Z</time></trkpt>
<trkpt lat="45.343355" lon="-121.711544"><ele>2073</ele><time>2019-11-22T10:07:00Z</time></trkpt>
<trkpt lat="45.343369" lon="-121.711506"><ele>2075</ele><time>2019-11-22T10:07:00Z</time></trkpt>
<trkpt lat="45.343404" lon="-121.71147"><ele>2076</ele><time>2019-11-22T10:07:00Z</time></trkpt>
<trkpt lat="45.343443" lon="-121.711437"><ele>2077</ele><time>2019-11-22T10:08:00Z</time></trkpt>
<trkpt lat="45.343497" lon="-121.711414"><ele>2078</ele><time>2019-11-22T10:08:00Z</time></trkpt>
<trkpt lat="45.343503" lon="-121.711414"><ele>2077</ele><time>2019-11-22T10:08:00Z</time></trkpt>
<trkpt lat="45.343562" lon="-121.711458"><ele>2076</ele><time>2019-11-22T10:08:00Z</time></trkpt>
<trkpt lat="45.343603" lon="-121.711474"><ele>2074</ele><time>2019-11-22T10:08:00Z</time></trkpt>
<trkpt lat="45.34365" lon="-121.711513"><ele>2075</ele><time>2019-11-22T10:08:00Z</time></trkpt>
<trkpt lat="45.343655" lon="-121.711519"><ele>2074</ele><time>2019-11-22T10:08:00Z</time></trkpt>
<trkpt lat="45.343676" lon="-121.711539"><ele>2075</ele><time>2019-11-22T10:08:00Z</time></trkpt>
<trkpt lat="45.343766" lon="-121.711711"><ele>2078</ele><time>2019-11-22T10:09:00Z</time></trkpt>
<trkpt lat="45.343771" lon="-121.711717"><ele>2078</ele><time>2019-11-22T10:09:00Z</time></trkpt>
<trkpt lat="45.34386" lon="-121.711846"><ele>2082</ele><time>2019-11-22T10:09:00Z</time></trkpt>
<trkpt lat="45.343885" lon="-121.711912"><ele>2081</ele><time>2019-11-22T10:09:00Z</time></trkpt>
<trkpt lat="45.343889" lon="-121.711917"><ele>2082</ele><time>2019-11-22T10:09:00Z</time></trkpt>
<trkpt lat="45.343903" lon="-121.711952"><ele>2086</ele><time>2019-11-22T10:09:00Z</time></trkpt>
<trkpt lat="45.344012" lon="-121.712113"><ele>2089</ele><time>2019-11-22T10:10:00Z</time></trkpt>
<trkpt lat="45.344017" lon="-121.71212"><ele>2089</ele><time>2019-11-22T10:10:00Z</time></trkpt>
<trkpt lat="45.344075" lon="-121.712204"><ele>2091</ele><time>2019-11-22T10:10:00Z</time></trkpt>
<trkpt lat="45.344098" lon="-121.712223"><ele>2093</ele><time>2019-11-22T10:10:00Z</time></trkpt>
<trkpt lat="45.344121" lon="-121.71222"><ele>2095</ele><time>2019-11-22T10:10:00Z</time></trkpt>
<trkpt lat="45.344146" lon="-121.712232"><ele>2095</ele><time>2019-11-22T10:10:00Z</time></trkpt>
<trkpt lat="45.344168" lon="-121.712262"><ele>2095</ele><time>2019-11-22T10:10:00Z</time></trkpt>
<trkpt lat="45.344172" lon="-121.712266"><ele>2095</ele><time>2019-11-22T10:10:00Z</time></trkpt>
<trkpt lat="45.344226" lon="-121.7123"><ele>2100</ele><time>2019-11-22T10:10:00Z</time></trkpt>
<trkpt lat="45.344294" lon="-121.7123"><ele>2101</ele><time>2019-11-22T10:11:00Z</time></trkpt>
<trkpt lat="45.344344" lon="-121.712325"><ele>2100</ele><time>2019-11-22T10:11:00Z</time></trkpt>
<trkpt lat="45.344352" lon="-121.712331"><ele>2101</ele><time>2019-11-22T10:11:00Z</time></trkpt>
<trkpt lat="45.344379" lon="-121.712343"><ele>2100</ele><time>2019-11-22T10:11:00Z</time></trkpt>
<trkpt lat="45.344429" lon="-121.712309"><ele>2103</ele><time>2019-11-22T10:11:00Z</time></trkpt>
<trkpt lat="45.344462" lon="-121.712257"><ele>2102</ele><time>2019-11-22T10:11:00Z</time></trkpt>
<trkpt lat="45.344453" lon="-121.712214"><ele>2103</ele><time>2019-11-22T10:11:00Z</time></trkpt>
<trkpt lat="45.34445" lon="-121.712204"><ele>2103</ele><time>2019-11-22T10:11:00Z</time></trkpt>
<trkpt lat="45.344438" lon="-121.712137"><ele>2104</ele><time>2019-11-22T10:11:00Z</time></trkpt>
<trkpt lat="45.34446" lon="-121.711968"><ele>2106</ele><time>2019-11-22T10:11:00Z</time></trkpt>
<trkpt lat="45.344462" lon="-121.71196"><ele>2106</ele><time>2019-11-22T10:11:00Z</time></trkpt>
<trkpt lat="45.344495" lon="-121.711712"><ele>2110</ele><time>2019-11-22T10:12:00Z</time></trkpt>
<trkpt lat="45.344497" lon="-121.711704"><ele>2110</ele><time>2019-11-22T10:12:00Z</time></trkpt>
<trkpt lat="45.34454" lon="-121.711581"><ele>2111</ele><time>2019-11-22T10:12:00Z</time></trkpt>
<trkpt lat="45.344589" lon="-121.71149"><ele>2113</ele><time>2019-11-22T10:12:00Z</time></trkpt>
<trkpt lat="45.344595" lon="-121.711481"><ele>2113</ele><time>2019-11-22T10:12:00Z</time></trkpt>
<trkpt lat="45.344654" lon="-121.711415"><ele>2109</ele><time>2019-11-22T10:13:00Z</time></trkpt>
<trkpt lat="45.34468" lon="-121.71135"><ele>2109</ele><time>2019-11-22T10:13:00Z</time></trkpt>
<trkpt lat="45.344705" lon="-121.711329"><ele>2108</ele><time>2019-11-22T10:13:00Z</time></trkpt>
<trkpt lat="45.344713" lon="-121.711321"><ele>2106</ele><time>2019-11-22T10:13:00Z</time></trkpt>
<trkpt lat="45.344747" lon="-121.711303"><ele>2105</ele><time>2019-11-22T10:13:00Z</time></trkpt>
<trkpt lat="45.344787" lon="-121.711309"><ele>2105</ele><time>2019-11-22T10:13:00Z</time></trkpt>
<trkpt lat="45.344835" lon="-121.711299"><ele>2104</ele><time>2019-11-22T10:13:00Z</time></trkpt>
<trkpt lat="45.344881" lon="-121.711312"><ele>2101</ele><time>2019-11-22T10:13:00Z</time></trkpt>
<trkpt lat="45.344889" lon="-121.711318"><ele>2100</ele><time>2019-11-22T10:13:00Z</time></trkpt>
<trkpt lat="45.34494" lon="-121.711345"><ele>2098</ele><time>2019-11-22T10:13:00Z</time></trkpt>
<trkpt lat="45.34496" lon="-121.711332"><ele>2102</ele><time>2019-11-22T10:13:00Z</time></trkpt>
<trkpt lat="45.344975" lon="-121.711311"><ele>2103</ele><time>2019-11-22T10:13:00Z</time></trkpt>
<trkpt lat="45.345" lon="-121.711215"><ele>2108</ele><time>2019-11-22T10:14:00Z</time></trkpt>
<trkpt lat="45.345003" lon="-121.711204"><ele>2109</ele><time>2019-11-22T10:14:00Z</time></trkpt>
<trkpt lat="45.345066" lon="-121.711074"><ele>2110</ele><time>2019-11-22T10:14:00Z</time></trkpt>
<trkpt lat="45.34508" lon="-121.711056"><ele>2111</ele><time>2019-11-22T10:14:00Z</time></trkpt>
<trkpt lat="45.345113" lon="-121.711046"><ele>2111</ele><time>2019-11-22T10:14:00Z</time></trkpt>
<trkpt lat="45.34512" lon="-121.711043"><ele>2111</ele><time>2019-11-22T10:14:00Z</time></trkpt>
<trkpt lat="45.34517" lon="-121.710992"><ele>2111</ele><time>2019-11-22T10:14:00Z</time></trkpt>
<trkpt lat="45.345193" lon="-121.710947"><ele>2112</ele><time>2019-11-22T10:14:00Z</time></trkpt>
<trkpt lat="45.345207" lon="-121.710861"><ele>2117</ele><time>2019-11-22T10:14:00Z</time></trkpt>
<trkpt lat="45.345211" lon="-121.71084"><ele>2117</ele><time>2019-11-22T10:14:00Z</time></trkpt>
<trkpt lat="45.345255" lon="-121.710686"><ele>2117</ele><time>2019-11-22T10:14:00Z</time></trkpt>
<trkpt lat="45.345289" lon="-121.710627"><ele>2120</ele><time>2019-11-22T10:14:00Z</time></trkpt>
<trkpt lat="45.345295" lon="-121.710615"><ele>2119</ele><time>2019-11-22T10:15:00Z</time></trkpt>
<trkpt lat="45.345323" lon="-121.710544"><ele>2118</ele><time>2019-11-22T10:15:00Z</time></trkpt>
<trkpt lat="45.345365" lon="-121.710505"><ele>2120</ele><time>2019-11-22T10:15:00Z</time></trkpt>
<trkpt lat="45.345363" lon="-121.710424"><ele>2120</ele><time>2019-11-22T10:15:00Z</time></trkpt>
<trkpt lat="45.345363" lon="-121.710408"><ele>2120</ele><time>2019-11-22T10:15:00Z</time></trkpt>
<trkpt lat="45.345398" lon="-121.710254"><ele>2120</ele><time>2019-11-22T10:15:00Z</time></trkpt>
<trkpt lat="45.345447" lon="-121.71017"><ele>2121</ele><time>2019-11-22T10:15:00Z</time></trkpt>
<trkpt lat="45.345453" lon="-121.710154"><ele>2122</ele><time>2019-11-22T10:15:00Z</time></trkpt>
<trkpt lat="45.345475" lon="-121.710133"><ele>2121</ele><time>2019-11-22T10:15:00Z</time></trkpt>
<trkpt lat="45.345535" lon="-121.710148"><ele>2119</ele><time>2019-11-22T10:15:00Z</time></trkpt>
<trkpt lat="45.345556" lon="-121.710132"><ele>2120</ele><time>2019-11-22T10:16:00Z</time></trkpt>
<trkpt lat="45.345587" lon="-121.710059"><ele>2121</ele><time>2019-11-22T10:16:00Z</time></trkpt>
<trkpt lat="45.34559" lon="-121.710049"><ele>2121</ele><time>2019-11-22T10:16:00Z</time></trkpt>
<trkpt lat="45.345618" lon="-121.709977"><ele>2122</ele><time>2019-11-22T10:16:00Z</time></trkpt>
<trkpt lat="45.345638" lon="-121.709957"><ele>2123</ele><time>2019-11-22T10:16:00Z</time></trkpt>
<trkpt lat="45.345663" lon="-121.709961"><ele>2121</ele><time>2019-11-22T10:16:00Z</time></trkpt>
<trkpt lat="45.345683" lon="-121.709953"><ele>2121</ele><time>2019-11-22T10:16:00Z</time></trkpt>
<trkpt lat="45.345709" lon="-121.709896"><ele>2123</ele><time>2019-11-22T10:16:00Z</time></trkpt>
<trkpt lat="45.345714" lon="-121.709878"><ele>2123</ele><time>2019-11-22T10:16:00Z</time></trkpt>
<trkpt lat="45.345742" lon="-121.709807"><ele>2119</ele><time>2019-11-22T10:16:00Z</time></trkpt>
<trkpt lat="45.345773" lon="-121.709765"><ele>2119</ele><time>2019-11-22T10:16:00Z</time></trkpt>
<trkpt lat="45.345796" lon="-121.709707"><ele>2121</ele><time>2019-11-22T10:16:00Z</time></trkpt>
<trkpt lat="45.345819" lon="-121.709683"><ele>2122</ele><time>2019-11-22T10:16:00Z</time></trkpt>
<trkpt lat="45.345822" lon="-121.709676"><ele>2123</ele><time>2019-11-22T10:16:00Z</time></trkpt>
<trkpt lat="45.345834" lon="-121.709638"><ele>2125</ele><time>2019-11-22T10:17:00Z</time></trkpt>
<trkpt lat="45.345859" lon="-121.709626"><ele>2127</ele><time>2019-11-22T10:17:00Z</time></trkpt>
<trkpt lat="45.345907" lon="-121.709553"><ele>2130</ele><time>2019-11-22T10:17:00Z</time></trkpt>
<trkpt lat="45.345963" lon="-121.709546"><ele>2128</ele><time>2019-11-22T10:17:00Z</time></trkpt>
<trkpt lat="45.34597" lon="-121.709545"><ele>2128</ele><time>2019-11-22T10:17:00Z</time></trkpt>
<trkpt lat="45.34602" lon="-121.709538"><ele>2128</ele><time>2019-11-22T10:17:00Z</time></trkpt>
<trkpt lat="45.34604" lon="-121.709517"><ele>2130</ele><time>2019-11-22T10:17:00Z</time></trkpt>
<trkpt lat="45.34605" lon="-121.709464"><ele>2133</ele><time>2019-11-22T10:17:00Z</time></trkpt>
<trkpt lat="45.346093" lon="-121.709409"><ele>2133</ele><time>2019-11-22T10:17:00Z</time></trkpt>
<trkpt lat="45.346097" lon="-121.709405"><ele>2133</ele><time>2019-11-22T10:18:00Z</time></trkpt>
<trkpt lat="45.346123" lon="-121.709384"><ele>2132</ele><time>2019-11-22T10:18:00Z</time></trkpt>
<trkpt lat="45.346166" lon="-121.709371"><ele>2133</ele><time>2019-11-22T10:18:00Z</time></trkpt>
<trkpt lat="45.346188" lon="-121.709381"><ele>2134</ele><time>2019-11-22T10:18:00Z</time></trkpt>
<trkpt lat="45.346221" lon="-121.709325"><ele>2135</ele><time>2019-11-22T10:18:00Z</time></trkpt>
<trkpt lat="45.346253" lon="-121.709318"><ele>2137</ele><time>2019-11-22T10:18:00Z</time></trkpt>
<trkpt lat="45.346258" lon="-121.709318"><ele>2136</ele><time>2019-11-22T10:18:00Z</time></trkpt>
<trkpt lat="45.34631" lon="-121.709339"><ele>2137</ele><time>2019-11-22T10:18:00Z</time></trkpt>
<trkpt lat="45.346434" lon="-121.70934"><ele>2140</ele><time>2019-11-22T10:18:00Z</time></trkpt>
<trkpt lat="45.346441" lon="-121.709341"><ele>2141</ele><time>2019-11-22T10:18:00Z</time></trkpt>
<trkpt lat="45.346474" lon="-121.709335"><ele>2142</ele><time>2019-11-22T10:19:00Z</time></trkpt>
<trkpt lat="45.346502" lon="-121.70928"><ele>2143</ele><time>2019-11-22T10:19:00Z</time></trkpt>
<trkpt lat="45.346527" lon="-121.709267"><ele>2143</ele><time>2019-11-22T10:19:00Z</time></trkpt>
<trkpt lat="45.346553" lon="-121.709268"><ele>2144</ele><time>2019-11-22T10:19:00Z</time></trkpt>
<trkpt lat="45.346599" lon="-121.709233"><ele>2146</ele><time>2019-11-22T10:19:00Z</time></trkpt>
<trkpt lat="45.346606" lon="-121.709233"><ele>2146</ele><time>2019-11-22T10:19:00Z</time></trkpt>
<trkpt lat="45.346701" lon="-121.709212"><ele>2151</ele><time>2019-11-22T10:19:00Z</time></trkpt>
<trkpt lat="45.346748" lon="-121.709225"><ele>2151</ele><time>2019-11-22T10:19:00Z</time></trkpt>
<trkpt lat="45.346782" lon="-121.709222"><ele>2152</ele><time>2019-11-22T10:20:00Z</time></trkpt>
<trkpt lat="45.346788" lon="-121.709221"><ele>2152</ele><time>2019-11-22T10:20:00Z</time></trkpt>
<trkpt lat="45.346816" lon="-121.709221"><ele>2152</ele><time>2019-11-22T10:20:00Z</time></trkpt>
<trkpt lat="45.346874" lon="-121.709172"><ele>2153</ele><time>2019-11-22T10:20:00Z</time></trkpt>
<trkpt lat="45.346898" lon="-121.709166"><ele>2154</ele><time>2019-11-22T10:20:00Z</time></trkpt>
<trkpt lat="45.346957" lon="-121.709174"><ele>2153</ele><time>2019-11-22T10:20:00Z</time></trkpt>
<trkpt lat="45.346963" lon="-121.709172"><ele>2154</ele><time>2019-11-22T10:20:00Z</time></trkpt>
<trkpt lat="45.346989" lon="-121.70917"><ele>2154</ele><time>2019-11-22T10:20:00Z</time></trkpt>
<trkpt lat="45.347028" lon="-121.709199"><ele>2153</ele><time>2019-11-22T10:20:00Z</time></trkpt>
<trkpt lat="45.347095" lon="-121.709154"><ele>2156</ele><time>2019-11-22T10:21:00Z</time></trkpt>
<trkpt lat="45.347117" lon="-121.709125"><ele>2158</ele><time>2019-11-22T10:21:00Z</time></trkpt>
<trkpt lat="45.347121" lon="-121.709122"><ele>2159</ele><time>2019-11-22T10:21:00Z</time></trkpt>
<trkpt lat="45.347166" lon="-121.709144"><ele>2159</ele><time>2019-11-22T10:21:00Z</time></trkpt>
<trkpt lat="45.347229" lon="-121.709115"><ele>2163</ele><time>2019-11-22T10:21:00Z</time></trkpt>
<trkpt lat="45.347283" lon="-121.709143"><ele>2166</ele><time>2019-11-22T10:21:00Z</time></trkpt>
<trkpt lat="45.347288" lon="-121.70915"><ele>2166</ele><time>2019-11-22T10:21:00Z</time></trkpt>
<trkpt lat="45.347355" lon="-121.709175"><ele>2168</ele><time>2019-11-22T10:22:00Z</time></trkpt>
<trkpt lat="45.347458" lon="-121.709176"><ele>2169</ele><time>2019-11-22T10:22:00Z</time></trkpt>
<trkpt lat="45.347465" lon="-121.709177"><ele>2169</ele><time>2019-11-22T10:22:00Z</time></trkpt>
<trkpt lat="45.347572" lon="-121.70915"><ele>2175</ele><time>2019-11-22T10:22:00Z</time></trkpt>
<trkpt lat="45.347622" lon="-121.709159"><ele>2174</ele><time>2019-11-22T10:23:00Z</time></trkpt>
<trkpt lat="45.347642" lon="-121.709189"><ele>2174</ele><time>2019-11-22T10:23:00Z</time></trkpt>
<trkpt lat="45.347648" lon="-121.709193"><ele>2174</ele><time>2019-11-22T10:23:00Z</time></trkpt>
<trkpt lat="45.347686" lon="-121.709195"><ele>2178</ele><time>2019-11-22T10:23:00Z</time></trkpt>
<trkpt lat="45.347761" lon="-121.709162"><ele>2182</ele><time>2019-11-22T10:23:00Z</time></trkpt>
<trkpt lat="45.347783" lon="-121.709174"><ele>2182</ele><time>2019-11-22T10:23:00Z</time></trkpt>
<trkpt lat="45.347807" lon="-121.709172"><ele>2186</ele><time>2019-11-22T10:23:00Z</time></trkpt>
<trkpt lat="45.347831" lon="-121.70919"><ele>2186</ele><time>2019-11-22T10:23:00Z</time></trkpt>
<trkpt lat="45.347916" lon="-121.709208"><ele>2189</ele><time>2019-11-22T10:24:00Z</time></trkpt>
<trkpt lat="45.347951" lon="-121.70924"><ele>2188</ele><time>2019-11-22T10:24:00Z</time></trkpt>
<trkpt lat="45.347988" lon="-121.709292"><ele>2189</ele><time>2019-11-22T10:24:00Z</time></trkpt>
<trkpt lat="45.347994" lon="-121.709296"><ele>2189</ele><time>2019-11-22T10:24:00Z</time></trkpt>
<trkpt lat="45.348087" lon="-121.709356"><ele>2192</ele><time>2019-11-22T10:24:00Z</time></trkpt>
<trkpt lat="45.348134" lon="-121.709347"><ele>2192</ele><time>2019-11-22T10:24:00Z</time></trkpt>
<trkpt lat="45.348165" lon="-121.709358"><ele>2191</ele><time>2019-11-22T10:25:00Z</time></trkpt>
<trkpt lat="45.34817" lon="-121.709359"><ele>2192</ele><time>2019-11-22T10:25:00Z</time></trkpt>
<trkpt lat="45.3482" lon="-121.709356"><ele>2193</ele><time>2019-11-22T10:25:00Z</time></trkpt>
<trkpt lat="45.348245" lon="-121.709368"><ele>2195</ele><time>2019-11-22T10:25:00Z</time></trkpt>
<trkpt lat="45.3483" lon="-121.709427"><ele>2194</ele><time>2019-11-22T10:25:00Z</time></trkpt>
<trkpt lat="45.348323" lon="-121.709402"><ele>2198</ele><time>2019-11-22T10:25:00Z</time></trkpt>
<trkpt lat="45.348327" lon="-121.709401"><ele>2197</ele><time>2019-11-22T10:25:00Z</time></trkpt>
<trkpt lat="45.348368" lon="-121.709435"><ele>2198</ele><time>2019-11-22T10:25:00Z</time></trkpt>
<trkpt lat="45.348389" lon="-121.709417"><ele>2200</ele><time>2019-11-22T10:25:00Z</time></trkpt>
<trkpt lat="45.348403" lon="-121.709386"><ele>2201</ele><time>2019-11-22T10:25:00Z</time></trkpt>
<trkpt lat="45.348428" lon="-121.709374"><ele>2201</ele><time>2019-11-22T10:25:00Z</time></trkpt>
<trkpt lat="45.348482" lon="-121.709404"><ele>2199</ele><time>2019-11-22T10:26:00Z</time></trkpt>
<trkpt lat="45.34849" lon="-121.709406"><ele>2200</ele><time>2019-11-22T10:26:00Z</time></trkpt>
<trkpt lat="45.348547" lon="-121.709438"><ele>2203</ele><time>2019-11-22T10:26:00Z</time></trkpt>
<trkpt lat="45.348637" lon="-121.709412"><ele>2204</ele><time>2019-11-22T10:26:00Z</time></trkpt>
<trkpt lat="45.348663" lon="-121.709396"><ele>2205</ele><time>2019-11-22T10:26:00Z</time></trkpt>
<trkpt lat="45.348667" lon="-121.709395"><ele>2204</ele><time>2019-11-22T10:26:00Z</time></trkpt>
<trkpt lat="45.348743" lon="-121.709392"><ele>2208</ele><time>2019-11-22T10:26:00Z</time></trkpt>
<trkpt lat="45.348811" lon="-121.709423"><ele>2207</ele><time>2019-11-22T10:27:00Z</time></trkpt>
<trkpt lat="45.348837" lon="-121.709405"><ele>2208</ele><time>2019-11-22T10:27:00Z</time></trkpt>
<trkpt lat="45.348844" lon="-121.709401"><ele>2208</ele><time>2019-11-22T10:27:00Z</time></trkpt>
<trkpt lat="45.34884" lon="-121.709368"><ele>2214</ele><time>2019-11-22T10:29:00Z</time></trkpt>
<trkpt lat="45.34886" lon="-121.709354"><ele>2214</ele><time>2019-11-22T10:32:00Z</time></trkpt>
<trkpt lat="45.348881" lon="-121.709373"><ele>2215</ele><time>2019-11-22T10:32:00Z</time></trkpt>
<trkpt lat="45.34894" lon="-121.709337"><ele>2216</ele><time>2019-11-22T10:32:00Z</time></trkpt>
<trkpt lat="45.34897" lon="-121.709331"><ele>2217</ele><time>2019-11-22T10:32:00Z</time></trkpt>
<trkpt lat="45.348975" lon="-121.709328"><ele>2217</ele><time>2019-11-22T10:32:00Z</time></trkpt>
<trkpt lat="45.349002" lon="-121.709313"><ele>2218</ele><time>2019-11-22T10:32:00Z</time></trkpt>
<trkpt lat="45.349059" lon="-121.709241"><ele>2221</ele><time>2019-11-22T10:32:00Z</time></trkpt>
<trkpt lat="45.349081" lon="-121.70924"><ele>2223</ele><time>2019-11-22T10:32:00Z</time></trkpt>
<trkpt lat="45.349125" lon="-121.709202"><ele>2224</ele><time>2019-11-22T10:32:00Z</time></trkpt>
<trkpt lat="45.34913" lon="-121.709202"><ele>2224</ele><time>2019-11-22T10:32:00Z</time></trkpt>
<trkpt lat="45.349162" lon="-121.709205"><ele>2225</ele><time>2019-11-22T10:32:00Z</time></trkpt>
<trkpt lat="45.34921" lon="-121.709187"><ele>2227</ele><time>2019-11-22T10:33:00Z</time></trkpt>
<trkpt lat="45.349235" lon="-121.709188"><ele>2229</ele><time>2019-11-22T10:33:00Z</time></trkpt>
<trkpt lat="45.349298" lon="-121.709119"><ele>2232</ele><time>2019-11-22T10:33:00Z</time></trkpt>
<trkpt lat="45.349354" lon="-121.709145"><ele>2232</ele><time>2019-11-22T10:33:00Z</time></trkpt>
<trkpt lat="45.349404" lon="-121.709147"><ele>2234</ele><time>2019-11-22T10:34:00Z</time></trkpt>
<trkpt lat="45.349427" lon="-121.70914"><ele>2234</ele><time>2019-11-22T10:34:00Z</time></trkpt>
<trkpt lat="45.34944" lon="-121.709114"><ele>2236</ele><time>2019-11-22T10:34:00Z</time></trkpt>
<trkpt lat="45.349471" lon="-121.709114"><ele>2236</ele><time>2019-11-22T10:34:00Z</time></trkpt>
<trkpt lat="45.349476" lon="-121.709112"><ele>2236</ele><time>2019-11-22T10:34:00Z</time></trkpt>
<trkpt lat="45.349504" lon="-121.709115"><ele>2237</ele><time>2019-11-22T10:34:00Z</time></trkpt>
<trkpt lat="45.349567" lon="-121.709056"><ele>2238</ele><time>2019-11-22T10:34:00Z</time></trkpt>
<trkpt lat="45.349588" lon="-121.709047"><ele>2238</ele><time>2019-11-22T10:34:00Z</time></trkpt>
<trkpt lat="45.349613" lon="-121.709061"><ele>2238</ele><time>2019-11-22T10:35:00Z</time></trkpt>
<trkpt lat="45.34964" lon="-121.709058"><ele>2240</ele><time>2019-11-22T10:35:00Z</time></trkpt>
<trkpt lat="45.349644" lon="-121.709062"><ele>2239</ele><time>2019-11-22T10:35:00Z</time></trkpt>
<trkpt lat="45.349721" lon="-121.709038"><ele>2240</ele><time>2019-11-22T10:35:00Z</time></trkpt>
<trkpt lat="45.349743" lon="-121.709053"><ele>2241</ele><time>2019-11-22T10:35:00Z</time></trkpt>
<trkpt lat="45.349815" lon="-121.709013"><ele>2244</ele><time>2019-11-22T10:35:00Z</time></trkpt>
<trkpt lat="45.349923" lon="-121.70899"><ele>2248</ele><time>2019-11-22T10:36:00Z</time></trkpt>
<trkpt lat="45.349991" lon="-121.708992"><ele>2250</ele><time>2019-11-22T10:36:00Z</time></trkpt>
<trkpt lat="45.349994" lon="-121.708982"><ele>2251</ele><time>2019-11-22T10:36:00Z</time></trkpt>
<trkpt lat="45.349998" lon="-121.708976"><ele>2252</ele><time>2019-11-22T10:36:00Z</time></trkpt>
<trkpt lat="45.350022" lon="-121.70895"><ele>2254</ele><time>2019-11-22T10:36:00Z</time></trkpt>
<trkpt lat="45.350069" lon="-121.708943"><ele>2255</ele><time>2019-11-22T10:36:00Z</time></trkpt>
<trkpt lat="45.350104" lon="-121.708898"><ele>2256</ele><time>2019-11-22T10:36:00Z</time></trkpt>
<trkpt lat="45.350155" lon="-121.708867"><ele>2257</ele><time>2019-11-22T10:37:00Z</time></trkpt>
<trkpt lat="45.350156" lon="-121.708861"><ele>2257</ele><time>2019-11-22T10:37:00Z</time></trkpt>
<trkpt lat="45.350171" lon="-121.708829"><ele>2258</ele><time>2019-11-22T10:37:00Z</time></trkpt>
<trkpt lat="45.35022" lon="-121.708808"><ele>2258</ele><time>2019-11-22T10:37:00Z</time></trkpt>
<trkpt lat="45.350273" lon="-121.708807"><ele>2261</ele><time>2019-11-22T10:37:00Z</time></trkpt>
<trkpt lat="45.350315" lon="-121.708762"><ele>2263</ele><time>2019-11-22T10:38:00Z</time></trkpt>
<trkpt lat="45.350347" lon="-121.70875"><ele>2263</ele><time>2019-11-22T10:38:00Z</time></trkpt>
<trkpt lat="45.350374" lon="-121.708754"><ele>2264</ele><time>2019-11-22T10:38:00Z</time></trkpt>
<trkpt lat="45.350406" lon="-121.708788"><ele>2263</ele><time>2019-11-22T10:38:00Z</time></trkpt>
<trkpt lat="45.350429" lon="-121.708774"><ele>2264</ele><time>2019-11-22T10:38:00Z</time></trkpt>
<trkpt lat="45.350443" lon="-121.708746"><ele>2267</ele><time>2019-11-22T10:38:00Z</time></trkpt>
<trkpt lat="45.350446" lon="-121.708704"><ele>2268</ele><time>2019-11-22T10:38:00Z</time></trkpt>
<trkpt lat="45.350449" lon="-121.708702"><ele>2269</ele><time>2019-11-22T10:38:00Z</time></trkpt>
<trkpt lat="45.350476" lon="-121.708701"><ele>2270</ele><time>2019-11-22T10:38:00Z</time></trkpt>
<trkpt lat="45.350496" lon="-121.708719"><ele>2271</ele><time>2019-11-22T10:38:00Z</time></trkpt>
<trkpt lat="45.350543" lon="-121.708799"><ele>2270</ele><time>2019-11-22T10:39:00Z</time></trkpt>
<trkpt lat="45.350562" lon="-121.708778"><ele>2273</ele><time>2019-11-22T10:39:00Z</time></trkpt>
<trkpt lat="45.350597" lon="-121.708785"><ele>2274</ele><time>2019-11-22T10:39:00Z</time></trkpt>
<trkpt lat="45.350602" lon="-121.708776"><ele>2275</ele><time>2019-11-22T10:39:00Z</time></trkpt>
<trkpt lat="45.350619" lon="-121.708748"><ele>2275</ele><time>2019-11-22T10:39:00Z</time></trkpt>
<trkpt lat="45.350666" lon="-121.708713"><ele>2276</ele><time>2019-11-22T10:39:00Z</time></trkpt>
<trkpt lat="45.350681" lon="-121.708683"><ele>2277</ele><time>2019-11-22T10:39:00Z</time></trkpt>
<trkpt lat="45.350693" lon="-121.708626"><ele>2280</ele><time>2019-11-22T10:39:00Z</time></trkpt>
<trkpt lat="45.350714" lon="-121.7086"><ele>2279</ele><time>2019-11-22T10:40:00Z</time></trkpt>
<trkpt lat="45.350723" lon="-121.70859"><ele>2280</ele><time>2019-11-22T10:40:00Z</time></trkpt>
<trkpt lat="45.350768" lon="-121.708546"><ele>2282</ele><time>2019-11-22T10:40:00Z</time></trkpt>
<trkpt lat="45.350795" lon="-121.708544"><ele>2284</ele><time>2019-11-22T10:40:00Z</time></trkpt>
<trkpt lat="45.350837" lon="-121.708518"><ele>2286</ele><time>2019-11-22T10:40:00Z</time></trkpt>
<trkpt lat="45.35086" lon="-121.708534"><ele>2284</ele><time>2019-11-22T10:40:00Z</time></trkpt>
<trkpt lat="45.350887" lon="-121.70851"><ele>2285</ele><time>2019-11-22T10:40:00Z</time></trkpt>
<trkpt lat="45.35089" lon="-121.708505"><ele>2285</ele><time>2019-11-22T10:41:00Z</time></trkpt>
<trkpt lat="45.350909" lon="-121.70848"><ele>2284</ele><time>2019-11-22T10:41:00Z</time></trkpt>
<trkpt lat="45.350965" lon="-121.708439"><ele>2287</ele><time>2019-11-22T10:41:00Z</time></trkpt>
<trkpt lat="45.350982" lon="-121.708462"><ele>2289</ele><time>2019-11-22T10:41:00Z</time></trkpt>
<trkpt lat="45.351006" lon="-121.708463"><ele>2288</ele><time>2019-11-22T10:41:00Z</time></trkpt>
<trkpt lat="45.351032" lon="-121.708483"><ele>2290</ele><time>2019-11-22T10:41:00Z</time></trkpt>
<trkpt lat="45.35106" lon="-121.708459"><ele>2290</ele><time>2019-11-22T10:41:00Z</time></trkpt>
<trkpt lat="45.351105" lon="-121.708446"><ele>2291</ele><time>2019-11-22T10:42:00Z</time></trkpt>
<trkpt lat="45.351114" lon="-121.708415"><ele>2293</ele><time>2019-11-22T10:42:00Z</time></trkpt>
<trkpt lat="45.351136" lon="-121.708425"><ele>2292</ele><time>2019-11-22T10:42:00Z</time></trkpt>
<trkpt lat="45.351146" lon="-121.70839"><ele>2295</ele><time>2019-11-22T10:42:00Z</time></trkpt>
<trkpt lat="45.351179" lon="-121.708422"><ele>2295</ele><time>2019-11-22T10:42:00Z</time></trkpt>
<trkpt lat="45.35119" lon="-121.708437"><ele>2295</ele><time>2019-11-22T10:42:00Z</time></trkpt>
<trkpt lat="45.351211" lon="-121.708372"><ele>2299</ele><time>2019-11-22T10:42:00Z</time></trkpt>
<trkpt lat="45.351269" lon="-121.708301"><ele>2300</ele><time>2019-11-22T10:43:00Z</time></trkpt>
<trkpt lat="45.351327" lon="-121.708294"><ele>2300</ele><time>2019-11-22T10:43:00Z</time></trkpt>
<trkpt lat="45.351376" lon="-121.708278"><ele>2301</ele><time>2019-11-22T10:43:00Z</time></trkpt>
<trkpt lat="45.351396" lon="-121.70826"><ele>2304</ele><time>2019-11-22T10:43:00Z</time></trkpt>
<trkpt lat="45.3514" lon="-121.708227"><ele>2306</ele><time>2019-11-22T10:43:00Z</time></trkpt>
<trkpt lat="45.351426" lon="-121.708227"><ele>2308</ele><time>2019-11-22T10:43:00Z</time></trkpt>
<trkpt lat="45.351449" lon="-121.708242"><ele>2306</ele><time>2019-11-22T10:44:00Z</time></trkpt>
<trkpt lat="45.351479" lon="-121.708238"><ele>2307</ele><time>2019-11-22T10:44:00Z</time></trkpt>
<trkpt lat="45.351529" lon="-121.708155"><ele>2310</ele><time>2019-11-22T10:44:00Z</time></trkpt>
<trkpt lat="45.351551" lon="-121.708148"><ele>2310</ele><time>2019-11-22T10:44:00Z</time></trkpt>
<trkpt lat="45.351572" lon="-121.70816"><ele>2309</ele><time>2019-11-22T10:44:00Z</time></trkpt>
<trkpt lat="45.351591" lon="-121.708136"><ele>2310</ele><time>2019-11-22T10:44:00Z</time></trkpt>
<trkpt lat="45.351619" lon="-121.708139"><ele>2312</ele><time>2019-11-22T10:45:00Z</time></trkpt>
<trkpt lat="45.35162" lon="-121.708133"><ele>2313</ele><time>2019-11-22T10:45:00Z</time></trkpt>
<trkpt lat="45.35164" lon="-121.708106"><ele>2313</ele><time>2019-11-22T10:45:00Z</time></trkpt>
<trkpt lat="45.351659" lon="-121.708106"><ele>2311</ele><time>2019-11-22T10:45:00Z</time></trkpt>
<trkpt lat="45.351675" lon="-121.708166"><ele>2311</ele><time>2019-11-22T10:45:00Z</time></trkpt>
<trkpt lat="45.351695" lon="-121.708153"><ele>2312</ele><time>2019-11-22T10:45:00Z</time></trkpt>
<trkpt lat="45.351721" lon="-121.708163"><ele>2311</ele><time>2019-11-22T10:45:00Z</time></trkpt>
<trkpt lat="45.35174" lon="-121.708136"><ele>2312</ele><time>2019-11-22T10:45:00Z</time></trkpt>
<trkpt lat="45.35177" lon="-121.708128"><ele>2314</ele><time>2019-11-22T10:45:00Z</time></trkpt>
<trkpt lat="45.351807" lon="-121.708086"><ele>2317</ele><time>2019-11-22T10:46:00Z</time></trkpt>
<trkpt lat="45.351831" lon="-121.708087"><ele>2318</ele><time>2019-11-22T10:46:00Z</time></trkpt>
<trkpt lat="45.351855" lon="-121.708074"><ele>2320</ele><time>2019-11-22T10:46:00Z</time></trkpt>
<trkpt lat="45.351873" lon="-121.708045"><ele>2320</ele><time>2019-11-22T10:46:00Z</time></trkpt>
<trkpt lat="45.351899" lon="-121.708033"><ele>2323</ele><time>2019-11-22T10:46:00Z</time></trkpt>
<trkpt lat="45.351917" lon="-121.708004"><ele>2325</ele><time>2019-11-22T10:46:00Z</time></trkpt>
<trkpt lat="45.351943" lon="-121.708011"><ele>2327</ele><time>2019-11-22T10:46:00Z</time></trkpt>
<trkpt lat="45.351966" lon="-121.708002"><ele>2326</ele><time>2019-11-22T10:47:00Z</time></trkpt>
<trkpt lat="45.352016" lon="-121.707934"><ele>2330</ele><time>2019-11-22T10:47:00Z</time></trkpt>
<trkpt lat="45.352044" lon="-121.707918"><ele>2328</ele><time>2019-11-22T10:47:00Z</time></trkpt>
<trkpt lat="45.352148" lon="-121.707923"><ele>2328</ele><time>2019-11-22T10:48:00Z</time></trkpt>
<trkpt lat="45.352168" lon="-121.707899"><ele>2331</ele><time>2019-11-22T10:48:00Z</time></trkpt>
<trkpt lat="45.352174" lon="-121.707862"><ele>2332</ele><time>2019-11-22T10:48:00Z</time></trkpt>
<trkpt lat="45.352201" lon="-121.707857"><ele>2332</ele><time>2019-11-22T10:48:00Z</time></trkpt>
<trkpt lat="45.352247" lon="-121.707767"><ele>2334</ele><time>2019-11-22T10:49:00Z</time></trkpt>
<trkpt lat="45.352285" lon="-121.707723"><ele>2336</ele><time>2019-11-22T10:49:00Z</time></trkpt>
<trkpt lat="45.352339" lon="-121.707707"><ele>2338</ele><time>2019-11-22T10:49:00Z</time></trkpt>
<trkpt lat="45.352344" lon="-121.707705"><ele>2338</ele><time>2019-11-22T10:49:00Z</time></trkpt>
<trkpt lat="45.352371" lon="-121.707691"><ele>2338</ele><time>2019-11-22T10:49:00Z</time></trkpt>
<trkpt lat="45.352395" lon="-121.707704"><ele>2337</ele><time>2019-11-22T10:50:00Z</time></trkpt>
<trkpt lat="45.352417" lon="-121.707693"><ele>2339</ele><time>2019-11-22T10:50:00Z</time></trkpt>
<trkpt lat="45.352438" lon="-121.707677"><ele>2339</ele><time>2019-11-22T10:50:00Z</time></trkpt>
<trkpt lat="45.352448" lon="-121.707645"><ele>2339</ele><time>2019-11-22T10:50:00Z</time></trkpt>
<trkpt lat="45.352472" lon="-121.707634"><ele>2340</ele><time>2019-11-22T10:50:00Z</time></trkpt>
<trkpt lat="45.352496" lon="-121.707664"><ele>2340</ele><time>2019-11-22T10:50:00Z</time></trkpt>
<trkpt lat="45.3525" lon="-121.707666"><ele>2340</ele><time>2019-11-22T10:50:00Z</time></trkpt>
<trkpt lat="45.352505" lon="-121.707631"><ele>2342</ele><time>2019-11-22T10:50:00Z</time></trkpt>
<trkpt lat="45.352578" lon="-121.707641"><ele>2348</ele><time>2019-11-22T10:51:00Z</time></trkpt>
<trkpt lat="45.352588" lon="-121.707611"><ele>2348</ele><time>2019-11-22T10:51:00Z</time></trkpt>
<trkpt lat="45.35264" lon="-121.707594"><ele>2351</ele><time>2019-11-22T10:51:00Z</time></trkpt>
<trkpt lat="45.352646" lon="-121.707596"><ele>2351</ele><time>2019-11-22T10:51:00Z</time></trkpt>
<trkpt lat="45.352651" lon="-121.707606"><ele>2351</ele><time>2019-11-22T10:51:00Z</time></trkpt>
<trkpt lat="45.352677" lon="-121.707609"><ele>2351</ele><time>2019-11-22T10:51:00Z</time></trkpt>
<trkpt lat="45.352681" lon="-121.707643"><ele>2348</ele><time>2019-11-22T10:51:00Z</time></trkpt>
<trkpt lat="45.352702" lon="-121.707664"><ele>2349</ele><time>2019-11-22T10:51:00Z</time></trkpt>
<trkpt lat="45.352724" lon="-121.707648"><ele>2350</ele><time>2019-11-22T10:51:00Z</time></trkpt>
<trkpt lat="45.352725" lon="-121.707579"><ele>2351</ele><time>2019-11-22T10:51:00Z</time></trkpt>
<trkpt lat="45.352752" lon="-121.707571"><ele>2356</ele><time>2019-11-22T10:52:00Z</time></trkpt>
<trkpt lat="45.352755" lon="-121.707574"><ele>2355</ele><time>2019-11-22T10:52:00Z</time></trkpt>
<trkpt lat="45.352781" lon="-121.707591"><ele>2357</ele><time>2019-11-22T10:52:00Z</time></trkpt>
<trkpt lat="45.352801" lon="-121.707565"><ele>2355</ele><time>2019-11-22T10:52:00Z</time></trkpt>
<trkpt lat="45.352849" lon="-121.707539"><ele>2356</ele><time>2019-11-22T10:52:00Z</time></trkpt>
<trkpt lat="45.352885" lon="-121.707488"><ele>2358</ele><time>2019-11-22T10:53:00Z</time></trkpt>
<trkpt lat="45.352915" lon="-121.707476"><ele>2360</ele><time>2019-11-22T10:53:00Z</time></trkpt>
<trkpt lat="45.35292" lon="-121.707476"><ele>2360</ele><time>2019-11-22T10:53:00Z</time></trkpt>
<trkpt lat="45.352996" lon="-121.70747"><ele>2365</ele><time>2019-11-22T10:53:00Z</time></trkpt>
<trkpt lat="45.353009" lon="-121.707439"><ele>2366</ele><time>2019-11-22T10:53:00Z</time></trkpt>
<trkpt lat="45.353059" lon="-121.707449"><ele>2366</ele><time>2019-11-22T10:54:00Z</time></trkpt>
<trkpt lat="45.35308" lon="-121.707411"><ele>2369</ele><time>2019-11-22T10:54:00Z</time></trkpt>
<trkpt lat="45.353083" lon="-121.707402"><ele>2369</ele><time>2019-11-22T10:54:00Z</time></trkpt>
<trkpt lat="45.35308" lon="-121.707391"><ele>2368</ele><time>2019-11-22T10:54:00Z</time></trkpt>
<trkpt lat="45.353098" lon="-121.707365"><ele>2368</ele><time>2019-11-22T10:54:00Z</time></trkpt>
<trkpt lat="45.353167" lon="-121.707325"><ele>2369</ele><time>2019-11-22T10:54:00Z</time></trkpt>
<trkpt lat="45.353231" lon="-121.707254"><ele>2371</ele><time>2019-11-22T10:55:00Z</time></trkpt>
<trkpt lat="45.353254" lon="-121.707241"><ele>2373</ele><time>2019-11-22T10:55:00Z</time></trkpt>
<trkpt lat="45.35328" lon="-121.70724"><ele>2374</ele><time>2019-11-22T10:55:00Z</time></trkpt>
<trkpt lat="45.353319" lon="-121.707284"><ele>2375</ele><time>2019-11-22T10:55:00Z</time></trkpt>
<trkpt lat="45.353345" lon="-121.70728"><ele>2376</ele><time>2019-11-22T10:55:00Z</time></trkpt>
<trkpt lat="45.35336" lon="-121.707303"><ele>2374</ele><time>2019-11-22T10:55:00Z</time></trkpt>
<trkpt lat="45.353387" lon="-121.707301"><ele>2376</ele><time>2019-11-22T10:55:00Z</time></trkpt>
<trkpt lat="45.353432" lon="-121.707259"><ele>2381</ele><time>2019-11-22T10:56:00Z</time></trkpt>
<trkpt lat="45.35348" lon="-121.70727"><ele>2384</ele><time>2019-11-22T10:56:00Z</time></trkpt>
<trkpt lat="45.353513" lon="-121.707312"><ele>2383</ele><time>2019-11-22T10:56:00Z</time></trkpt>
<trkpt lat="45.353539" lon="-121.7073"><ele>2386</ele><time>2019-11-22T10:56:00Z</time></trkpt>
<trkpt lat="45.353576" lon="-121.70734"><ele>2388</ele><time>2019-11-22T10:57:00Z</time></trkpt>
<trkpt lat="45.3536" lon="-121.707356"><ele>2389</ele><time>2019-11-22T10:57:00Z</time></trkpt>
<trkpt lat="45.353625" lon="-121.707352"><ele>2391</ele><time>2019-11-22T10:57:00Z</time></trkpt>
<trkpt lat="45.353653" lon="-121.707407"><ele>2390</ele><time>2019-11-22T10:57:00Z</time></trkpt>
<trkpt lat="45.353682" lon="-121.707393"><ele>2390</ele><time>2019-11-22T10:57:00Z</time></trkpt>
<trkpt lat="45.353711" lon="-121.707372"><ele>2392</ele><time>2019-11-22T10:57:00Z</time></trkpt>
<trkpt lat="45.353736" lon="-121.707378"><ele>2394</ele><time>2019-11-22T10:57:00Z</time></trkpt>
<trkpt lat="45.353761" lon="-121.70737"><ele>2393</ele><time>2019-11-22T10:57:00Z</time></trkpt>
<trkpt lat="45.353782" lon="-121.707349"><ele>2394</ele><time>2019-11-22T10:58:00Z</time></trkpt>
<trkpt lat="45.353817" lon="-121.707261"><ele>2396</ele><time>2019-11-22T10:58:00Z</time></trkpt>
<trkpt lat="45.353853" lon="-121.707322"><ele>2395</ele><time>2019-11-22T10:58:00Z</time></trkpt>
<trkpt lat="45.353871" lon="-121.707306"><ele>2398</ele><time>2019-11-22T10:58:00Z</time></trkpt>
<trkpt lat="45.353913" lon="-121.707332"><ele>2399</ele><time>2019-11-22T10:59:00Z</time></trkpt>
<trkpt lat="45.353936" lon="-121.7074"><ele>2400</ele><time>2019-11-22T10:59:00Z</time></trkpt>
<trkpt lat="45.353939" lon="-121.707406"><ele>2399</ele><time>2019-11-22T10:59:00Z</time></trkpt>
<trkpt lat="45.35395" lon="-121.707383"><ele>2404</ele><time>2019-11-22T10:59:00Z</time></trkpt>
<trkpt lat="45.353995" lon="-121.70735"><ele>2406</ele><time>2019-11-22T10:59:00Z</time></trkpt>
<trkpt lat="45.354018" lon="-121.707344"><ele>2408</ele><time>2019-11-22T10:59:00Z</time></trkpt>
<trkpt lat="45.354036" lon="-121.707369"><ele>2405</ele><time>2019-11-22T11:00:00Z</time></trkpt>
<trkpt lat="45.354061" lon="-121.707375"><ele>2406</ele><time>2019-11-22T11:00:00Z</time></trkpt>
<trkpt lat="45.354086" lon="-121.707367"><ele>2404</ele><time>2019-11-22T11:00:00Z</time></trkpt>
<trkpt lat="45.35409" lon="-121.707375"><ele>2404</ele><time>2019-11-22T11:00:00Z</time></trkpt>
<trkpt lat="45.354093" lon="-121.70738"><ele>2404</ele><time>2019-11-22T11:00:00Z</time></trkpt>
<trkpt lat="45.354121" lon="-121.707394"><ele>2406</ele><time>2019-11-22T11:00:00Z</time></trkpt>
<trkpt lat="45.35414" lon="-121.707418"><ele>2405</ele><time>2019-11-22T11:00:00Z</time></trkpt>
<trkpt lat="45.354165" lon="-121.707408"><ele>2407</ele><time>2019-11-22T11:00:00Z</time></trkpt>
<trkpt lat="45.354207" lon="-121.707435"><ele>2406</ele><time>2019-11-22T11:01:00Z</time></trkpt>
<trkpt lat="45.354255" lon="-121.7074"><ele>2409</ele><time>2019-11-22T11:01:00Z</time></trkpt>
<trkpt lat="45.354283" lon="-121.707385"><ele>2410</ele><time>2019-11-22T11:01:00Z</time></trkpt>
<trkpt lat="45.354294" lon="-121.707352"><ele>2412</ele><time>2019-11-22T11:01:00Z</time></trkpt>
<trkpt lat="45.354343" lon="-121.707327"><ele>2416</ele><time>2019-11-22T11:01:00Z</time></trkpt>
<trkpt lat="45.354387" lon="-121.707289"><ele>2419</ele><time>2019-11-22T11:02:00Z</time></trkpt>
<trkpt lat="45.354416" lon="-121.70728"><ele>2419</ele><time>2019-11-22T11:02:00Z</time></trkpt>
<trkpt lat="45.354422" lon="-121.707277"><ele>2419</ele><time>2019-11-22T11:02:00Z</time></trkpt>
<trkpt lat="45.354465" lon="-121.707235"><ele>2418</ele><time>2019-11-22T11:02:00Z</time></trkpt>
<trkpt lat="45.354513" lon="-121.707218"><ele>2422</ele><time>2019-11-22T11:02:00Z</time></trkpt>
<trkpt lat="45.354581" lon="-121.707159"><ele>2423</ele><time>2019-11-22T11:02:00Z</time></trkpt>
<trkpt lat="45.354587" lon="-121.707159"><ele>2423</ele><time>2019-11-22T11:02:00Z</time></trkpt>
<trkpt lat="45.354634" lon="-121.707193"><ele>2425</ele><time>2019-11-22T11:03:00Z</time></trkpt>
<trkpt lat="45.354654" lon="-121.707169"><ele>2426</ele><time>2019-11-22T11:03:00Z</time></trkpt>
<trkpt lat="45.354697" lon="-121.707152"><ele>2428</ele><time>2019-11-22T11:03:00Z</time></trkpt>
<trkpt lat="45.354744" lon="-121.707164"><ele>2428</ele><time>2019-11-22T11:03:00Z</time></trkpt>
<trkpt lat="45.354818" lon="-121.70718"><ele>2432</ele><time>2019-11-22T11:03:00Z</time></trkpt>
<trkpt lat="45.35485" lon="-121.707231"><ele>2431</ele><time>2019-11-22T11:04:00Z</time></trkpt>
<trkpt lat="45.354893" lon="-121.707195"><ele>2434</ele><time>2019-11-22T11:04:00Z</time></trkpt>
<trkpt lat="45.354915" lon="-121.707178"><ele>2435</ele><time>2019-11-22T11:04:00Z</time></trkpt>
<trkpt lat="45.354929" lon="-121.707149"><ele>2437</ele><time>2019-11-22T11:04:00Z</time></trkpt>
<trkpt lat="45.355019" lon="-121.707099"><ele>2441</ele><time>2019-11-22T11:04:00Z</time></trkpt>
<trkpt lat="45.355042" lon="-121.707112"><ele>2442</ele><time>2019-11-22T11:04:00Z</time></trkpt>
<trkpt lat="45.355048" lon="-121.707102"><ele>2443</ele><time>2019-11-22T11:05:00Z</time></trkpt>
<trkpt lat="45.355053" lon="-121.707096"><ele>2443</ele><time>2019-11-22T11:05:00Z</time></trkpt>
<trkpt lat="45.355069" lon="-121.70713"><ele>2441</ele><time>2019-11-22T11:05:00Z</time></trkpt>
<trkpt lat="45.355092" lon="-121.707144"><ele>2442</ele><time>2019-11-22T11:05:00Z</time></trkpt>
<trkpt lat="45.355112" lon="-121.707132"><ele>2443</ele><time>2019-11-22T11:05:00Z</time></trkpt>
<trkpt lat="45.355132" lon="-121.707147"><ele>2444</ele><time>2019-11-22T11:05:00Z</time></trkpt>
<trkpt lat="45.355184" lon="-121.707135"><ele>2443</ele><time>2019-11-22T11:06:00Z</time></trkpt>
<trkpt lat="45.35521" lon="-121.707154"><ele>2441</ele><time>2019-11-22T11:06:00Z</time></trkpt>
<trkpt lat="45.355214" lon="-121.707156"><ele>2442</ele><time>2019-11-22T11:06:00Z</time></trkpt>
<trkpt lat="45.355237" lon="-121.707132"><ele>2448</ele><time>2019-11-22T11:06:00Z</time></trkpt>
<trkpt lat="45.355242" lon="-121.707104"><ele>2446</ele><time>2019-11-22T11:06:00Z</time></trkpt>
<trkpt lat="45.355259" lon="-121.707085"><ele>2449</ele><time>2019-11-22T11:06:00Z</time></trkpt>
<trkpt lat="45.355302" lon="-121.707056"><ele>2452</ele><time>2019-11-22T11:06:00Z</time></trkpt>
<trkpt lat="45.355359" lon="-121.707058"><ele>2455</ele><time>2019-11-22T11:06:00Z</time></trkpt>
<trkpt lat="45.355364" lon="-121.707058"><ele>2455</ele><time>2019-11-22T11:06:00Z</time></trkpt>
<trkpt lat="45.355387" lon="-121.707046"><ele>2455</ele><time>2019-11-22T11:07:00Z</time></trkpt>
<trkpt lat="45.355412" lon="-121.706982"><ele>2459</ele><time>2019-11-22T11:07:00Z</time></trkpt>
<trkpt lat="45.355437" lon="-121.706972"><ele>2459</ele><time>2019-11-22T11:07:00Z</time></trkpt>
<trkpt lat="45.355516" lon="-121.706978"><ele>2464</ele><time>2019-11-22T11:07:00Z</time></trkpt>
<trkpt lat="45.355686" lon="-121.706863"><ele>2468</ele><time>2019-11-22T11:08:00Z</time></trkpt>
<trkpt lat="45.35569" lon="-121.706864"><ele>2468</ele><time>2019-11-22T11:08:00Z</time></trkpt>
<trkpt lat="45.355755" lon="-121.706798"><ele>2471</ele><time>2019-11-22T11:09:00Z</time></trkpt>
<trkpt lat="45.355802" lon="-121.706772"><ele>2474</ele><time>2019-11-22T11:09:00Z</time></trkpt>
<trkpt lat="45.355851" lon="-121.70673"><ele>2480</ele><time>2019-11-22T11:09:00Z</time></trkpt>
<trkpt lat="45.355855" lon="-121.706723"><ele>2479</ele><time>2019-11-22T11:09:00Z</time></trkpt>
<trkpt lat="45.355878" lon="-121.706704"><ele>2480</ele><time>2019-11-22T11:09:00Z</time></trkpt>
<trkpt lat="45.355904" lon="-121.70671"><ele>2481</ele><time>2019-11-22T11:10:00Z</time></trkpt>
<trkpt lat="45.35596" lon="-121.706669"><ele>2480</ele><time>2019-11-22T11:10:00Z</time></trkpt>
<trkpt lat="45.356006" lon="-121.706687"><ele>2482</ele><time>2019-11-22T11:10:00Z</time></trkpt>
<trkpt lat="45.35601" lon="-121.706688"><ele>2482</ele><time>2019-11-22T11:10:00Z</time></trkpt>
<trkpt lat="45.356015" lon="-121.70665"><ele>2481</ele><time>2019-11-22T11:10:00Z</time></trkpt>
<trkpt lat="45.35605" lon="-121.706597"><ele>2481</ele><time>2019-11-22T11:10:00Z</time></trkpt>
<trkpt lat="45.356143" lon="-121.70656"><ele>2486</ele><time>2019-11-22T11:11:00Z</time></trkpt>
<trkpt lat="45.35615" lon="-121.706557"><ele>2487</ele><time>2019-11-22T11:11:00Z</time></trkpt>
<trkpt lat="45.356182" lon="-121.706561"><ele>2490</ele><time>2019-11-22T11:11:00Z</time></trkpt>
<trkpt lat="45.356244" lon="-121.706511"><ele>2490</ele><time>2019-11-22T11:11:00Z</time></trkpt>
<trkpt lat="45.356258" lon="-121.706478"><ele>2495</ele><time>2019-11-22T11:12:00Z</time></trkpt>
<trkpt lat="45.356312" lon="-121.706473"><ele>2496</ele><time>2019-11-22T11:12:00Z</time></trkpt>
<trkpt lat="45.356318" lon="-121.70647"><ele>2496</ele><time>2019-11-22T11:12:00Z</time></trkpt>
<trkpt lat="45.356437" lon="-121.706421"><ele>2498</ele><time>2019-11-22T11:13:00Z</time></trkpt>
<trkpt lat="45.356484" lon="-121.70638"><ele>2503</ele><time>2019-11-22T11:13:00Z</time></trkpt>
<trkpt lat="45.356489" lon="-121.706372"><ele>2502</ele><time>2019-11-22T11:13:00Z</time></trkpt>
<trkpt lat="45.356511" lon="-121.706346"><ele>2502</ele><time>2019-11-22T11:13:00Z</time></trkpt>
<trkpt lat="45.356536" lon="-121.706354"><ele>2503</ele><time>2019-11-22T11:13:00Z</time></trkpt>
<trkpt lat="45.356561" lon="-121.706349"><ele>2506</ele><time>2019-11-22T11:14:00Z</time></trkpt>
<trkpt lat="45.356578" lon="-121.706323"><ele>2506</ele><time>2019-11-22T11:14:00Z</time></trkpt>
<trkpt lat="45.356603" lon="-121.706321"><ele>2506</ele><time>2019-11-22T11:14:00Z</time></trkpt>
<trkpt lat="45.356646" lon="-121.706268"><ele>2508</ele><time>2019-11-22T11:14:00Z</time></trkpt>
<trkpt lat="45.356651" lon="-121.706264"><ele>2508</ele><time>2019-11-22T11:14:00Z</time></trkpt>
<trkpt lat="45.356704" lon="-121.706254"><ele>2509</ele><time>2019-11-22T11:15:00Z</time></trkpt>
<trkpt lat="45.356829" lon="-121.706189"><ele>2516</ele><time>2019-11-22T11:15:00Z</time></trkpt>
<trkpt lat="45.356833" lon="-121.706184"><ele>2516</ele><time>2019-11-22T11:15:00Z</time></trkpt>
<trkpt lat="45.356882" lon="-121.706182"><ele>2519</ele><time>2019-11-22T11:16:00Z</time></trkpt>
<trkpt lat="45.356904" lon="-121.706202"><ele>2517</ele><time>2019-11-22T11:16:00Z</time></trkpt>
<trkpt lat="45.356987" lon="-121.706123"><ele>2518</ele><time>2019-11-22T11:16:00Z</time></trkpt>
<trkpt lat="45.357035" lon="-121.70603"><ele>2518</ele><time>2019-11-22T11:17:00Z</time></trkpt>
<trkpt lat="45.357119" lon="-121.705986"><ele>2525</ele><time>2019-11-22T11:18:00Z</time></trkpt>
<trkpt lat="45.357124" lon="-121.705991"><ele>2526</ele><time>2019-11-22T11:18:00Z</time></trkpt>
<trkpt lat="45.357125" lon="-121.705996"><ele>2526</ele><time>2019-11-22T11:18:00Z</time></trkpt>
<trkpt lat="45.357145" lon="-121.706019"><ele>2524</ele><time>2019-11-22T11:18:00Z</time></trkpt>
<trkpt lat="45.357171" lon="-121.706012"><ele>2527</ele><time>2019-11-22T11:18:00Z</time></trkpt>
<trkpt lat="45.357186" lon="-121.705988"><ele>2527</ele><time>2019-11-22T11:18:00Z</time></trkpt>
<trkpt lat="45.357233" lon="-121.705962"><ele>2528</ele><time>2019-11-22T11:18:00Z</time></trkpt>
<trkpt lat="45.357286" lon="-121.705958"><ele>2529</ele><time>2019-11-22T11:19:00Z</time></trkpt>
<trkpt lat="45.357289" lon="-121.705962"><ele>2529</ele><time>2019-11-22T11:19:00Z</time></trkpt>
<trkpt lat="45.357315" lon="-121.705946"><ele>2530</ele><time>2019-11-22T11:19:00Z</time></trkpt>
<trkpt lat="45.357364" lon="-121.705943"><ele>2530</ele><time>2019-11-22T11:19:00Z</time></trkpt>
<trkpt lat="45.357404" lon="-121.705896"><ele>2533</ele><time>2019-11-22T11:19:00Z</time></trkpt>
<trkpt lat="45.357413" lon="-121.705866"><ele>2526</ele><time>2019-11-22T11:20:00Z</time></trkpt>
<trkpt lat="45.357444" lon="-121.705863"><ele>2532</ele><time>2019-11-22T11:20:00Z</time></trkpt>
<trkpt lat="45.357619" lon="-121.705765"><ele>2536</ele><time>2019-11-22T11:21:00Z</time></trkpt>
<trkpt lat="45.357645" lon="-121.705739"><ele>2538</ele><time>2019-11-22T11:21:00Z</time></trkpt>
<trkpt lat="45.357669" lon="-121.705742"><ele>2542</ele><time>2019-11-22T11:21:00Z</time></trkpt>
<trkpt lat="45.357772" lon="-121.705634"><ele>2545</ele><time>2019-11-22T11:22:00Z</time></trkpt>
<trkpt lat="45.357816" lon="-121.705599"><ele>2547</ele><time>2019-11-22T11:22:00Z</time></trkpt>
<trkpt lat="45.357864" lon="-121.705614"><ele>2547</ele><time>2019-11-22T11:23:00Z</time></trkpt>
<trkpt lat="45.35789" lon="-121.705603"><ele>2554</ele><time>2019-11-22T11:23:00Z</time></trkpt>
<trkpt lat="45.357909" lon="-121.705579"><ele>2554</ele><time>2019-11-22T11:23:00Z</time></trkpt>
<trkpt lat="45.357935" lon="-121.705593"><ele>2556</ele><time>2019-11-22T11:23:00Z</time></trkpt>
<trkpt lat="45.357957" lon="-121.705618"><ele>2561</ele><time>2019-11-22T11:23:00Z</time></trkpt>
<trkpt lat="45.357983" lon="-121.70562"><ele>2566</ele><time>2019-11-22T11:23:00Z</time></trkpt>
<trkpt lat="45.358001" lon="-121.705601"><ele>2567</ele><time>2019-11-22T11:24:00Z</time></trkpt>
<trkpt lat="45.358008" lon="-121.705568"><ele>2567</ele><time>2019-11-22T11:24:00Z</time></trkpt>
<trkpt lat="45.358032" lon="-121.705558"><ele>2566</ele><time>2019-11-22T11:24:00Z</time></trkpt>
<trkpt lat="45.358041" lon="-121.705529"><ele>2560</ele><time>2019-11-22T11:24:00Z</time></trkpt>
<trkpt lat="45.358056" lon="-121.705509"><ele>2559</ele><time>2019-11-22T11:24:00Z</time></trkpt>
<trkpt lat="45.358066" lon="-121.705512"><ele>2560</ele><time>2019-11-22T11:24:00Z</time></trkpt>
<trkpt lat="45.358074" lon="-121.705507"><ele>2560</ele><time>2019-11-22T11:24:00Z</time></trkpt>
<trkpt lat="45.358105" lon="-121.705496"><ele>2562</ele><time>2019-11-22T11:24:00Z</time></trkpt>
<trkpt lat="45.358131" lon="-121.7055"><ele>2565</ele><time>2019-11-22T11:24:00Z</time></trkpt>
<trkpt lat="45.358149" lon="-121.705478"><ele>2564</ele><time>2019-11-22T11:25:00Z</time></trkpt>
<trkpt lat="45.358151" lon="-121.70544"><ele>2562</ele><time>2019-11-22T11:25:00Z</time></trkpt>
<trkpt lat="45.358165" lon="-121.705409"><ele>2563</ele><time>2019-11-22T11:25:00Z</time></trkpt>
<trkpt lat="45.358218" lon="-121.705403"><ele>2569</ele><time>2019-11-22T11:25:00Z</time></trkpt>
<trkpt lat="45.358302" lon="-121.705312"><ele>2571</ele><time>2019-11-22T11:26:00Z</time></trkpt>
<trkpt lat="45.358378" lon="-121.705272"><ele>2576</ele><time>2019-11-22T11:26:00Z</time></trkpt>
<trkpt lat="45.358378" lon="-121.705264"><ele>2575</ele><time>2019-11-22T11:26:00Z</time></trkpt>
<trkpt lat="45.358389" lon="-121.705226"><ele>2578</ele><time>2019-11-22T11:26:00Z</time></trkpt>
<trkpt lat="45.358437" lon="-121.70522"><ele>2580</ele><time>2019-11-22T11:26:00Z</time></trkpt>
<trkpt lat="45.35846" lon="-121.705202"><ele>2581</ele><time>2019-11-22T11:26:00Z</time></trkpt>
<trkpt lat="45.358504" lon="-121.705118"><ele>2584</ele><time>2019-11-22T11:27:00Z</time></trkpt>
<trkpt lat="45.358503" lon="-121.705112"><ele>2583</ele><time>2019-11-22T11:27:00Z</time></trkpt>
<trkpt lat="45.35849" lon="-121.705182"><ele>2592</ele><time>2019-11-22T11:33:00Z</time></trkpt>
<trkpt lat="45.358509" lon="-121.70517"><ele>2586</ele><time>2019-11-22T11:36:00Z</time></trkpt>
<trkpt lat="45.358493" lon="-121.705115"><ele>2588</ele><time>2019-11-22T11:36:00Z</time></trkpt>
<trkpt lat="45.3585" lon="-121.705086"><ele>2588</ele><time>2019-11-22T11:36:00Z</time></trkpt>
<trkpt lat="45.358526" lon="-121.705073"><ele>2590</ele><time>2019-11-22T11:36:00Z</time></trkpt>
<trkpt lat="45.35853" lon="-121.705069"><ele>2589</ele><time>2019-11-22T11:36:00Z</time></trkpt>
<trkpt lat="45.35858" lon="-121.705028"><ele>2591</ele><time>2019-11-22T11:36:00Z</time></trkpt>
<trkpt lat="45.358614" lon="-121.704986"><ele>2595</ele><time>2019-11-22T11:36:00Z</time></trkpt>
<trkpt lat="45.358648" lon="-121.704892"><ele>2595</ele><time>2019-11-22T11:37:00Z</time></trkpt>
<trkpt lat="45.358678" lon="-121.704915"><ele>2593</ele><time>2019-11-22T11:37:00Z</time></trkpt>
<trkpt lat="45.358701" lon="-121.704899"><ele>2597</ele><time>2019-11-22T11:37:00Z</time></trkpt>
<trkpt lat="45.358758" lon="-121.704837"><ele>2599</ele><time>2019-11-22T11:37:00Z</time></trkpt>
<trkpt lat="45.358788" lon="-121.704777"><ele>2600</ele><time>2019-11-22T11:38:00Z</time></trkpt>
<trkpt lat="45.358791" lon="-121.704775"><ele>2600</ele><time>2019-11-22T11:38:00Z</time></trkpt>
<trkpt lat="45.358815" lon="-121.704748"><ele>2599</ele><time>2019-11-22T11:38:00Z</time></trkpt>
<trkpt lat="45.358838" lon="-121.704753"><ele>2600</ele><time>2019-11-22T11:38:00Z</time></trkpt>
<trkpt lat="45.358856" lon="-121.70478"><ele>2603</ele><time>2019-11-22T11:38:00Z</time></trkpt>
<trkpt lat="45.358881" lon="-121.704794"><ele>2604</ele><time>2019-11-22T11:38:00Z</time></trkpt>
<trkpt lat="45.35891" lon="-121.704738"><ele>2607</ele><time>2019-11-22T11:38:00Z</time></trkpt>
<trkpt lat="45.358934" lon="-121.704715"><ele>2607</ele><time>2019-11-22T11:39:00Z</time></trkpt>
<trkpt lat="45.358955" lon="-121.704689"><ele>2607</ele><time>2019-11-22T11:39:00Z</time></trkpt>
<trkpt lat="45.359006" lon="-121.704707"><ele>2612</ele><time>2019-11-22T11:39:00Z</time></trkpt>
<trkpt lat="45.359027" lon="-121.704728"><ele>2614</ele><time>2019-11-22T11:39:00Z</time></trkpt>
<trkpt lat="45.35905" lon="-121.704661"><ele>2613</ele><time>2019-11-22T11:40:00Z</time></trkpt>
<trkpt lat="45.359078" lon="-121.704647"><ele>2614</ele><time>2019-11-22T11:40:00Z</time></trkpt>
<trkpt lat="45.359086" lon="-121.704647"><ele>2614</ele><time>2019-11-22T11:40:00Z</time></trkpt>
<trkpt lat="45.359106" lon="-121.704621"><ele>2613</ele><time>2019-11-22T11:40:00Z</time></trkpt>
<trkpt lat="45.359152" lon="-121.70462"><ele>2614</ele><time>2019-11-22T11:40:00Z</time></trkpt>
<trkpt lat="45.35917" lon="-121.704597"><ele>2615</ele><time>2019-11-22T11:40:00Z</time></trkpt>
<trkpt lat="45.359218" lon="-121.704594"><ele>2620</ele><time>2019-11-22T11:41:00Z</time></trkpt>
<trkpt lat="45.359218" lon="-121.704555"><ele>2618</ele><time>2019-11-22T11:41:00Z</time></trkpt>
<trkpt lat="45.359271" lon="-121.704559"><ele>2625</ele><time>2019-11-22T11:41:00Z</time></trkpt>
<trkpt lat="45.359316" lon="-121.704538"><ele>2620</ele><time>2019-11-22T11:41:00Z</time></trkpt>
<trkpt lat="45.359334" lon="-121.704516"><ele>2620</ele><time>2019-11-22T11:42:00Z</time></trkpt>
<trkpt lat="45.359351" lon="-121.704442"><ele>2624</ele><time>2019-11-22T11:42:00Z</time></trkpt>
<trkpt lat="45.359362" lon="-121.704409"><ele>2626</ele><time>2019-11-22T11:42:00Z</time></trkpt>
<trkpt lat="45.35941" lon="-121.704415"><ele>2628</ele><time>2019-11-22T11:42:00Z</time></trkpt>
<trkpt lat="45.359425" lon="-121.704386"><ele>2630</ele><time>2019-11-22T11:42:00Z</time></trkpt>
<trkpt lat="45.359484" lon="-121.704335"><ele>2632</ele><time>2019-11-22T11:42:00Z</time></trkpt>
<trkpt lat="45.359529" lon="-121.704291"><ele>2632</ele><time>2019-11-22T11:43:00Z</time></trkpt>
<trkpt lat="45.35955" lon="-121.704301"><ele>2635</ele><time>2019-11-22T11:43:00Z</time></trkpt>
<trkpt lat="45.359582" lon="-121.704348"><ele>2639</ele><time>2019-11-22T11:43:00Z</time></trkpt>
<trkpt lat="45.359605" lon="-121.704366"><ele>2640</ele><time>2019-11-22T11:43:00Z</time></trkpt>
<trkpt lat="45.359623" lon="-121.704336"><ele>2640</ele><time>2019-11-22T11:43:00Z</time></trkpt>
<trkpt lat="45.359625" lon="-121.704329"><ele>2639</ele><time>2019-11-22T11:43:00Z</time></trkpt>
<trkpt lat="45.359642" lon="-121.704303"><ele>2639</ele><time>2019-11-22T11:43:00Z</time></trkpt>
<trkpt lat="45.359695" lon="-121.7043"><ele>2638</ele><time>2019-11-22T11:44:00Z</time></trkpt>
<trkpt lat="45.359718" lon="-121.704236"><ele>2636</ele><time>2019-11-22T11:44:00Z</time></trkpt>
<trkpt lat="45.35974" lon="-121.704249"><ele>2641</ele><time>2019-11-22T11:44:00Z</time></trkpt>
<trkpt lat="45.359767" lon="-121.704237"><ele>2641</ele><time>2019-11-22T11:44:00Z</time></trkpt>
<trkpt lat="45.35977" lon="-121.704226"><ele>2640</ele><time>2019-11-22T11:44:00Z</time></trkpt>
<trkpt lat="45.359773" lon="-121.70422"><ele>2641</ele><time>2019-11-22T11:45:00Z</time></trkpt>
<trkpt lat="45.359841" lon="-121.704261"><ele>2645</ele><time>2019-11-22T11:45:00Z</time></trkpt>
<trkpt lat="45.359856" lon="-121.704291"><ele>2645</ele><time>2019-11-22T11:45:00Z</time></trkpt>
<trkpt lat="45.359883" lon="-121.704288"><ele>2647</ele><time>2019-11-22T11:46:00Z</time></trkpt>
<trkpt lat="45.359901" lon="-121.704272"><ele>2647</ele><time>2019-11-22T11:46:00Z</time></trkpt>
<trkpt lat="45.359928" lon="-121.704281"><ele>2652</ele><time>2019-11-22T11:46:00Z</time></trkpt>
<trkpt lat="45.359931" lon="-121.704286"><ele>2652</ele><time>2019-11-22T11:46:00Z</time></trkpt>
<trkpt lat="45.359932" lon="-121.704303"><ele>2653</ele><time>2019-11-22T11:46:00Z</time></trkpt>
<trkpt lat="45.359954" lon="-121.704324"><ele>2652</ele><time>2019-11-22T11:46:00Z</time></trkpt>
<trkpt lat="45.359994" lon="-121.70429"><ele>2653</ele><time>2019-11-22T11:46:00Z</time></trkpt>
<trkpt lat="45.360007" lon="-121.704263"><ele>2652</ele><time>2019-11-22T11:46:00Z</time></trkpt>
<trkpt lat="45.360053" lon="-121.704232"><ele>2653</ele><time>2019-11-22T11:47:00Z</time></trkpt>
<trkpt lat="45.360079" lon="-121.704243"><ele>2658</ele><time>2019-11-22T11:47:00Z</time></trkpt>
<trkpt lat="45.36008" lon="-121.704249"><ele>2658</ele><time>2019-11-22T11:47:00Z</time></trkpt>
<trkpt lat="45.36008" lon="-121.704257"><ele>2659</ele><time>2019-11-22T11:47:00Z</time></trkpt>
<trkpt lat="45.360091" lon="-121.704225"><ele>2659</ele><time>2019-11-22T11:47:00Z</time></trkpt>
<trkpt lat="45.36014" lon="-121.704207"><ele>2657</ele><time>2019-11-22T11:48:00Z</time></trkpt>
<trkpt lat="45.360155" lon="-121.704103"><ele>2657</ele><time>2019-11-22T11:48:00Z</time></trkpt>
<trkpt lat="45.360171" lon="-121.704068"><ele>2657</ele><time>2019-11-22T11:48:00Z</time></trkpt>
<trkpt lat="45.360219" lon="-121.70404"><ele>2659</ele><time>2019-11-22T11:48:00Z</time></trkpt>
<trkpt lat="45.360274" lon="-121.703923"><ele>2666</ele><time>2019-11-22T11:49:00Z</time></trkpt>
<trkpt lat="45.360304" lon="-121.703905"><ele>2666</ele><time>2019-11-22T11:49:00Z</time></trkpt>
<trkpt lat="45.36031" lon="-121.703895"><ele>2666</ele><time>2019-11-22T11:49:00Z</time></trkpt>
<trkpt lat="45.360318" lon="-121.70385"><ele>2666</ele><time>2019-11-22T11:49:00Z</time></trkpt>
<trkpt lat="45.360367" lon="-121.703828"><ele>2670</ele><time>2019-11-22T11:49:00Z</time></trkpt>
<trkpt lat="45.360391" lon="-121.703772"><ele>2671</ele><time>2019-11-22T11:49:00Z</time></trkpt>
<trkpt lat="45.360413" lon="-121.703787"><ele>2673</ele><time>2019-11-22T11:50:00Z</time></trkpt>
<trkpt lat="45.360426" lon="-121.703823"><ele>2673</ele><time>2019-11-22T11:50:00Z</time></trkpt>
<trkpt lat="45.360463" lon="-121.703732"><ele>2673</ele><time>2019-11-22T11:50:00Z</time></trkpt>
<trkpt lat="45.360511" lon="-121.703742"><ele>2675</ele><time>2019-11-22T11:50:00Z</time></trkpt>
<trkpt lat="45.360534" lon="-121.703722"><ele>2674</ele><time>2019-11-22T11:51:00Z</time></trkpt>
<trkpt lat="45.360558" lon="-121.703739"><ele>2678</ele><time>2019-11-22T11:51:00Z</time></trkpt>
<trkpt lat="45.360566" lon="-121.703735"><ele>2678</ele><time>2019-11-22T11:51:00Z</time></trkpt>
<trkpt lat="45.360566" lon="-121.703704"><ele>2678</ele><time>2019-11-22T11:51:00Z</time></trkpt>
<trkpt lat="45.360614" lon="-121.703716"><ele>2678</ele><time>2019-11-22T11:51:00Z</time></trkpt>
<trkpt lat="45.360658" lon="-121.703683"><ele>2678</ele><time>2019-11-22T11:51:00Z</time></trkpt>
<trkpt lat="45.360654" lon="-121.703649"><ele>2677</ele><time>2019-11-22T11:52:00Z</time></trkpt>
<trkpt lat="45.360676" lon="-121.703631"><ele>2675</ele><time>2019-11-22T11:52:00Z</time></trkpt>
<trkpt lat="45.360704" lon="-121.703646"><ele>2682</ele><time>2019-11-22T11:52:00Z</time></trkpt>
<trkpt lat="45.36071" lon="-121.703646"><ele>2683</ele><time>2019-11-22T11:52:00Z</time></trkpt>
<trkpt lat="45.360732" lon="-121.703622"><ele>2685</ele><time>2019-11-22T11:52:00Z</time></trkpt>
<trkpt lat="45.360764" lon="-121.703598"><ele>2686</ele><time>2019-11-22T11:53:00Z</time></trkpt>
<trkpt lat="45.360788" lon="-121.703592"><ele>2681</ele><time>2019-11-22T11:53:00Z</time></trkpt>
<trkpt lat="45.360811" lon="-121.703571"><ele>2681</ele><time>2019-11-22T11:53:00Z</time></trkpt>
<trkpt lat="45.360869" lon="-121.703482"><ele>2685</ele><time>2019-11-22T11:54:00Z</time></trkpt>
<trkpt lat="45.360893" lon="-121.703467"><ele>2684</ele><time>2019-11-22T11:54:00Z</time></trkpt>
<trkpt lat="45.360912" lon="-121.70344"><ele>2691</ele><time>2019-11-22T11:54:00Z</time></trkpt>
<trkpt lat="45.360928" lon="-121.70341"><ele>2691</ele><time>2019-11-22T11:54:00Z</time></trkpt>
<trkpt lat="45.360936" lon="-121.703365"><ele>2691</ele><time>2019-11-22T11:54:00Z</time></trkpt>
<trkpt lat="45.361031" lon="-121.703198"><ele>2696</ele><time>2019-11-22T11:55:00Z</time></trkpt>
<trkpt lat="45.361062" lon="-121.703206"><ele>2697</ele><time>2019-11-22T11:55:00Z</time></trkpt>
<trkpt lat="45.361066" lon="-121.70321"><ele>2698</ele><time>2019-11-22T11:55:00Z</time></trkpt>
<trkpt lat="45.361079" lon="-121.703177"><ele>2699</ele><time>2019-11-22T11:55:00Z</time></trkpt>
<trkpt lat="45.361102" lon="-121.703172"><ele>2702</ele><time>2019-11-22T11:56:00Z</time></trkpt>
<trkpt lat="45.361152" lon="-121.703098"><ele>2704</ele><time>2019-11-22T11:56:00Z</time></trkpt>
<trkpt lat="45.361176" lon="-121.703089"><ele>2706</ele><time>2019-11-22T11:56:00Z</time></trkpt>
<trkpt lat="45.361195" lon="-121.703061"><ele>2705</ele><time>2019-11-22T11:57:00Z</time></trkpt>
<trkpt lat="45.361199" lon="-121.703073"><ele>2704</ele><time>2019-11-22T11:57:00Z</time></trkpt>
<trkpt lat="45.361261" lon="-121.703013"><ele>2708</ele><time>2019-11-22T11:57:00Z</time></trkpt>
<trkpt lat="45.361312" lon="-121.703003"><ele>2710</ele><time>2019-11-22T11:57:00Z</time></trkpt>
<trkpt lat="45.361321" lon="-121.702928"><ele>2714</ele><time>2019-11-22T11:58:00Z</time></trkpt>
<trkpt lat="45.361322" lon="-121.702923"><ele>2715</ele><time>2019-11-22T11:58:00Z</time></trkpt>
<trkpt lat="45.361368" lon="-121.702888"><ele>2718</ele><time>2019-11-22T11:58:00Z</time></trkpt>
<trkpt lat="45.361382" lon="-121.702856"><ele>2716</ele><time>2019-11-22T11:58:00Z</time></trkpt>
<trkpt lat="45.361458" lon="-121.70276"><ele>2724</ele><time>2019-11-22T11:59:00Z</time></trkpt>
<trkpt lat="45.361509" lon="-121.702776"><ele>2727</ele><time>2019-11-22T12:00:00Z</time></trkpt>
<trkpt lat="45.361523" lon="-121.702748"><ele>2727</ele><time>2019-11-22T12:00:00Z</time></trkpt>
<trkpt lat="45.361543" lon="-121.702773"><ele>2726</ele><time>2019-11-22T12:00:00Z</time></trkpt>
<trkpt lat="45.361583" lon="-121.702737"><ele>2728</ele><time>2019-11-22T12:00:00Z</time></trkpt>
<trkpt lat="45.361611" lon="-121.702735"><ele>2730</ele><time>2019-11-22T12:01:00Z</time></trkpt>
<trkpt lat="45.361627" lon="-121.702707"><ele>2731</ele><time>2019-11-22T12:01:00Z</time></trkpt>
<trkpt lat="45.361675" lon="-121.702698"><ele>2733</ele><time>2019-11-22T12:01:00Z</time></trkpt>
<trkpt lat="45.361712" lon="-121.702651"><ele>2736</ele><time>2019-11-22T12:01:00Z</time></trkpt>
<trkpt lat="45.361738" lon="-121.702647"><ele>2736</ele><time>2019-11-22T12:02:00Z</time></trkpt>
<trkpt lat="45.361759" lon="-121.702626"><ele>2738</ele><time>2019-11-22T12:02:00Z</time></trkpt>
<trkpt lat="45.361753" lon="-121.702608"><ele>2738</ele><time>2019-11-22T12:02:00Z</time></trkpt>
<trkpt lat="45.361753" lon="-121.702599"><ele>2739</ele><time>2019-11-22T12:02:00Z</time></trkpt>
<trkpt lat="45.361756" lon="-121.702586"><ele>2739</ele><time>2019-11-22T12:02:00Z</time></trkpt>
<trkpt lat="45.361781" lon="-121.702574"><ele>2742</ele><time>2019-11-22T12:02:00Z</time></trkpt>
<trkpt lat="45.36183" lon="-121.702589"><ele>2741</ele><time>2019-11-22T12:02:00Z</time></trkpt>
<trkpt lat="45.361903" lon="-121.70257"><ele>2740</ele><time>2019-11-22T12:03:00Z</time></trkpt>
<trkpt lat="45.361927" lon="-121.702552"><ele>2741</ele><time>2019-11-22T12:03:00Z</time></trkpt>
<trkpt lat="45.361931" lon="-121.702549"><ele>2741</ele><time>2019-11-22T12:03:00Z</time></trkpt>
<trkpt lat="45.361955" lon="-121.702541"><ele>2742</ele><time>2019-11-22T12:03:00Z</time></trkpt>
<trkpt lat="45.361993" lon="-121.702498"><ele>2744</ele><time>2019-11-22T12:04:00Z</time></trkpt>
<trkpt lat="45.361991" lon="-121.702462"><ele>2747</ele><time>2019-11-22T12:04:00Z</time></trkpt>
<trkpt lat="45.362025" lon="-121.702363"><ele>2751</ele><time>2019-11-22T12:04:00Z</time></trkpt>
<trkpt lat="45.362031" lon="-121.702322"><ele>2753</ele><time>2019-11-22T12:05:00Z</time></trkpt>
<trkpt lat="45.362105" lon="-121.702217"><ele>2762</ele><time>2019-11-22T12:06:00Z</time></trkpt>
<trkpt lat="45.36213" lon="-121.702207"><ele>2761</ele><time>2019-11-22T12:06:00Z</time></trkpt>
<trkpt lat="45.362158" lon="-121.702218"><ele>2763</ele><time>2019-11-22T12:06:00Z</time></trkpt>
<trkpt lat="45.362164" lon="-121.702221"><ele>2763</ele><time>2019-11-22T12:06:00Z</time></trkpt>
<trkpt lat="45.362196" lon="-121.702221"><ele>2766</ele><time>2019-11-22T12:06:00Z</time></trkpt>
<trkpt lat="45.362216" lon="-121.702235"><ele>2766</ele><time>2019-11-22T12:07:00Z</time></trkpt>
<trkpt lat="45.36223" lon="-121.702264"><ele>2765</ele><time>2019-11-22T12:07:00Z</time></trkpt>
<trkpt lat="45.362266" lon="-121.702273"><ele>2762</ele><time>2019-11-22T12:07:00Z</time></trkpt>
<trkpt lat="45.362281" lon="-121.702299"><ele>2763</ele><time>2019-11-22T12:07:00Z</time></trkpt>
<trkpt lat="45.362295" lon="-121.702265"><ele>2762</ele><time>2019-11-22T12:07:00Z</time></trkpt>
<trkpt lat="45.362308" lon="-121.702227"><ele>2764</ele><time>2019-11-22T12:08:00Z</time></trkpt>
<trkpt lat="45.362333" lon="-121.70222"><ele>2769</ele><time>2019-11-22T12:08:00Z</time></trkpt>
<trkpt lat="45.362374" lon="-121.70226"><ele>2772</ele><time>2019-11-22T12:08:00Z</time></trkpt>
<trkpt lat="45.362422" lon="-121.702272"><ele>2775</ele><time>2019-11-22T12:09:00Z</time></trkpt>
<trkpt lat="45.362442" lon="-121.702251"><ele>2775</ele><time>2019-11-22T12:09:00Z</time></trkpt>
<trkpt lat="45.362437" lon="-121.702228"><ele>2775</ele><time>2019-11-22T12:09:00Z</time></trkpt>
<trkpt lat="45.362435" lon="-121.702222"><ele>2775</ele><time>2019-11-22T12:09:00Z</time></trkpt>
<trkpt lat="45.362463" lon="-121.702214"><ele>2778</ele><time>2019-11-22T12:09:00Z</time></trkpt>
<trkpt lat="45.36248" lon="-121.70224"><ele>2781</ele><time>2019-11-22T12:09:00Z</time></trkpt>
<trkpt lat="45.362506" lon="-121.702238"><ele>2783</ele><time>2019-11-22T12:10:00Z</time></trkpt>
<trkpt lat="45.362547" lon="-121.702313"><ele>2783</ele><time>2019-11-22T12:10:00Z</time></trkpt>
<trkpt lat="45.362573" lon="-121.702295"><ele>2780</ele><time>2019-11-22T12:10:00Z</time></trkpt>
<trkpt lat="45.362593" lon="-121.702298"><ele>2783</ele><time>2019-11-22T12:10:00Z</time></trkpt>
<trkpt lat="45.362608" lon="-121.702269"><ele>2781</ele><time>2019-11-22T12:11:00Z</time></trkpt>
<trkpt lat="45.362632" lon="-121.702277"><ele>2782</ele><time>2019-11-22T12:11:00Z</time></trkpt>
<trkpt lat="45.362648" lon="-121.702295"><ele>2783</ele><time>2019-11-22T12:11:00Z</time></trkpt>
<trkpt lat="45.362695" lon="-121.702285"><ele>2785</ele><time>2019-11-22T12:11:00Z</time></trkpt>
<trkpt lat="45.362715" lon="-121.702325"><ele>2785</ele><time>2019-11-22T12:11:00Z</time></trkpt>
<trkpt lat="45.36272" lon="-121.702329"><ele>2785</ele><time>2019-11-22T12:11:00Z</time></trkpt>
<trkpt lat="45.362725" lon="-121.702337"><ele>2785</ele><time>2019-11-22T12:11:00Z</time></trkpt>
<trkpt lat="45.362736" lon="-121.702303"><ele>2785</ele><time>2019-11-22T12:11:00Z</time></trkpt>
<trkpt lat="45.362761" lon="-121.702317"><ele>2787</ele><time>2019-11-22T12:12:00Z</time></trkpt>
<trkpt lat="45.362781" lon="-121.702307"><ele>2788</ele><time>2019-11-22T12:20:00Z</time></trkpt>
<trkpt lat="45.362803" lon="-121.70231"><ele>2791</ele><time>2019-11-22T12:21:00Z</time></trkpt>
<trkpt lat="45.362837" lon="-121.70226"><ele>2794</ele><time>2019-11-22T12:21:00Z</time></trkpt>
<trkpt lat="45.362863" lon="-121.702241"><ele>2796</ele><time>2019-11-22T12:21:00Z</time></trkpt>
<trkpt lat="45.36289" lon="-121.702242"><ele>2799</ele><time>2019-11-22T12:21:00Z</time></trkpt>
<trkpt lat="45.362904" lon="-121.702215"><ele>2799</ele><time>2019-11-22T12:22:00Z</time></trkpt>
<trkpt lat="45.362926" lon="-121.702218"><ele>2800</ele><time>2019-11-22T12:22:00Z</time></trkpt>
<trkpt lat="45.362965" lon="-121.702172"><ele>2804</ele><time>2019-11-22T12:22:00Z</time></trkpt>
<trkpt lat="45.362976" lon="-121.702141"><ele>2804</ele><time>2019-11-22T12:22:00Z</time></trkpt>
<trkpt lat="45.363006" lon="-121.702133"><ele>2804</ele><time>2019-11-22T12:23:00Z</time></trkpt>
<trkpt lat="45.363008" lon="-121.702139"><ele>2804</ele><time>2019-11-22T12:23:00Z</time></trkpt>
<trkpt lat="45.363058" lon="-121.702122"><ele>2810</ele><time>2019-11-22T12:23:00Z</time></trkpt>
<trkpt lat="45.363109" lon="-121.702121"><ele>2812</ele><time>2019-11-22T12:24:00Z</time></trkpt>
<trkpt lat="45.363124" lon="-121.702162"><ele>2812</ele><time>2019-11-22T12:24:00Z</time></trkpt>
<trkpt lat="45.363148" lon="-121.702182"><ele>2812</ele><time>2019-11-22T12:24:00Z</time></trkpt>
<trkpt lat="45.363153" lon="-121.702177"><ele>2813</ele><time>2019-11-22T12:24:00Z</time></trkpt>
<trkpt lat="45.3632" lon="-121.702199"><ele>2811</ele><time>2019-11-22T12:24:00Z</time></trkpt>
<trkpt lat="45.363217" lon="-121.702227"><ele>2811</ele><time>2019-11-22T12:24:00Z</time></trkpt>
<trkpt lat="45.363286" lon="-121.702179"><ele>2816</ele><time>2019-11-22T12:25:00Z</time></trkpt>
<trkpt lat="45.363315" lon="-121.70218"><ele>2815</ele><time>2019-11-22T12:25:00Z</time></trkpt>
<trkpt lat="45.36334" lon="-121.702166"><ele>2817</ele><time>2019-11-22T12:25:00Z</time></trkpt>
<trkpt lat="45.363361" lon="-121.702102"><ele>2821</ele><time>2019-11-22T12:26:00Z</time></trkpt>
<trkpt lat="45.363404" lon="-121.702066"><ele>2822</ele><time>2019-11-22T12:26:00Z</time></trkpt>
<trkpt lat="45.363417" lon="-121.702034"><ele>2823</ele><time>2019-11-22T12:26:00Z</time></trkpt>
<trkpt lat="45.363443" lon="-121.702015"><ele>2823</ele><time>2019-11-22T12:26:00Z</time></trkpt>
<trkpt lat="45.363446" lon="-121.702013"><ele>2824</ele><time>2019-11-22T12:26:00Z</time></trkpt>
<trkpt lat="45.363464" lon="-121.701986"><ele>2822</ele><time>2019-11-22T12:26:00Z</time></trkpt>
<trkpt lat="45.363486" lon="-121.701918"><ele>2826</ele><time>2019-11-22T12:27:00Z</time></trkpt>
<trkpt lat="45.363528" lon="-121.70189"><ele>2827</ele><time>2019-11-22T12:27:00Z</time></trkpt>
<trkpt lat="45.363552" lon="-121.701824"><ele>2830</ele><time>2019-11-22T12:27:00Z</time></trkpt>
<trkpt lat="45.363556" lon="-121.701826"><ele>2830</ele><time>2019-11-22T12:27:00Z</time></trkpt>
<trkpt lat="45.363576" lon="-121.701806"><ele>2831</ele><time>2019-11-22T12:28:00Z</time></trkpt>
<trkpt lat="45.363621" lon="-121.701809"><ele>2832</ele><time>2019-11-22T12:28:00Z</time></trkpt>
<trkpt lat="45.363649" lon="-121.701755"><ele>2835</ele><time>2019-11-22T12:28:00Z</time></trkpt>
<trkpt lat="45.363651" lon="-121.701725"><ele>2837</ele><time>2019-11-22T12:28:00Z</time></trkpt>
<trkpt lat="45.363683" lon="-121.701716"><ele>2838</ele><time>2019-11-22T12:29:00Z</time></trkpt>
<trkpt lat="45.363686" lon="-121.701724"><ele>2837</ele><time>2019-11-22T12:29:00Z</time></trkpt>
<trkpt lat="45.363722" lon="-121.701639"><ele>2839</ele><time>2019-11-22T12:29:00Z</time></trkpt>
<trkpt lat="45.363747" lon="-121.701638"><ele>2840</ele><time>2019-11-22T12:30:00Z</time></trkpt>
<trkpt lat="45.363767" lon="-121.701623"><ele>2841</ele><time>2019-11-22T12:30:00Z</time></trkpt>
<trkpt lat="45.363787" lon="-121.701633"><ele>2841</ele><time>2019-11-22T12:30:00Z</time></trkpt>
<trkpt lat="45.363808" lon="-121.70161"><ele>2842</ele><time>2019-11-22T12:30:00Z</time></trkpt>
<trkpt lat="45.363816" lon="-121.701574"><ele>2841</ele><time>2019-11-22T12:30:00Z</time></trkpt>
<trkpt lat="45.363811" lon="-121.701539"><ele>2845</ele><time>2019-11-22T12:31:00Z</time></trkpt>
<trkpt lat="45.363868" lon="-121.701468"><ele>2849</ele><time>2019-11-22T12:31:00Z</time></trkpt>
<trkpt lat="45.36389" lon="-121.701402"><ele>2854</ele><time>2019-11-22T12:32:00Z</time></trkpt>
<trkpt lat="45.36394" lon="-121.701414"><ele>2857</ele><time>2019-11-22T12:32:00Z</time></trkpt>
<trkpt lat="45.363963" lon="-121.701402"><ele>2859</ele><time>2019-11-22T12:32:00Z</time></trkpt>
<trkpt lat="45.363976" lon="-121.701369"><ele>2861</ele><time>2019-11-22T12:33:00Z</time></trkpt>
<trkpt lat="45.364051" lon="-121.701335"><ele>2862</ele><time>2019-11-22T12:33:00Z</time></trkpt>
<trkpt lat="45.364075" lon="-121.701312"><ele>2862</ele><time>2019-11-22T12:33:00Z</time></trkpt>
<trkpt lat="45.364124" lon="-121.701288"><ele>2863</ele><time>2019-11-22T12:34:00Z</time></trkpt>
<trkpt lat="45.364155" lon="-121.701238"><ele>2863</ele><time>2019-11-22T12:34:00Z</time></trkpt>
<trkpt lat="45.364197" lon="-121.7012"><ele>2865</ele><time>2019-11-22T12:34:00Z</time></trkpt>
<trkpt lat="45.364215" lon="-121.70117"><ele>2865</ele><time>2019-11-22T12:34:00Z</time></trkpt>
<trkpt lat="45.364236" lon="-121.701039"><ele>2866</ele><time>2019-11-22T12:35:00Z</time></trkpt>
<trkpt lat="45.364223" lon="-121.700963"><ele>2870</ele><time>2019-11-22T12:35:00Z</time></trkpt>
<trkpt lat="45.364224" lon="-121.700955"><ele>2870</ele><time>2019-11-22T12:35:00Z</time></trkpt>
<trkpt lat="45.36425" lon="-121.700946"><ele>2871</ele><time>2019-11-22T12:35:00Z</time></trkpt>
<trkpt lat="45.364259" lon="-121.700913"><ele>2870</ele><time>2019-11-22T12:35:00Z</time></trkpt>
<trkpt lat="45.364257" lon="-121.700845"><ele>2870</ele><time>2019-11-22T12:35:00Z</time></trkpt>
<trkpt lat="45.36429" lon="-121.700793"><ele>2871</ele><time>2019-11-22T12:36:00Z</time></trkpt>
<trkpt lat="45.364315" lon="-121.70083"><ele>2870</ele><time>2019-11-22T12:36:00Z</time></trkpt>
<trkpt lat="45.364319" lon="-121.700833"><ele>2870</ele><time>2019-11-22T12:36:00Z</time></trkpt>
<trkpt lat="45.364346" lon="-121.70081"><ele>2870</ele><time>2019-11-22T12:36:00Z</time></trkpt>
<trkpt lat="45.364348" lon="-121.700846"><ele>2876</ele><time>2019-11-22T12:36:00Z</time></trkpt>
<trkpt lat="45.364394" lon="-121.700869"><ele>2876</ele><time>2019-11-22T12:37:00Z</time></trkpt>
<trkpt lat="45.364408" lon="-121.700896"><ele>2878</ele><time>2019-11-22T12:37:00Z</time></trkpt>
<trkpt lat="45.36446" lon="-121.700931"><ele>2875</ele><time>2019-11-22T12:37:00Z</time></trkpt>
<trkpt lat="45.364473" lon="-121.700965"><ele>2882</ele><time>2019-11-22T12:38:00Z</time></trkpt>
<trkpt lat="45.364529" lon="-121.700898"><ele>2883</ele><time>2019-11-22T12:38:00Z</time></trkpt>
<trkpt lat="45.364549" lon="-121.700908"><ele>2889</ele><time>2019-11-22T12:39:00Z</time></trkpt>
<trkpt lat="45.364573" lon="-121.700902"><ele>2893</ele><time>2019-11-22T12:39:00Z</time></trkpt>
<trkpt lat="45.364597" lon="-121.70088"><ele>2891</ele><time>2019-11-22T12:39:00Z</time></trkpt>
<trkpt lat="45.364588" lon="-121.700847"><ele>2894</ele><time>2019-11-22T12:39:00Z</time></trkpt>
<trkpt lat="45.364608" lon="-121.700828"><ele>2891</ele><time>2019-11-22T12:40:00Z</time></trkpt>
<trkpt lat="45.364636" lon="-121.700887"><ele>2892</ele><time>2019-11-22T12:40:00Z</time></trkpt>
<trkpt lat="45.364659" lon="-121.700875"><ele>2892</ele><time>2019-11-22T12:40:00Z</time></trkpt>
<trkpt lat="45.364703" lon="-121.7009"><ele>2892</ele><time>2019-11-22T12:40:00Z</time></trkpt>
<trkpt lat="45.364708" lon="-121.700899"><ele>2891</ele><time>2019-11-22T12:40:00Z</time></trkpt>
<trkpt lat="45.364732" lon="-121.700882"><ele>2896</ele><time>2019-11-22T12:41:00Z</time></trkpt>
<trkpt lat="45.364741" lon="-121.700849"><ele>2897</ele><time>2019-11-22T12:41:00Z</time></trkpt>
<trkpt lat="45.364768" lon="-121.700853"><ele>2899</ele><time>2019-11-22T12:42:00Z</time></trkpt>
<trkpt lat="45.364779" lon="-121.700887"><ele>2900</ele><time>2019-11-22T12:42:00Z</time></trkpt>
<trkpt lat="45.364805" lon="-121.700892"><ele>2900</ele><time>2019-11-22T12:42:00Z</time></trkpt>
<trkpt lat="45.364845" lon="-121.70094"><ele>2902</ele><time>2019-11-22T12:43:00Z</time></trkpt>
<trkpt lat="45.364851" lon="-121.700946"><ele>2903</ele><time>2019-11-22T12:43:00Z</time></trkpt>
<trkpt lat="45.364873" lon="-121.700973"><ele>2905</ele><time>2019-11-22T12:43:00Z</time></trkpt>
<trkpt lat="45.364919" lon="-121.700965"><ele>2911</ele><time>2019-11-22T12:43:00Z</time></trkpt>
<trkpt lat="45.36494" lon="-121.700949"><ele>2913</ele><time>2019-11-22T12:44:00Z</time></trkpt>
<trkpt lat="45.364985" lon="-121.70097"><ele>2914</ele><time>2019-11-22T12:44:00Z</time></trkpt>
<trkpt lat="45.365013" lon="-121.700955"><ele>2915</ele><time>2019-11-22T12:44:00Z</time></trkpt>
<trkpt lat="45.365091" lon="-121.700977"><ele>2914</ele><time>2019-11-22T12:44:00Z</time></trkpt>
<trkpt lat="45.365193" lon="-121.700972"><ele>2918</ele><time>2019-11-22T12:45:00Z</time></trkpt>
<trkpt lat="45.365202" lon="-121.700974"><ele>2917</ele><time>2019-11-22T12:45:00Z</time></trkpt>
<trkpt lat="45.365232" lon="-121.700978"><ele>2919</ele><time>2019-11-22T12:45:00Z</time></trkpt>
<trkpt lat="45.365275" lon="-121.701004"><ele>2919</ele><time>2019-11-22T12:45:00Z</time></trkpt>
<trkpt lat="45.365302" lon="-121.701005"><ele>2920</ele><time>2019-11-22T12:45:00Z</time></trkpt>
<trkpt lat="45.365373" lon="-121.700947"><ele>2921</ele><time>2019-11-22T12:46:00Z</time></trkpt>
<trkpt lat="45.365393" lon="-121.701012"><ele>2921</ele><time>2019-11-22T12:46:00Z</time></trkpt>
<trkpt lat="45.365434" lon="-121.700996"><ele>2923</ele><time>2019-11-22T12:46:00Z</time></trkpt>
<trkpt lat="45.365458" lon="-121.700998"><ele>2923</ele><time>2019-11-22T12:46:00Z</time></trkpt>
<trkpt lat="45.365485" lon="-121.700974"><ele>2923</ele><time>2019-11-22T12:46:00Z</time></trkpt>
<trkpt lat="45.365555" lon="-121.700915"><ele>2922</ele><time>2019-11-22T12:47:00Z</time></trkpt>
<trkpt lat="45.365628" lon="-121.700923"><ele>2920</ele><time>2019-11-22T12:47:00Z</time></trkpt>
<trkpt lat="45.365658" lon="-121.700904"><ele>2920</ele><time>2019-11-22T12:47:00Z</time></trkpt>
<trkpt lat="45.365662" lon="-121.700897"><ele>2920</ele><time>2019-11-22T12:47:00Z</time></trkpt>
<trkpt lat="45.36568" lon="-121.700863"><ele>2919</ele><time>2019-11-22T12:47:00Z</time></trkpt>
<trkpt lat="45.365725" lon="-121.700839"><ele>2921</ele><time>2019-11-22T12:47:00Z</time></trkpt>
<trkpt lat="45.36575" lon="-121.700842"><ele>2923</ele><time>2019-11-22T12:47:00Z</time></trkpt>
<trkpt lat="45.365795" lon="-121.700809"><ele>2928</ele><time>2019-11-22T12:48:00Z</time></trkpt>
<trkpt lat="45.365819" lon="-121.700827"><ele>2930</ele><time>2019-11-22T12:49:00Z</time></trkpt>
<trkpt lat="45.365872" lon="-121.700768"><ele>2933</ele><time>2019-11-22T12:50:00Z</time></trkpt>
<trkpt lat="45.365948" lon="-121.700741"><ele>2936</ele><time>2019-11-22T12:51:00Z</time></trkpt>
<trkpt lat="45.365975" lon="-121.700741"><ele>2937</ele><time>2019-11-22T12:51:00Z</time></trkpt>
<trkpt lat="45.365979" lon="-121.700742"><ele>2937</ele><time>2019-11-22T12:51:00Z</time></trkpt>
<trkpt lat="45.366009" lon="-121.700745"><ele>2938</ele><time>2019-11-22T12:51:00Z</time></trkpt>
<trkpt lat="45.366032" lon="-121.700725"><ele>2942</ele><time>2019-11-22T12:51:00Z</time></trkpt>
<trkpt lat="45.366082" lon="-121.700721"><ele>2944</ele><time>2019-11-22T12:52:00Z</time></trkpt>
<trkpt lat="45.366126" lon="-121.700697"><ele>2941</ele><time>2019-11-22T12:52:00Z</time></trkpt>
<trkpt lat="45.36615" lon="-121.700714"><ele>2941</ele><time>2019-11-22T12:52:00Z</time></trkpt>
<trkpt lat="45.366154" lon="-121.700716"><ele>2942</ele><time>2019-11-22T12:52:00Z</time></trkpt>
<trkpt lat="45.36617" lon="-121.700738"><ele>2943</ele><time>2019-11-22T12:52:00Z</time></trkpt>
<trkpt lat="45.366189" lon="-121.700734"><ele>2944</ele><time>2019-11-22T12:53:00Z</time></trkpt>
<trkpt lat="45.366203" lon="-121.700705"><ele>2945</ele><time>2019-11-22T12:53:00Z</time></trkpt>
<trkpt lat="45.366223" lon="-121.700705"><ele>2945</ele><time>2019-11-22T12:53:00Z</time></trkpt>
<trkpt lat="45.366242" lon="-121.700728"><ele>2951</ele><time>2019-11-22T12:53:00Z</time></trkpt>
<trkpt lat="45.366267" lon="-121.700735"><ele>2950</ele><time>2019-11-22T12:53:00Z</time></trkpt>
<trkpt lat="45.366292" lon="-121.700755"><ele>2949</ele><time>2019-11-22T12:54:00Z</time></trkpt>
<trkpt lat="45.366297" lon="-121.700771"><ele>2948</ele><time>2019-11-22T12:54:00Z</time></trkpt>
<trkpt lat="45.366298" lon="-121.70078"><ele>2948</ele><time>2019-11-22T12:54:00Z</time></trkpt>
<trkpt lat="45.366317" lon="-121.70078"><ele>2951</ele><time>2019-11-22T12:54:00Z</time></trkpt>
<trkpt lat="45.366356" lon="-121.700734"><ele>2953</ele><time>2019-11-22T12:54:00Z</time></trkpt>
<trkpt lat="45.366395" lon="-121.700756"><ele>2949</ele><time>2019-11-22T12:54:00Z</time></trkpt>
<trkpt lat="45.366408" lon="-121.700783"><ele>2951</ele><time>2019-11-22T12:55:00Z</time></trkpt>
<trkpt lat="45.36641" lon="-121.700733"><ele>2956</ele><time>2019-11-22T12:55:00Z</time></trkpt>
<trkpt lat="45.36641" lon="-121.700725"><ele>2955</ele><time>2019-11-22T12:55:00Z</time></trkpt>
<trkpt lat="45.366433" lon="-121.700712"><ele>2961</ele><time>2019-11-22T12:55:00Z</time></trkpt>
<trkpt lat="45.366455" lon="-121.700718"><ele>2960</ele><time>2019-11-22T12:56:00Z</time></trkpt>
<trkpt lat="45.366471" lon="-121.700745"><ele>2955</ele><time>2019-11-22T12:56:00Z</time></trkpt>
<trkpt lat="45.366496" lon="-121.700747"><ele>2957</ele><time>2019-11-22T12:56:00Z</time></trkpt>
<trkpt lat="45.36652" lon="-121.700813"><ele>2957</ele><time>2019-11-22T12:56:00Z</time></trkpt>
<trkpt lat="45.366518" lon="-121.700762"><ele>2959</ele><time>2019-11-22T12:56:00Z</time></trkpt>
<trkpt lat="45.366515" lon="-121.700754"><ele>2960</ele><time>2019-11-22T12:56:00Z</time></trkpt>
<trkpt lat="45.36654" lon="-121.700772"><ele>2959</ele><time>2019-11-22T12:56:00Z</time></trkpt>
<trkpt lat="45.366558" lon="-121.700774"><ele>2960</ele><time>2019-11-22T12:57:00Z</time></trkpt>
<trkpt lat="45.366595" lon="-121.700809"><ele>2957</ele><time>2019-11-22T12:57:00Z</time></trkpt>
<trkpt lat="45.366667" lon="-121.70084"><ele>2962</ele><time>2019-11-22T12:59:00Z</time></trkpt>
<trkpt lat="45.366671" lon="-121.700845"><ele>2962</ele><time>2019-11-22T12:59:00Z</time></trkpt>
<trkpt lat="45.366676" lon="-121.700854"><ele>2961</ele><time>2019-11-22T12:59:00Z</time></trkpt>
<trkpt lat="45.366688" lon="-121.700823"><ele>2966</ele><time>2019-11-22T12:59:00Z</time></trkpt>
<trkpt lat="45.36673" lon="-121.700863"><ele>2965</ele><time>2019-11-22T13:00:00Z</time></trkpt>
<trkpt lat="45.366752" lon="-121.700844"><ele>2971</ele><time>2019-11-22T13:00:00Z</time></trkpt>
<trkpt lat="45.366776" lon="-121.700853"><ele>2972</ele><time>2019-11-22T13:00:00Z</time></trkpt>
<trkpt lat="45.366791" lon="-121.700827"><ele>2974</ele><time>2019-11-22T13:01:00Z</time></trkpt>
<trkpt lat="45.366817" lon="-121.700814"><ele>2975</ele><time>2019-11-22T13:01:00Z</time></trkpt>
<trkpt lat="45.366848" lon="-121.700752"><ele>2980</ele><time>2019-11-22T13:02:00Z</time></trkpt>
<trkpt lat="45.3669" lon="-121.700739"><ele>2979</ele><time>2019-11-22T13:02:00Z</time></trkpt>
<trkpt lat="45.366915" lon="-121.700708"><ele>2978</ele><time>2019-11-22T13:02:00Z</time></trkpt>
<trkpt lat="45.366931" lon="-121.700717"><ele>2976</ele><time>2019-11-22T13:03:00Z</time></trkpt>
<trkpt lat="45.366947" lon="-121.700749"><ele>2977</ele><time>2019-11-22T13:03:00Z</time></trkpt>
<trkpt lat="45.366945" lon="-121.700713"><ele>2986</ele><time>2019-11-22T13:03:00Z</time></trkpt>
<trkpt lat="45.366971" lon="-121.700708"><ele>2991</ele><time>2019-11-22T13:03:00Z</time></trkpt>
<trkpt lat="45.366985" lon="-121.700772"><ele>2994</ele><time>2019-11-22T13:03:00Z</time></trkpt>
<trkpt lat="45.367007" lon="-121.700772"><ele>2992</ele><time>2019-11-22T13:04:00Z</time></trkpt>
<trkpt lat="45.367046" lon="-121.700824"><ele>2988</ele><time>2019-11-22T13:04:00Z</time></trkpt>
<trkpt lat="45.367074" lon="-121.700809"><ele>2987</ele><time>2019-11-22T13:04:00Z</time></trkpt>
<trkpt lat="45.367097" lon="-121.70082"><ele>2981</ele><time>2019-11-22T13:04:00Z</time></trkpt>
<trkpt lat="45.367114" lon="-121.70079"><ele>2987</ele><time>2019-11-22T13:05:00Z</time></trkpt>
<trkpt lat="45.367134" lon="-121.70081"><ele>2989</ele><time>2019-11-22T13:05:00Z</time></trkpt>
<trkpt lat="45.367158" lon="-121.700872"><ele>2991</ele><time>2019-11-22T13:05:00Z</time></trkpt>
<trkpt lat="45.367183" lon="-121.700874"><ele>2991</ele><time>2019-11-22T13:05:00Z</time></trkpt>
<trkpt lat="45.367185" lon="-121.700864"><ele>2992</ele><time>2019-11-22T13:05:00Z</time></trkpt>
<trkpt lat="45.367186" lon="-121.700859"><ele>2992</ele><time>2019-11-22T13:05:00Z</time></trkpt>
<trkpt lat="45.36724" lon="-121.700728"><ele>2999</ele><time>2019-11-22T13:06:00Z</time></trkpt>
<trkpt lat="45.367265" lon="-121.700731"><ele>2996</ele><time>2019-11-22T13:07:00Z</time></trkpt>
<trkpt lat="45.367299" lon="-121.700678"><ele>2997</ele><time>2019-11-22T13:07:00Z</time></trkpt>
<trkpt lat="45.367304" lon="-121.700679"><ele>2996</ele><time>2019-11-22T13:07:00Z</time></trkpt>
<trkpt lat="45.367305" lon="-121.70064"><ele>2998</ele><time>2019-11-22T13:07:00Z</time></trkpt>
<trkpt lat="45.367321" lon="-121.700616"><ele>3000</ele><time>2019-11-22T13:08:00Z</time></trkpt>
<trkpt lat="45.367333" lon="-121.700554"><ele>3003</ele><time>2019-11-22T13:08:00Z</time></trkpt>
<trkpt lat="45.367354" lon="-121.700555"><ele>2999</ele><time>2019-11-22T13:08:00Z</time></trkpt>
<trkpt lat="45.367375" lon="-121.70053"><ele>3000</ele><time>2019-11-22T13:08:00Z</time></trkpt>
<trkpt lat="45.367402" lon="-121.700549"><ele>3005</ele><time>2019-11-22T13:09:00Z</time></trkpt>
<trkpt lat="45.367404" lon="-121.700554"><ele>3004</ele><time>2019-11-22T13:09:00Z</time></trkpt>
<trkpt lat="45.367421" lon="-121.700527"><ele>3008</ele><time>2019-11-22T13:09:00Z</time></trkpt>
<trkpt lat="45.367447" lon="-121.700526"><ele>3011</ele><time>2019-11-22T13:09:00Z</time></trkpt>
<trkpt lat="45.367467" lon="-121.700543"><ele>3009</ele><time>2019-11-22T13:09:00Z</time></trkpt>
<trkpt lat="45.367495" lon="-121.700639"><ele>3012</ele><time>2019-11-22T13:10:00Z</time></trkpt>
<trkpt lat="45.367521" lon="-121.700618"><ele>3018</ele><time>2019-11-22T13:11:00Z</time></trkpt>
<trkpt lat="45.367524" lon="-121.700611"><ele>3017</ele><time>2019-11-22T13:11:00Z</time></trkpt>
<trkpt lat="45.367547" lon="-121.700581"><ele>3021</ele><time>2019-11-22T13:11:00Z</time></trkpt>
<trkpt lat="45.367545" lon="-121.700545"><ele>3024</ele><time>2019-11-22T13:11:00Z</time></trkpt>
<trkpt lat="45.367567" lon="-121.700561"><ele>3023</ele><time>2019-11-22T13:11:00Z</time></trkpt>
<trkpt lat="45.367575" lon="-121.700597"><ele>3021</ele><time>2019-11-22T13:11:00Z</time></trkpt>
<trkpt lat="45.367601" lon="-121.700589"><ele>3027</ele><time>2019-11-22T13:12:00Z</time></trkpt>
<trkpt lat="45.367621" lon="-121.700612"><ele>3027</ele><time>2019-11-22T13:12:00Z</time></trkpt>
<trkpt lat="45.367648" lon="-121.700615"><ele>3027</ele><time>2019-11-22T13:12:00Z</time></trkpt>
<trkpt lat="45.367667" lon="-121.700588"><ele>3025</ele><time>2019-11-22T13:12:00Z</time></trkpt>
<trkpt lat="45.367687" lon="-121.700583"><ele>3024</ele><time>2019-11-22T13:12:00Z</time></trkpt>
<trkpt lat="45.367712" lon="-121.700596"><ele>3028</ele><time>2019-11-22T13:13:00Z</time></trkpt>
<trkpt lat="45.367723" lon="-121.700629"><ele>3026</ele><time>2019-11-22T13:13:00Z</time></trkpt>
<trkpt lat="45.367734" lon="-121.700568"><ele>3029</ele><time>2019-11-22T13:13:00Z</time></trkpt>
<trkpt lat="45.367763" lon="-121.700575"><ele>3028</ele><time>2019-11-22T13:13:00Z</time></trkpt>
<trkpt lat="45.367807" lon="-121.700481"><ele>3029</ele><time>2019-11-22T13:14:00Z</time></trkpt>
<trkpt lat="45.367855" lon="-121.700489"><ele>3030</ele><time>2019-11-22T13:15:00Z</time></trkpt>
<trkpt lat="45.367882" lon="-121.700425"><ele>3034</ele><time>2019-11-22T13:15:00Z</time></trkpt>
<trkpt lat="45.367884" lon="-121.700437"><ele>3032</ele><time>2019-11-22T13:15:00Z</time></trkpt>
<trkpt lat="45.367907" lon="-121.700451"><ele>3034</ele><time>2019-11-22T13:16:00Z</time></trkpt>
<trkpt lat="45.367931" lon="-121.70045"><ele>3033</ele><time>2019-11-22T13:16:00Z</time></trkpt>
<trkpt lat="45.367971" lon="-121.700359"><ele>3038</ele><time>2019-11-22T13:16:00Z</time></trkpt>
<trkpt lat="45.367989" lon="-121.700448"><ele>3034</ele><time>2019-11-22T13:16:00Z</time></trkpt>
<trkpt lat="45.367989" lon="-121.700457"><ele>3034</ele><time>2019-11-22T13:17:00Z</time></trkpt>
<trkpt lat="45.36797" lon="-121.700433"><ele>3036</ele><time>2019-11-22T13:18:00Z</time></trkpt>
<trkpt lat="45.36797" lon="-121.700394"><ele>3048</ele><time>2019-11-22T13:21:00Z</time></trkpt>
<trkpt lat="45.367983" lon="-121.700427"><ele>3031</ele><time>2019-11-22T13:22:00Z</time></trkpt>
<trkpt lat="45.368029" lon="-121.700388"><ele>3028</ele><time>2019-11-22T13:22:00Z</time></trkpt>
<trkpt lat="45.36801" lon="-121.700413"><ele>3028</ele><time>2019-11-22T13:23:00Z</time></trkpt>
<trkpt lat="45.367991" lon="-121.700374"><ele>3036</ele><time>2019-11-22T13:27:00Z</time></trkpt>
<trkpt lat="45.367966" lon="-121.700368"><ele>3041</ele><time>2019-11-22T13:32:00Z</time></trkpt>
<trkpt lat="45.367981" lon="-121.700338"><ele>3045</ele><time>2019-11-22T13:46:00Z</time></trkpt>
<trkpt lat="45.367963" lon="-121.700403"><ele>3037</ele><time>2019-11-22T13:49:00Z</time></trkpt>
<trkpt lat="45.367988" lon="-121.70039"><ele>3034</ele><time>2019-11-22T13:50:00Z</time></trkpt>
<trkpt lat="45.367989" lon="-121.70038"><ele>3035</ele><time>2019-11-22T13:50:00Z</time></trkpt>
<trkpt lat="45.367992" lon="-121.700369"><ele>3035</ele><time>2019-11-22T13:50:00Z</time></trkpt>
<trkpt lat="45.368014" lon="-121.700339"><ele>3035</ele><time>2019-11-22T13:50:00Z</time></trkpt>
<trkpt lat="45.368005" lon="-121.700304"><ele>3036</ele><time>2019-11-22T13:51:00Z</time></trkpt>
<trkpt lat="45.368008" lon="-121.700273"><ele>3036</ele><time>2019-11-22T13:51:00Z</time></trkpt>
<trkpt lat="45.368032" lon="-121.700178"><ele>3037</ele><time>2019-11-22T13:51:00Z</time></trkpt>
<trkpt lat="45.368048" lon="-121.700146"><ele>3038</ele><time>2019-11-22T13:51:00Z</time></trkpt>
<trkpt lat="45.368052" lon="-121.700139"><ele>3038</ele><time>2019-11-22T13:51:00Z</time></trkpt>
<trkpt lat="45.368095" lon="-121.700007"><ele>3041</ele><time>2019-11-22T13:52:00Z</time></trkpt>
<trkpt lat="45.368096" lon="-121.699947"><ele>3044</ele><time>2019-11-22T13:52:00Z</time></trkpt>
<trkpt lat="45.368114" lon="-121.699915"><ele>3045</ele><time>2019-11-22T13:52:00Z</time></trkpt>
<trkpt lat="45.368116" lon="-121.699911"><ele>3044</ele><time>2019-11-22T13:52:00Z</time></trkpt>
<trkpt lat="45.368125" lon="-121.699843"><ele>3047</ele><time>2019-11-22T13:53:00Z</time></trkpt>
<trkpt lat="45.368176" lon="-121.69978"><ele>3048</ele><time>2019-11-22T13:53:00Z</time></trkpt>
<trkpt lat="45.368196" lon="-121.69971"><ele>3050</ele><time>2019-11-22T13:53:00Z</time></trkpt>
<trkpt lat="45.368198" lon="-121.699705"><ele>3050</ele><time>2019-11-22T13:53:00Z</time></trkpt>
<trkpt lat="45.368223" lon="-121.699601"><ele>3053</ele><time>2019-11-22T13:54:00Z</time></trkpt>
<trkpt lat="45.368214" lon="-121.699499"><ele>3059</ele><time>2019-11-22T13:55:00Z</time></trkpt>
<trkpt lat="45.368221" lon="-121.699454"><ele>3060</ele><time>2019-11-22T13:55:00Z</time></trkpt>
<trkpt lat="45.368214" lon="-121.699442"><ele>3061</ele><time>2019-11-22T13:55:00Z</time></trkpt>
<trkpt lat="45.368232" lon="-121.699339"><ele>3061</ele><time>2019-11-22T13:55:00Z</time></trkpt>
<trkpt lat="45.368256" lon="-121.699282"><ele>3063</ele><time>2019-11-22T13:56:00Z</time></trkpt>
<trkpt lat="45.368244" lon="-121.699212"><ele>3066</ele><time>2019-11-22T13:56:00Z</time></trkpt>
<trkpt lat="45.36822" lon="-121.699152"><ele>3067</ele><time>2019-11-22T13:56:00Z</time></trkpt>
<trkpt lat="45.368218" lon="-121.699116"><ele>3069</ele><time>2019-11-22T13:56:00Z</time></trkpt>
<trkpt lat="45.368235" lon="-121.699053"><ele>3071</ele><time>2019-11-22T13:57:00Z</time></trkpt>
<trkpt lat="45.368257" lon="-121.699037"><ele>3072</ele><time>2019-11-22T13:57:00Z</time></trkpt>
<trkpt lat="45.368276" lon="-121.699005"><ele>3076</ele><time>2019-11-22T13:57:00Z</time></trkpt>
<trkpt lat="45.368278" lon="-121.698995"><ele>3077</ele><time>2019-11-22T13:57:00Z</time></trkpt>
<trkpt lat="45.368297" lon="-121.698918"><ele>3079</ele><time>2019-11-22T13:58:00Z</time></trkpt>
<trkpt lat="45.368318" lon="-121.6989"><ele>3076</ele><time>2019-11-22T13:58:00Z</time></trkpt>
<trkpt lat="45.36834" lon="-121.698898"><ele>3076</ele><time>2019-11-22T13:58:00Z</time></trkpt>
<trkpt lat="45.368338" lon="-121.69891"><ele>3077</ele><time>2019-11-22T13:58:00Z</time></trkpt>
<trkpt lat="45.368313" lon="-121.698931"><ele>3077</ele><time>2019-11-22T13:58:00Z</time></trkpt>
<trkpt lat="45.368329" lon="-121.698882"><ele>3080</ele><time>2019-11-22T13:58:00Z</time></trkpt>
<trkpt lat="45.368335" lon="-121.698875"><ele>3081</ele><time>2019-11-22T13:58:00Z</time></trkpt>
<trkpt lat="45.368368" lon="-121.698863"><ele>3081</ele><time>2019-11-22T13:58:00Z</time></trkpt>
<trkpt lat="45.368389" lon="-121.698842"><ele>3083</ele><time>2019-11-22T13:59:00Z</time></trkpt>
<trkpt lat="45.368397" lon="-121.69881"><ele>3086</ele><time>2019-11-22T13:59:00Z</time></trkpt>
<trkpt lat="45.368415" lon="-121.69882"><ele>3084</ele><time>2019-11-22T13:59:00Z</time></trkpt>
<trkpt lat="45.368439" lon="-121.698808"><ele>3083</ele><time>2019-11-22T13:59:00Z</time></trkpt>
<trkpt lat="45.368442" lon="-121.69877"><ele>3086</ele><time>2019-11-22T13:59:00Z</time></trkpt>
<trkpt lat="45.368469" lon="-121.698773"><ele>3084</ele><time>2019-11-22T13:59:00Z</time></trkpt>
<trkpt lat="45.368472" lon="-121.69877"><ele>3084</ele><time>2019-11-22T13:59:00Z</time></trkpt>
<trkpt lat="45.368515" lon="-121.698679"><ele>3084</ele><time>2019-11-22T14:00:00Z</time></trkpt>
<trkpt lat="45.368554" lon="-121.698638"><ele>3084</ele><time>2019-11-22T14:00:00Z</time></trkpt>
<trkpt lat="45.368539" lon="-121.698621"><ele>3085</ele><time>2019-11-22T14:00:00Z</time></trkpt>
<trkpt lat="45.368551" lon="-121.698582"><ele>3086</ele><time>2019-11-22T14:00:00Z</time></trkpt>
<trkpt lat="45.368545" lon="-121.698581"><ele>3086</ele><time>2019-11-22T14:00:00Z</time></trkpt>
<trkpt lat="45.368529" lon="-121.698567"><ele>3087</ele><time>2019-11-22T14:00:00Z</time></trkpt>
<trkpt lat="45.368478" lon="-121.698553"><ele>3093</ele><time>2019-11-22T14:01:00Z</time></trkpt>
<trkpt lat="45.368494" lon="-121.698528"><ele>3092</ele><time>2019-11-22T14:01:00Z</time></trkpt>
<trkpt lat="45.368538" lon="-121.698501"><ele>3088</ele><time>2019-11-22T14:01:00Z</time></trkpt>
<trkpt lat="45.368569" lon="-121.698505"><ele>3088</ele><time>2019-11-22T14:02:00Z</time></trkpt>
<trkpt lat="45.368576" lon="-121.6985"><ele>3088</ele><time>2019-11-22T14:02:00Z</time></trkpt>
<trkpt lat="45.368604" lon="-121.698484"><ele>3090</ele><time>2019-11-22T14:02:00Z</time></trkpt>
<trkpt lat="45.368632" lon="-121.698509"><ele>3091</ele><time>2019-11-22T14:02:00Z</time></trkpt>
<trkpt lat="45.368705" lon="-121.698517"><ele>3085</ele><time>2019-11-22T14:02:00Z</time></trkpt>
<trkpt lat="45.368722" lon="-121.698542"><ele>3086</ele><time>2019-11-22T14:02:00Z</time></trkpt>
<trkpt lat="45.368756" lon="-121.698541"><ele>3087</ele><time>2019-11-22T14:02:00Z</time></trkpt>
<trkpt lat="45.368765" lon="-121.698541"><ele>3086</ele><time>2019-11-22T14:02:00Z</time></trkpt>
<trkpt lat="45.36879" lon="-121.698561"><ele>3083</ele><time>2019-11-22T14:03:00Z</time></trkpt>
<trkpt lat="45.368801" lon="-121.698529"><ele>3080</ele><time>2019-11-22T14:04:00Z</time></trkpt>
<trkpt lat="45.368824" lon="-121.698511"><ele>3084</ele><time>2019-11-22T14:04:00Z</time></trkpt>
<trkpt lat="45.368836" lon="-121.69848"><ele>3082</ele><time>2019-11-22T14:04:00Z</time></trkpt>
<trkpt lat="45.368901" lon="-121.698486"><ele>3078</ele><time>2019-11-22T14:04:00Z</time></trkpt>
<trkpt lat="45.36895" lon="-121.698523"><ele>3081</ele><time>2019-11-22T14:04:00Z</time></trkpt>
<trkpt lat="45.368953" lon="-121.698589"><ele>3088</ele><time>2019-11-22T14:05:00Z</time></trkpt>
<trkpt lat="45.368979" lon="-121.698588"><ele>3093</ele><time>2019-11-22T14:05:00Z</time></trkpt>
<trkpt lat="45.368989" lon="-121.69862"><ele>3089</ele><time>2019-11-22T14:05:00Z</time></trkpt>
<trkpt lat="45.368982" lon="-121.698658"><ele>3090</ele><time>2019-11-22T14:05:00Z</time></trkpt>
<trkpt lat="45.369009" lon="-121.698615"><ele>3088</ele><time>2019-11-22T14:05:00Z</time></trkpt>
<trkpt lat="45.369034" lon="-121.698603"><ele>3088</ele><time>2019-11-22T14:05:00Z</time></trkpt>
<trkpt lat="45.369058" lon="-121.698614"><ele>3086</ele><time>2019-11-22T14:06:00Z</time></trkpt>
<trkpt lat="45.36904" lon="-121.698641"><ele>3086</ele><time>2019-11-22T14:06:00Z</time></trkpt>
<trkpt lat="45.369065" lon="-121.698639"><ele>3083</ele><time>2019-11-22T14:06:00Z</time></trkpt>
<trkpt lat="45.369092" lon="-121.698622"><ele>3092</ele><time>2019-11-22T14:06:00Z</time></trkpt>
<trkpt lat="45.369084" lon="-121.698611"><ele>3094</ele><time>2019-11-22T14:06:00Z</time></trkpt>
<trkpt lat="45.369076" lon="-121.698601"><ele>3095</ele><time>2019-11-22T14:06:00Z</time></trkpt>
<trkpt lat="45.36912" lon="-121.698568"><ele>3099</ele><time>2019-11-22T14:07:00Z</time></trkpt>
<trkpt lat="45.369193" lon="-121.698573"><ele>3095</ele><time>2019-11-22T14:07:00Z</time></trkpt>
<trkpt lat="45.36922" lon="-121.698634"><ele>3087</ele><time>2019-11-22T14:07:00Z</time></trkpt>
<trkpt lat="45.369208" lon="-121.698645"><ele>3087</ele><time>2019-11-22T14:07:00Z</time></trkpt>
<trkpt lat="45.369204" lon="-121.698649"><ele>3086</ele><time>2019-11-22T14:07:00Z</time></trkpt>
<trkpt lat="45.369168" lon="-121.698745"><ele>3094</ele><time>2019-11-22T14:07:00Z</time></trkpt>
<trkpt lat="45.369178" lon="-121.698731"><ele>3101</ele><time>2019-11-22T14:08:00Z</time></trkpt>
<trkpt lat="45.369197" lon="-121.698729"><ele>3099</ele><time>2019-11-22T14:08:00Z</time></trkpt>
<trkpt lat="45.369222" lon="-121.69874"><ele>3099</ele><time>2019-11-22T14:08:00Z</time></trkpt>
<trkpt lat="45.369211" lon="-121.698707"><ele>3099</ele><time>2019-11-22T14:08:00Z</time></trkpt>
<trkpt lat="45.369219" lon="-121.698698"><ele>3099</ele><time>2019-11-22T14:08:00Z</time></trkpt>
<trkpt lat="45.369222" lon="-121.698684"><ele>3100</ele><time>2019-11-22T14:08:00Z</time></trkpt>
<trkpt lat="45.369224" lon="-121.698672"><ele>3101</ele><time>2019-11-22T14:08:00Z</time></trkpt>
<trkpt lat="45.3692" lon="-121.698655"><ele>3108</ele><time>2019-11-22T14:08:00Z</time></trkpt>
<trkpt lat="45.369263" lon="-121.698687"><ele>3108</ele><time>2019-11-22T14:09:00Z</time></trkpt>
<trkpt lat="45.369282" lon="-121.698711"><ele>3105</ele><time>2019-11-22T14:09:00Z</time></trkpt>
<trkpt lat="45.369285" lon="-121.698776"><ele>3101</ele><time>2019-11-22T14:09:00Z</time></trkpt>
<trkpt lat="45.369291" lon="-121.698777"><ele>3102</ele><time>2019-11-22T14:09:00Z</time></trkpt>
<trkpt lat="45.369324" lon="-121.698778"><ele>3103</ele><time>2019-11-22T14:09:00Z</time></trkpt>
<trkpt lat="45.36934" lon="-121.698757"><ele>3103</ele><time>2019-11-22T14:09:00Z</time></trkpt>
<trkpt lat="45.369319" lon="-121.698707"><ele>3116</ele><time>2019-11-22T14:10:00Z</time></trkpt>
<trkpt lat="45.369304" lon="-121.698779"><ele>3106</ele><time>2019-11-22T14:10:00Z</time></trkpt>
<trkpt lat="45.369313" lon="-121.698818"><ele>3103</ele><time>2019-11-22T14:10:00Z</time></trkpt>
<trkpt lat="45.369317" lon="-121.698823"><ele>3103</ele><time>2019-11-22T14:10:00Z</time></trkpt>
<trkpt lat="45.369333" lon="-121.698793"><ele>3111</ele><time>2019-11-22T14:10:00Z</time></trkpt>
<trkpt lat="45.369371" lon="-121.698808"><ele>3115</ele><time>2019-11-22T14:10:00Z</time></trkpt>
<trkpt lat="45.369405" lon="-121.698856"><ele>3119</ele><time>2019-11-22T14:11:00Z</time></trkpt>
<trkpt lat="45.369429" lon="-121.69885"><ele>3122</ele><time>2019-11-22T14:11:00Z</time></trkpt>
<trkpt lat="45.369476" lon="-121.69887"><ele>3127</ele><time>2019-11-22T14:12:00Z</time></trkpt>
<trkpt lat="45.369487" lon="-121.698868"><ele>3128</ele><time>2019-11-22T14:12:00Z</time></trkpt>
<trkpt lat="45.369509" lon="-121.698887"><ele>3137</ele><time>2019-11-22T14:12:00Z</time></trkpt>
<trkpt lat="45.369518" lon="-121.698859"><ele>3136</ele><time>2019-11-22T14:12:00Z</time></trkpt>
<trkpt lat="45.369543" lon="-121.698855"><ele>3132</ele><time>2019-11-22T14:13:00Z</time></trkpt>
<trkpt lat="45.369559" lon="-121.698799"><ele>3138</ele><time>2019-11-22T14:13:00Z</time></trkpt>
<trkpt lat="45.36958" lon="-121.698784"><ele>3137</ele><time>2019-11-22T14:13:00Z</time></trkpt>
<trkpt lat="45.369608" lon="-121.698787"><ele>3135</ele><time>2019-11-22T14:13:00Z</time></trkpt>
<trkpt lat="45.369611" lon="-121.698784"><ele>3136</ele><time>2019-11-22T14:13:00Z</time></trkpt>
<trkpt lat="45.36962" lon="-121.698829"><ele>3129</ele><time>2019-11-22T14:14:00Z</time></trkpt>
<trkpt lat="45.369645" lon="-121.698831"><ele>3136</ele><time>2019-11-22T14:15:00Z</time></trkpt>
<trkpt lat="45.369661" lon="-121.698803"><ele>3134</ele><time>2019-11-22T14:15:00Z</time></trkpt>
<trkpt lat="45.36968" lon="-121.69879"><ele>3135</ele><time>2019-11-22T14:15:00Z</time></trkpt>
<trkpt lat="45.369701" lon="-121.698723"><ele>3137</ele><time>2019-11-22T14:15:00Z</time></trkpt>
<trkpt lat="45.369704" lon="-121.698715"><ele>3139</ele><time>2019-11-22T14:15:00Z</time></trkpt>
<trkpt lat="45.369731" lon="-121.69871"><ele>3136</ele><time>2019-11-22T14:16:00Z</time></trkpt>
<trkpt lat="45.369782" lon="-121.69872"><ele>3136</ele><time>2019-11-22T14:17:00Z</time></trkpt>
<trkpt lat="45.369797" lon="-121.698748"><ele>3135</ele><time>2019-11-22T14:17:00Z</time></trkpt>
<trkpt lat="45.369872" lon="-121.698722"><ele>3129</ele><time>2019-11-22T14:18:00Z</time></trkpt>
<trkpt lat="45.369877" lon="-121.698732"><ele>3129</ele><time>2019-11-22T14:18:00Z</time></trkpt>
<trkpt lat="45.36992" lon="-121.698774"><ele>3130</ele><time>2019-11-22T14:18:00Z</time></trkpt>
<trkpt lat="45.369944" lon="-121.698763"><ele>3131</ele><time>2019-11-22T14:18:00Z</time></trkpt>
<trkpt lat="45.369959" lon="-121.698725"><ele>3132</ele><time>2019-11-22T14:18:00Z</time></trkpt>
<trkpt lat="45.369983" lon="-121.69872"><ele>3138</ele><time>2019-11-22T14:18:00Z</time></trkpt>
<trkpt lat="45.369994" lon="-121.698756"><ele>3135</ele><time>2019-11-22T14:18:00Z</time></trkpt>
<trkpt lat="45.36997" lon="-121.698736"><ele>3132</ele><time>2019-11-22T14:19:00Z</time></trkpt>
<trkpt lat="45.370058" lon="-121.698659"><ele>3132</ele><time>2019-11-22T14:19:00Z</time></trkpt>
<trkpt lat="45.37004" lon="-121.698616"><ele>3142</ele><time>2019-11-22T14:19:00Z</time></trkpt>
<trkpt lat="45.370111" lon="-121.698635"><ele>3144</ele><time>2019-11-22T14:19:00Z</time></trkpt>
<trkpt lat="45.370115" lon="-121.698658"><ele>3145</ele><time>2019-11-22T14:19:00Z</time></trkpt>
<trkpt lat="45.370146" lon="-121.69867"><ele>3147</ele><time>2019-11-22T14:19:00Z</time></trkpt>
<trkpt lat="45.370181" lon="-121.698635"><ele>3153</ele><time>2019-11-22T14:20:00Z</time></trkpt>
<trkpt lat="45.370189" lon="-121.698601"><ele>3158</ele><time>2019-11-22T14:20:00Z</time></trkpt>
<trkpt lat="45.370172" lon="-121.698568"><ele>3156</ele><time>2019-11-22T14:20:00Z</time></trkpt>
<trkpt lat="45.370205" lon="-121.698585"><ele>3161</ele><time>2019-11-22T14:20:00Z</time></trkpt>
<trkpt lat="45.37019" lon="-121.698603"><ele>3165</ele><time>2019-11-22T14:20:00Z</time></trkpt>
<trkpt lat="45.37018" lon="-121.698601"><ele>3165</ele><time>2019-11-22T14:20:00Z</time></trkpt>
<trkpt lat="45.370175" lon="-121.698602"><ele>3165</ele><time>2019-11-22T14:20:00Z</time></trkpt>
<trkpt lat="45.370153" lon="-121.698574"><ele>3172</ele><time>2019-11-22T14:20:00Z</time></trkpt>
<trkpt lat="45.370129" lon="-121.698596"><ele>3171</ele><time>2019-11-22T14:20:00Z</time></trkpt>
<trkpt lat="45.370157" lon="-121.698587"><ele>3164</ele><time>2019-11-22T14:21:00Z</time></trkpt>
<trkpt lat="45.37015" lon="-121.698481"><ele>3142</ele><time>2019-11-22T14:22:00Z</time></trkpt>
<trkpt lat="45.37016" lon="-121.698488"><ele>3143</ele><time>2019-11-22T14:22:00Z</time></trkpt>
<trkpt lat="45.370184" lon="-121.6985"><ele>3148</ele><time>2019-11-22T14:22:00Z</time></trkpt>
<trkpt lat="45.370164" lon="-121.698522"><ele>3144</ele><time>2019-11-22T14:22:00Z</time></trkpt>
<trkpt lat="45.370217" lon="-121.69849"><ele>3151</ele><time>2019-11-22T14:23:00Z</time></trkpt>
<trkpt lat="45.37024" lon="-121.698509"><ele>3151</ele><time>2019-11-22T14:23:00Z</time></trkpt>
<trkpt lat="45.370344" lon="-121.698462"><ele>3158</ele><time>2019-11-22T14:23:00Z</time></trkpt>
<trkpt lat="45.370348" lon="-121.698456"><ele>3158</ele><time>2019-11-22T14:23:00Z</time></trkpt>
<trkpt lat="45.370347" lon="-121.698401"><ele>3155</ele><time>2019-11-22T14:23:00Z</time></trkpt>
<trkpt lat="45.370383" lon="-121.698372"><ele>3154</ele><time>2019-11-22T14:24:00Z</time></trkpt>
<trkpt lat="45.370417" lon="-121.698362"><ele>3156</ele><time>2019-11-22T14:24:00Z</time></trkpt>
<trkpt lat="45.370409" lon="-121.698294"><ele>3151</ele><time>2019-11-22T14:24:00Z</time></trkpt>
<trkpt lat="45.370441" lon="-121.698234"><ele>3154</ele><time>2019-11-22T14:24:00Z</time></trkpt>
<trkpt lat="45.37045" lon="-121.69818"><ele>3156</ele><time>2019-11-22T14:24:00Z</time></trkpt>
<trkpt lat="45.370454" lon="-121.698171"><ele>3157</ele><time>2019-11-22T14:24:00Z</time></trkpt>
<trkpt lat="45.370488" lon="-121.698087"><ele>3151</ele><time>2019-11-22T14:25:00Z</time></trkpt>
<trkpt lat="45.370562" lon="-121.698102"><ele>3146</ele><time>2019-11-22T14:25:00Z</time></trkpt>
<trkpt lat="45.370618" lon="-121.698081"><ele>3147</ele><time>2019-11-22T14:25:00Z</time></trkpt>
<trkpt lat="45.370622" lon="-121.698077"><ele>3148</ele><time>2019-11-22T14:25:00Z</time></trkpt>
<trkpt lat="45.370639" lon="-121.698042"><ele>3149</ele><time>2019-11-22T14:25:00Z</time></trkpt>
<trkpt lat="45.370632" lon="-121.698006"><ele>3154</ele><time>2019-11-22T14:26:00Z</time></trkpt>
<trkpt lat="45.370636" lon="-121.697971"><ele>3153</ele><time>2019-11-22T14:26:00Z</time></trkpt>
<trkpt lat="45.370615" lon="-121.697966"><ele>3160</ele><time>2019-11-22T14:26:00Z</time></trkpt>
<trkpt lat="45.370616" lon="-121.697949"><ele>3161</ele><time>2019-11-22T14:26:00Z</time></trkpt>
<trkpt lat="45.370646" lon="-121.697948"><ele>3159</ele><time>2019-11-22T14:26:00Z</time></trkpt>
<trkpt lat="45.370663" lon="-121.697913"><ele>3158</ele><time>2019-11-22T14:26:00Z</time></trkpt>
<trkpt lat="45.370665" lon="-121.697909"><ele>3158</ele><time>2019-11-22T14:26:00Z</time></trkpt>
<trkpt lat="45.370672" lon="-121.697904"><ele>3158</ele><time>2019-11-22T14:26:00Z</time></trkpt>
<trkpt lat="45.370653" lon="-121.697877"><ele>3163</ele><time>2019-11-22T14:26:00Z</time></trkpt>
<trkpt lat="45.370693" lon="-121.697796"><ele>3152</ele><time>2019-11-22T14:26:00Z</time></trkpt>
<trkpt lat="45.370718" lon="-121.697786"><ele>3151</ele><time>2019-11-22T14:26:00Z</time></trkpt>
<trkpt lat="45.370743" lon="-121.697793"><ele>3150</ele><time>2019-11-22T14:26:00Z</time></trkpt>
<trkpt lat="45.370755" lon="-121.697752"><ele>3156</ele><time>2019-11-22T14:27:00Z</time></trkpt>
<trkpt lat="45.370752" lon="-121.697743"><ele>3157</ele><time>2019-11-22T14:27:00Z</time></trkpt>
<trkpt lat="45.370741" lon="-121.697705"><ele>3156</ele><time>2019-11-22T14:27:00Z</time></trkpt>
<trkpt lat="45.370749" lon="-121.697673"><ele>3155</ele><time>2019-11-22T14:27:00Z</time></trkpt>
<trkpt lat="45.370695" lon="-121.697518"><ele>3154</ele><time>2019-11-22T14:27:00Z</time></trkpt>
<trkpt lat="45.370695" lon="-121.697511"><ele>3155</ele><time>2019-11-22T14:27:00Z</time></trkpt>
<trkpt lat="45.37073" lon="-121.697455"><ele>3152</ele><time>2019-11-22T14:28:00Z</time></trkpt>
<trkpt lat="45.370752" lon="-121.697444"><ele>3153</ele><time>2019-11-22T14:28:00Z</time></trkpt>
<trkpt lat="45.370762" lon="-121.697402"><ele>3153</ele><time>2019-11-22T14:28:00Z</time></trkpt>
<trkpt lat="45.370784" lon="-121.697402"><ele>3154</ele><time>2019-11-22T14:28:00Z</time></trkpt>
<trkpt lat="45.370765" lon="-121.697363"><ele>3169</ele><time>2019-11-22T14:28:00Z</time></trkpt>
<trkpt lat="45.370762" lon="-121.697356"><ele>3169</ele><time>2019-11-22T14:28:00Z</time></trkpt>
<trkpt lat="45.370757" lon="-121.697308"><ele>3165</ele><time>2019-11-22T14:29:00Z</time></trkpt>
<trkpt lat="45.370801" lon="-121.697297"><ele>3166</ele><time>2019-11-22T14:29:00Z</time></trkpt>
<trkpt lat="45.37078" lon="-121.697231"><ele>3168</ele><time>2019-11-22T14:30:00Z</time></trkpt>
<trkpt lat="45.370808" lon="-121.697166"><ele>3168</ele><time>2019-11-22T14:30:00Z</time></trkpt>
<trkpt lat="45.37081" lon="-121.697161"><ele>3168</ele><time>2019-11-22T14:30:00Z</time></trkpt>
<trkpt lat="45.370788" lon="-121.697087"><ele>3175</ele><time>2019-11-22T14:31:00Z</time></trkpt>
<trkpt lat="45.370812" lon="-121.697057"><ele>3177</ele><time>2019-11-22T14:31:00Z</time></trkpt>
<trkpt lat="45.370837" lon="-121.697064"><ele>3178</ele><time>2019-11-22T14:31:00Z</time></trkpt>
<trkpt lat="45.370883" lon="-121.697038"><ele>3176</ele><time>2019-11-22T14:31:00Z</time></trkpt>
<trkpt lat="45.370883" lon="-121.69703"><ele>3176</ele><time>2019-11-22T14:31:00Z</time></trkpt>
<trkpt lat="45.370863" lon="-121.696988"><ele>3178</ele><time>2019-11-22T14:31:00Z</time></trkpt>
<trkpt lat="45.37084" lon="-121.696977"><ele>3176</ele><time>2019-11-22T14:31:00Z</time></trkpt>
<trkpt lat="45.370814" lon="-121.696883"><ele>3182</ele><time>2019-11-22T14:33:00Z</time></trkpt>
<trkpt lat="45.370822" lon="-121.696869"><ele>3182</ele><time>2019-11-22T14:33:00Z</time></trkpt>
<trkpt lat="45.370862" lon="-121.696859"><ele>3182</ele><time>2019-11-22T14:33:00Z</time></trkpt>
<trkpt lat="45.370875" lon="-121.696861"><ele>3181</ele><time>2019-11-22T14:33:00Z</time></trkpt>
<trkpt lat="45.370884" lon="-121.696863"><ele>3181</ele><time>2019-11-22T14:33:00Z</time></trkpt>
<trkpt lat="45.37086" lon="-121.696847"><ele>3186</ele><time>2019-11-22T14:33:00Z</time></trkpt>
<trkpt lat="45.370839" lon="-121.696844"><ele>3190</ele><time>2019-11-22T14:33:00Z</time></trkpt>
<trkpt lat="45.370826" lon="-121.696814"><ele>3189</ele><time>2019-11-22T14:34:00Z</time></trkpt>
<trkpt lat="45.370871" lon="-121.696824"><ele>3186</ele><time>2019-11-22T14:35:00Z</time></trkpt>
<trkpt lat="45.370888" lon="-121.696798"><ele>3184</ele><time>2019-11-22T14:35:00Z</time></trkpt>
<trkpt lat="45.370888" lon="-121.696758"><ele>3185</ele><time>2019-11-22T14:35:00Z</time></trkpt>
<trkpt lat="45.370899" lon="-121.696753"><ele>3183</ele><time>2019-11-22T14:35:00Z</time></trkpt>
<trkpt lat="45.370884" lon="-121.696733"><ele>3189</ele><time>2019-11-22T14:35:00Z</time></trkpt>
<trkpt lat="45.37088" lon="-121.696698"><ele>3183</ele><time>2019-11-22T14:36:00Z</time></trkpt>
<trkpt lat="45.370928" lon="-121.696658"><ele>3185</ele><time>2019-11-22T14:36:00Z</time></trkpt>
<trkpt lat="45.37095" lon="-121.696659"><ele>3189</ele><time>2019-11-22T14:37:00Z</time></trkpt>
<trkpt lat="45.371016" lon="-121.696625"><ele>3186</ele><time>2019-11-22T14:39:00Z</time></trkpt>
<trkpt lat="45.371028" lon="-121.696656"><ele>3196</ele><time>2019-11-22T14:39:00Z</time></trkpt>
<trkpt lat="45.371012" lon="-121.696674"><ele>3199</ele><time>2019-11-22T14:39:00Z</time></trkpt>
<trkpt lat="45.370992" lon="-121.696649"><ele>3199</ele><time>2019-11-22T14:39:00Z</time></trkpt>
<trkpt lat="45.37099" lon="-121.696644"><ele>3198</ele><time>2019-11-22T14:39:00Z</time></trkpt>
<trkpt lat="45.370977" lon="-121.69661"><ele>3199</ele><time>2019-11-22T14:40:00Z</time></trkpt>
<trkpt lat="45.370985" lon="-121.696598"><ele>3199</ele><time>2019-11-22T14:40:00Z</time></trkpt>
<trkpt lat="45.370971" lon="-121.696622"><ele>3208</ele><time>2019-11-22T14:40:00Z</time></trkpt>
<trkpt lat="45.370945" lon="-121.696621"><ele>3208</ele><time>2019-11-22T14:40:00Z</time></trkpt>
<trkpt lat="45.370949" lon="-121.696565"><ele>3206</ele><time>2019-11-22T14:41:00Z</time></trkpt>
<trkpt lat="45.370981" lon="-121.696549"><ele>3205</ele><time>2019-11-22T14:41:00Z</time></trkpt>
<trkpt lat="45.371002" lon="-121.696521"><ele>3210</ele><time>2019-11-22T14:41:00Z</time></trkpt>
<trkpt lat="45.371038" lon="-121.696512"><ele>3207</ele><time>2019-11-22T14:41:00Z</time></trkpt>
<trkpt lat="45.371046" lon="-121.696465"><ele>3218</ele><time>2019-11-22T14:41:00Z</time></trkpt>
<trkpt lat="45.371053" lon="-121.696537"><ele>3208</ele><time>2019-11-22T14:41:00Z</time></trkpt>
<trkpt lat="45.371043" lon="-121.696506"><ele>3217</ele><time>2019-11-22T14:42:00Z</time></trkpt>
<trkpt lat="45.371018" lon="-121.696503"><ele>3221</ele><time>2019-11-22T14:42:00Z</time></trkpt>
<trkpt lat="45.371041" lon="-121.696497"><ele>3218</ele><time>2019-11-22T14:43:00Z</time></trkpt>
<trkpt lat="45.371067" lon="-121.696457"><ele>3208</ele><time>2019-11-22T14:43:00Z</time></trkpt>
<trkpt lat="45.371092" lon="-121.696443"><ele>3213</ele><time>2019-11-22T14:43:00Z</time></trkpt>
<trkpt lat="45.371122" lon="-121.696403"><ele>3213</ele><time>2019-11-22T14:43:00Z</time></trkpt>
<trkpt lat="45.371125" lon="-121.69639"><ele>3214</ele><time>2019-11-22T14:43:00Z</time></trkpt>
<trkpt lat="45.371153" lon="-121.696377"><ele>3213</ele><time>2019-11-22T14:43:00Z</time></trkpt>
<trkpt lat="45.371135" lon="-121.6964"><ele>3213</ele><time>2019-11-22T14:44:00Z</time></trkpt>
<trkpt lat="45.371117" lon="-121.696393"><ele>3220</ele><time>2019-11-22T14:44:00Z</time></trkpt>
<trkpt lat="45.371074" lon="-121.696409"><ele>3216</ele><time>2019-11-22T14:44:00Z</time></trkpt>
<trkpt lat="45.371019" lon="-121.696392"><ele>3220</ele><time>2019-11-22T14:45:00Z</time></trkpt>
<trkpt lat="45.371012" lon="-121.696383"><ele>3221</ele><time>2019-11-22T14:45:00Z</time></trkpt>
<trkpt lat="45.371001" lon="-121.696327"><ele>3218</ele><time>2019-11-22T14:45:00Z</time></trkpt>
<trkpt lat="45.371035" lon="-121.696316"><ele>3221</ele><time>2019-11-22T14:45:00Z</time></trkpt>
<trkpt lat="45.37105" lon="-121.696352"><ele>3227</ele><time>2019-11-22T14:45:00Z</time></trkpt>
<trkpt lat="45.371026" lon="-121.696378"><ele>3231</ele><time>2019-11-22T14:45:00Z</time></trkpt>
<trkpt lat="45.370988" lon="-121.696369"><ele>3238</ele><time>2019-11-22T14:46:00Z</time></trkpt>
<trkpt lat="45.371006" lon="-121.69633"><ele>3231</ele><time>2019-11-22T14:47:00Z</time></trkpt>
<trkpt lat="45.37103" lon="-121.696345"><ele>3237</ele><time>2019-11-22T14:48:00Z</time></trkpt>
<trkpt lat="45.371055" lon="-121.696297"><ele>3234</ele><time>2019-11-22T14:49:00Z</time></trkpt>
<trkpt lat="45.371117" lon="-121.696244"><ele>3226</ele><time>2019-11-22T14:49:00Z</time></trkpt>
<trkpt lat="45.371123" lon="-121.69624"><ele>3225</ele><time>2019-11-22T14:49:00Z</time></trkpt>
<trkpt lat="45.371146" lon="-121.696246"><ele>3223</ele><time>2019-11-22T14:50:00Z</time></trkpt>
<trkpt lat="45.371181" lon="-121.696233"><ele>3230</ele><time>2019-11-22T14:50:00Z</time></trkpt>
<trkpt lat="45.371188" lon="-121.696253"><ele>3235</ele><time>2019-11-22T14:50:00Z</time></trkpt>
<trkpt lat="45.371173" lon="-121.696224"><ele>3238</ele><time>2019-11-22T14:51:00Z</time></trkpt>
<trkpt lat="45.371186" lon="-121.696188"><ele>3241</ele><time>2019-11-22T14:53:00Z</time></trkpt>
<trkpt lat="45.371183" lon="-121.696193"><ele>3241</ele><time>2019-11-22T14:53:00Z</time></trkpt>
<trkpt lat="45.371163" lon="-121.696235"><ele>3249</ele><time>2019-11-22T14:53:00Z</time></trkpt>
<trkpt lat="45.371154" lon="-121.696202"><ele>3251</ele><time>2019-11-22T14:59:00Z</time></trkpt>
<trkpt lat="45.371169" lon="-121.696181"><ele>3252</ele><time>2019-11-22T14:59:00Z</time></trkpt>
<trkpt lat="45.371154" lon="-121.696253"><ele>3247</ele><time>2019-11-22T15:01:00Z</time></trkpt>
<trkpt lat="45.371163" lon="-121.696217"><ele>3249</ele><time>2019-11-22T15:02:00Z</time></trkpt>
<trkpt lat="45.371136" lon="-121.69622"><ele>3250</ele><time>2019-11-22T15:06:00Z</time></trkpt>
<trkpt lat="45.371168" lon="-121.696231"><ele>3240</ele><time>2019-11-22T15:06:00Z</time></trkpt>
<trkpt lat="45.371173" lon="-121.696236"><ele>3238</ele><time>2019-11-22T15:06:00Z</time></trkpt>
<trkpt lat="45.371171" lon="-121.696312"><ele>3233</ele><time>2019-11-22T15:06:00Z</time></trkpt>
<trkpt lat="45.371187" lon="-121.696329"><ele>3232</ele><time>2019-11-22T15:06:00Z</time></trkpt>
<trkpt lat="45.37119" lon="-121.696365"><ele>3226</ele><time>2019-11-22T15:07:00Z</time></trkpt>
<trkpt lat="45.371214" lon="-121.69638"><ele>3224</ele><time>2019-11-22T15:07:00Z</time></trkpt>
<trkpt lat="45.371171" lon="-121.696436"><ele>3223</ele><time>2019-11-22T15:12:00Z</time></trkpt>
<trkpt lat="45.371167" lon="-121.696443"><ele>3223</ele><time>2019-11-22T15:12:00Z</time></trkpt>
<trkpt lat="45.371134" lon="-121.696443"><ele>3226</ele><time>2019-11-22T15:15:00Z</time></trkpt>
<trkpt lat="45.371091" lon="-121.696478"><ele>3232</ele><time>2019-11-22T15:16:00Z</time></trkpt>
<trkpt lat="45.371118" lon="-121.696506"><ele>3222</ele><time>2019-11-22T15:16:00Z</time></trkpt>
<trkpt lat="45.371142" lon="-121.696512"><ele>3220</ele><time>2019-11-22T15:16:00Z</time></trkpt>
<trkpt lat="45.37119" lon="-121.696477"><ele>3219</ele><time>2019-11-22T15:18:00Z</time></trkpt>
<trkpt lat="45.371235" lon="-121.696507"><ele>3220</ele><time>2019-11-22T15:19:00Z</time></trkpt>
<trkpt lat="45.371243" lon="-121.696502"><ele>3218</ele><time>2019-11-22T15:22:00Z</time></trkpt>
<trkpt lat="45.371248" lon="-121.696616"><ele>3217</ele><time>2019-11-22T15:22:00Z</time></trkpt>
<trkpt lat="45.371263" lon="-121.696601"><ele>3215</ele><time>2019-11-22T15:23:00Z</time></trkpt>
<trkpt lat="45.371275" lon="-121.696601"><ele>3215</ele><time>2019-11-22T15:23:00Z</time></trkpt>
<trkpt lat="45.371279" lon="-121.696604"><ele>3214</ele><time>2019-11-22T15:23:00Z</time></trkpt>
<trkpt lat="45.371305" lon="-121.696591"><ele>3213</ele><time>2019-11-22T15:23:00Z</time></trkpt>
<trkpt lat="45.371315" lon="-121.696626"><ele>3212</ele><time>2019-11-22T15:23:00Z</time></trkpt>
<trkpt lat="45.371299" lon="-121.696687"><ele>3214</ele><time>2019-11-22T15:23:00Z</time></trkpt>
<trkpt lat="45.371281" lon="-121.696712"><ele>3216</ele><time>2019-11-22T15:23:00Z</time></trkpt>
<trkpt lat="45.371276" lon="-121.696748"><ele>3221</ele><time>2019-11-22T15:24:00Z</time></trkpt>
<trkpt lat="45.371301" lon="-121.696788"><ele>3221</ele><time>2019-11-22T15:24:00Z</time></trkpt>
<trkpt lat="45.371309" lon="-121.696796"><ele>3221</ele><time>2019-11-22T15:24:00Z</time></trkpt>
<trkpt lat="45.371311" lon="-121.696805"><ele>3222</ele><time>2019-11-22T15:24:00Z</time></trkpt>
<trkpt lat="45.371334" lon="-121.696814"><ele>3223</ele><time>2019-11-22T15:24:00Z</time></trkpt>
<trkpt lat="45.371334" lon="-121.696848"><ele>3221</ele><time>2019-11-22T15:24:00Z</time></trkpt>
<trkpt lat="45.371355" lon="-121.696862"><ele>3215</ele><time>2019-11-22T15:24:00Z</time></trkpt>
<trkpt lat="45.371351" lon="-121.696925"><ele>3213</ele><time>2019-11-22T15:24:00Z</time></trkpt>
<trkpt lat="45.371376" lon="-121.696939"><ele>3211</ele><time>2019-11-22T15:25:00Z</time></trkpt>
<trkpt lat="45.371391" lon="-121.696918"><ele>3211</ele><time>2019-11-22T15:25:00Z</time></trkpt>
<trkpt lat="45.371435" lon="-121.696912"><ele>3198</ele><time>2019-11-22T15:25:00Z</time></trkpt>
<trkpt lat="45.371449" lon="-121.696912"><ele>3201</ele><time>2019-11-22T15:25:00Z</time></trkpt>
<trkpt lat="45.371456" lon="-121.696914"><ele>3201</ele><time>2019-11-22T15:25:00Z</time></trkpt>
<trkpt lat="45.371438" lon="-121.696942"><ele>3206</ele><time>2019-11-22T15:25:00Z</time></trkpt>
<trkpt lat="45.371411" lon="-121.696944"><ele>3211</ele><time>2019-11-22T15:25:00Z</time></trkpt>
<trkpt lat="45.371372" lon="-121.697"><ele>3215</ele><time>2019-11-22T15:25:00Z</time></trkpt>
<trkpt lat="45.371358" lon="-121.697032"><ele>3214</ele><time>2019-11-22T15:26:00Z</time></trkpt>
<trkpt lat="45.371385" lon="-121.697036"><ele>3213</ele><time>2019-11-22T15:26:00Z</time></trkpt>
<trkpt lat="45.371389" lon="-121.697037"><ele>3213</ele><time>2019-11-22T15:26:00Z</time></trkpt>
<trkpt lat="45.371417" lon="-121.697053"><ele>3210</ele><time>2019-11-22T15:26:00Z</time></trkpt>
<trkpt lat="45.371533" lon="-121.69704"><ele>3199</ele><time>2019-11-22T15:26:00Z</time></trkpt>
<trkpt lat="45.371548" lon="-121.697073"><ele>3202</ele><time>2019-11-22T15:27:00Z</time></trkpt>
<trkpt lat="45.371548" lon="-121.69708"><ele>3204</ele><time>2019-11-22T15:27:00Z</time></trkpt>
<trkpt lat="45.371556" lon="-121.697085"><ele>3203</ele><time>2019-11-22T15:27:00Z</time></trkpt>
<trkpt lat="45.371559" lon="-121.697116"><ele>3202</ele><time>2019-11-22T15:27:00Z</time></trkpt>
<trkpt lat="45.371537" lon="-121.697174"><ele>3208</ele><time>2019-11-22T15:27:00Z</time></trkpt>
<trkpt lat="45.371558" lon="-121.697191"><ele>3205</ele><time>2019-11-22T15:27:00Z</time></trkpt>
<trkpt lat="45.371575" lon="-121.697174"><ele>3206</ele><time>2019-11-22T15:27:00Z</time></trkpt>
<trkpt lat="45.371626" lon="-121.697205"><ele>3205</ele><time>2019-11-22T15:28:00Z</time></trkpt>
<trkpt lat="45.371634" lon="-121.697204"><ele>3205</ele><time>2019-11-22T15:28:00Z</time></trkpt>
<trkpt lat="45.37164" lon="-121.697203"><ele>3204</ele><time>2019-11-22T15:28:00Z</time></trkpt>
<trkpt lat="45.371618" lon="-121.697255"><ele>3210</ele><time>2019-11-22T15:29:00Z</time></trkpt>
<trkpt lat="45.371641" lon="-121.697258"><ele>3226</ele><time>2019-11-22T15:30:00Z</time></trkpt>
<trkpt lat="45.371659" lon="-121.69723"><ele>3225</ele><time>2019-11-22T15:31:00Z</time></trkpt>
<trkpt lat="45.371683" lon="-121.697213"><ele>3228</ele><time>2019-11-22T15:31:00Z</time></trkpt>
<trkpt lat="45.371662" lon="-121.697236"><ele>3229</ele><time>2019-11-22T15:31:00Z</time></trkpt>
<trkpt lat="45.371651" lon="-121.697276"><ele>3231</ele><time>2019-11-22T15:31:00Z</time></trkpt>
<trkpt lat="45.37161" lon="-121.697328"><ele>3236</ele><time>2019-11-22T15:32:00Z</time></trkpt>
<trkpt lat="45.371684" lon="-121.69731"><ele>3235</ele><time>2019-11-22T15:33:00Z</time></trkpt>
<trkpt lat="45.37167" lon="-121.697356"><ele>3240</ele><time>2019-11-22T15:33:00Z</time></trkpt>
<trkpt lat="45.371666" lon="-121.69736"><ele>3240</ele><time>2019-11-22T15:33:00Z</time></trkpt>
<trkpt lat="45.371655" lon="-121.697373"><ele>3241</ele><time>2019-11-22T15:33:00Z</time></trkpt>
<trkpt lat="45.371693" lon="-121.697374"><ele>3236</ele><time>2019-11-22T15:34:00Z</time></trkpt>
<trkpt lat="45.371715" lon="-121.697325"><ele>3236</ele><time>2019-11-22T15:34:00Z</time></trkpt>
<trkpt lat="45.371729" lon="-121.69731"><ele>3236</ele><time>2019-11-22T15:34:00Z</time></trkpt>
<trkpt lat="45.371748" lon="-121.697337"><ele>3243</ele><time>2019-11-22T15:36:00Z</time></trkpt>
<trkpt lat="45.371758" lon="-121.697301"><ele>3249</ele><time>2019-11-22T15:36:00Z</time></trkpt>
<trkpt lat="45.371776" lon="-121.697293"><ele>3255</ele><time>2019-11-22T15:38:00Z</time></trkpt>
<trkpt lat="45.3718" lon="-121.697302"><ele>3259</ele><time>2019-11-22T15:39:00Z</time></trkpt>
<trkpt lat="45.371809" lon="-121.697269"><ele>3263</ele><time>2019-11-22T15:40:00Z</time></trkpt>
<trkpt lat="45.37183" lon="-121.697257"><ele>3262</ele><time>2019-11-22T15:40:00Z</time></trkpt>
<trkpt lat="45.371813" lon="-121.697245"><ele>3269</ele><time>2019-11-22T15:40:00Z</time></trkpt>
<trkpt lat="45.371797" lon="-121.697247"><ele>3274</ele><time>2019-11-22T15:40:00Z</time></trkpt>
<trkpt lat="45.371823" lon="-121.697225"><ele>3273</ele><time>2019-11-22T15:41:00Z</time></trkpt>
<trkpt lat="45.371821" lon="-121.697231"><ele>3274</ele><time>2019-11-22T15:41:00Z</time></trkpt>
<trkpt lat="45.371841" lon="-121.697248"><ele>3271</ele><time>2019-11-22T15:41:00Z</time></trkpt>
<trkpt lat="45.371866" lon="-121.697246"><ele>3269</ele><time>2019-11-22T15:41:00Z</time></trkpt>
<trkpt lat="45.371846" lon="-121.697269"><ele>3272</ele><time>2019-11-22T15:42:00Z</time></trkpt>
<trkpt lat="45.371889" lon="-121.69724"><ele>3271</ele><time>2019-11-22T15:42:00Z</time></trkpt>
<trkpt lat="45.371916" lon="-121.697242"><ele>3266</ele><time>2019-11-22T15:44:00Z</time></trkpt>
<trkpt lat="45.371941" lon="-121.697225"><ele>3264</ele><time>2019-11-22T15:44:00Z</time></trkpt>
<trkpt lat="45.371954" lon="-121.697217"><ele>3264</ele><time>2019-11-22T15:44:00Z</time></trkpt>
<trkpt lat="45.371982" lon="-121.697203"><ele>3263</ele><time>2019-11-22T15:44:00Z</time></trkpt>
<trkpt lat="45.371974" lon="-121.697232"><ele>3267</ele><time>2019-11-22T15:44:00Z</time></trkpt>
<trkpt lat="45.371966" lon="-121.697203"><ele>3274</ele><time>2019-11-22T15:45:00Z</time></trkpt>
<trkpt lat="45.371982" lon="-121.697185"><ele>3273</ele><time>2019-11-22T15:45:00Z</time></trkpt>
<trkpt lat="45.372008" lon="-121.697189"><ele>3270</ele><time>2019-11-22T15:46:00Z</time></trkpt>
<trkpt lat="45.371982" lon="-121.69719"><ele>3274</ele><time>2019-11-22T15:46:00Z</time></trkpt>
<trkpt lat="45.371984" lon="-121.697173"><ele>3277</ele><time>2019-11-22T15:47:00Z</time></trkpt>
<trkpt lat="45.37195" lon="-121.697176"><ele>3284</ele><time>2019-11-22T15:47:00Z</time></trkpt>
<trkpt lat="45.371932" lon="-121.69718"><ele>3284</ele><time>2019-11-22T15:47:00Z</time></trkpt>
<trkpt lat="45.371923" lon="-121.697181"><ele>3284</ele><time>2019-11-22T15:47:00Z</time></trkpt>
<trkpt lat="45.37196" lon="-121.697171"><ele>3285</ele><time>2019-11-22T15:48:00Z</time></trkpt>
<trkpt lat="45.371986" lon="-121.697162"><ele>3281</ele><time>2019-11-22T15:49:00Z</time></trkpt>
<trkpt lat="45.372008" lon="-121.697124"><ele>3279</ele><time>2019-11-22T15:50:00Z</time></trkpt>
<trkpt lat="45.37201" lon="-121.697118"><ele>3279</ele><time>2019-11-22T15:50:00Z</time></trkpt>
<trkpt lat="45.372012" lon="-121.697136"><ele>3282</ele><time>2019-11-22T15:52:00Z</time></trkpt>
<trkpt lat="45.371986" lon="-121.697138"><ele>3290</ele><time>2019-11-22T15:52:00Z</time></trkpt>
<trkpt lat="45.371962" lon="-121.697123"><ele>3293</ele><time>2019-11-22T15:53:00Z</time></trkpt>
<trkpt lat="45.371987" lon="-121.697113"><ele>3291</ele><time>2019-11-22T15:53:00Z</time></trkpt>
<trkpt lat="45.371963" lon="-121.697113"><ele>3298</ele><time>2019-11-22T15:54:00Z</time></trkpt>
<trkpt lat="45.371941" lon="-121.697125"><ele>3304</ele><time>2019-11-22T15:54:00Z</time></trkpt>
<trkpt lat="45.371968" lon="-121.697134"><ele>3299</ele><time>2019-11-22T15:54:00Z</time></trkpt>
<trkpt lat="45.371976" lon="-121.697135"><ele>3298</ele><time>2019-11-22T15:54:00Z</time></trkpt>
<trkpt lat="45.371988" lon="-121.697061"><ele>3306</ele><time>2019-11-22T15:55:00Z</time></trkpt>
<trkpt lat="45.372033" lon="-121.697058"><ele>3303</ele><time>2019-11-22T15:56:00Z</time></trkpt>
<trkpt lat="45.37205" lon="-121.697067"><ele>3301</ele><time>2019-11-22T15:56:00Z</time></trkpt>
<trkpt lat="45.372047" lon="-121.697037"><ele>3310</ele><time>2019-11-22T15:57:00Z</time></trkpt>
<trkpt lat="45.372072" lon="-121.697022"><ele>3310</ele><time>2019-11-22T15:58:00Z</time></trkpt>
<trkpt lat="45.372125" lon="-121.696999"><ele>3307</ele><time>2019-11-22T15:59:00Z</time></trkpt>
<trkpt lat="45.372149" lon="-121.697007"><ele>3306</ele><time>2019-11-22T15:59:00Z</time></trkpt>
<trkpt lat="45.37217" lon="-121.696985"><ele>3308</ele><time>2019-11-22T15:59:00Z</time></trkpt>
<trkpt lat="45.372167" lon="-121.696957"><ele>3310</ele><time>2019-11-22T15:59:00Z</time></trkpt>
<trkpt lat="45.372142" lon="-121.696952"><ele>3314</ele><time>2019-11-22T15:59:00Z</time></trkpt>
<trkpt lat="45.372161" lon="-121.696923"><ele>3313</ele><time>2019-11-22T16:00:00Z</time></trkpt>
<trkpt lat="45.372166" lon="-121.696924"><ele>3312</ele><time>2019-11-22T16:00:00Z</time></trkpt>
<trkpt lat="45.372189" lon="-121.696937"><ele>3312</ele><time>2019-11-22T16:00:00Z</time></trkpt>
<trkpt lat="45.37221" lon="-121.696917"><ele>3314</ele><time>2019-11-22T16:00:00Z</time></trkpt>
<trkpt lat="45.372225" lon="-121.696918"><ele>3315</ele><time>2019-11-22T16:02:00Z</time></trkpt>
<trkpt lat="45.372241" lon="-121.69689"><ele>3315</ele><time>2019-11-22T16:02:00Z</time></trkpt>
<trkpt lat="45.37229" lon="-121.696862"><ele>3313</ele><time>2019-11-22T16:02:00Z</time></trkpt>
<trkpt lat="45.372279" lon="-121.696824"><ele>3316</ele><time>2019-11-22T16:05:00Z</time></trkpt>
<trkpt lat="45.372294" lon="-121.69679"><ele>3319</ele><time>2019-11-22T16:06:00Z</time></trkpt>
<trkpt lat="45.372422" lon="-121.696699"><ele>3314</ele><time>2019-11-22T16:08:00Z</time></trkpt>
<trkpt lat="45.372406" lon="-121.696701"><ele>3317</ele><time>2019-11-22T16:08:00Z</time></trkpt>
<trkpt lat="45.372388" lon="-121.696727"><ele>3328</ele><time>2019-11-22T16:14:00Z</time></trkpt>
<trkpt lat="45.37237" lon="-121.696699"><ele>3327</ele><time>2019-11-22T16:15:00Z</time></trkpt>
<trkpt lat="45.372381" lon="-121.696664"><ele>3327</ele><time>2019-11-22T16:16:00Z</time></trkpt>
<trkpt lat="45.372369" lon="-121.696635"><ele>3332</ele><time>2019-11-22T16:18:00Z</time></trkpt>
<trkpt lat="45.372347" lon="-121.696622"><ele>3337</ele><time>2019-11-22T16:19:00Z</time></trkpt>
<trkpt lat="45.37239" lon="-121.696577"><ele>3336</ele><time>2019-11-22T16:21:00Z</time></trkpt>
<trkpt lat="45.372413" lon="-121.696556"><ele>3334</ele><time>2019-11-22T16:22:00Z</time></trkpt>
<trkpt lat="45.372428" lon="-121.696521"><ele>3335</ele><time>2019-11-22T16:25:00Z</time></trkpt>
<trkpt lat="45.372499" lon="-121.696516"><ele>3341</ele><time>2019-11-22T16:28:00Z</time></trkpt>
<trkpt lat="45.372476" lon="-121.696432"><ele>3343</ele><time>2019-11-22T16:28:00Z</time></trkpt>
<trkpt lat="45.372475" lon="-121.696468"><ele>3343</ele><time>2019-11-22T16:29:00Z</time></trkpt>
<trkpt lat="45.372451" lon="-121.696535"><ele>3347</ele><time>2019-11-22T16:42:00Z</time></trkpt>
<trkpt lat="45.372464" lon="-121.696557"><ele>3346</ele><time>2019-11-22T16:42:00Z</time></trkpt>
<trkpt lat="45.372479" lon="-121.696522"><ele>3346</ele><time>2019-11-22T16:42:00Z</time></trkpt>
<trkpt lat="45.372496" lon="-121.696491"><ele>3353</ele><time>2019-11-22T17:01:00Z</time></trkpt>
<trkpt lat="45.372493" lon="-121.696493"><ele>3354</ele><time>2019-11-22T17:02:00Z</time></trkpt>
<trkpt lat="45.372485" lon="-121.696482"><ele>3355</ele><time>2019-11-22T17:06:00Z</time></trkpt>
<trkpt lat="45.372511" lon="-121.696478"><ele>3356</ele><time>2019-11-22T17:07:00Z</time></trkpt>
<trkpt lat="45.372515" lon="-121.696441"><ele>3358</ele><time>2019-11-22T17:09:00Z</time></trkpt>
<trkpt lat="45.372517" lon="-121.696416"><ele>3366</ele><time>2019-11-22T17:13:00Z</time></trkpt>
<trkpt lat="45.372626" lon="-121.696417"><ele>3361</ele><time>2019-11-22T17:17:00Z</time></trkpt>
<trkpt lat="45.372669" lon="-121.696462"><ele>3374</ele><time>2019-11-22T18:12:00Z</time></trkpt>
<trkpt lat="45.372663" lon="-121.69637"><ele>3374</ele><time>2019-11-22T18:22:00Z</time></trkpt>
<trkpt lat="45.372674" lon="-121.696418"><ele>3364</ele><time>2019-11-22T18:22:00Z</time></trkpt>
<trkpt lat="45.372678" lon="-121.696446"><ele>3367</ele><time>2019-11-22T18:22:00Z</time></trkpt>
<trkpt lat="45.372715" lon="-121.696443"><ele>3371</ele><time>2019-11-22T18:22:00Z</time></trkpt>
<trkpt lat="45.372727" lon="-121.696452"><ele>3371</ele><time>2019-11-22T18:22:00Z</time></trkpt>
<trkpt lat="45.372733" lon="-121.69646"><ele>3370</ele><time>2019-11-22T18:22:00Z</time></trkpt>
<trkpt lat="45.372765" lon="-121.696501"><ele>3369</ele><time>2019-11-22T18:23:00Z</time></trkpt>
<trkpt lat="45.372812" lon="-121.696531"><ele>3368</ele><time>2019-11-22T18:23:00Z</time></trkpt>
<trkpt lat="45.372881" lon="-121.696557"><ele>3378</ele><time>2019-11-22T18:26:00Z</time></trkpt>
<trkpt lat="45.372958" lon="-121.696577"><ele>3378</ele><time>2019-11-22T18:27:00Z</time></trkpt>
<trkpt lat="45.372998" lon="-121.696539"><ele>3381</ele><time>2019-11-22T18:27:00Z</time></trkpt>
<trkpt lat="45.373023" lon="-121.696551"><ele>3383</ele><time>2019-11-22T18:28:00Z</time></trkpt>
<trkpt lat="45.373048" lon="-121.696528"><ele>3385</ele><time>2019-11-22T18:32:00Z</time></trkpt>
<trkpt lat="45.373055" lon="-121.696527"><ele>3385</ele><time>2019-11-22T18:32:00Z</time></trkpt>
<trkpt lat="45.373085" lon="-121.696543"><ele>3386</ele><time>2019-11-22T18:33:00Z</time></trkpt>
<trkpt lat="45.373112" lon="-121.696542"><ele>3386</ele><time>2019-11-22T18:33:00Z</time></trkpt>
<trkpt lat="45.373135" lon="-121.696552"><ele>3386</ele><time>2019-11-22T18:33:00Z</time></trkpt>
<trkpt lat="45.373184" lon="-121.696543"><ele>3391</ele><time>2019-11-22T18:34:00Z</time></trkpt>
<trkpt lat="45.37321" lon="-121.69655"><ele>3391</ele><time>2019-11-22T18:34:00Z</time></trkpt>
<trkpt lat="45.373241" lon="-121.696532"><ele>3390</ele><time>2019-11-22T18:34:00Z</time></trkpt>
<trkpt lat="45.373267" lon="-121.696552"><ele>3396</ele><time>2019-11-22T18:35:00Z</time></trkpt>
<trkpt lat="45.373294" lon="-121.696554"><ele>3393</ele><time>2019-11-22T18:35:00Z</time></trkpt>
<trkpt lat="45.373312" lon="-121.69653"><ele>3394</ele><time>2019-11-22T18:36:00Z</time></trkpt>
<trkpt lat="45.373342" lon="-121.696544"><ele>3393</ele><time>2019-11-22T18:36:00Z</time></trkpt>
<trkpt lat="45.373366" lon="-121.696527"><ele>3397</ele><time>2019-11-22T18:36:00Z</time></trkpt>
<trkpt lat="45.373393" lon="-121.696532"><ele>3398</ele><time>2019-11-22T18:36:00Z</time></trkpt>
<trkpt lat="45.373399" lon="-121.696535"><ele>3398</ele><time>2019-11-22T18:36:00Z</time></trkpt>
<trkpt lat="45.373417" lon="-121.696562"><ele>3400</ele><time>2019-11-22T18:37:00Z</time></trkpt>
<trkpt lat="45.373442" lon="-121.696572"><ele>3402</ele><time>2019-11-22T18:37:00Z</time></trkpt>
<trkpt lat="45.373465" lon="-121.696558"><ele>3404</ele><time>2019-11-22T18:37:00Z</time></trkpt>
<trkpt lat="45.37348" lon="-121.696528"><ele>3402</ele><time>2019-11-22T18:38:00Z</time></trkpt>
<trkpt lat="45.373462" lon="-121.696417"><ele>3400</ele><time>2019-11-22T18:38:00Z</time></trkpt>
<trkpt lat="45.373463" lon="-121.696411"><ele>3400</ele><time>2019-11-22T18:38:00Z</time></trkpt>
<trkpt lat="45.373489" lon="-121.696278"><ele>3406</ele><time>2019-11-22T18:39:00Z</time></trkpt>
<trkpt lat="45.373478" lon="-121.696251"><ele>3412</ele><time>2019-11-22T18:39:00Z</time></trkpt>
<trkpt lat="45.373527" lon="-121.696281"><ele>3412</ele><time>2019-11-22T18:41:00Z</time></trkpt>
<trkpt lat="45.373492" lon="-121.696205"><ele>3412</ele><time>2019-11-22T18:43:00Z</time></trkpt>
<trkpt lat="45.373481" lon="-121.696069"><ele>3412</ele><time>2019-11-22T18:43:00Z</time></trkpt>
<trkpt lat="45.37348" lon="-121.696064"><ele>3413</ele><time>2019-11-22T18:43:00Z</time></trkpt>
<trkpt lat="45.37346" lon="-121.695883"><ele>3413</ele><time>2019-11-22T18:44:00Z</time></trkpt>
<trkpt lat="45.373473" lon="-121.695853"><ele>3414</ele><time>2019-11-22T18:44:00Z</time></trkpt>
<trkpt lat="45.373472" lon="-121.69581"><ele>3413</ele><time>2019-11-22T18:44:00Z</time></trkpt>
<trkpt lat="45.373472" lon="-121.695802"><ele>3413</ele><time>2019-11-22T18:44:00Z</time></trkpt>
<trkpt lat="45.373451" lon="-121.695775"><ele>3414</ele><time>2019-11-22T18:44:00Z</time></trkpt>
<trkpt lat="45.373428" lon="-121.695795"><ele>3418</ele><time>2019-11-22T18:45:00Z</time></trkpt>
<trkpt lat="45.373406" lon="-121.695777"><ele>3419</ele><time>2019-11-22T18:58:00Z</time></trkpt>
<trkpt lat="45.373417" lon="-121.695811"><ele>3420</ele><time>2019-11-22T19:01:00Z</time></trkpt>
<trkpt lat="45.37345" lon="-121.695854"><ele>3420</ele><time>2019-11-22T19:01:00Z</time></trkpt>
<trkpt lat="45.373453" lon="-121.695902"><ele>3419</ele><time>2019-11-22T19:01:00Z</time></trkpt>
<trkpt lat="45.373454" lon="-121.695912"><ele>3420</ele><time>2019-11-22T19:02:00Z</time></trkpt>
<trkpt lat="45.373478" lon="-121.696152"><ele>3413</ele><time>2019-11-22T19:02:00Z</time></trkpt>
<trkpt lat="45.37348" lon="-121.696159"><ele>3412</ele><time>2019-11-22T19:02:00Z</time></trkpt>
<trkpt lat="45.373511" lon="-121.696395"><ele>3408</ele><time>2019-11-22T19:03:00Z</time></trkpt>
<trkpt lat="45.373511" lon="-121.696403"><ele>3409</ele><time>2019-11-22T19:03:00Z</time></trkpt>
<trkpt lat="45.373511" lon="-121.696412"><ele>3408</ele><time>2019-11-22T19:03:00Z</time></trkpt>
<trkpt lat="45.373535" lon="-121.696425"><ele>3408</ele><time>2019-11-22T19:03:00Z</time></trkpt>
<trkpt lat="45.373577" lon="-121.696624"><ele>3409</ele><time>2019-11-22T19:04:00Z</time></trkpt>
<trkpt lat="45.373576" lon="-121.696633"><ele>3408</ele><time>2019-11-22T19:04:00Z</time></trkpt>
<trkpt lat="45.37359" lon="-121.696673"><ele>3407</ele><time>2019-11-22T19:04:00Z</time></trkpt>
<trkpt lat="45.373617" lon="-121.696872"><ele>3408</ele><time>2019-11-22T19:04:00Z</time></trkpt>
<trkpt lat="45.373619" lon="-121.696883"><ele>3408</ele><time>2019-11-22T19:04:00Z</time></trkpt>
<trkpt lat="45.373607" lon="-121.697129"><ele>3411</ele><time>2019-11-22T19:05:00Z</time></trkpt>
<trkpt lat="45.373602" lon="-121.697168"><ele>3411</ele><time>2019-11-22T19:05:00Z</time></trkpt>
<trkpt lat="45.373569" lon="-121.697223"><ele>3410</ele><time>2019-11-22T19:06:00Z</time></trkpt>
<trkpt lat="45.373543" lon="-121.697228"><ele>3410</ele><time>2019-11-22T19:06:00Z</time></trkpt>
<trkpt lat="45.373566" lon="-121.697212"><ele>3414</ele><time>2019-11-22T19:07:00Z</time></trkpt>
<trkpt lat="45.373591" lon="-121.697223"><ele>3415</ele><time>2019-11-22T19:08:00Z</time></trkpt>
<trkpt lat="45.373605" lon="-121.697265"><ele>3415</ele><time>2019-11-22T19:08:00Z</time></trkpt>
<trkpt lat="45.373607" lon="-121.69727"><ele>3415</ele><time>2019-11-22T19:08:00Z</time></trkpt>
<trkpt lat="45.373613" lon="-121.697308"><ele>3416</ele><time>2019-11-22T19:08:00Z</time></trkpt>
<trkpt lat="45.373676" lon="-121.697418"><ele>3417</ele><time>2019-11-22T19:10:00Z</time></trkpt>
<trkpt lat="45.373672" lon="-121.697515"><ele>3413</ele><time>2019-11-22T19:21:00Z</time></trkpt>
<trkpt lat="45.373706" lon="-121.69757"><ele>3410</ele><time>2019-11-22T19:23:00Z</time></trkpt>
<trkpt lat="45.373709" lon="-121.697608"><ele>3411</ele><time>2019-11-22T19:23:00Z</time></trkpt>
<trkpt lat="45.373683" lon="-121.697608"><ele>3413</ele><time>2019-11-22T19:24:00Z</time></trkpt>
<trkpt lat="45.37369" lon="-121.697644"><ele>3414</ele><time>2019-11-22T19:25:00Z</time></trkpt>
<trkpt lat="45.373712" lon="-121.697666"><ele>3412</ele><time>2019-11-22T19:25:00Z</time></trkpt>
<trkpt lat="45.373727" lon="-121.697694"><ele>3409</ele><time>2019-11-22T19:36:00Z</time></trkpt>
<trkpt lat="45.373716" lon="-121.697729"><ele>3406</ele><time>2019-11-22T19:37:00Z</time></trkpt>
<trkpt lat="45.373693" lon="-121.697753"><ele>3404</ele><time>2019-11-22T19:39:00Z</time></trkpt>
<trkpt lat="45.373667" lon="-121.697762"><ele>3394</ele><time>2019-11-22T19:39:00Z</time></trkpt>
<trkpt lat="45.373641" lon="-121.697752"><ele>3391</ele><time>2019-11-22T19:40:00Z</time></trkpt>
<trkpt lat="45.373621" lon="-121.69778"><ele>3397</ele><time>2019-11-22T19:40:00Z</time></trkpt>
<trkpt lat="45.373562" lon="-121.697854"><ele>3386</ele><time>2019-11-22T19:43:00Z</time></trkpt>
<trkpt lat="45.373481" lon="-121.697893"><ele>3388</ele><time>2019-11-22T19:46:00Z</time></trkpt>
<trkpt lat="45.373473" lon="-121.697856"><ele>3382</ele><time>2019-11-22T19:49:00Z</time></trkpt>
<trkpt lat="45.373352" lon="-121.697966"><ele>3384</ele><time>2019-11-22T19:50:00Z</time></trkpt>
<trkpt lat="45.373328" lon="-121.697962"><ele>3382</ele><time>2019-11-22T19:51:00Z</time></trkpt>
<trkpt lat="45.37331" lon="-121.697933"><ele>3379</ele><time>2019-11-22T19:51:00Z</time></trkpt>
<trkpt lat="45.373285" lon="-121.697925"><ele>3370</ele><time>2019-11-22T19:52:00Z</time></trkpt>
<trkpt lat="45.373289" lon="-121.69811"><ele>3365</ele><time>2019-11-22T19:54:00Z</time></trkpt>
<trkpt lat="45.373248" lon="-121.698091"><ele>3362</ele><time>2019-11-22T19:55:00Z</time></trkpt>
<trkpt lat="45.373221" lon="-121.698097"><ele>3356</ele><time>2019-11-22T19:56:00Z</time></trkpt>
<trkpt lat="45.373204" lon="-121.698068"><ele>3356</ele><time>2019-11-22T19:56:00Z</time></trkpt>
<trkpt lat="45.373133" lon="-121.698032"><ele>3345</ele><time>2019-11-22T19:57:00Z</time></trkpt>
<trkpt lat="45.373123" lon="-121.698069"><ele>3344</ele><time>2019-11-22T19:58:00Z</time></trkpt>
<trkpt lat="45.373127" lon="-121.698103"><ele>3342</ele><time>2019-11-22T19:58:00Z</time></trkpt>
<trkpt lat="45.373113" lon="-121.698134"><ele>3341</ele><time>2019-11-22T19:58:00Z</time></trkpt>
<trkpt lat="45.373131" lon="-121.698161"><ele>3334</ele><time>2019-11-22T19:59:00Z</time></trkpt>
<trkpt lat="45.373084" lon="-121.698191"><ele>3325</ele><time>2019-11-22T20:00:00Z</time></trkpt>
<trkpt lat="45.373089" lon="-121.698237"><ele>3322</ele><time>2019-11-22T20:00:00Z</time></trkpt>
<trkpt lat="45.373087" lon="-121.698251"><ele>3322</ele><time>2019-11-22T20:00:00Z</time></trkpt>
<trkpt lat="45.373063" lon="-121.698315"><ele>3320</ele><time>2019-11-22T20:00:00Z</time></trkpt>
<trkpt lat="45.37307" lon="-121.69835"><ele>3325</ele><time>2019-11-22T20:00:00Z</time></trkpt>
<trkpt lat="45.37305" lon="-121.69835"><ele>3314</ele><time>2019-11-22T20:01:00Z</time></trkpt>
<trkpt lat="45.373032" lon="-121.698367"><ele>3314</ele><time>2019-11-22T20:01:00Z</time></trkpt>
<trkpt lat="45.37301" lon="-121.698434"><ele>3319</ele><time>2019-11-22T20:01:00Z</time></trkpt>
<trkpt lat="45.372963" lon="-121.698518"><ele>3320</ele><time>2019-11-22T20:02:00Z</time></trkpt>
<trkpt lat="45.372917" lon="-121.698548"><ele>3318</ele><time>2019-11-22T20:04:00Z</time></trkpt>
<trkpt lat="45.372931" lon="-121.698612"><ele>3316</ele><time>2019-11-22T20:04:00Z</time></trkpt>
<trkpt lat="45.372923" lon="-121.698651"><ele>3314</ele><time>2019-11-22T20:04:00Z</time></trkpt>
<trkpt lat="45.372902" lon="-121.698654"><ele>3316</ele><time>2019-11-22T20:05:00Z</time></trkpt>
<trkpt lat="45.37289" lon="-121.698687"><ele>3308</ele><time>2019-11-22T20:05:00Z</time></trkpt>
<trkpt lat="45.372864" lon="-121.69868"><ele>3306</ele><time>2019-11-22T20:05:00Z</time></trkpt>
<trkpt lat="45.372823" lon="-121.698728"><ele>3306</ele><time>2019-11-22T20:11:00Z</time></trkpt>
<trkpt lat="45.372816" lon="-121.698781"><ele>3302</ele><time>2019-11-22T20:11:00Z</time></trkpt>
<trkpt lat="45.372813" lon="-121.698794"><ele>3303</ele><time>2019-11-22T20:11:00Z</time></trkpt>
<trkpt lat="45.37279" lon="-121.698777"><ele>3303</ele><time>2019-11-22T20:11:00Z</time></trkpt>
<trkpt lat="45.372781" lon="-121.698745"><ele>3306</ele><time>2019-11-22T20:11:00Z</time></trkpt>
<trkpt lat="45.372758" lon="-121.698761"><ele>3304</ele><time>2019-11-22T20:12:00Z</time></trkpt>
<trkpt lat="45.372739" lon="-121.698747"><ele>3305</ele><time>2019-11-22T20:12:00Z</time></trkpt>
<trkpt lat="45.372722" lon="-121.698775"><ele>3297</ele><time>2019-11-22T20:13:00Z</time></trkpt>
<trkpt lat="45.372698" lon="-121.698764"><ele>3299</ele><time>2019-11-22T20:13:00Z</time></trkpt>
<trkpt lat="45.372671" lon="-121.698769"><ele>3295</ele><time>2019-11-22T20:13:00Z</time></trkpt>
<trkpt lat="45.372669" lon="-121.698774"><ele>3294</ele><time>2019-11-22T20:13:00Z</time></trkpt>
<trkpt lat="45.372672" lon="-121.698815"><ele>3294</ele><time>2019-11-22T20:14:00Z</time></trkpt>
<trkpt lat="45.372603" lon="-121.698842"><ele>3290</ele><time>2019-11-22T20:16:00Z</time></trkpt>
<trkpt lat="45.372586" lon="-121.698909"><ele>3286</ele><time>2019-11-22T20:16:00Z</time></trkpt>
<trkpt lat="45.372559" lon="-121.698917"><ele>3286</ele><time>2019-11-22T20:16:00Z</time></trkpt>
<trkpt lat="45.372555" lon="-121.698914"><ele>3287</ele><time>2019-11-22T20:16:00Z</time></trkpt>
<trkpt lat="45.372528" lon="-121.69892"><ele>3286</ele><time>2019-11-22T20:16:00Z</time></trkpt>
<trkpt lat="45.372542" lon="-121.698986"><ele>3281</ele><time>2019-11-22T20:17:00Z</time></trkpt>
<trkpt lat="45.372535" lon="-121.699022"><ele>3277</ele><time>2019-11-22T20:17:00Z</time></trkpt>
<trkpt lat="45.372492" lon="-121.699064"><ele>3275</ele><time>2019-11-22T20:18:00Z</time></trkpt>
<trkpt lat="45.372472" lon="-121.699034"><ele>3273</ele><time>2019-11-22T20:18:00Z</time></trkpt>
<trkpt lat="45.372467" lon="-121.699033"><ele>3274</ele><time>2019-11-22T20:18:00Z</time></trkpt>
<trkpt lat="45.372412" lon="-121.699017"><ele>3273</ele><time>2019-11-22T20:18:00Z</time></trkpt>
<trkpt lat="45.372431" lon="-121.699031"><ele>3269</ele><time>2019-11-22T20:19:00Z</time></trkpt>
<trkpt lat="45.372344" lon="-121.699103"><ele>3258</ele><time>2019-11-22T20:20:00Z</time></trkpt>
<trkpt lat="45.372338" lon="-121.699104"><ele>3257</ele><time>2019-11-22T20:20:00Z</time></trkpt>
<trkpt lat="45.372305" lon="-121.699114"><ele>3257</ele><time>2019-11-22T20:20:00Z</time></trkpt>
<trkpt lat="45.372265" lon="-121.699153"><ele>3250</ele><time>2019-11-22T20:21:00Z</time></trkpt>
<trkpt lat="45.372201" lon="-121.69926"><ele>3244</ele><time>2019-11-22T20:22:00Z</time></trkpt>
<trkpt lat="45.372195" lon="-121.69926"><ele>3243</ele><time>2019-11-22T20:22:00Z</time></trkpt>
<trkpt lat="45.37214" lon="-121.69926"><ele>3241</ele><time>2019-11-22T20:22:00Z</time></trkpt>
<trkpt lat="45.372121" lon="-121.699235"><ele>3241</ele><time>2019-11-22T20:22:00Z</time></trkpt>
<trkpt lat="45.372101" lon="-121.699166"><ele>3237</ele><time>2019-11-22T20:22:00Z</time></trkpt>
<trkpt lat="45.372045" lon="-121.699182"><ele>3237</ele><time>2019-11-22T20:23:00Z</time></trkpt>
<trkpt lat="45.372036" lon="-121.699183"><ele>3237</ele><time>2019-11-22T20:23:00Z</time></trkpt>
<trkpt lat="45.371917" lon="-121.699227"><ele>3230</ele><time>2019-11-22T20:23:00Z</time></trkpt>
<trkpt lat="45.371899" lon="-121.699253"><ele>3231</ele><time>2019-11-22T20:23:00Z</time></trkpt>
<trkpt lat="45.37187" lon="-121.699254"><ele>3234</ele><time>2019-11-22T20:23:00Z</time></trkpt>
<trkpt lat="45.371839" lon="-121.699274"><ele>3231</ele><time>2019-11-22T20:24:00Z</time></trkpt>
<trkpt lat="45.371827" lon="-121.699381"><ele>3225</ele><time>2019-11-22T20:24:00Z</time></trkpt>
<trkpt lat="45.371803" lon="-121.699383"><ele>3223</ele><time>2019-11-22T20:24:00Z</time></trkpt>
<trkpt lat="45.371752" lon="-121.699364"><ele>3221</ele><time>2019-11-22T20:25:00Z</time></trkpt>
<trkpt lat="45.371703" lon="-121.699389"><ele>3217</ele><time>2019-11-22T20:25:00Z</time></trkpt>
<trkpt lat="45.371677" lon="-121.699385"><ele>3215</ele><time>2019-11-22T20:25:00Z</time></trkpt>
<trkpt lat="45.371608" lon="-121.699428"><ele>3208</ele><time>2019-11-22T20:25:00Z</time></trkpt>
<trkpt lat="45.37158" lon="-121.699427"><ele>3209</ele><time>2019-11-22T20:26:00Z</time></trkpt>
<trkpt lat="45.371578" lon="-121.699434"><ele>3208</ele><time>2019-11-22T20:26:00Z</time></trkpt>
<trkpt lat="45.371559" lon="-121.699458"><ele>3208</ele><time>2019-11-22T20:26:00Z</time></trkpt>
<trkpt lat="45.371523" lon="-121.699572"><ele>3204</ele><time>2019-11-22T20:26:00Z</time></trkpt>
<trkpt lat="45.371507" lon="-121.699544"><ele>3202</ele><time>2019-11-22T20:26:00Z</time></trkpt>
<trkpt lat="45.371478" lon="-121.699544"><ele>3200</ele><time>2019-11-22T20:26:00Z</time></trkpt>
<trkpt lat="45.37146" lon="-121.699572"><ele>3197</ele><time>2019-11-22T20:27:00Z</time></trkpt>
<trkpt lat="45.371415" lon="-121.699593"><ele>3195</ele><time>2019-11-22T20:27:00Z</time></trkpt>
<trkpt lat="45.371377" lon="-121.699632"><ele>3192</ele><time>2019-11-22T20:27:00Z</time></trkpt>
<trkpt lat="45.371319" lon="-121.69962"><ele>3188</ele><time>2019-11-22T20:28:00Z</time></trkpt>
<trkpt lat="45.371314" lon="-121.699618"><ele>3188</ele><time>2019-11-22T20:28:00Z</time></trkpt>
<trkpt lat="45.371289" lon="-121.699615"><ele>3186</ele><time>2019-11-22T20:28:00Z</time></trkpt>
<trkpt lat="45.371271" lon="-121.699593"><ele>3185</ele><time>2019-11-22T20:28:00Z</time></trkpt>
<trkpt lat="45.371195" lon="-121.699463"><ele>3178</ele><time>2019-11-22T20:29:00Z</time></trkpt>
<trkpt lat="45.371191" lon="-121.699452"><ele>3178</ele><time>2019-11-22T20:29:00Z</time></trkpt>
<trkpt lat="45.371166" lon="-121.699382"><ele>3177</ele><time>2019-11-22T20:29:00Z</time></trkpt>
<trkpt lat="45.371118" lon="-121.699317"><ele>3176</ele><time>2019-11-22T20:29:00Z</time></trkpt>
<trkpt lat="45.371114" lon="-121.699281"><ele>3174</ele><time>2019-11-22T20:29:00Z</time></trkpt>
<trkpt lat="45.371091" lon="-121.699252"><ele>3175</ele><time>2019-11-22T20:29:00Z</time></trkpt>
<trkpt lat="45.371086" lon="-121.699247"><ele>3175</ele><time>2019-11-22T20:29:00Z</time></trkpt>
<trkpt lat="45.371076" lon="-121.699176"><ele>3170</ele><time>2019-11-22T20:29:00Z</time></trkpt>
<trkpt lat="45.370984" lon="-121.699068"><ele>3174</ele><time>2019-11-22T20:30:00Z</time></trkpt>
<trkpt lat="45.370983" lon="-121.699053"><ele>3173</ele><time>2019-11-22T20:30:00Z</time></trkpt>
<trkpt lat="45.370982" lon="-121.699047"><ele>3174</ele><time>2019-11-22T20:30:00Z</time></trkpt>
<trkpt lat="45.370959" lon="-121.699025"><ele>3176</ele><time>2019-11-22T20:30:00Z</time></trkpt>
<trkpt lat="45.370954" lon="-121.69899"><ele>3175</ele><time>2019-11-22T20:31:00Z</time></trkpt>
<trkpt lat="45.370938" lon="-121.698964"><ele>3176</ele><time>2019-11-22T20:31:00Z</time></trkpt>
<trkpt lat="45.370895" lon="-121.698967"><ele>3176</ele><time>2019-11-22T20:31:00Z</time></trkpt>
<trkpt lat="45.37088" lon="-121.6989"><ele>3172</ele><time>2019-11-22T20:32:00Z</time></trkpt>
<trkpt lat="45.370881" lon="-121.698886"><ele>3171</ele><time>2019-11-22T20:32:00Z</time></trkpt>
<trkpt lat="45.370847" lon="-121.698845"><ele>3172</ele><time>2019-11-22T20:32:00Z</time></trkpt>
<trkpt lat="45.370802" lon="-121.698829"><ele>3171</ele><time>2019-11-22T20:32:00Z</time></trkpt>
<trkpt lat="45.370757" lon="-121.698868"><ele>3168</ele><time>2019-11-22T20:33:00Z</time></trkpt>
<trkpt lat="45.370765" lon="-121.698831"><ele>3170</ele><time>2019-11-22T20:45:00Z</time></trkpt>
<trkpt lat="45.370756" lon="-121.698775"><ele>3156</ele><time>2019-11-22T20:52:00Z</time></trkpt>
<trkpt lat="45.370733" lon="-121.698789"><ele>3156</ele><time>2019-11-22T20:52:00Z</time></trkpt>
<trkpt lat="45.370738" lon="-121.698752"><ele>3156</ele><time>2019-11-22T20:53:00Z</time></trkpt>
<trkpt lat="45.370725" lon="-121.698785"><ele>3159</ele><time>2019-11-22T20:54:00Z</time></trkpt>
<trkpt lat="45.370729" lon="-121.698887"><ele>3181</ele><time>2019-11-22T20:54:00Z</time></trkpt>
<trkpt lat="45.370726" lon="-121.698899"><ele>3181</ele><time>2019-11-22T20:54:00Z</time></trkpt>
<trkpt lat="45.370723" lon="-121.698904"><ele>3180</ele><time>2019-11-22T20:54:00Z</time></trkpt>
<trkpt lat="45.370682" lon="-121.698875"><ele>3178</ele><time>2019-11-22T20:54:00Z</time></trkpt>
<trkpt lat="45.370637" lon="-121.698893"><ele>3178</ele><time>2019-11-22T20:54:00Z</time></trkpt>
<trkpt lat="45.370563" lon="-121.698885"><ele>3177</ele><time>2019-11-22T20:55:00Z</time></trkpt>
<trkpt lat="45.370557" lon="-121.698883"><ele>3177</ele><time>2019-11-22T20:55:00Z</time></trkpt>
<trkpt lat="45.370527" lon="-121.698872"><ele>3176</ele><time>2019-11-22T20:55:00Z</time></trkpt>
<trkpt lat="45.370504" lon="-121.698888"><ele>3178</ele><time>2019-11-22T20:55:00Z</time></trkpt>
<trkpt lat="45.370429" lon="-121.698908"><ele>3176</ele><time>2019-11-22T20:55:00Z</time></trkpt>
<trkpt lat="45.370378" lon="-121.698887"><ele>3169</ele><time>2019-11-22T20:55:00Z</time></trkpt>
<trkpt lat="45.370369" lon="-121.698882"><ele>3169</ele><time>2019-11-22T20:55:00Z</time></trkpt>
<trkpt lat="45.37022" lon="-121.698846"><ele>3162</ele><time>2019-11-22T20:56:00Z</time></trkpt>
<trkpt lat="45.370196" lon="-121.698866"><ele>3161</ele><time>2019-11-22T20:56:00Z</time></trkpt>
<trkpt lat="45.370198" lon="-121.698873"><ele>3160</ele><time>2019-11-22T20:56:00Z</time></trkpt>
<trkpt lat="45.370138" lon="-121.698828"><ele>3156</ele><time>2019-11-22T20:56:00Z</time></trkpt>
<trkpt lat="45.370116" lon="-121.698839"><ele>3154</ele><time>2019-11-22T20:56:00Z</time></trkpt>
<trkpt lat="45.370043" lon="-121.698815"><ele>3151</ele><time>2019-11-22T20:56:00Z</time></trkpt>
<trkpt lat="45.370037" lon="-121.698815"><ele>3151</ele><time>2019-11-22T20:56:00Z</time></trkpt>
<trkpt lat="45.370007" lon="-121.698817"><ele>3148</ele><time>2019-11-22T20:57:00Z</time></trkpt>
<trkpt lat="45.369989" lon="-121.698794"><ele>3146</ele><time>2019-11-22T20:57:00Z</time></trkpt>
<trkpt lat="45.369942" lon="-121.698777"><ele>3143</ele><time>2019-11-22T20:57:00Z</time></trkpt>
<trkpt lat="45.369926" lon="-121.698747"><ele>3140</ele><time>2019-11-22T20:57:00Z</time></trkpt>
<trkpt lat="45.369884" lon="-121.698802"><ele>3142</ele><time>2019-11-22T20:58:00Z</time></trkpt>
<trkpt lat="45.369878" lon="-121.698803"><ele>3142</ele><time>2019-11-22T20:58:00Z</time></trkpt>
<trkpt lat="45.369783" lon="-121.698845"><ele>3138</ele><time>2019-11-22T20:58:00Z</time></trkpt>
<trkpt lat="45.369739" lon="-121.698875"><ele>3137</ele><time>2019-11-22T20:58:00Z</time></trkpt>
<trkpt lat="45.369707" lon="-121.698877"><ele>3134</ele><time>2019-11-22T20:58:00Z</time></trkpt>
<trkpt lat="45.369698" lon="-121.69888"><ele>3135</ele><time>2019-11-22T20:58:00Z</time></trkpt>
<trkpt lat="45.369666" lon="-121.698885"><ele>3134</ele><time>2019-11-22T20:59:00Z</time></trkpt>
<trkpt lat="45.36959" lon="-121.698864"><ele>3134</ele><time>2019-11-22T20:59:00Z</time></trkpt>
<trkpt lat="45.369565" lon="-121.698869"><ele>3130</ele><time>2019-11-22T20:59:00Z</time></trkpt>
<trkpt lat="45.369541" lon="-121.698854"><ele>3130</ele><time>2019-11-22T20:59:00Z</time></trkpt>
<trkpt lat="45.369512" lon="-121.698855"><ele>3126</ele><time>2019-11-22T20:59:00Z</time></trkpt>
<trkpt lat="45.369507" lon="-121.698853"><ele>3125</ele><time>2019-11-22T20:59:00Z</time></trkpt>
<trkpt lat="45.369478" lon="-121.698865"><ele>3122</ele><time>2019-11-22T21:00:00Z</time></trkpt>
<trkpt lat="45.369431" lon="-121.698946"><ele>3123</ele><time>2019-11-22T21:00:00Z</time></trkpt>
<trkpt lat="45.369385" lon="-121.698975"><ele>3122</ele><time>2019-11-22T21:00:00Z</time></trkpt>
<trkpt lat="45.369357" lon="-121.698976"><ele>3120</ele><time>2019-11-22T21:00:00Z</time></trkpt>
<trkpt lat="45.369333" lon="-121.698983"><ele>3118</ele><time>2019-11-22T21:00:00Z</time></trkpt>
<trkpt lat="45.369325" lon="-121.698951"><ele>3116</ele><time>2019-11-22T21:01:00Z</time></trkpt>
<trkpt lat="45.369303" lon="-121.698935"><ele>3115</ele><time>2019-11-22T21:01:00Z</time></trkpt>
<trkpt lat="45.36928" lon="-121.698944"><ele>3114</ele><time>2019-11-22T21:01:00Z</time></trkpt>
<trkpt lat="45.369242" lon="-121.698978"><ele>3112</ele><time>2019-11-22T21:01:00Z</time></trkpt>
<trkpt lat="45.369214" lon="-121.698978"><ele>3112</ele><time>2019-11-22T21:01:00Z</time></trkpt>
<trkpt lat="45.369206" lon="-121.698978"><ele>3111</ele><time>2019-11-22T21:01:00Z</time></trkpt>
<trkpt lat="45.369152" lon="-121.698999"><ele>3111</ele><time>2019-11-22T21:01:00Z</time></trkpt>
<trkpt lat="45.369157" lon="-121.698936"><ele>3109</ele><time>2019-11-22T21:01:00Z</time></trkpt>
<trkpt lat="45.369138" lon="-121.69884"><ele>3108</ele><time>2019-11-22T21:02:00Z</time></trkpt>
<trkpt lat="45.369142" lon="-121.698753"><ele>3105</ele><time>2019-11-22T21:02:00Z</time></trkpt>
<trkpt lat="45.369113" lon="-121.698698"><ele>3104</ele><time>2019-11-22T21:02:00Z</time></trkpt>
<trkpt lat="45.369092" lon="-121.698679"><ele>3102</ele><time>2019-11-22T21:02:00Z</time></trkpt>
<trkpt lat="45.36904" lon="-121.698663"><ele>3099</ele><time>2019-11-22T21:02:00Z</time></trkpt>
<trkpt lat="45.369037" lon="-121.69866"><ele>3099</ele><time>2019-11-22T21:02:00Z</time></trkpt>
<trkpt lat="45.368966" lon="-121.698611"><ele>3094</ele><time>2019-11-22T21:03:00Z</time></trkpt>
<trkpt lat="45.368926" lon="-121.698618"><ele>3091</ele><time>2019-11-22T21:03:00Z</time></trkpt>
<trkpt lat="45.368878" lon="-121.698582"><ele>3089</ele><time>2019-11-22T21:03:00Z</time></trkpt>
<trkpt lat="45.368873" lon="-121.698578"><ele>3088</ele><time>2019-11-22T21:03:00Z</time></trkpt>
<trkpt lat="45.368847" lon="-121.698565"><ele>3082</ele><time>2019-11-22T21:03:00Z</time></trkpt>
<trkpt lat="45.368803" lon="-121.698576"><ele>3079</ele><time>2019-11-22T21:03:00Z</time></trkpt>
<trkpt lat="45.368779" lon="-121.69859"><ele>3079</ele><time>2019-11-22T21:03:00Z</time></trkpt>
<trkpt lat="45.368766" lon="-121.698617"><ele>3077</ele><time>2019-11-22T21:03:00Z</time></trkpt>
<trkpt lat="45.368717" lon="-121.698651"><ele>3077</ele><time>2019-11-22T21:03:00Z</time></trkpt>
<trkpt lat="45.368712" lon="-121.698658"><ele>3077</ele><time>2019-11-22T21:03:00Z</time></trkpt>
<trkpt lat="45.368646" lon="-121.698746"><ele>3078</ele><time>2019-11-22T21:04:00Z</time></trkpt>
<trkpt lat="45.368592" lon="-121.698788"><ele>3078</ele><time>2019-11-22T21:04:00Z</time></trkpt>
<trkpt lat="45.368587" lon="-121.698793"><ele>3076</ele><time>2019-11-22T21:04:00Z</time></trkpt>
<trkpt lat="45.368558" lon="-121.698807"><ele>3074</ele><time>2019-11-22T21:04:00Z</time></trkpt>
<trkpt lat="45.368509" lon="-121.698811"><ele>3073</ele><time>2019-11-22T21:04:00Z</time></trkpt>
<trkpt lat="45.368482" lon="-121.698865"><ele>3074</ele><time>2019-11-22T21:04:00Z</time></trkpt>
<trkpt lat="45.368431" lon="-121.69889"><ele>3073</ele><time>2019-11-22T21:04:00Z</time></trkpt>
<trkpt lat="45.368419" lon="-121.698888"><ele>3073</ele><time>2019-11-22T21:04:00Z</time></trkpt>
<trkpt lat="45.368388" lon="-121.698885"><ele>3071</ele><time>2019-11-22T21:04:00Z</time></trkpt>
<trkpt lat="45.368347" lon="-121.698911"><ele>3070</ele><time>2019-11-22T21:05:00Z</time></trkpt>
<trkpt lat="45.368295" lon="-121.699041"><ele>3065</ele><time>2019-11-22T21:05:00Z</time></trkpt>
<trkpt lat="45.36829" lon="-121.699046"><ele>3065</ele><time>2019-11-22T21:05:00Z</time></trkpt>
<trkpt lat="45.36825" lon="-121.699093"><ele>3062</ele><time>2019-11-22T21:05:00Z</time></trkpt>
<trkpt lat="45.368217" lon="-121.699189"><ele>3058</ele><time>2019-11-22T21:05:00Z</time></trkpt>
<trkpt lat="45.368214" lon="-121.699266"><ele>3055</ele><time>2019-11-22T21:06:00Z</time></trkpt>
<trkpt lat="45.368214" lon="-121.699273"><ele>3055</ele><time>2019-11-22T21:06:00Z</time></trkpt>
<trkpt lat="45.368208" lon="-121.699315"><ele>3055</ele><time>2019-11-22T21:06:00Z</time></trkpt>
<trkpt lat="45.368175" lon="-121.699344"><ele>3054</ele><time>2019-11-22T21:06:00Z</time></trkpt>
<trkpt lat="45.368155" lon="-121.69948"><ele>3055</ele><time>2019-11-22T21:06:00Z</time></trkpt>
<trkpt lat="45.368151" lon="-121.699488"><ele>3054</ele><time>2019-11-22T21:06:00Z</time></trkpt>
<trkpt lat="45.368082" lon="-121.699723"><ele>3045</ele><time>2019-11-22T21:06:00Z</time></trkpt>
<trkpt lat="45.368087" lon="-121.699737"><ele>3045</ele><time>2019-11-22T21:06:00Z</time></trkpt>
<trkpt lat="45.368065" lon="-121.699814"><ele>3041</ele><time>2019-11-22T21:07:00Z</time></trkpt>
<trkpt lat="45.368062" lon="-121.699886"><ele>3038</ele><time>2019-11-22T21:07:00Z</time></trkpt>
<trkpt lat="45.368012" lon="-121.699959"><ele>3035</ele><time>2019-11-22T21:07:00Z</time></trkpt>
<trkpt lat="45.368007" lon="-121.699965"><ele>3035</ele><time>2019-11-22T21:07:00Z</time></trkpt>
<trkpt lat="45.367971" lon="-121.700059"><ele>3035</ele><time>2019-11-22T21:08:00Z</time></trkpt>
<trkpt lat="45.367974" lon="-121.700096"><ele>3033</ele><time>2019-11-22T21:08:00Z</time></trkpt>
<trkpt lat="45.367919" lon="-121.700171"><ele>3030</ele><time>2019-11-22T21:08:00Z</time></trkpt>
<trkpt lat="45.367917" lon="-121.700176"><ele>3030</ele><time>2019-11-22T21:08:00Z</time></trkpt>
<trkpt lat="45.367865" lon="-121.700261"><ele>3024</ele><time>2019-11-22T21:08:00Z</time></trkpt>
<trkpt lat="45.367865" lon="-121.700293"><ele>3023</ele><time>2019-11-22T21:08:00Z</time></trkpt>
<trkpt lat="45.367808" lon="-121.700364"><ele>3020</ele><time>2019-11-22T21:09:00Z</time></trkpt>
<trkpt lat="45.367802" lon="-121.700368"><ele>3019</ele><time>2019-11-22T21:09:00Z</time></trkpt>
<trkpt lat="45.36772" lon="-121.700442"><ele>3015</ele><time>2019-11-22T21:09:00Z</time></trkpt>
<trkpt lat="45.367652" lon="-121.700446"><ele>3014</ele><time>2019-11-22T21:09:00Z</time></trkpt>
<trkpt lat="45.367647" lon="-121.700447"><ele>3014</ele><time>2019-11-22T21:09:00Z</time></trkpt>
<trkpt lat="45.367621" lon="-121.700443"><ele>3012</ele><time>2019-11-22T21:09:00Z</time></trkpt>
<trkpt lat="45.367604" lon="-121.700467"><ele>3010</ele><time>2019-11-22T21:09:00Z</time></trkpt>
<trkpt lat="45.367558" lon="-121.700495"><ele>3006</ele><time>2019-11-22T21:09:00Z</time></trkpt>
<trkpt lat="45.367543" lon="-121.700521"><ele>3005</ele><time>2019-11-22T21:10:00Z</time></trkpt>
<trkpt lat="45.367557" lon="-121.700534"><ele>3000</ele><time>2019-11-22T21:22:00Z</time></trkpt>
<trkpt lat="45.367541" lon="-121.700549"><ele>3006</ele><time>2019-11-22T21:26:00Z</time></trkpt>
<trkpt lat="45.367539" lon="-121.700586"><ele>3003</ele><time>2019-11-22T21:27:00Z</time></trkpt>
<trkpt lat="45.367459" lon="-121.700549"><ele>3000</ele><time>2019-11-22T21:28:00Z</time></trkpt>
<trkpt lat="45.36744" lon="-121.700581"><ele>3001</ele><time>2019-11-22T21:28:00Z</time></trkpt>
<trkpt lat="45.367438" lon="-121.700588"><ele>3000</ele><time>2019-11-22T21:28:00Z</time></trkpt>
<trkpt lat="45.367397" lon="-121.700644"><ele>2999</ele><time>2019-11-22T21:28:00Z</time></trkpt>
<trkpt lat="45.367348" lon="-121.700662"><ele>2995</ele><time>2019-11-22T21:28:00Z</time></trkpt>
<trkpt lat="45.367314" lon="-121.700763"><ele>2991</ele><time>2019-11-22T21:28:00Z</time></trkpt>
<trkpt lat="45.367311" lon="-121.700765"><ele>2991</ele><time>2019-11-22T21:28:00Z</time></trkpt>
<trkpt lat="45.36731" lon="-121.700804"><ele>2990</ele><time>2019-11-22T21:29:00Z</time></trkpt>
<trkpt lat="45.367244" lon="-121.700899"><ele>2986</ele><time>2019-11-22T21:29:00Z</time></trkpt>
<trkpt lat="45.367194" lon="-121.700919"><ele>2983</ele><time>2019-11-22T21:29:00Z</time></trkpt>
<trkpt lat="45.367187" lon="-121.700921"><ele>2983</ele><time>2019-11-22T21:29:00Z</time></trkpt>
<trkpt lat="45.36713" lon="-121.700941"><ele>2980</ele><time>2019-11-22T21:29:00Z</time></trkpt>
<trkpt lat="45.367114" lon="-121.700971"><ele>2979</ele><time>2019-11-22T21:29:00Z</time></trkpt>
<trkpt lat="45.3671" lon="-121.701041"><ele>2975</ele><time>2019-11-22T21:30:00Z</time></trkpt>
<trkpt lat="45.367084" lon="-121.70106"><ele>2975</ele><time>2019-11-22T21:30:00Z</time></trkpt>
<trkpt lat="45.367054" lon="-121.701048"><ele>2974</ele><time>2019-11-22T21:30:00Z</time></trkpt>
<trkpt lat="45.367048" lon="-121.701045"><ele>2973</ele><time>2019-11-22T21:30:00Z</time></trkpt>
<trkpt lat="45.367021" lon="-121.701013"><ele>2971</ele><time>2019-11-22T21:30:00Z</time></trkpt>
<trkpt lat="45.366972" lon="-121.700994"><ele>2968</ele><time>2019-11-22T21:30:00Z</time></trkpt>
<trkpt lat="45.366945" lon="-121.700998"><ele>2969</ele><time>2019-11-22T21:30:00Z</time></trkpt>
<trkpt lat="45.366942" lon="-121.701033"><ele>2969</ele><time>2019-11-22T21:30:00Z</time></trkpt>
<trkpt lat="45.366904" lon="-121.701086"><ele>2967</ele><time>2019-11-22T21:31:00Z</time></trkpt>
<trkpt lat="45.36687" lon="-121.701137"><ele>2967</ele><time>2019-11-22T21:31:00Z</time></trkpt>
<trkpt lat="45.366809" lon="-121.701175"><ele>2961</ele><time>2019-11-22T21:31:00Z</time></trkpt>
<trkpt lat="45.366765" lon="-121.701219"><ele>2958</ele><time>2019-11-22T21:32:00Z</time></trkpt>
<trkpt lat="45.366719" lon="-121.701259"><ele>2952</ele><time>2019-11-22T21:32:00Z</time></trkpt>
<trkpt lat="45.366719" lon="-121.701295"><ele>2951</ele><time>2019-11-22T21:32:00Z</time></trkpt>
<trkpt lat="45.366707" lon="-121.701325"><ele>2949</ele><time>2019-11-22T21:32:00Z</time></trkpt>
<trkpt lat="45.366661" lon="-121.701322"><ele>2946</ele><time>2019-11-22T21:33:00Z</time></trkpt>
<trkpt lat="45.366635" lon="-121.701305"><ele>2945</ele><time>2019-11-22T21:33:00Z</time></trkpt>
<trkpt lat="45.36663" lon="-121.701302"><ele>2945</ele><time>2019-11-22T21:33:00Z</time></trkpt>
<trkpt lat="45.366601" lon="-121.701299"><ele>2943</ele><time>2019-11-22T21:33:00Z</time></trkpt>
<trkpt lat="45.366553" lon="-121.701316"><ele>2941</ele><time>2019-11-22T21:33:00Z</time></trkpt>
<trkpt lat="45.36647" lon="-121.70139"><ele>2935</ele><time>2019-11-22T21:33:00Z</time></trkpt>
<trkpt lat="45.366465" lon="-121.701393"><ele>2934</ele><time>2019-11-22T21:33:00Z</time></trkpt>
<trkpt lat="45.366395" lon="-121.701354"><ele>2931</ele><time>2019-11-22T21:34:00Z</time></trkpt>
<trkpt lat="45.366341" lon="-121.701425"><ele>2931</ele><time>2019-11-22T21:34:00Z</time></trkpt>
<trkpt lat="45.366313" lon="-121.70141"><ele>2929</ele><time>2019-11-22T21:34:00Z</time></trkpt>
<trkpt lat="45.366309" lon="-121.701407"><ele>2929</ele><time>2019-11-22T21:34:00Z</time></trkpt>
<trkpt lat="45.366284" lon="-121.701399"><ele>2927</ele><time>2019-11-22T21:35:00Z</time></trkpt>
<trkpt lat="45.366227" lon="-121.701503"><ele>2927</ele><time>2019-11-22T21:35:00Z</time></trkpt>
<trkpt lat="45.366223" lon="-121.701539"><ele>2926</ele><time>2019-11-22T21:35:00Z</time></trkpt>
<trkpt lat="45.366196" lon="-121.701546"><ele>2923</ele><time>2019-11-22T21:35:00Z</time></trkpt>
<trkpt lat="45.366169" lon="-121.701539"><ele>2920</ele><time>2019-11-22T21:35:00Z</time></trkpt>
<trkpt lat="45.366087" lon="-121.701617"><ele>2914</ele><time>2019-11-22T21:36:00Z</time></trkpt>
<trkpt lat="45.36604" lon="-121.701644"><ele>2910</ele><time>2019-11-22T21:36:00Z</time></trkpt>
<trkpt lat="45.366034" lon="-121.701645"><ele>2910</ele><time>2019-11-22T21:36:00Z</time></trkpt>
<trkpt lat="45.365963" lon="-121.70167"><ele>2906</ele><time>2019-11-22T21:36:00Z</time></trkpt>
<trkpt lat="45.365916" lon="-121.701656"><ele>2904</ele><time>2019-11-22T21:36:00Z</time></trkpt>
<trkpt lat="45.365864" lon="-121.701669"><ele>2902</ele><time>2019-11-22T21:36:00Z</time></trkpt>
<trkpt lat="45.365857" lon="-121.701672"><ele>2901</ele><time>2019-11-22T21:36:00Z</time></trkpt>
<trkpt lat="45.365788" lon="-121.701729"><ele>2898</ele><time>2019-11-22T21:37:00Z</time></trkpt>
<trkpt lat="45.365739" lon="-121.701791"><ele>2894</ele><time>2019-11-22T21:37:00Z</time></trkpt>
<trkpt lat="45.36571" lon="-121.701793"><ele>2893</ele><time>2019-11-22T21:37:00Z</time></trkpt>
<trkpt lat="45.365702" lon="-121.701794"><ele>2893</ele><time>2019-11-22T21:37:00Z</time></trkpt>
<trkpt lat="45.365671" lon="-121.701803"><ele>2893</ele><time>2019-11-22T21:37:00Z</time></trkpt>
<trkpt lat="45.36565" lon="-121.701825"><ele>2892</ele><time>2019-11-22T21:37:00Z</time></trkpt>
<trkpt lat="45.365589" lon="-121.701914"><ele>2887</ele><time>2019-11-22T21:37:00Z</time></trkpt>
<trkpt lat="45.365561" lon="-121.701912"><ele>2888</ele><time>2019-11-22T21:38:00Z</time></trkpt>
<trkpt lat="45.365553" lon="-121.701914"><ele>2888</ele><time>2019-11-22T21:38:00Z</time></trkpt>
<trkpt lat="45.365509" lon="-121.701953"><ele>2885</ele><time>2019-11-22T21:38:00Z</time></trkpt>
<trkpt lat="45.365429" lon="-121.701997"><ele>2882</ele><time>2019-11-22T21:38:00Z</time></trkpt>
<trkpt lat="45.365408" lon="-121.702031"><ele>2881</ele><time>2019-11-22T21:38:00Z</time></trkpt>
<trkpt lat="45.365406" lon="-121.702037"><ele>2881</ele><time>2019-11-22T21:38:00Z</time></trkpt>
<trkpt lat="45.365384" lon="-121.702068"><ele>2879</ele><time>2019-11-22T21:38:00Z</time></trkpt>
<trkpt lat="45.365357" lon="-121.702069"><ele>2877</ele><time>2019-11-22T21:38:00Z</time></trkpt>
<trkpt lat="45.365295" lon="-121.702044"><ele>2874</ele><time>2019-11-22T21:38:00Z</time></trkpt>
<trkpt lat="45.365283" lon="-121.702074"><ele>2873</ele><time>2019-11-22T21:38:00Z</time></trkpt>
<trkpt lat="45.365258" lon="-121.702095"><ele>2871</ele><time>2019-11-22T21:39:00Z</time></trkpt>
<trkpt lat="45.365252" lon="-121.702097"><ele>2871</ele><time>2019-11-22T21:39:00Z</time></trkpt>
<trkpt lat="45.365197" lon="-121.702101"><ele>2869</ele><time>2019-11-22T21:39:00Z</time></trkpt>
<trkpt lat="45.365178" lon="-121.702121"><ele>2867</ele><time>2019-11-22T21:39:00Z</time></trkpt>
<trkpt lat="45.365166" lon="-121.702185"><ele>2866</ele><time>2019-11-22T21:39:00Z</time></trkpt>
<trkpt lat="45.365143" lon="-121.702206"><ele>2866</ele><time>2019-11-22T21:39:00Z</time></trkpt>
<trkpt lat="45.365113" lon="-121.702216"><ele>2864</ele><time>2019-11-22T21:39:00Z</time></trkpt>
<trkpt lat="45.365107" lon="-121.702219"><ele>2864</ele><time>2019-11-22T21:39:00Z</time></trkpt>
<trkpt lat="45.365065" lon="-121.702249"><ele>2861</ele><time>2019-11-22T21:39:00Z</time></trkpt>
<trkpt lat="45.365035" lon="-121.702304"><ele>2859</ele><time>2019-11-22T21:40:00Z</time></trkpt>
<trkpt lat="45.364969" lon="-121.702351"><ele>2856</ele><time>2019-11-22T21:40:00Z</time></trkpt>
<trkpt lat="45.364966" lon="-121.702354"><ele>2855</ele><time>2019-11-22T21:40:00Z</time></trkpt>
<trkpt lat="45.3649" lon="-121.702467"><ele>2852</ele><time>2019-11-22T21:40:00Z</time></trkpt>
<trkpt lat="45.36485" lon="-121.702488"><ele>2849</ele><time>2019-11-22T21:40:00Z</time></trkpt>
<trkpt lat="45.364834" lon="-121.70252"><ele>2848</ele><time>2019-11-22T21:41:00Z</time></trkpt>
<trkpt lat="45.364754" lon="-121.702545"><ele>2842</ele><time>2019-11-22T21:41:00Z</time></trkpt>
<trkpt lat="45.364689" lon="-121.702602"><ele>2838</ele><time>2019-11-22T21:41:00Z</time></trkpt>
<trkpt lat="45.364673" lon="-121.702634"><ele>2837</ele><time>2019-11-22T21:42:00Z</time></trkpt>
<trkpt lat="45.36462" lon="-121.702663"><ele>2835</ele><time>2019-11-22T21:42:00Z</time></trkpt>
<trkpt lat="45.364602" lon="-121.702691"><ele>2834</ele><time>2019-11-22T21:42:00Z</time></trkpt>
<trkpt lat="45.364581" lon="-121.702756"><ele>2831</ele><time>2019-11-22T21:43:00Z</time></trkpt>
<trkpt lat="45.36456" lon="-121.702755"><ele>2831</ele><time>2019-11-22T21:43:00Z</time></trkpt>
<trkpt lat="45.36453" lon="-121.702736"><ele>2829</ele><time>2019-11-22T21:43:00Z</time></trkpt>
<trkpt lat="45.364524" lon="-121.702732"><ele>2828</ele><time>2019-11-22T21:43:00Z</time></trkpt>
<trkpt lat="45.36441" lon="-121.702698"><ele>2825</ele><time>2019-11-22T21:43:00Z</time></trkpt>
<trkpt lat="45.364355" lon="-121.702699"><ele>2825</ele><time>2019-11-22T21:43:00Z</time></trkpt>
<trkpt lat="45.364345" lon="-121.702701"><ele>2824</ele><time>2019-11-22T21:43:00Z</time></trkpt>
<trkpt lat="45.364312" lon="-121.702708"><ele>2824</ele><time>2019-11-22T21:43:00Z</time></trkpt>
<trkpt lat="45.364298" lon="-121.702741"><ele>2824</ele><time>2019-11-22T21:43:00Z</time></trkpt>
<trkpt lat="45.364278" lon="-121.702754"><ele>2822</ele><time>2019-11-22T21:43:00Z</time></trkpt>
<trkpt lat="45.364252" lon="-121.702754"><ele>2822</ele><time>2019-11-22T21:43:00Z</time></trkpt>
<trkpt lat="45.364221" lon="-121.702719"><ele>2821</ele><time>2019-11-22T21:43:00Z</time></trkpt>
<trkpt lat="45.364192" lon="-121.702706"><ele>2821</ele><time>2019-11-22T21:44:00Z</time></trkpt>
<trkpt lat="45.364186" lon="-121.70271"><ele>2821</ele><time>2019-11-22T21:44:00Z</time></trkpt>
<trkpt lat="45.364156" lon="-121.702719"><ele>2820</ele><time>2019-11-22T21:44:00Z</time></trkpt>
<trkpt lat="45.364132" lon="-121.702711"><ele>2819</ele><time>2019-11-22T21:44:00Z</time></trkpt>
<trkpt lat="45.364096" lon="-121.702751"><ele>2815</ele><time>2019-11-22T21:44:00Z</time></trkpt>
<trkpt lat="45.364074" lon="-121.702738"><ele>2813</ele><time>2019-11-22T21:44:00Z</time></trkpt>
<trkpt lat="45.364054" lon="-121.702752"><ele>2813</ele><time>2019-11-22T21:44:00Z</time></trkpt>
<trkpt lat="45.364025" lon="-121.70275"><ele>2812</ele><time>2019-11-22T21:44:00Z</time></trkpt>
<trkpt lat="45.36402" lon="-121.702748"><ele>2812</ele><time>2019-11-22T21:44:00Z</time></trkpt>
<trkpt lat="45.3639" lon="-121.702796"><ele>2810</ele><time>2019-11-22T21:45:00Z</time></trkpt>
<trkpt lat="45.363872" lon="-121.702863"><ele>2812</ele><time>2019-11-22T21:45:00Z</time></trkpt>
<trkpt lat="45.363813" lon="-121.70292"><ele>2810</ele><time>2019-11-22T21:45:00Z</time></trkpt>
<trkpt lat="45.363809" lon="-121.702989"><ele>2809</ele><time>2019-11-22T21:46:00Z</time></trkpt>
<trkpt lat="45.363775" lon="-121.703049"><ele>2807</ele><time>2019-11-22T21:46:00Z</time></trkpt>
<trkpt lat="45.363763" lon="-121.703059"><ele>2808</ele><time>2019-11-22T21:46:00Z</time></trkpt>
<trkpt lat="45.363702" lon="-121.70307"><ele>2807</ele><time>2019-11-22T21:46:00Z</time></trkpt>
<trkpt lat="45.363657" lon="-121.703061"><ele>2806</ele><time>2019-11-22T21:46:00Z</time></trkpt>
<trkpt lat="45.363612" lon="-121.702981"><ele>2804</ele><time>2019-11-22T21:46:00Z</time></trkpt>
<trkpt lat="45.363607" lon="-121.702972"><ele>2803</ele><time>2019-11-22T21:46:00Z</time></trkpt>
<trkpt lat="45.3636" lon="-121.702964"><ele>2803</ele><time>2019-11-22T21:46:00Z</time></trkpt>
<trkpt lat="45.363579" lon="-121.702976"><ele>2802</ele><time>2019-11-22T21:47:00Z</time></trkpt>
<trkpt lat="45.363568" lon="-121.703074"><ele>2798</ele><time>2019-11-22T21:47:00Z</time></trkpt>
<trkpt lat="45.363542" lon="-121.703069"><ele>2797</ele><time>2019-11-22T21:47:00Z</time></trkpt>
<trkpt lat="45.363493" lon="-121.703034"><ele>2796</ele><time>2019-11-22T21:47:00Z</time></trkpt>
<trkpt lat="45.363488" lon="-121.703028"><ele>2795</ele><time>2019-11-22T21:47:00Z</time></trkpt>
<trkpt lat="45.363441" lon="-121.702984"><ele>2793</ele><time>2019-11-22T21:47:00Z</time></trkpt>
<trkpt lat="45.363403" lon="-121.703027"><ele>2792</ele><time>2019-11-22T21:47:00Z</time></trkpt>
<trkpt lat="45.36338" lon="-121.703039"><ele>2790</ele><time>2019-11-22T21:48:00Z</time></trkpt>
<trkpt lat="45.363327" lon="-121.70302"><ele>2788</ele><time>2019-11-22T21:48:00Z</time></trkpt>
<trkpt lat="45.363323" lon="-121.703019"><ele>2788</ele><time>2019-11-22T21:48:00Z</time></trkpt>
<trkpt lat="45.363297" lon="-121.703025"><ele>2788</ele><time>2019-11-22T21:48:00Z</time></trkpt>
<trkpt lat="45.363198" lon="-121.703108"><ele>2784</ele><time>2019-11-22T21:48:00Z</time></trkpt>
<trkpt lat="45.363167" lon="-121.703112"><ele>2785</ele><time>2019-11-22T21:48:00Z</time></trkpt>
<trkpt lat="45.363161" lon="-121.703108"><ele>2784</ele><time>2019-11-22T21:48:00Z</time></trkpt>
<trkpt lat="45.363017" lon="-121.702993"><ele>2782</ele><time>2019-11-22T21:49:00Z</time></trkpt>
<trkpt lat="45.363009" lon="-121.702985"><ele>2781</ele><time>2019-11-22T21:49:00Z</time></trkpt>
<trkpt lat="45.362978" lon="-121.702975"><ele>2780</ele><time>2019-11-22T21:49:00Z</time></trkpt>
<trkpt lat="45.362965" lon="-121.702991"><ele>2779</ele><time>2019-11-22T21:49:00Z</time></trkpt>
<trkpt lat="45.36295" lon="-121.70308"><ele>2779</ele><time>2019-11-22T21:49:00Z</time></trkpt>
<trkpt lat="45.362953" lon="-121.703158"><ele>2777</ele><time>2019-11-22T21:49:00Z</time></trkpt>
<trkpt lat="45.36295" lon="-121.703169"><ele>2777</ele><time>2019-11-22T21:49:00Z</time></trkpt>
<trkpt lat="45.362921" lon="-121.703227"><ele>2774</ele><time>2019-11-22T21:49:00Z</time></trkpt>
<trkpt lat="45.362877" lon="-121.703268"><ele>2774</ele><time>2019-11-22T21:49:00Z</time></trkpt>
<trkpt lat="45.362853" lon="-121.703269"><ele>2773</ele><time>2019-11-22T21:49:00Z</time></trkpt>
<trkpt lat="45.362832" lon="-121.703287"><ele>2771</ele><time>2019-11-22T21:49:00Z</time></trkpt>
<trkpt lat="45.362816" lon="-121.703326"><ele>2770</ele><time>2019-11-22T21:49:00Z</time></trkpt>
<trkpt lat="45.362813" lon="-121.703336"><ele>2769</ele><time>2019-11-22T21:49:00Z</time></trkpt>
<trkpt lat="45.362773" lon="-121.703407"><ele>2766</ele><time>2019-11-22T21:49:00Z</time></trkpt>
<trkpt lat="45.362702" lon="-121.703492"><ele>2764</ele><time>2019-11-22T21:50:00Z</time></trkpt>
<trkpt lat="45.362691" lon="-121.703496"><ele>2764</ele><time>2019-11-22T21:50:00Z</time></trkpt>
<trkpt lat="45.362662" lon="-121.7035"><ele>2762</ele><time>2019-11-22T21:50:00Z</time></trkpt>
<trkpt lat="45.362579" lon="-121.703481"><ele>2760</ele><time>2019-11-22T21:50:00Z</time></trkpt>
<trkpt lat="45.362529" lon="-121.703504"><ele>2759</ele><time>2019-11-22T21:50:00Z</time></trkpt>
<trkpt lat="45.362519" lon="-121.703509"><ele>2759</ele><time>2019-11-22T21:50:00Z</time></trkpt>
<trkpt lat="45.362497" lon="-121.703539"><ele>2759</ele><time>2019-11-22T21:50:00Z</time></trkpt>
<trkpt lat="45.362474" lon="-121.703598"><ele>2758</ele><time>2019-11-22T21:50:00Z</time></trkpt>
<trkpt lat="45.362437" lon="-121.703638"><ele>2757</ele><time>2019-11-22T21:50:00Z</time></trkpt>
<trkpt lat="45.362393" lon="-121.703667"><ele>2754</ele><time>2019-11-22T21:50:00Z</time></trkpt>
<trkpt lat="45.362392" lon="-121.703675"><ele>2754</ele><time>2019-11-22T21:50:00Z</time></trkpt>
<trkpt lat="45.362351" lon="-121.703845"><ele>2753</ele><time>2019-11-22T21:51:00Z</time></trkpt>
<trkpt lat="45.362333" lon="-121.703855"><ele>2753</ele><time>2019-11-22T21:51:00Z</time></trkpt>
<trkpt lat="45.362307" lon="-121.703845"><ele>2752</ele><time>2019-11-22T21:51:00Z</time></trkpt>
<trkpt lat="45.362299" lon="-121.703838"><ele>2752</ele><time>2019-11-22T21:51:00Z</time></trkpt>
<trkpt lat="45.362277" lon="-121.703809"><ele>2752</ele><time>2019-11-22T21:51:00Z</time></trkpt>
<trkpt lat="45.362226" lon="-121.703816"><ele>2749</ele><time>2019-11-22T21:51:00Z</time></trkpt>
<trkpt lat="45.362211" lon="-121.703846"><ele>2748</ele><time>2019-11-22T21:51:00Z</time></trkpt>
<trkpt lat="45.362162" lon="-121.703865"><ele>2746</ele><time>2019-11-22T21:51:00Z</time></trkpt>
<trkpt lat="45.362153" lon="-121.703903"><ele>2746</ele><time>2019-11-22T21:51:00Z</time></trkpt>
<trkpt lat="45.362149" lon="-121.703911"><ele>2746</ele><time>2019-11-22T21:51:00Z</time></trkpt>
<trkpt lat="45.362132" lon="-121.703941"><ele>2745</ele><time>2019-11-22T21:51:00Z</time></trkpt>
<trkpt lat="45.362088" lon="-121.703949"><ele>2744</ele><time>2019-11-22T21:51:00Z</time></trkpt>
<trkpt lat="45.362015" lon="-121.703937"><ele>2739</ele><time>2019-11-22T21:52:00Z</time></trkpt>
<trkpt lat="45.361995" lon="-121.703907"><ele>2739</ele><time>2019-11-22T21:52:00Z</time></trkpt>
<trkpt lat="45.361982" lon="-121.703943"><ele>2740</ele><time>2019-11-22T21:52:00Z</time></trkpt>
<trkpt lat="45.361957" lon="-121.703949"><ele>2736</ele><time>2019-11-22T21:52:00Z</time></trkpt>
<trkpt lat="45.361932" lon="-121.70394"><ele>2735</ele><time>2019-11-22T21:52:00Z</time></trkpt>
<trkpt lat="45.361912" lon="-121.703923"><ele>2734</ele><time>2019-11-22T21:52:00Z</time></trkpt>
<trkpt lat="45.361886" lon="-121.703864"><ele>2733</ele><time>2019-11-22T21:52:00Z</time></trkpt>
<trkpt lat="45.361859" lon="-121.703854"><ele>2733</ele><time>2019-11-22T21:52:00Z</time></trkpt>
<trkpt lat="45.361853" lon="-121.703859"><ele>2732</ele><time>2019-11-22T21:52:00Z</time></trkpt>
<trkpt lat="45.361848" lon="-121.703863"><ele>2732</ele><time>2019-11-22T21:52:00Z</time></trkpt>
<trkpt lat="45.361807" lon="-121.703825"><ele>2730</ele><time>2019-11-22T21:53:00Z</time></trkpt>
<trkpt lat="45.361739" lon="-121.703785"><ele>2726</ele><time>2019-11-22T21:53:00Z</time></trkpt>
<trkpt lat="45.361688" lon="-121.703772"><ele>2722</ele><time>2019-11-22T21:53:00Z</time></trkpt>
<trkpt lat="45.361683" lon="-121.70377"><ele>2722</ele><time>2019-11-22T21:53:00Z</time></trkpt>
<trkpt lat="45.361628" lon="-121.70377"><ele>2719</ele><time>2019-11-22T21:53:00Z</time></trkpt>
<trkpt lat="45.361578" lon="-121.703757"><ele>2717</ele><time>2019-11-22T21:53:00Z</time></trkpt>
<trkpt lat="45.36154" lon="-121.703799"><ele>2714</ele><time>2019-11-22T21:54:00Z</time></trkpt>
<trkpt lat="45.361527" lon="-121.70384"><ele>2714</ele><time>2019-11-22T21:54:00Z</time></trkpt>
<trkpt lat="45.361527" lon="-121.70385"><ele>2714</ele><time>2019-11-22T21:54:00Z</time></trkpt>
<trkpt lat="45.36152" lon="-121.703895"><ele>2713</ele><time>2019-11-22T21:54:00Z</time></trkpt>
<trkpt lat="45.361469" lon="-121.703961"><ele>2710</ele><time>2019-11-22T21:54:00Z</time></trkpt>
<trkpt lat="45.361421" lon="-121.703975"><ele>2705</ele><time>2019-11-22T21:54:00Z</time></trkpt>
<trkpt lat="45.361387" lon="-121.703972"><ele>2703</ele><time>2019-11-22T21:54:00Z</time></trkpt>
<trkpt lat="45.36138" lon="-121.70397"><ele>2703</ele><time>2019-11-22T21:54:00Z</time></trkpt>
<trkpt lat="45.361307" lon="-121.703916"><ele>2702</ele><time>2019-11-22T21:55:00Z</time></trkpt>
<trkpt lat="45.361259" lon="-121.703903"><ele>2700</ele><time>2019-11-22T21:56:00Z</time></trkpt>
<trkpt lat="45.361214" lon="-121.703861"><ele>2698</ele><time>2019-11-22T21:56:00Z</time></trkpt>
<trkpt lat="45.361211" lon="-121.703858"><ele>2697</ele><time>2019-11-22T21:56:00Z</time></trkpt>
<trkpt lat="45.361135" lon="-121.703857"><ele>2694</ele><time>2019-11-22T21:56:00Z</time></trkpt>
<trkpt lat="45.361069" lon="-121.703797"><ele>2691</ele><time>2019-11-22T21:56:00Z</time></trkpt>
<trkpt lat="45.361045" lon="-121.703819"><ele>2689</ele><time>2019-11-22T21:56:00Z</time></trkpt>
<trkpt lat="45.361037" lon="-121.703828"><ele>2689</ele><time>2019-11-22T21:56:00Z</time></trkpt>
<trkpt lat="45.36099" lon="-121.703875"><ele>2687</ele><time>2019-11-22T21:57:00Z</time></trkpt>
<trkpt lat="45.360942" lon="-121.703857"><ele>2686</ele><time>2019-11-22T21:57:00Z</time></trkpt>
<trkpt lat="45.360927" lon="-121.703887"><ele>2684</ele><time>2019-11-22T21:57:00Z</time></trkpt>
<trkpt lat="45.360907" lon="-121.703903"><ele>2684</ele><time>2019-11-22T21:57:00Z</time></trkpt>
<trkpt lat="45.360892" lon="-121.703946"><ele>2682</ele><time>2019-11-22T21:57:00Z</time></trkpt>
<trkpt lat="45.360888" lon="-121.703954"><ele>2682</ele><time>2019-11-22T21:57:00Z</time></trkpt>
<trkpt lat="45.360864" lon="-121.703982"><ele>2680</ele><time>2019-11-22T21:57:00Z</time></trkpt>
<trkpt lat="45.360819" lon="-121.703996"><ele>2677</ele><time>2019-11-22T21:57:00Z</time></trkpt>
<trkpt lat="45.360753" lon="-121.704045"><ele>2673</ele><time>2019-11-22T21:57:00Z</time></trkpt>
<trkpt lat="45.360722" lon="-121.704046"><ele>2672</ele><time>2019-11-22T21:57:00Z</time></trkpt>
<trkpt lat="45.360715" lon="-121.704047"><ele>2672</ele><time>2019-11-22T21:57:00Z</time></trkpt>
<trkpt lat="45.360662" lon="-121.704114"><ele>2671</ele><time>2019-11-22T21:58:00Z</time></trkpt>
<trkpt lat="45.360599" lon="-121.704102"><ele>2671</ele><time>2019-11-22T21:58:00Z</time></trkpt>
<trkpt lat="45.36058" lon="-121.704134"><ele>2669</ele><time>2019-11-22T21:58:00Z</time></trkpt>
<trkpt lat="45.36058" lon="-121.704143"><ele>2668</ele><time>2019-11-22T21:58:00Z</time></trkpt>
<trkpt lat="45.360566" lon="-121.704179"><ele>2666</ele><time>2019-11-22T21:58:00Z</time></trkpt>
<trkpt lat="45.360524" lon="-121.704152"><ele>2665</ele><time>2019-11-22T21:58:00Z</time></trkpt>
<trkpt lat="45.360497" lon="-121.704203"><ele>2662</ele><time>2019-11-22T21:58:00Z</time></trkpt>
<trkpt lat="45.360441" lon="-121.704237"><ele>2661</ele><time>2019-11-22T21:58:00Z</time></trkpt>
<trkpt lat="45.360429" lon="-121.704236"><ele>2661</ele><time>2019-11-22T21:58:00Z</time></trkpt>
<trkpt lat="45.36037" lon="-121.704211"><ele>2661</ele><time>2019-11-22T21:58:00Z</time></trkpt>
<trkpt lat="45.360283" lon="-121.704282"><ele>2656</ele><time>2019-11-22T21:59:00Z</time></trkpt>
<trkpt lat="45.360256" lon="-121.704272"><ele>2657</ele><time>2019-11-22T21:59:00Z</time></trkpt>
<trkpt lat="45.36025" lon="-121.704268"><ele>2656</ele><time>2019-11-22T21:59:00Z</time></trkpt>
<trkpt lat="45.360175" lon="-121.704293"><ele>2653</ele><time>2019-11-22T21:59:00Z</time></trkpt>
<trkpt lat="45.360157" lon="-121.704353"><ele>2653</ele><time>2019-11-22T21:59:00Z</time></trkpt>
<trkpt lat="45.360123" lon="-121.704401"><ele>2650</ele><time>2019-11-22T21:59:00Z</time></trkpt>
<trkpt lat="45.360121" lon="-121.704408"><ele>2650</ele><time>2019-11-22T21:59:00Z</time></trkpt>
<trkpt lat="45.360077" lon="-121.704495"><ele>2648</ele><time>2019-11-22T21:59:00Z</time></trkpt>
<trkpt lat="45.359987" lon="-121.704551"><ele>2646</ele><time>2019-11-22T22:00:00Z</time></trkpt>
<trkpt lat="45.359976" lon="-121.704555"><ele>2646</ele><time>2019-11-22T22:00:00Z</time></trkpt>
<trkpt lat="45.359927" lon="-121.704584"><ele>2641</ele><time>2019-11-22T22:00:00Z</time></trkpt>
<trkpt lat="45.359865" lon="-121.704559"><ele>2638</ele><time>2019-11-22T22:00:00Z</time></trkpt>
<trkpt lat="45.359845" lon="-121.704583"><ele>2638</ele><time>2019-11-22T22:00:00Z</time></trkpt>
<trkpt lat="45.359817" lon="-121.704596"><ele>2637</ele><time>2019-11-22T22:00:00Z</time></trkpt>
<trkpt lat="45.359817" lon="-121.704607"><ele>2637</ele><time>2019-11-22T22:00:00Z</time></trkpt>
<trkpt lat="45.359802" lon="-121.704647"><ele>2636</ele><time>2019-11-22T22:00:00Z</time></trkpt>
<trkpt lat="45.359717" lon="-121.704758"><ele>2631</ele><time>2019-11-22T22:01:00Z</time></trkpt>
<trkpt lat="45.359686" lon="-121.70477"><ele>2629</ele><time>2019-11-22T22:01:00Z</time></trkpt>
<trkpt lat="45.359678" lon="-121.704768"><ele>2629</ele><time>2019-11-22T22:01:00Z</time></trkpt>
<trkpt lat="45.359641" lon="-121.704814"><ele>2626</ele><time>2019-11-22T22:01:00Z</time></trkpt>
<trkpt lat="45.359593" lon="-121.704836"><ele>2624</ele><time>2019-11-22T22:01:00Z</time></trkpt>
<trkpt lat="45.359582" lon="-121.704863"><ele>2624</ele><time>2019-11-22T22:01:00Z</time></trkpt>
<trkpt lat="45.359527" lon="-121.70487"><ele>2621</ele><time>2019-11-22T22:01:00Z</time></trkpt>
<trkpt lat="45.359523" lon="-121.704869"><ele>2621</ele><time>2019-11-22T22:01:00Z</time></trkpt>
<trkpt lat="45.359515" lon="-121.704898"><ele>2621</ele><time>2019-11-22T22:01:00Z</time></trkpt>
<trkpt lat="45.359491" lon="-121.704909"><ele>2620</ele><time>2019-11-22T22:02:00Z</time></trkpt>
<trkpt lat="45.359469" lon="-121.704905"><ele>2619</ele><time>2019-11-22T22:02:00Z</time></trkpt>
<trkpt lat="45.359451" lon="-121.704886"><ele>2620</ele><time>2019-11-22T22:02:00Z</time></trkpt>
<trkpt lat="45.359375" lon="-121.704879"><ele>2617</ele><time>2019-11-22T22:03:00Z</time></trkpt>
<trkpt lat="45.359368" lon="-121.704873"><ele>2617</ele><time>2019-11-22T22:03:00Z</time></trkpt>
<trkpt lat="45.359313" lon="-121.704882"><ele>2616</ele><time>2019-11-22T22:03:00Z</time></trkpt>
<trkpt lat="45.359276" lon="-121.704847"><ele>2614</ele><time>2019-11-22T22:03:00Z</time></trkpt>
<trkpt lat="45.359252" lon="-121.70485"><ele>2615</ele><time>2019-11-22T22:03:00Z</time></trkpt>
<trkpt lat="45.359229" lon="-121.704839"><ele>2612</ele><time>2019-11-22T22:03:00Z</time></trkpt>
<trkpt lat="45.359201" lon="-121.704846"><ele>2610</ele><time>2019-11-22T22:03:00Z</time></trkpt>
<trkpt lat="45.359194" lon="-121.704849"><ele>2610</ele><time>2019-11-22T22:03:00Z</time></trkpt>
<trkpt lat="45.359116" lon="-121.704823"><ele>2609</ele><time>2019-11-22T22:04:00Z</time></trkpt>
<trkpt lat="45.35909" lon="-121.704826"><ele>2607</ele><time>2019-11-22T22:04:00Z</time></trkpt>
<trkpt lat="45.359076" lon="-121.704857"><ele>2607</ele><time>2019-11-22T22:04:00Z</time></trkpt>
<trkpt lat="45.359053" lon="-121.704843"><ele>2605</ele><time>2019-11-22T22:04:00Z</time></trkpt>
<trkpt lat="45.35902" lon="-121.704854"><ele>2605</ele><time>2019-11-22T22:04:00Z</time></trkpt>
<trkpt lat="45.359016" lon="-121.704861"><ele>2605</ele><time>2019-11-22T22:04:00Z</time></trkpt>
<trkpt lat="45.359" lon="-121.704894"><ele>2602</ele><time>2019-11-22T22:04:00Z</time></trkpt>
<trkpt lat="45.358977" lon="-121.704915"><ele>2601</ele><time>2019-11-22T22:04:00Z</time></trkpt>
<trkpt lat="45.358876" lon="-121.704907"><ele>2597</ele><time>2019-11-22T22:04:00Z</time></trkpt>
<trkpt lat="45.358846" lon="-121.704896"><ele>2596</ele><time>2019-11-22T22:05:00Z</time></trkpt>
<trkpt lat="45.358776" lon="-121.704918"><ele>2593</ele><time>2019-11-22T22:05:00Z</time></trkpt>
<trkpt lat="45.358753" lon="-121.704917"><ele>2590</ele><time>2019-11-22T22:05:00Z</time></trkpt>
<trkpt lat="45.358735" lon="-121.704893"><ele>2588</ele><time>2019-11-22T22:05:00Z</time></trkpt>
<trkpt lat="45.358713" lon="-121.704897"><ele>2587</ele><time>2019-11-22T22:05:00Z</time></trkpt>
<trkpt lat="45.358685" lon="-121.704918"><ele>2585</ele><time>2019-11-22T22:05:00Z</time></trkpt>
<trkpt lat="45.358679" lon="-121.704925"><ele>2585</ele><time>2019-11-22T22:05:00Z</time></trkpt>
<trkpt lat="45.358662" lon="-121.704966"><ele>2583</ele><time>2019-11-22T22:05:00Z</time></trkpt>
<trkpt lat="45.358617" lon="-121.70499"><ele>2583</ele><time>2019-11-22T22:05:00Z</time></trkpt>
<trkpt lat="45.358584" lon="-121.705042"><ele>2582</ele><time>2019-11-22T22:05:00Z</time></trkpt>
<trkpt lat="45.358538" lon="-121.705071"><ele>2580</ele><time>2019-11-22T22:06:00Z</time></trkpt>
<trkpt lat="45.358527" lon="-121.705082"><ele>2580</ele><time>2019-11-22T22:06:00Z</time></trkpt>
<trkpt lat="45.358507" lon="-121.705124"><ele>2581</ele><time>2019-11-22T22:06:00Z</time></trkpt>
<trkpt lat="45.358496" lon="-121.705179"><ele>2579</ele><time>2019-11-22T22:06:00Z</time></trkpt>
<trkpt lat="45.358493" lon="-121.705257"><ele>2579</ele><time>2019-11-22T22:06:00Z</time></trkpt>
<trkpt lat="45.358508" lon="-121.705303"><ele>2580</ele><time>2019-11-22T22:06:00Z</time></trkpt>
<trkpt lat="45.358511" lon="-121.705312"><ele>2579</ele><time>2019-11-22T22:06:00Z</time></trkpt>
<trkpt lat="45.358504" lon="-121.705358"><ele>2578</ele><time>2019-11-22T22:06:00Z</time></trkpt>
<trkpt lat="45.358477" lon="-121.705361"><ele>2581</ele><time>2019-11-22T22:06:00Z</time></trkpt>
<trkpt lat="45.358449" lon="-121.70536"><ele>2583</ele><time>2019-11-22T22:16:00Z</time></trkpt>
<trkpt lat="45.358438" lon="-121.705393"><ele>2580</ele><time>2019-11-22T22:18:00Z</time></trkpt>
<trkpt lat="45.358432" lon="-121.705352"><ele>2582</ele><time>2019-11-22T22:26:00Z</time></trkpt>
<trkpt lat="45.358431" lon="-121.705347"><ele>2583</ele><time>2019-11-22T22:26:00Z</time></trkpt>
<trkpt lat="45.358409" lon="-121.70536"><ele>2581</ele><time>2019-11-22T22:27:00Z</time></trkpt>
<trkpt lat="45.358358" lon="-121.705359"><ele>2577</ele><time>2019-11-22T22:27:00Z</time></trkpt>
<trkpt lat="45.358285" lon="-121.705372"><ele>2572</ele><time>2019-11-22T22:27:00Z</time></trkpt>
<trkpt lat="45.358259" lon="-121.705389"><ele>2571</ele><time>2019-11-22T22:27:00Z</time></trkpt>
<trkpt lat="45.358256" lon="-121.705392"><ele>2571</ele><time>2019-11-22T22:27:00Z</time></trkpt>
<trkpt lat="45.358228" lon="-121.705385"><ele>2569</ele><time>2019-11-22T22:28:00Z</time></trkpt>
<trkpt lat="45.358206" lon="-121.705402"><ele>2568</ele><time>2019-11-22T22:28:00Z</time></trkpt>
<trkpt lat="45.358183" lon="-121.705404"><ele>2566</ele><time>2019-11-22T22:28:00Z</time></trkpt>
<trkpt lat="45.358116" lon="-121.705389"><ele>2564</ele><time>2019-11-22T22:28:00Z</time></trkpt>
<trkpt lat="45.35809" lon="-121.705387"><ele>2563</ele><time>2019-11-22T22:28:00Z</time></trkpt>
<trkpt lat="45.358084" lon="-121.705396"><ele>2563</ele><time>2019-11-22T22:28:00Z</time></trkpt>
<trkpt lat="45.358079" lon="-121.705405"><ele>2562</ele><time>2019-11-22T22:28:00Z</time></trkpt>
<trkpt lat="45.358036" lon="-121.705467"><ele>2561</ele><time>2019-11-22T22:28:00Z</time></trkpt>
<trkpt lat="45.357984" lon="-121.705476"><ele>2560</ele><time>2019-11-22T22:28:00Z</time></trkpt>
<trkpt lat="45.35794" lon="-121.705511"><ele>2559</ele><time>2019-11-22T22:29:00Z</time></trkpt>
<trkpt lat="45.357909" lon="-121.705519"><ele>2556</ele><time>2019-11-22T22:29:00Z</time></trkpt>
<trkpt lat="45.357904" lon="-121.705525"><ele>2555</ele><time>2019-11-22T22:29:00Z</time></trkpt>
<trkpt lat="45.357843" lon="-121.705581"><ele>2551</ele><time>2019-11-22T22:29:00Z</time></trkpt>
<trkpt lat="45.357797" lon="-121.705579"><ele>2550</ele><time>2019-11-22T22:29:00Z</time></trkpt>
<trkpt lat="45.357777" lon="-121.705593"><ele>2548</ele><time>2019-11-22T22:29:00Z</time></trkpt>
<trkpt lat="45.357762" lon="-121.705626"><ele>2547</ele><time>2019-11-22T22:29:00Z</time></trkpt>
<trkpt lat="45.357754" lon="-121.705632"><ele>2546</ele><time>2019-11-22T22:29:00Z</time></trkpt>
<trkpt lat="45.357703" lon="-121.705645"><ele>2546</ele><time>2019-11-22T22:29:00Z</time></trkpt>
<trkpt lat="45.357668" lon="-121.705686"><ele>2547</ele><time>2019-11-22T22:29:00Z</time></trkpt>
<trkpt lat="45.357644" lon="-121.705695"><ele>2547</ele><time>2019-11-22T22:29:00Z</time></trkpt>
<trkpt lat="45.357601" lon="-121.705734"><ele>2546</ele><time>2019-11-22T22:29:00Z</time></trkpt>
<trkpt lat="45.357592" lon="-121.705736"><ele>2545</ele><time>2019-11-22T22:29:00Z</time></trkpt>
<trkpt lat="45.357554" lon="-121.705791"><ele>2546</ele><time>2019-11-22T22:30:00Z</time></trkpt>
<trkpt lat="45.357465" lon="-121.705782"><ele>2543</ele><time>2019-11-22T22:30:00Z</time></trkpt>
<trkpt lat="45.357433" lon="-121.7058"><ele>2541</ele><time>2019-11-22T22:30:00Z</time></trkpt>
<trkpt lat="45.357417" lon="-121.705804"><ele>2541</ele><time>2019-11-22T22:30:00Z</time></trkpt>
<trkpt lat="45.357289" lon="-121.705848"><ele>2538</ele><time>2019-11-22T22:30:00Z</time></trkpt>
<trkpt lat="45.35723" lon="-121.705849"><ele>2535</ele><time>2019-11-22T22:30:00Z</time></trkpt>
<trkpt lat="45.357222" lon="-121.705849"><ele>2535</ele><time>2019-11-22T22:30:00Z</time></trkpt>
<trkpt lat="45.357165" lon="-121.70583"><ele>2532</ele><time>2019-11-22T22:30:00Z</time></trkpt>
<trkpt lat="45.357104" lon="-121.705877"><ele>2529</ele><time>2019-11-22T22:30:00Z</time></trkpt>
<trkpt lat="45.357082" lon="-121.705882"><ele>2528</ele><time>2019-11-22T22:31:00Z</time></trkpt>
<trkpt lat="45.357055" lon="-121.705868"><ele>2527</ele><time>2019-11-22T22:31:00Z</time></trkpt>
<trkpt lat="45.357047" lon="-121.705865"><ele>2527</ele><time>2019-11-22T22:31:00Z</time></trkpt>
<trkpt lat="45.357016" lon="-121.70586"><ele>2526</ele><time>2019-11-22T22:31:00Z</time></trkpt>
<trkpt lat="45.356977" lon="-121.705867"><ele>2524</ele><time>2019-11-22T22:31:00Z</time></trkpt>
<trkpt lat="45.356949" lon="-121.705899"><ele>2522</ele><time>2019-11-22T22:31:00Z</time></trkpt>
<trkpt lat="45.356892" lon="-121.705866"><ele>2521</ele><time>2019-11-22T22:31:00Z</time></trkpt>
<trkpt lat="45.356885" lon="-121.705871"><ele>2521</ele><time>2019-11-22T22:31:00Z</time></trkpt>
<trkpt lat="45.356859" lon="-121.705902"><ele>2519</ele><time>2019-11-22T22:31:00Z</time></trkpt>
<trkpt lat="45.356812" lon="-121.705934"><ele>2515</ele><time>2019-11-22T22:31:00Z</time></trkpt>
<trkpt lat="45.35676" lon="-121.705932"><ele>2513</ele><time>2019-11-22T22:31:00Z</time></trkpt>
<trkpt lat="45.35673" lon="-121.705982"><ele>2512</ele><time>2019-11-22T22:31:00Z</time></trkpt>
<trkpt lat="45.356726" lon="-121.705991"><ele>2513</ele><time>2019-11-22T22:31:00Z</time></trkpt>
<trkpt lat="45.356706" lon="-121.706032"><ele>2513</ele><time>2019-11-22T22:31:00Z</time></trkpt>
<trkpt lat="45.356673" lon="-121.706061"><ele>2511</ele><time>2019-11-22T22:31:00Z</time></trkpt>
<trkpt lat="45.356648" lon="-121.706051"><ele>2510</ele><time>2019-11-22T22:31:00Z</time></trkpt>
<trkpt lat="45.356583" lon="-121.705994"><ele>2507</ele><time>2019-11-22T22:32:00Z</time></trkpt>
<trkpt lat="45.356574" lon="-121.705996"><ele>2507</ele><time>2019-11-22T22:32:00Z</time></trkpt>
<trkpt lat="45.356491" lon="-121.706068"><ele>2502</ele><time>2019-11-22T22:32:00Z</time></trkpt>
<trkpt lat="45.356432" lon="-121.706007"><ele>2500</ele><time>2019-11-22T22:32:00Z</time></trkpt>
<trkpt lat="45.356428" lon="-121.706002"><ele>2499</ele><time>2019-11-22T22:32:00Z</time></trkpt>
<trkpt lat="45.356386" lon="-121.706037"><ele>2498</ele><time>2019-11-22T22:32:00Z</time></trkpt>
<trkpt lat="45.356346" lon="-121.706143"><ele>2498</ele><time>2019-11-22T22:32:00Z</time></trkpt>
<trkpt lat="45.356325" lon="-121.706167"><ele>2496</ele><time>2019-11-22T22:32:00Z</time></trkpt>
<trkpt lat="45.356316" lon="-121.706164"><ele>2495</ele><time>2019-11-22T22:32:00Z</time></trkpt>
<trkpt lat="45.356279" lon="-121.706115"><ele>2493</ele><time>2019-11-22T22:32:00Z</time></trkpt>
<trkpt lat="45.35623" lon="-121.70601"><ele>2492</ele><time>2019-11-22T22:32:00Z</time></trkpt>
<trkpt lat="45.356202" lon="-121.706028"><ele>2491</ele><time>2019-11-22T22:33:00Z</time></trkpt>
<trkpt lat="45.356196" lon="-121.706035"><ele>2490</ele><time>2019-11-22T22:33:00Z</time></trkpt>
<trkpt lat="45.356126" lon="-121.706159"><ele>2487</ele><time>2019-11-22T22:33:00Z</time></trkpt>
<trkpt lat="45.356105" lon="-121.706178"><ele>2487</ele><time>2019-11-22T22:33:00Z</time></trkpt>
<trkpt lat="45.356077" lon="-121.706165"><ele>2486</ele><time>2019-11-22T22:33:00Z</time></trkpt>
<trkpt lat="45.356068" lon="-121.706155"><ele>2486</ele><time>2019-11-22T22:33:00Z</time></trkpt>
<trkpt lat="45.356012" lon="-121.706078"><ele>2483</ele><time>2019-11-22T22:33:00Z</time></trkpt>
<trkpt lat="45.355986" lon="-121.706085"><ele>2482</ele><time>2019-11-22T22:33:00Z</time></trkpt>
<trkpt lat="45.35594" lon="-121.706152"><ele>2479</ele><time>2019-11-22T22:33:00Z</time></trkpt>
<trkpt lat="45.355932" lon="-121.706152"><ele>2479</ele><time>2019-11-22T22:33:00Z</time></trkpt>
<trkpt lat="45.355869" lon="-121.706089"><ele>2478</ele><time>2019-11-22T22:33:00Z</time></trkpt>
<trkpt lat="45.355833" lon="-121.706168"><ele>2478</ele><time>2019-11-22T22:33:00Z</time></trkpt>
<trkpt lat="45.355808" lon="-121.706193"><ele>2476</ele><time>2019-11-22T22:34:00Z</time></trkpt>
<trkpt lat="45.355803" lon="-121.706192"><ele>2476</ele><time>2019-11-22T22:34:00Z</time></trkpt>
<trkpt lat="45.355712" lon="-121.706126"><ele>2472</ele><time>2019-11-22T22:34:00Z</time></trkpt>
<trkpt lat="45.355641" lon="-121.706164"><ele>2470</ele><time>2019-11-22T22:34:00Z</time></trkpt>
<trkpt lat="45.355634" lon="-121.706168"><ele>2469</ele><time>2019-11-22T22:34:00Z</time></trkpt>
<trkpt lat="45.355602" lon="-121.706173"><ele>2468</ele><time>2019-11-22T22:34:00Z</time></trkpt>
<trkpt lat="45.355582" lon="-121.70615"><ele>2467</ele><time>2019-11-22T22:34:00Z</time></trkpt>
<trkpt lat="45.355514" lon="-121.706222"><ele>2463</ele><time>2019-11-22T22:34:00Z</time></trkpt>
<trkpt lat="45.355484" lon="-121.706214"><ele>2462</ele><time>2019-11-22T22:34:00Z</time></trkpt>
<trkpt lat="45.355478" lon="-121.706207"><ele>2461</ele><time>2019-11-22T22:34:00Z</time></trkpt>
<trkpt lat="45.355427" lon="-121.70617"><ele>2459</ele><time>2019-11-22T22:35:00Z</time></trkpt>
<trkpt lat="45.355406" lon="-121.706192"><ele>2460</ele><time>2019-11-22T22:35:00Z</time></trkpt>
<trkpt lat="45.35536" lon="-121.706306"><ele>2459</ele><time>2019-11-22T22:35:00Z</time></trkpt>
<trkpt lat="45.355355" lon="-121.706314"><ele>2458</ele><time>2019-11-22T22:35:00Z</time></trkpt>
<trkpt lat="45.355336" lon="-121.706355"><ele>2458</ele><time>2019-11-22T22:35:00Z</time></trkpt>
<trkpt lat="45.355312" lon="-121.706456"><ele>2456</ele><time>2019-11-22T22:35:00Z</time></trkpt>
<trkpt lat="45.355288" lon="-121.706455"><ele>2455</ele><time>2019-11-22T22:35:00Z</time></trkpt>
<trkpt lat="45.355241" lon="-121.706417"><ele>2453</ele><time>2019-11-22T22:35:00Z</time></trkpt>
<trkpt lat="45.355231" lon="-121.70641"><ele>2453</ele><time>2019-11-22T22:35:00Z</time></trkpt>
<trkpt lat="45.355199" lon="-121.706402"><ele>2451</ele><time>2019-11-22T22:35:00Z</time></trkpt>
<trkpt lat="45.355184" lon="-121.706418"><ele>2450</ele><time>2019-11-22T22:35:00Z</time></trkpt>
<trkpt lat="45.355161" lon="-121.706474"><ele>2449</ele><time>2019-11-22T22:35:00Z</time></trkpt>
<trkpt lat="45.355115" lon="-121.706543"><ele>2446</ele><time>2019-11-22T22:35:00Z</time></trkpt>
<trkpt lat="45.355111" lon="-121.706551"><ele>2446</ele><time>2019-11-22T22:36:00Z</time></trkpt>
<trkpt lat="45.355043" lon="-121.706641"><ele>2447</ele><time>2019-11-22T22:36:00Z</time></trkpt>
<trkpt lat="45.355019" lon="-121.706652"><ele>2447</ele><time>2019-11-22T22:36:00Z</time></trkpt>
<trkpt lat="45.354973" lon="-121.706701"><ele>2444</ele><time>2019-11-22T22:36:00Z</time></trkpt>
<trkpt lat="45.354968" lon="-121.706707"><ele>2444</ele><time>2019-11-22T22:36:00Z</time></trkpt>
<trkpt lat="45.354931" lon="-121.706772"><ele>2442</ele><time>2019-11-22T22:36:00Z</time></trkpt>
<trkpt lat="45.354822" lon="-121.706845"><ele>2439</ele><time>2019-11-22T22:37:00Z</time></trkpt>
<trkpt lat="45.354817" lon="-121.706853"><ele>2439</ele><time>2019-11-22T22:37:00Z</time></trkpt>
<trkpt lat="45.354743" lon="-121.706965"><ele>2437</ele><time>2019-11-22T22:37:00Z</time></trkpt>
<trkpt lat="45.354691" lon="-121.706959"><ele>2435</ele><time>2019-11-22T22:37:00Z</time></trkpt>
<trkpt lat="45.354685" lon="-121.706964"><ele>2434</ele><time>2019-11-22T22:37:00Z</time></trkpt>
<trkpt lat="45.354666" lon="-121.70699"><ele>2434</ele><time>2019-11-22T22:37:00Z</time></trkpt>
<trkpt lat="45.354619" lon="-121.707021"><ele>2432</ele><time>2019-11-22T22:37:00Z</time></trkpt>
<trkpt lat="45.354578" lon="-121.707041"><ele>2431</ele><time>2019-11-22T22:37:00Z</time></trkpt>
<trkpt lat="45.354532" lon="-121.707044"><ele>2429</ele><time>2019-11-22T22:37:00Z</time></trkpt>
<trkpt lat="45.354523" lon="-121.707045"><ele>2428</ele><time>2019-11-22T22:37:00Z</time></trkpt>
<trkpt lat="45.354481" lon="-121.707083"><ele>2426</ele><time>2019-11-22T22:37:00Z</time></trkpt>
<trkpt lat="45.354433" lon="-121.707097"><ele>2423</ele><time>2019-11-22T22:38:00Z</time></trkpt>
<trkpt lat="45.354353" lon="-121.707096"><ele>2420</ele><time>2019-11-22T22:38:00Z</time></trkpt>
<trkpt lat="45.354347" lon="-121.707093"><ele>2419</ele><time>2019-11-22T22:38:00Z</time></trkpt>
<trkpt lat="45.354316" lon="-121.707089"><ele>2419</ele><time>2019-11-22T22:38:00Z</time></trkpt>
<trkpt lat="45.354275" lon="-121.7071"><ele>2418</ele><time>2019-11-22T22:38:00Z</time></trkpt>
<trkpt lat="45.354216" lon="-121.707154"><ele>2414</ele><time>2019-11-22T22:38:00Z</time></trkpt>
<trkpt lat="45.354185" lon="-121.707164"><ele>2413</ele><time>2019-11-22T22:38:00Z</time></trkpt>
<trkpt lat="45.354179" lon="-121.707172"><ele>2413</ele><time>2019-11-22T22:38:00Z</time></trkpt>
<trkpt lat="45.354152" lon="-121.707203"><ele>2411</ele><time>2019-11-22T22:38:00Z</time></trkpt>
<trkpt lat="45.354081" lon="-121.707236"><ele>2410</ele><time>2019-11-22T22:39:00Z</time></trkpt>
<trkpt lat="45.354055" lon="-121.707242"><ele>2408</ele><time>2019-11-22T22:39:00Z</time></trkpt>
<trkpt lat="45.354028" lon="-121.707236"><ele>2405</ele><time>2019-11-22T22:39:00Z</time></trkpt>
<trkpt lat="45.354002" lon="-121.70725"><ele>2405</ele><time>2019-11-22T22:39:00Z</time></trkpt>
<trkpt lat="45.353994" lon="-121.707253"><ele>2405</ele><time>2019-11-22T22:39:00Z</time></trkpt>
<trkpt lat="45.353952" lon="-121.707231"><ele>2405</ele><time>2019-11-22T22:39:00Z</time></trkpt>
<trkpt lat="45.353905" lon="-121.70725"><ele>2401</ele><time>2019-11-22T22:39:00Z</time></trkpt>
<trkpt lat="45.353889" lon="-121.70723"><ele>2400</ele><time>2019-11-22T22:39:00Z</time></trkpt>
<trkpt lat="45.353867" lon="-121.707225"><ele>2400</ele><time>2019-11-22T22:39:00Z</time></trkpt>
<trkpt lat="45.353839" lon="-121.707242"><ele>2398</ele><time>2019-11-22T22:39:00Z</time></trkpt>
<trkpt lat="45.353833" lon="-121.707248"><ele>2398</ele><time>2019-11-22T22:39:00Z</time></trkpt>
<trkpt lat="45.353744" lon="-121.707314"><ele>2396</ele><time>2019-11-22T22:40:00Z</time></trkpt>
<trkpt lat="45.353666" lon="-121.707333"><ele>2391</ele><time>2019-11-22T22:40:00Z</time></trkpt>
<trkpt lat="45.353652" lon="-121.707327"><ele>2392</ele><time>2019-11-22T22:40:00Z</time></trkpt>
<trkpt lat="45.353621" lon="-121.707308"><ele>2391</ele><time>2019-11-22T22:40:00Z</time></trkpt>
<trkpt lat="45.353578" lon="-121.707304"><ele>2390</ele><time>2019-11-22T22:40:00Z</time></trkpt>
<trkpt lat="45.353528" lon="-121.707245"><ele>2386</ele><time>2019-11-22T22:40:00Z</time></trkpt>
<trkpt lat="45.353498" lon="-121.707247"><ele>2384</ele><time>2019-11-22T22:40:00Z</time></trkpt>
<trkpt lat="45.353493" lon="-121.707256"><ele>2384</ele><time>2019-11-22T22:40:00Z</time></trkpt>
<trkpt lat="45.353465" lon="-121.707278"><ele>2383</ele><time>2019-11-22T22:40:00Z</time></trkpt>
<trkpt lat="45.353376" lon="-121.707271"><ele>2380</ele><time>2019-11-22T22:40:00Z</time></trkpt>
<trkpt lat="45.353322" lon="-121.707293"><ele>2379</ele><time>2019-11-22T22:41:00Z</time></trkpt>
<trkpt lat="45.353316" lon="-121.707301"><ele>2380</ele><time>2019-11-22T22:41:00Z</time></trkpt>
<trkpt lat="45.353268" lon="-121.707349"><ele>2378</ele><time>2019-11-22T22:41:00Z</time></trkpt>
<trkpt lat="45.353242" lon="-121.707348"><ele>2378</ele><time>2019-11-22T22:41:00Z</time></trkpt>
<trkpt lat="45.353199" lon="-121.707329"><ele>2375</ele><time>2019-11-22T22:41:00Z</time></trkpt>
<trkpt lat="45.35315" lon="-121.707333"><ele>2374</ele><time>2019-11-22T22:41:00Z</time></trkpt>
<trkpt lat="45.353145" lon="-121.707334"><ele>2374</ele><time>2019-11-22T22:41:00Z</time></trkpt>
<trkpt lat="45.353083" lon="-121.707406"><ele>2371</ele><time>2019-11-22T22:41:00Z</time></trkpt>
<trkpt lat="45.353061" lon="-121.707397"><ele>2371</ele><time>2019-11-22T22:41:00Z</time></trkpt>
<trkpt lat="45.353043" lon="-121.707369"><ele>2370</ele><time>2019-11-22T22:41:00Z</time></trkpt>
<trkpt lat="45.353021" lon="-121.707375"><ele>2369</ele><time>2019-11-22T22:41:00Z</time></trkpt>
<trkpt lat="45.353002" lon="-121.707405"><ele>2368</ele><time>2019-11-22T22:41:00Z</time></trkpt>
<trkpt lat="45.352998" lon="-121.707414"><ele>2368</ele><time>2019-11-22T22:41:00Z</time></trkpt>
<trkpt lat="45.352979" lon="-121.707449"><ele>2367</ele><time>2019-11-22T22:42:00Z</time></trkpt>
<trkpt lat="45.352962" lon="-121.707454"><ele>2367</ele><time>2019-11-22T22:42:00Z</time></trkpt>
<trkpt lat="45.352929" lon="-121.707425"><ele>2365</ele><time>2019-11-22T22:42:00Z</time></trkpt>
<trkpt lat="45.352904" lon="-121.707424"><ele>2364</ele><time>2019-11-22T22:42:00Z</time></trkpt>
<trkpt lat="45.352875" lon="-121.707491"><ele>2361</ele><time>2019-11-22T22:42:00Z</time></trkpt>
<trkpt lat="45.352878" lon="-121.707495"><ele>2361</ele><time>2019-11-22T22:42:00Z</time></trkpt>
<trkpt lat="45.352791" lon="-121.707614"><ele>2359</ele><time>2019-11-22T22:42:00Z</time></trkpt>
<trkpt lat="45.352767" lon="-121.7076"><ele>2358</ele><time>2019-11-22T22:42:00Z</time></trkpt>
<trkpt lat="45.352743" lon="-121.707622"><ele>2358</ele><time>2019-11-22T22:42:00Z</time></trkpt>
<trkpt lat="45.352739" lon="-121.707629"><ele>2357</ele><time>2019-11-22T22:42:00Z</time></trkpt>
<trkpt lat="45.352711" lon="-121.707654"><ele>2356</ele><time>2019-11-22T22:42:00Z</time></trkpt>
<trkpt lat="45.352675" lon="-121.70763"><ele>2354</ele><time>2019-11-22T22:42:00Z</time></trkpt>
<trkpt lat="45.352601" lon="-121.707719"><ele>2351</ele><time>2019-11-22T22:43:00Z</time></trkpt>
<trkpt lat="45.352597" lon="-121.70773"><ele>2351</ele><time>2019-11-22T22:43:00Z</time></trkpt>
<trkpt lat="45.352579" lon="-121.707768"><ele>2350</ele><time>2019-11-22T22:43:00Z</time></trkpt>
<trkpt lat="45.35256" lon="-121.707784"><ele>2350</ele><time>2019-11-22T22:43:00Z</time></trkpt>
<trkpt lat="45.352543" lon="-121.707782"><ele>2349</ele><time>2019-11-22T22:43:00Z</time></trkpt>
<trkpt lat="45.352521" lon="-121.707764"><ele>2349</ele><time>2019-11-22T22:43:00Z</time></trkpt>
<trkpt lat="45.352498" lon="-121.707763"><ele>2349</ele><time>2019-11-22T22:43:00Z</time></trkpt>
<trkpt lat="45.352479" lon="-121.707782"><ele>2349</ele><time>2019-11-22T22:43:00Z</time></trkpt>
<trkpt lat="45.352455" lon="-121.707747"><ele>2347</ele><time>2019-11-22T22:43:00Z</time></trkpt>
<trkpt lat="45.352447" lon="-121.707742"><ele>2347</ele><time>2019-11-22T22:43:00Z</time></trkpt>
<trkpt lat="45.352436" lon="-121.707742"><ele>2345</ele><time>2019-11-22T22:43:00Z</time></trkpt>
<trkpt lat="45.352402" lon="-121.707782"><ele>2345</ele><time>2019-11-22T22:43:00Z</time></trkpt>
<trkpt lat="45.35237" lon="-121.707743"><ele>2344</ele><time>2019-11-22T22:43:00Z</time></trkpt>
<trkpt lat="45.352321" lon="-121.707752"><ele>2343</ele><time>2019-11-22T22:43:00Z</time></trkpt>
<trkpt lat="45.352296" lon="-121.707771"><ele>2341</ele><time>2019-11-22T22:43:00Z</time></trkpt>
<trkpt lat="45.352287" lon="-121.707776"><ele>2341</ele><time>2019-11-22T22:43:00Z</time></trkpt>
<trkpt lat="45.352241" lon="-121.707828"><ele>2340</ele><time>2019-11-22T22:44:00Z</time></trkpt>
<trkpt lat="45.352195" lon="-121.707838"><ele>2338</ele><time>2019-11-22T22:44:00Z</time></trkpt>
<trkpt lat="45.35212" lon="-121.70788"><ele>2335</ele><time>2019-11-22T22:44:00Z</time></trkpt>
<trkpt lat="45.352108" lon="-121.707882"><ele>2335</ele><time>2019-11-22T22:44:00Z</time></trkpt>
<trkpt lat="45.352058" lon="-121.707913"><ele>2333</ele><time>2019-11-22T22:44:00Z</time></trkpt>
<trkpt lat="45.352017" lon="-121.707926"><ele>2333</ele><time>2019-11-22T22:44:00Z</time></trkpt>
<trkpt lat="45.351953" lon="-121.707972"><ele>2330</ele><time>2019-11-22T22:44:00Z</time></trkpt>
<trkpt lat="45.351945" lon="-121.707979"><ele>2330</ele><time>2019-11-22T22:44:00Z</time></trkpt>
<trkpt lat="45.351892" lon="-121.708"><ele>2327</ele><time>2019-11-22T22:44:00Z</time></trkpt>
<trkpt lat="45.351874" lon="-121.708026"><ele>2326</ele><time>2019-11-22T22:45:00Z</time></trkpt>
<trkpt lat="45.351828" lon="-121.708045"><ele>2323</ele><time>2019-11-22T22:45:00Z</time></trkpt>
<trkpt lat="45.351784" lon="-121.708084"><ele>2322</ele><time>2019-11-22T22:45:00Z</time></trkpt>
<trkpt lat="45.351774" lon="-121.708089"><ele>2322</ele><time>2019-11-22T22:45:00Z</time></trkpt>
<trkpt lat="45.351764" lon="-121.708095"><ele>2322</ele><time>2019-11-22T22:45:00Z</time></trkpt>
<trkpt lat="45.351696" lon="-121.70809"><ele>2319</ele><time>2019-11-22T22:45:00Z</time></trkpt>
<trkpt lat="45.351654" lon="-121.708112"><ele>2318</ele><time>2019-11-22T22:45:00Z</time></trkpt>
<trkpt lat="45.351632" lon="-121.708113"><ele>2316</ele><time>2019-11-22T22:45:00Z</time></trkpt>
<trkpt lat="45.351607" lon="-121.708096"><ele>2315</ele><time>2019-11-22T22:45:00Z</time></trkpt>
<trkpt lat="45.351598" lon="-121.708095"><ele>2315</ele><time>2019-11-22T22:45:00Z</time></trkpt>
<trkpt lat="45.35157" lon="-121.708086"><ele>2315</ele><time>2019-11-22T22:45:00Z</time></trkpt>
<trkpt lat="45.351547" lon="-121.708093"><ele>2314</ele><time>2019-11-22T22:45:00Z</time></trkpt>
<trkpt lat="45.351487" lon="-121.708191"><ele>2310</ele><time>2019-11-22T22:46:00Z</time></trkpt>
<trkpt lat="45.351464" lon="-121.708164"><ele>2310</ele><time>2019-11-22T22:46:00Z</time></trkpt>
<trkpt lat="45.351459" lon="-121.708152"><ele>2310</ele><time>2019-11-22T22:46:00Z</time></trkpt>
<trkpt lat="45.351456" lon="-121.708144"><ele>2310</ele><time>2019-11-22T22:46:00Z</time></trkpt>
<trkpt lat="45.351431" lon="-121.708158"><ele>2308</ele><time>2019-11-22T22:46:00Z</time></trkpt>
<trkpt lat="45.351402" lon="-121.708207"><ele>2307</ele><time>2019-11-22T22:46:00Z</time></trkpt>
<trkpt lat="45.351395" lon="-121.70824"><ele>2307</ele><time>2019-11-22T22:46:00Z</time></trkpt>
<trkpt lat="45.35137" lon="-121.708248"><ele>2305</ele><time>2019-11-22T22:46:00Z</time></trkpt>
<trkpt lat="45.35133" lon="-121.708287"><ele>2307</ele><time>2019-11-22T22:46:00Z</time></trkpt>
<trkpt lat="45.351327" lon="-121.70829"><ele>2307</ele><time>2019-11-22T22:46:00Z</time></trkpt>
<trkpt lat="45.351283" lon="-121.708335"><ele>2302</ele><time>2019-11-22T22:47:00Z</time></trkpt>
<trkpt lat="45.351277" lon="-121.708366"><ele>2301</ele><time>2019-11-22T22:47:00Z</time></trkpt>
<trkpt lat="45.351255" lon="-121.70838"><ele>2300</ele><time>2019-11-22T22:47:00Z</time></trkpt>
<trkpt lat="45.351208" lon="-121.708374"><ele>2297</ele><time>2019-11-22T22:47:00Z</time></trkpt>
<trkpt lat="45.351183" lon="-121.708397"><ele>2297</ele><time>2019-11-22T22:47:00Z</time></trkpt>
<trkpt lat="45.351182" lon="-121.708406"><ele>2297</ele><time>2019-11-22T22:47:00Z</time></trkpt>
<trkpt lat="45.351122" lon="-121.708426"><ele>2294</ele><time>2019-11-22T22:47:00Z</time></trkpt>
<trkpt lat="45.35107" lon="-121.708415"><ele>2291</ele><time>2019-11-22T22:47:00Z</time></trkpt>
<trkpt lat="45.351034" lon="-121.708465"><ele>2289</ele><time>2019-11-22T22:47:00Z</time></trkpt>
<trkpt lat="45.351024" lon="-121.708462"><ele>2290</ele><time>2019-11-22T22:47:00Z</time></trkpt>
<trkpt lat="45.351017" lon="-121.708457"><ele>2289</ele><time>2019-11-22T22:47:00Z</time></trkpt>
<trkpt lat="45.350989" lon="-121.708458"><ele>2289</ele><time>2019-11-22T22:47:00Z</time></trkpt>
<trkpt lat="45.350943" lon="-121.708487"><ele>2288</ele><time>2019-11-22T22:47:00Z</time></trkpt>
<trkpt lat="45.350845" lon="-121.708515"><ele>2285</ele><time>2019-11-22T22:48:00Z</time></trkpt>
<trkpt lat="45.350835" lon="-121.708521"><ele>2284</ele><time>2019-11-22T22:48:00Z</time></trkpt>
<trkpt lat="45.350795" lon="-121.708557"><ele>2282</ele><time>2019-11-22T22:48:00Z</time></trkpt>
<trkpt lat="45.350762" lon="-121.708645"><ele>2279</ele><time>2019-11-22T22:48:00Z</time></trkpt>
<trkpt lat="45.350715" lon="-121.708691"><ele>2278</ele><time>2019-11-22T22:48:00Z</time></trkpt>
<trkpt lat="45.35071" lon="-121.708692"><ele>2278</ele><time>2019-11-22T22:49:00Z</time></trkpt>
<trkpt lat="45.350687" lon="-121.708748"><ele>2279</ele><time>2019-11-22T22:49:00Z</time></trkpt>
<trkpt lat="45.350663" lon="-121.708764"><ele>2278</ele><time>2019-11-22T22:49:00Z</time></trkpt>
<trkpt lat="45.350621" lon="-121.708745"><ele>2277</ele><time>2019-11-22T22:49:00Z</time></trkpt>
<trkpt lat="45.35057" lon="-121.708739"><ele>2274</ele><time>2019-11-22T22:49:00Z</time></trkpt>
<trkpt lat="45.350568" lon="-121.708744"><ele>2274</ele><time>2019-11-22T22:49:00Z</time></trkpt>
<trkpt lat="45.350542" lon="-121.708752"><ele>2272</ele><time>2019-11-22T22:49:00Z</time></trkpt>
<trkpt lat="45.350523" lon="-121.708736"><ele>2270</ele><time>2019-11-22T22:49:00Z</time></trkpt>
<trkpt lat="45.350446" lon="-121.708744"><ele>2267</ele><time>2019-11-22T22:50:00Z</time></trkpt>
<trkpt lat="45.350418" lon="-121.708763"><ele>2267</ele><time>2019-11-22T22:50:00Z</time></trkpt>
<trkpt lat="45.350412" lon="-121.708767"><ele>2266</ele><time>2019-11-22T22:50:00Z</time></trkpt>
<trkpt lat="45.350352" lon="-121.708807"><ele>2265</ele><time>2019-11-22T22:50:00Z</time></trkpt>
<trkpt lat="45.350278" lon="-121.708824"><ele>2260</ele><time>2019-11-22T22:50:00Z</time></trkpt>
<trkpt lat="45.35025" lon="-121.708846"><ele>2259</ele><time>2019-11-22T22:50:00Z</time></trkpt>
<trkpt lat="45.350247" lon="-121.708854"><ele>2258</ele><time>2019-11-22T22:50:00Z</time></trkpt>
<trkpt lat="45.350222" lon="-121.708874"><ele>2258</ele><time>2019-11-22T22:50:00Z</time></trkpt>
<trkpt lat="45.3502" lon="-121.708865"><ele>2256</ele><time>2019-11-22T22:50:00Z</time></trkpt>
<trkpt lat="45.350176" lon="-121.708878"><ele>2256</ele><time>2019-11-22T22:50:00Z</time></trkpt>
<trkpt lat="45.350152" lon="-121.708932"><ele>2255</ele><time>2019-11-22T22:50:00Z</time></trkpt>
<trkpt lat="45.350132" lon="-121.708949"><ele>2255</ele><time>2019-11-22T22:50:00Z</time></trkpt>
<trkpt lat="45.350107" lon="-121.708934"><ele>2253</ele><time>2019-11-22T22:50:00Z</time></trkpt>
<trkpt lat="45.350085" lon="-121.708944"><ele>2253</ele><time>2019-11-22T22:51:00Z</time></trkpt>
<trkpt lat="45.350053" lon="-121.708997"><ele>2252</ele><time>2019-11-22T22:51:00Z</time></trkpt>
<trkpt lat="45.350017" lon="-121.708947"><ele>2250</ele><time>2019-11-22T22:51:00Z</time></trkpt>
<trkpt lat="45.349993" lon="-121.708934"><ele>2249</ele><time>2019-11-22T22:51:00Z</time></trkpt>
<trkpt lat="45.349968" lon="-121.708951"><ele>2248</ele><time>2019-11-22T22:51:00Z</time></trkpt>
<trkpt lat="45.349961" lon="-121.708957"><ele>2248</ele><time>2019-11-22T22:51:00Z</time></trkpt>
<trkpt lat="45.349912" lon="-121.709001"><ele>2248</ele><time>2019-11-22T22:51:00Z</time></trkpt>
<trkpt lat="45.349889" lon="-121.709009"><ele>2247</ele><time>2019-11-22T22:51:00Z</time></trkpt>
<trkpt lat="45.349875" lon="-121.709041"><ele>2246</ele><time>2019-11-22T22:51:00Z</time></trkpt>
<trkpt lat="45.34983" lon="-121.709025"><ele>2246</ele><time>2019-11-22T22:51:00Z</time></trkpt>
<trkpt lat="45.349801" lon="-121.709029"><ele>2244</ele><time>2019-11-22T22:51:00Z</time></trkpt>
<trkpt lat="45.349796" lon="-121.709032"><ele>2244</ele><time>2019-11-22T22:51:00Z</time></trkpt>
<trkpt lat="45.349759" lon="-121.70907"><ele>2243</ele><time>2019-11-22T22:51:00Z</time></trkpt>
<trkpt lat="45.349734" lon="-121.709083"><ele>2239</ele><time>2019-11-22T22:51:00Z</time></trkpt>
<trkpt lat="45.349692" lon="-121.709089"><ele>2239</ele><time>2019-11-22T22:52:00Z</time></trkpt>
<trkpt lat="45.349645" lon="-121.709126"><ele>2238</ele><time>2019-11-22T22:52:00Z</time></trkpt>
<trkpt lat="45.349637" lon="-121.709124"><ele>2238</ele><time>2019-11-22T22:52:00Z</time></trkpt>
<trkpt lat="45.349582" lon="-121.7091"><ele>2235</ele><time>2019-11-22T22:52:00Z</time></trkpt>
<trkpt lat="45.34956" lon="-121.709111"><ele>2235</ele><time>2019-11-22T22:52:00Z</time></trkpt>
<trkpt lat="45.349527" lon="-121.709193"><ele>2234</ele><time>2019-11-22T22:52:00Z</time></trkpt>
<trkpt lat="45.349496" lon="-121.709208"><ele>2233</ele><time>2019-11-22T22:52:00Z</time></trkpt>
<trkpt lat="45.349488" lon="-121.70921"><ele>2233</ele><time>2019-11-22T22:52:00Z</time></trkpt>
<trkpt lat="45.349388" lon="-121.709193"><ele>2232</ele><time>2019-11-22T22:52:00Z</time></trkpt>
<trkpt lat="45.349366" lon="-121.709203"><ele>2231</ele><time>2019-11-22T22:52:00Z</time></trkpt>
<trkpt lat="45.349327" lon="-121.709258"><ele>2228</ele><time>2019-11-22T22:52:00Z</time></trkpt>
<trkpt lat="45.349321" lon="-121.709267"><ele>2227</ele><time>2019-11-22T22:52:00Z</time></trkpt>
<trkpt lat="45.349299" lon="-121.709291"><ele>2227</ele><time>2019-11-22T22:52:00Z</time></trkpt>
<trkpt lat="45.349278" lon="-121.709283"><ele>2227</ele><time>2019-11-22T22:53:00Z</time></trkpt>
<trkpt lat="45.349243" lon="-121.709209"><ele>2225</ele><time>2019-11-22T22:53:00Z</time></trkpt>
<trkpt lat="45.349221" lon="-121.709198"><ele>2225</ele><time>2019-11-22T22:53:00Z</time></trkpt>
<trkpt lat="45.349191" lon="-121.709207"><ele>2224</ele><time>2019-11-22T22:53:00Z</time></trkpt>
<trkpt lat="45.34918" lon="-121.70921"><ele>2224</ele><time>2019-11-22T22:53:00Z</time></trkpt>
<trkpt lat="45.349101" lon="-121.709253"><ele>2222</ele><time>2019-11-22T22:53:00Z</time></trkpt>
<trkpt lat="45.349037" lon="-121.709271"><ele>2219</ele><time>2019-11-22T22:53:00Z</time></trkpt>
<trkpt lat="45.349012" lon="-121.709301"><ele>2218</ele><time>2019-11-22T22:53:00Z</time></trkpt>
<trkpt lat="45.349006" lon="-121.709308"><ele>2218</ele><time>2019-11-22T22:53:00Z</time></trkpt>
<trkpt lat="45.348978" lon="-121.709311"><ele>2217</ele><time>2019-11-22T22:53:00Z</time></trkpt>
<trkpt lat="45.348936" lon="-121.709298"><ele>2215</ele><time>2019-11-22T22:53:00Z</time></trkpt>
<trkpt lat="45.34883" lon="-121.7093"><ele>2214</ele><time>2019-11-22T22:54:00Z</time></trkpt>
<trkpt lat="45.34882" lon="-121.709299"><ele>2213</ele><time>2019-11-22T22:54:00Z</time></trkpt>
<trkpt lat="45.348708" lon="-121.709339"><ele>2210</ele><time>2019-11-22T22:54:00Z</time></trkpt>
<trkpt lat="45.348662" lon="-121.709337"><ele>2209</ele><time>2019-11-22T22:54:00Z</time></trkpt>
<trkpt lat="45.348654" lon="-121.709337"><ele>2209</ele><time>2019-11-22T22:54:00Z</time></trkpt>
<trkpt lat="45.348624" lon="-121.709319"><ele>2208</ele><time>2019-11-22T22:54:00Z</time></trkpt>
<trkpt lat="45.34861" lon="-121.709341"><ele>2208</ele><time>2019-11-22T22:54:00Z</time></trkpt>
<trkpt lat="45.348562" lon="-121.70933"><ele>2206</ele><time>2019-11-22T22:54:00Z</time></trkpt>
<trkpt lat="45.348539" lon="-121.709343"><ele>2206</ele><time>2019-11-22T22:54:00Z</time></trkpt>
<trkpt lat="45.348492" lon="-121.709306"><ele>2201</ele><time>2019-11-22T22:55:00Z</time></trkpt>
<trkpt lat="45.348485" lon="-121.709306"><ele>2201</ele><time>2019-11-22T22:55:00Z</time></trkpt>
<trkpt lat="45.348392" lon="-121.709333"><ele>2200</ele><time>2019-11-22T22:55:00Z</time></trkpt>
<trkpt lat="45.348355" lon="-121.709363"><ele>2200</ele><time>2019-11-22T22:55:00Z</time></trkpt>
<trkpt lat="45.348325" lon="-121.709364"><ele>2198</ele><time>2019-11-22T22:55:00Z</time></trkpt>
<trkpt lat="45.348319" lon="-121.709362"><ele>2198</ele><time>2019-11-22T22:55:00Z</time></trkpt>
<trkpt lat="45.348269" lon="-121.70937"><ele>2198</ele><time>2019-11-22T22:55:00Z</time></trkpt>
<trkpt lat="45.348195" lon="-121.709364"><ele>2196</ele><time>2019-11-22T22:55:00Z</time></trkpt>
<trkpt lat="45.34814" lon="-121.709337"><ele>2200</ele><time>2019-11-22T22:55:00Z</time></trkpt>
<trkpt lat="45.348134" lon="-121.70934"><ele>2197</ele><time>2019-11-22T22:55:00Z</time></trkpt>
<trkpt lat="45.348103" lon="-121.709343"><ele>2195</ele><time>2019-11-22T22:55:00Z</time></trkpt>
<trkpt lat="45.348038" lon="-121.709293"><ele>2193</ele><time>2019-11-22T22:56:00Z</time></trkpt>
<trkpt lat="45.347958" lon="-121.709268"><ele>2189</ele><time>2019-11-22T22:56:00Z</time></trkpt>
<trkpt lat="45.347949" lon="-121.709272"><ele>2189</ele><time>2019-11-22T22:56:00Z</time></trkpt>
<trkpt lat="45.347936" lon="-121.709309"><ele>2188</ele><time>2019-11-22T22:56:00Z</time></trkpt>
<trkpt lat="45.347913" lon="-121.709295"><ele>2186</ele><time>2019-11-22T22:56:00Z</time></trkpt>
<trkpt lat="45.347897" lon="-121.709264"><ele>2186</ele><time>2019-11-22T22:56:00Z</time></trkpt>
<trkpt lat="45.347793" lon="-121.709257"><ele>2183</ele><time>2019-11-22T22:56:00Z</time></trkpt>
<trkpt lat="45.347786" lon="-121.70926"><ele>2183</ele><time>2019-11-22T22:56:00Z</time></trkpt>
<trkpt lat="45.347778" lon="-121.70926"><ele>2182</ele><time>2019-11-22T22:56:00Z</time></trkpt>
<trkpt lat="45.347765" lon="-121.709237"><ele>2181</ele><time>2019-11-22T22:56:00Z</time></trkpt>
<trkpt lat="45.347758" lon="-121.7092"><ele>2180</ele><time>2019-11-22T22:57:00Z</time></trkpt>
<trkpt lat="45.347733" lon="-121.709205"><ele>2180</ele><time>2019-11-22T22:57:00Z</time></trkpt>
<trkpt lat="45.347696" lon="-121.70926"><ele>2180</ele><time>2019-11-22T22:57:00Z</time></trkpt>
<trkpt lat="45.347679" lon="-121.709242"><ele>2180</ele><time>2019-11-22T22:57:00Z</time></trkpt>
<trkpt lat="45.347663" lon="-121.709201"><ele>2179</ele><time>2019-11-22T22:57:00Z</time></trkpt>
<trkpt lat="45.347658" lon="-121.709207"><ele>2179</ele><time>2019-11-22T22:57:00Z</time></trkpt>
<trkpt lat="45.347636" lon="-121.709247"><ele>2180</ele><time>2019-11-22T22:57:00Z</time></trkpt>
<trkpt lat="45.347611" lon="-121.709236"><ele>2178</ele><time>2019-11-22T22:57:00Z</time></trkpt>
<trkpt lat="45.347569" lon="-121.70926"><ele>2177</ele><time>2019-11-22T22:57:00Z</time></trkpt>
<trkpt lat="45.347482" lon="-121.709246"><ele>2172</ele><time>2019-11-22T22:57:00Z</time></trkpt>
<trkpt lat="45.347473" lon="-121.709243"><ele>2171</ele><time>2019-11-22T22:57:00Z</time></trkpt>
<trkpt lat="45.347396" lon="-121.709249"><ele>2171</ele><time>2019-11-22T22:58:00Z</time></trkpt>
<trkpt lat="45.347405" lon="-121.709223"><ele>2174</ele><time>2019-11-22T23:03:00Z</time></trkpt>
<trkpt lat="45.347379" lon="-121.709211"><ele>2169</ele><time>2019-11-22T23:03:00Z</time></trkpt>
<trkpt lat="45.347328" lon="-121.709213"><ele>2164</ele><time>2019-11-22T23:04:00Z</time></trkpt>
<trkpt lat="45.347321" lon="-121.709216"><ele>2165</ele><time>2019-11-22T23:04:00Z</time></trkpt>
<trkpt lat="45.347288" lon="-121.709244"><ele>2166</ele><time>2019-11-22T23:04:00Z</time></trkpt>
<trkpt lat="45.347262" lon="-121.709247"><ele>2167</ele><time>2019-11-22T23:04:00Z</time></trkpt>
<trkpt lat="45.347223" lon="-121.709204"><ele>2163</ele><time>2019-11-22T23:04:00Z</time></trkpt>
<trkpt lat="45.347198" lon="-121.709213"><ele>2163</ele><time>2019-11-22T23:04:00Z</time></trkpt>
<trkpt lat="45.347171" lon="-121.709208"><ele>2164</ele><time>2019-11-22T23:04:00Z</time></trkpt>
<trkpt lat="45.347142" lon="-121.709189"><ele>2162</ele><time>2019-11-22T23:04:00Z</time></trkpt>
<trkpt lat="45.347136" lon="-121.709186"><ele>2161</ele><time>2019-11-22T23:04:00Z</time></trkpt>
<trkpt lat="45.347104" lon="-121.70917"><ele>2159</ele><time>2019-11-22T23:04:00Z</time></trkpt>
<trkpt lat="45.347083" lon="-121.709175"><ele>2158</ele><time>2019-11-22T23:04:00Z</time></trkpt>
<trkpt lat="45.347037" lon="-121.709164"><ele>2156</ele><time>2019-11-22T23:04:00Z</time></trkpt>
<trkpt lat="45.347019" lon="-121.70917"><ele>2156</ele><time>2019-11-22T23:04:00Z</time></trkpt>
<trkpt lat="45.346976" lon="-121.709218"><ele>2154</ele><time>2019-11-22T23:04:00Z</time></trkpt>
<trkpt lat="45.34697" lon="-121.709223"><ele>2153</ele><time>2019-11-22T23:04:00Z</time></trkpt>
<trkpt lat="45.346929" lon="-121.709237"><ele>2154</ele><time>2019-11-22T23:05:00Z</time></trkpt>
<trkpt lat="45.346889" lon="-121.709276"><ele>2154</ele><time>2019-11-22T23:05:00Z</time></trkpt>
<trkpt lat="45.346848" lon="-121.709265"><ele>2154</ele><time>2019-11-22T23:05:00Z</time></trkpt>
<trkpt lat="45.346821" lon="-121.709275"><ele>2152</ele><time>2019-11-22T23:05:00Z</time></trkpt>
<trkpt lat="45.346815" lon="-121.709278"><ele>2152</ele><time>2019-11-22T23:05:00Z</time></trkpt>
<trkpt lat="45.346787" lon="-121.709268"><ele>2150</ele><time>2019-11-22T23:05:00Z</time></trkpt>
<trkpt lat="45.346771" lon="-121.709241"><ele>2150</ele><time>2019-11-22T23:05:00Z</time></trkpt>
<trkpt lat="45.346751" lon="-121.70923"><ele>2149</ele><time>2019-11-22T23:05:00Z</time></trkpt>
<trkpt lat="45.346658" lon="-121.709257"><ele>2148</ele><time>2019-11-22T23:05:00Z</time></trkpt>
<trkpt lat="45.346649" lon="-121.709251"><ele>2148</ele><time>2019-11-22T23:05:00Z</time></trkpt>
<trkpt lat="45.346623" lon="-121.70924"><ele>2148</ele><time>2019-11-22T23:05:00Z</time></trkpt>
<trkpt lat="45.346603" lon="-121.709246"><ele>2148</ele><time>2019-11-22T23:05:00Z</time></trkpt>
<trkpt lat="45.3465" lon="-121.709334"><ele>2148</ele><time>2019-11-22T23:06:00Z</time></trkpt>
<trkpt lat="45.34649" lon="-121.70934"><ele>2149</ele><time>2019-11-22T23:06:00Z</time></trkpt>
<trkpt lat="45.346407" lon="-121.709355"><ele>2144</ele><time>2019-11-22T23:06:00Z</time></trkpt>
<trkpt lat="45.346302" lon="-121.70935"><ele>2138</ele><time>2019-11-22T23:06:00Z</time></trkpt>
<trkpt lat="45.346294" lon="-121.709353"><ele>2138</ele><time>2019-11-22T23:06:00Z</time></trkpt>
<trkpt lat="45.346196" lon="-121.709398"><ele>2136</ele><time>2019-11-22T23:06:00Z</time></trkpt>
<trkpt lat="45.346175" lon="-121.709419"><ele>2134</ele><time>2019-11-22T23:06:00Z</time></trkpt>
<trkpt lat="45.346152" lon="-121.70942"><ele>2134</ele><time>2019-11-22T23:06:00Z</time></trkpt>
<trkpt lat="45.346121" lon="-121.709445"><ele>2135</ele><time>2019-11-22T23:06:00Z</time></trkpt>
<trkpt lat="45.346114" lon="-121.709454"><ele>2134</ele><time>2019-11-22T23:06:00Z</time></trkpt>
<trkpt lat="45.346042" lon="-121.709506"><ele>2132</ele><time>2019-11-22T23:07:00Z</time></trkpt>
<trkpt lat="45.346008" lon="-121.70956"><ele>2129</ele><time>2019-11-22T23:07:00Z</time></trkpt>
<trkpt lat="45.345984" lon="-121.709576"><ele>2129</ele><time>2019-11-22T23:07:00Z</time></trkpt>
<trkpt lat="45.345954" lon="-121.709567"><ele>2127</ele><time>2019-11-22T23:07:00Z</time></trkpt>
<trkpt lat="45.345948" lon="-121.709562"><ele>2127</ele><time>2019-11-22T23:07:00Z</time></trkpt>
<trkpt lat="45.345914" lon="-121.709569"><ele>2125</ele><time>2019-11-22T23:07:00Z</time></trkpt>
<trkpt lat="45.3458" lon="-121.709701"><ele>2126</ele><time>2019-11-22T23:07:00Z</time></trkpt>
<trkpt lat="45.345792" lon="-121.709711"><ele>2125</ele><time>2019-11-22T23:07:00Z</time></trkpt>
<trkpt lat="45.345726" lon="-121.70975"><ele>2126</ele><time>2019-11-22T23:07:00Z</time></trkpt>
<trkpt lat="45.345664" lon="-121.709759"><ele>2125</ele><time>2019-11-22T23:07:00Z</time></trkpt>
<trkpt lat="45.345637" lon="-121.709786"><ele>2125</ele><time>2019-11-22T23:07:00Z</time></trkpt>
<trkpt lat="45.34563" lon="-121.709797"><ele>2125</ele><time>2019-11-22T23:07:00Z</time></trkpt>
<trkpt lat="45.345606" lon="-121.709824"><ele>2123</ele><time>2019-11-22T23:08:00Z</time></trkpt>
<trkpt lat="45.345568" lon="-121.709825"><ele>2123</ele><time>2019-11-22T23:08:00Z</time></trkpt>
<trkpt lat="45.345527" lon="-121.709846"><ele>2121</ele><time>2019-11-22T23:08:00Z</time></trkpt>
<trkpt lat="45.345477" lon="-121.709842"><ele>2120</ele><time>2019-11-22T23:08:00Z</time></trkpt>
<trkpt lat="45.345473" lon="-121.709841"><ele>2120</ele><time>2019-11-22T23:08:00Z</time></trkpt>
<trkpt lat="45.345415" lon="-121.709894"><ele>2119</ele><time>2019-11-22T23:08:00Z</time></trkpt>
<trkpt lat="45.345395" lon="-121.709959"><ele>2117</ele><time>2019-11-22T23:08:00Z</time></trkpt>
<trkpt lat="45.345349" lon="-121.709993"><ele>2118</ele><time>2019-11-22T23:08:00Z</time></trkpt>
<trkpt lat="45.345339" lon="-121.710001"><ele>2118</ele><time>2019-11-22T23:08:00Z</time></trkpt>
<trkpt lat="45.345294" lon="-121.710033"><ele>2117</ele><time>2019-11-22T23:08:00Z</time></trkpt>
<trkpt lat="45.345174" lon="-121.710074"><ele>2116</ele><time>2019-11-22T23:09:00Z</time></trkpt>
<trkpt lat="45.345161" lon="-121.710077"><ele>2116</ele><time>2019-11-22T23:09:00Z</time></trkpt>
<trkpt lat="45.34509" lon="-121.710094"><ele>2115</ele><time>2019-11-22T23:09:00Z</time></trkpt>
<trkpt lat="45.345004" lon="-121.710074"><ele>2113</ele><time>2019-11-22T23:09:00Z</time></trkpt>
<trkpt lat="45.344994" lon="-121.710082"><ele>2113</ele><time>2019-11-22T23:09:00Z</time></trkpt>
<trkpt lat="45.344906" lon="-121.710119"><ele>2110</ele><time>2019-11-22T23:09:00Z</time></trkpt>
<trkpt lat="45.344838" lon="-121.710105"><ele>2108</ele><time>2019-11-22T23:09:00Z</time></trkpt>
<trkpt lat="45.34483" lon="-121.710101"><ele>2108</ele><time>2019-11-22T23:09:00Z</time></trkpt>
<trkpt lat="45.344805" lon="-121.710073"><ele>2105</ele><time>2019-11-22T23:09:00Z</time></trkpt>
<trkpt lat="45.344739" lon="-121.709941"><ele>2103</ele><time>2019-11-22T23:09:00Z</time></trkpt>
<trkpt lat="45.344713" lon="-121.709908"><ele>2104</ele><time>2019-11-22T23:10:00Z</time></trkpt>
<trkpt lat="45.344706" lon="-121.709897"><ele>2103</ele><time>2019-11-22T23:10:00Z</time></trkpt>
<trkpt lat="45.344603" lon="-121.709778"><ele>2100</ele><time>2019-11-22T23:10:00Z</time></trkpt>
<trkpt lat="45.344573" lon="-121.709759"><ele>2099</ele><time>2019-11-22T23:10:00Z</time></trkpt>
<trkpt lat="45.344564" lon="-121.709747"><ele>2099</ele><time>2019-11-22T23:10:00Z</time></trkpt>
<trkpt lat="45.344529" lon="-121.709691"><ele>2096</ele><time>2019-11-22T23:10:00Z</time></trkpt>
<trkpt lat="45.344492" lon="-121.709671"><ele>2096</ele><time>2019-11-22T23:10:00Z</time></trkpt>
<trkpt lat="45.344432" lon="-121.709611"><ele>2099</ele><time>2019-11-22T23:10:00Z</time></trkpt>
<trkpt lat="45.344427" lon="-121.709601"><ele>2100</ele><time>2019-11-22T23:10:00Z</time></trkpt>
<trkpt lat="45.344405" lon="-121.709505"><ele>2102</ele><time>2019-11-22T23:10:00Z</time></trkpt>
<trkpt lat="45.344421" lon="-121.709372"><ele>2105</ele><time>2019-11-22T23:10:00Z</time></trkpt>
<trkpt lat="45.344426" lon="-121.709365"><ele>2105</ele><time>2019-11-22T23:10:00Z</time></trkpt>
<trkpt lat="45.344426" lon="-121.709337"><ele>2106</ele><time>2019-11-22T23:11:00Z</time></trkpt>
<trkpt lat="45.344392" lon="-121.70923"><ele>2104</ele><time>2019-11-22T23:11:00Z</time></trkpt>
<trkpt lat="45.344341" lon="-121.709195"><ele>2103</ele><time>2019-11-22T23:11:00Z</time></trkpt>
<trkpt lat="45.344333" lon="-121.709194"><ele>2103</ele><time>2019-11-22T23:11:00Z</time></trkpt>
<trkpt lat="45.344286" lon="-121.7092"><ele>2102</ele><time>2019-11-22T23:11:00Z</time></trkpt>
<trkpt lat="45.344244" lon="-121.709225"><ele>2100</ele><time>2019-11-22T23:12:00Z</time></trkpt>
<trkpt lat="45.344191" lon="-121.709289"><ele>2097</ele><time>2019-11-22T23:12:00Z</time></trkpt>
<trkpt lat="45.344184" lon="-121.709294"><ele>2096</ele><time>2019-11-22T23:12:00Z</time></trkpt>
<trkpt lat="45.344119" lon="-121.709363"><ele>2093</ele><time>2019-11-22T23:12:00Z</time></trkpt>
<trkpt lat="45.344018" lon="-121.709378"><ele>2092</ele><time>2019-11-22T23:12:00Z</time></trkpt>
<trkpt lat="45.34401" lon="-121.709378"><ele>2092</ele><time>2019-11-22T23:12:00Z</time></trkpt>
<trkpt lat="45.343942" lon="-121.709379"><ele>2090</ele><time>2019-11-22T23:12:00Z</time></trkpt>
<trkpt lat="45.343884" lon="-121.709398"><ele>2089</ele><time>2019-11-22T23:12:00Z</time></trkpt>
<trkpt lat="45.343855" lon="-121.70939"><ele>2088</ele><time>2019-11-22T23:12:00Z</time></trkpt>
<trkpt lat="45.343847" lon="-121.709387"><ele>2088</ele><time>2019-11-22T23:12:00Z</time></trkpt>
<trkpt lat="45.343788" lon="-121.709397"><ele>2088</ele><time>2019-11-22T23:12:00Z</time></trkpt>
<trkpt lat="45.343723" lon="-121.70937"><ele>2086</ele><time>2019-11-22T23:13:00Z</time></trkpt>
<trkpt lat="45.343698" lon="-121.70938"><ele>2085</ele><time>2019-11-22T23:13:00Z</time></trkpt>
<trkpt lat="45.34367" lon="-121.709375"><ele>2085</ele><time>2019-11-22T23:13:00Z</time></trkpt>
<trkpt lat="45.343652" lon="-121.70937"><ele>2085</ele><time>2019-11-22T23:13:00Z</time></trkpt>
<trkpt lat="45.343613" lon="-121.709375"><ele>2085</ele><time>2019-11-22T23:13:00Z</time></trkpt>
<trkpt lat="45.343557" lon="-121.709332"><ele>2081</ele><time>2019-11-22T23:13:00Z</time></trkpt>
<trkpt lat="45.343513" lon="-121.709363"><ele>2079</ele><time>2019-11-22T23:13:00Z</time></trkpt>
<trkpt lat="45.34349" lon="-121.709399"><ele>2079</ele><time>2019-11-22T23:13:00Z</time></trkpt>
<trkpt lat="45.343482" lon="-121.709405"><ele>2079</ele><time>2019-11-22T23:13:00Z</time></trkpt>
<trkpt lat="45.343448" lon="-121.7094"><ele>2078</ele><time>2019-11-22T23:13:00Z</time></trkpt>
<trkpt lat="45.343426" lon="-121.709412"><ele>2077</ele><time>2019-11-22T23:13:00Z</time></trkpt>
<trkpt lat="45.34338" lon="-121.709502"><ele>2076</ele><time>2019-11-22T23:13:00Z</time></trkpt>
<trkpt lat="45.343348" lon="-121.709511"><ele>2075</ele><time>2019-11-22T23:14:00Z</time></trkpt>
<trkpt lat="45.34334" lon="-121.709514"><ele>2074</ele><time>2019-11-22T23:14:00Z</time></trkpt>
<trkpt lat="45.343312" lon="-121.709536"><ele>2075</ele><time>2019-11-22T23:14:00Z</time></trkpt>
<trkpt lat="45.343278" lon="-121.709618"><ele>2074</ele><time>2019-11-22T23:14:00Z</time></trkpt>
<trkpt lat="45.343258" lon="-121.709624"><ele>2073</ele><time>2019-11-22T23:14:00Z</time></trkpt>
<trkpt lat="45.343237" lon="-121.709607"><ele>2072</ele><time>2019-11-22T23:14:00Z</time></trkpt>
<trkpt lat="45.343211" lon="-121.709609"><ele>2070</ele><time>2019-11-22T23:14:00Z</time></trkpt>
<trkpt lat="45.343208" lon="-121.709623"><ele>2070</ele><time>2019-11-22T23:14:00Z</time></trkpt>
<trkpt lat="45.343203" lon="-121.709633"><ele>2069</ele><time>2019-11-22T23:14:00Z</time></trkpt>
<trkpt lat="45.343198" lon="-121.709641"><ele>2069</ele><time>2019-11-22T23:14:00Z</time></trkpt>
<trkpt lat="45.343153" lon="-121.709636"><ele>2067</ele><time>2019-11-22T23:14:00Z</time></trkpt>
<trkpt lat="45.343043" lon="-121.709659"><ele>2067</ele><time>2019-11-22T23:14:00Z</time></trkpt>
<trkpt lat="45.343033" lon="-121.70966"><ele>2067</ele><time>2019-11-22T23:14:00Z</time></trkpt>
<trkpt lat="45.342977" lon="-121.709669"><ele>2066</ele><time>2019-11-22T23:14:00Z</time></trkpt>
<trkpt lat="45.342864" lon="-121.70963"><ele>2062</ele><time>2019-11-22T23:15:00Z</time></trkpt>
<trkpt lat="45.342856" lon="-121.709631"><ele>2062</ele><time>2019-11-22T23:15:00Z</time></trkpt>
<trkpt lat="45.342823" lon="-121.709633"><ele>2061</ele><time>2019-11-22T23:15:00Z</time></trkpt>
<trkpt lat="45.342782" lon="-121.709609"><ele>2060</ele><time>2019-11-22T23:15:00Z</time></trkpt>
<trkpt lat="45.342688" lon="-121.709588"><ele>2058</ele><time>2019-11-22T23:15:00Z</time></trkpt>
<trkpt lat="45.34268" lon="-121.709583"><ele>2058</ele><time>2019-11-22T23:15:00Z</time></trkpt>
<trkpt lat="45.342596" lon="-121.709519"><ele>2055</ele><time>2019-11-22T23:15:00Z</time></trkpt>
<trkpt lat="45.342534" lon="-121.709449"><ele>2053</ele><time>2019-11-22T23:15:00Z</time></trkpt>
<trkpt lat="45.342528" lon="-121.709442"><ele>2053</ele><time>2019-11-22T23:15:00Z</time></trkpt>
<trkpt lat="45.342444" lon="-121.709384"><ele>2050</ele><time>2019-11-22T23:15:00Z</time></trkpt>
<trkpt lat="45.342367" lon="-121.709344"><ele>2050</ele><time>2019-11-22T23:15:00Z</time></trkpt>
<trkpt lat="45.342356" lon="-121.709341"><ele>2050</ele><time>2019-11-22T23:15:00Z</time></trkpt>
<trkpt lat="45.342325" lon="-121.709339"><ele>2050</ele><time>2019-11-22T23:16:00Z</time></trkpt>
<trkpt lat="45.342238" lon="-121.709372"><ele>2048</ele><time>2019-11-22T23:16:00Z</time></trkpt>
<trkpt lat="45.342175" lon="-121.709369"><ele>2047</ele><time>2019-11-22T23:16:00Z</time></trkpt>
<trkpt lat="45.342159" lon="-121.709362"><ele>2046</ele><time>2019-11-22T23:16:00Z</time></trkpt>
<trkpt lat="45.342131" lon="-121.709364"><ele>2046</ele><time>2019-11-22T23:16:00Z</time></trkpt>
<trkpt lat="45.342066" lon="-121.709463"><ele>2044</ele><time>2019-11-22T23:16:00Z</time></trkpt>
<trkpt lat="45.34202" lon="-121.709504"><ele>2043</ele><time>2019-11-22T23:16:00Z</time></trkpt>
<trkpt lat="45.342011" lon="-121.70951"><ele>2043</ele><time>2019-11-22T23:16:00Z</time></trkpt>
<trkpt lat="45.341983" lon="-121.709523"><ele>2042</ele><time>2019-11-22T23:16:00Z</time></trkpt>
<trkpt lat="45.341857" lon="-121.709527"><ele>2037</ele><time>2019-11-22T23:17:00Z</time></trkpt>
<trkpt lat="45.341847" lon="-121.709527"><ele>2037</ele><time>2019-11-22T23:17:00Z</time></trkpt>
<trkpt lat="45.341796" lon="-121.709529"><ele>2036</ele><time>2019-11-22T23:17:00Z</time></trkpt>
<trkpt lat="45.341676" lon="-121.709557"><ele>2034</ele><time>2019-11-22T23:17:00Z</time></trkpt>
<trkpt lat="45.341663" lon="-121.709561"><ele>2033</ele><time>2019-11-22T23:17:00Z</time></trkpt>
<trkpt lat="45.341587" lon="-121.709571"><ele>2032</ele><time>2019-11-22T23:17:00Z</time></trkpt>
<trkpt lat="45.341493" lon="-121.709566"><ele>2029</ele><time>2019-11-22T23:17:00Z</time></trkpt>
<trkpt lat="45.341484" lon="-121.709568"><ele>2029</ele><time>2019-11-22T23:17:00Z</time></trkpt>
<trkpt lat="45.3414" lon="-121.709583"><ele>2025</ele><time>2019-11-22T23:17:00Z</time></trkpt>
<trkpt lat="45.341358" lon="-121.709577"><ele>2024</ele><time>2019-11-22T23:17:00Z</time></trkpt>
<trkpt lat="45.341304" lon="-121.709606"><ele>2024</ele><time>2019-11-22T23:18:00Z</time></trkpt>
<trkpt lat="45.341297" lon="-121.709609"><ele>2024</ele><time>2019-11-22T23:18:00Z</time></trkpt>
<trkpt lat="45.341249" lon="-121.709616"><ele>2021</ele><time>2019-11-22T23:18:00Z</time></trkpt>
<trkpt lat="45.341192" lon="-121.709601"><ele>2019</ele><time>2019-11-22T23:18:00Z</time></trkpt>
<trkpt lat="45.341142" lon="-121.709617"><ele>2018</ele><time>2019-11-22T23:18:00Z</time></trkpt>
<trkpt lat="45.341133" lon="-121.709619"><ele>2018</ele><time>2019-11-22T23:18:00Z</time></trkpt>
<trkpt lat="45.34108" lon="-121.709643"><ele>2018</ele><time>2019-11-22T23:18:00Z</time></trkpt>
<trkpt lat="45.340962" lon="-121.709662"><ele>2016</ele><time>2019-11-22T23:18:00Z</time></trkpt>
<trkpt lat="45.340951" lon="-121.709665"><ele>2016</ele><time>2019-11-22T23:18:00Z</time></trkpt>
<trkpt lat="45.340901" lon="-121.709688"><ele>2014</ele><time>2019-11-22T23:18:00Z</time></trkpt>
<trkpt lat="45.340853" lon="-121.709689"><ele>2012</ele><time>2019-11-22T23:18:00Z</time></trkpt>
<trkpt lat="45.34081" lon="-121.709704"><ele>2010</ele><time>2019-11-22T23:19:00Z</time></trkpt>
<trkpt lat="45.340784" lon="-121.709726"><ele>2010</ele><time>2019-11-22T23:19:00Z</time></trkpt>
<trkpt lat="45.340778" lon="-121.709735"><ele>2010</ele><time>2019-11-22T23:19:00Z</time></trkpt>
<trkpt lat="45.34076" lon="-121.709759"><ele>2009</ele><time>2019-11-22T23:19:00Z</time></trkpt>
<trkpt lat="45.340702" lon="-121.70978"><ele>2007</ele><time>2019-11-22T23:19:00Z</time></trkpt>
<trkpt lat="45.340673" lon="-121.709815"><ele>2006</ele><time>2019-11-22T23:19:00Z</time></trkpt>
<trkpt lat="45.34064" lon="-121.709828"><ele>2005</ele><time>2019-11-22T23:19:00Z</time></trkpt>
<trkpt lat="45.34063" lon="-121.709829"><ele>2005</ele><time>2019-11-22T23:19:00Z</time></trkpt>
<trkpt lat="45.340602" lon="-121.709837"><ele>2005</ele><time>2019-11-22T23:19:00Z</time></trkpt>
<trkpt lat="45.340564" lon="-121.709871"><ele>2002</ele><time>2019-11-22T23:19:00Z</time></trkpt>
<trkpt lat="45.340473" lon="-121.709911"><ele>1999</ele><time>2019-11-22T23:19:00Z</time></trkpt>
<trkpt lat="45.340464" lon="-121.709916"><ele>1999</ele><time>2019-11-22T23:19:00Z</time></trkpt>
<trkpt lat="45.340375" lon="-121.709958"><ele>1999</ele><time>2019-11-22T23:20:00Z</time></trkpt>
<trkpt lat="45.340326" lon="-121.71002"><ele>1999</ele><time>2019-11-22T23:20:00Z</time></trkpt>
<trkpt lat="45.34032" lon="-121.710028"><ele>1998</ele><time>2019-11-22T23:20:00Z</time></trkpt>
<trkpt lat="45.340285" lon="-121.710088"><ele>1997</ele><time>2019-11-22T23:20:00Z</time></trkpt>
<trkpt lat="45.340218" lon="-121.71013"><ele>1994</ele><time>2019-11-22T23:20:00Z</time></trkpt>
<trkpt lat="45.340168" lon="-121.710145"><ele>1992</ele><time>2019-11-22T23:20:00Z</time></trkpt>
<trkpt lat="45.340161" lon="-121.710147"><ele>1992</ele><time>2019-11-22T23:20:00Z</time></trkpt>
<trkpt lat="45.340116" lon="-121.710153"><ele>1990</ele><time>2019-11-22T23:20:00Z</time></trkpt>
<trkpt lat="45.340038" lon="-121.710141"><ele>1989</ele><time>2019-11-22T23:20:00Z</time></trkpt>
<trkpt lat="45.339982" lon="-121.710122"><ele>1986</ele><time>2019-11-22T23:20:00Z</time></trkpt>
<trkpt lat="45.339974" lon="-121.710118"><ele>1986</ele><time>2019-11-22T23:20:00Z</time></trkpt>
<trkpt lat="45.339804" lon="-121.710051"><ele>1982</ele><time>2019-11-22T23:21:00Z</time></trkpt>
<trkpt lat="45.339788" lon="-121.710058"><ele>1982</ele><time>2019-11-22T23:21:00Z</time></trkpt>
<trkpt lat="45.339774" lon="-121.710061"><ele>1982</ele><time>2019-11-22T23:21:00Z</time></trkpt>
<trkpt lat="45.339738" lon="-121.710065"><ele>1981</ele><time>2019-11-22T23:21:00Z</time></trkpt>
<trkpt lat="45.33967" lon="-121.710009"><ele>1977</ele><time>2019-11-22T23:21:00Z</time></trkpt>
<trkpt lat="45.339616" lon="-121.70999"><ele>1976</ele><time>2019-11-22T23:21:00Z</time></trkpt>
<trkpt lat="45.339605" lon="-121.709985"><ele>1976</ele><time>2019-11-22T23:21:00Z</time></trkpt>
<trkpt lat="45.339557" lon="-121.709959"><ele>1975</ele><time>2019-11-22T23:21:00Z</time></trkpt>
<trkpt lat="45.339492" lon="-121.7099"><ele>1973</ele><time>2019-11-22T23:21:00Z</time></trkpt>
<trkpt lat="45.339463" lon="-121.709888"><ele>1973</ele><time>2019-11-22T23:21:00Z</time></trkpt>
<trkpt lat="45.339454" lon="-121.709886"><ele>1973</ele><time>2019-11-22T23:21:00Z</time></trkpt>
<trkpt lat="45.339381" lon="-121.709871"><ele>1973</ele><time>2019-11-22T23:22:00Z</time></trkpt>
<trkpt lat="45.339291" lon="-121.709816"><ele>1970</ele><time>2019-11-22T23:22:00Z</time></trkpt>
<trkpt lat="45.339281" lon="-121.709809"><ele>1969</ele><time>2019-11-22T23:22:00Z</time></trkpt>
<trkpt lat="45.339113" lon="-121.709734"><ele>1967</ele><time>2019-11-22T23:22:00Z</time></trkpt>
<trkpt lat="45.339104" lon="-121.709729"><ele>1967</ele><time>2019-11-22T23:22:00Z</time></trkpt>
<trkpt lat="45.338969" lon="-121.709714"><ele>1965</ele><time>2019-11-22T23:22:00Z</time></trkpt>
<trkpt lat="45.338939" lon="-121.709703"><ele>1963</ele><time>2019-11-22T23:22:00Z</time></trkpt>
<trkpt lat="45.338929" lon="-121.709697"><ele>1963</ele><time>2019-11-22T23:22:00Z</time></trkpt>
<trkpt lat="45.338771" lon="-121.709606"><ele>1958</ele><time>2019-11-22T23:23:00Z</time></trkpt>
<trkpt lat="45.338758" lon="-121.709601"><ele>1958</ele><time>2019-11-22T23:23:00Z</time></trkpt>
<trkpt lat="45.338654" lon="-121.709553"><ele>1957</ele><time>2019-11-22T23:23:00Z</time></trkpt>
<trkpt lat="45.338614" lon="-121.70957"><ele>1957</ele><time>2019-11-22T23:23:00Z</time></trkpt>
<trkpt lat="45.338582" lon="-121.709547"><ele>1955</ele><time>2019-11-22T23:23:00Z</time></trkpt>
<trkpt lat="45.338574" lon="-121.709535"><ele>1956</ele><time>2019-11-22T23:23:00Z</time></trkpt>
<trkpt lat="45.338489" lon="-121.709452"><ele>1954</ele><time>2019-11-22T23:23:00Z</time></trkpt>
<trkpt lat="45.33841" lon="-121.709419"><ele>1954</ele><time>2019-11-22T23:23:00Z</time></trkpt>
<trkpt lat="45.338397" lon="-121.709411"><ele>1954</ele><time>2019-11-22T23:23:00Z</time></trkpt>
<trkpt lat="45.338312" lon="-121.709351"><ele>1953</ele><time>2019-11-22T23:23:00Z</time></trkpt>
<trkpt lat="45.338242" lon="-121.709323"><ele>1954</ele><time>2019-11-22T23:24:00Z</time></trkpt>
<trkpt lat="45.338233" lon="-121.709315"><ele>1953</ele><time>2019-11-22T23:24:00Z</time></trkpt>
<trkpt lat="45.338206" lon="-121.709296"><ele>1952</ele><time>2019-11-22T23:24:00Z</time></trkpt>
<trkpt lat="45.338119" lon="-121.709264"><ele>1950</ele><time>2019-11-22T23:24:00Z</time></trkpt>
<trkpt lat="45.338071" lon="-121.709281"><ele>1951</ele><time>2019-11-22T23:24:00Z</time></trkpt>
<trkpt lat="45.338064" lon="-121.709288"><ele>1950</ele><time>2019-11-22T23:24:00Z</time></trkpt>
<trkpt lat="45.338017" lon="-121.709324"><ele>1949</ele><time>2019-11-22T23:24:00Z</time></trkpt>
<trkpt lat="45.337901" lon="-121.709383"><ele>1948</ele><time>2019-11-22T23:24:00Z</time></trkpt>
<trkpt lat="45.337894" lon="-121.709384"><ele>1947</ele><time>2019-11-22T23:24:00Z</time></trkpt>
<trkpt lat="45.337741" lon="-121.709461"><ele>1945</ele><time>2019-11-22T23:25:00Z</time></trkpt>
<trkpt lat="45.337733" lon="-121.709468"><ele>1945</ele><time>2019-11-22T23:25:00Z</time></trkpt>
<trkpt lat="45.337675" lon="-121.709485"><ele>1943</ele><time>2019-11-22T23:25:00Z</time></trkpt>
<trkpt lat="45.337627" lon="-121.709487"><ele>1942</ele><time>2019-11-22T23:25:00Z</time></trkpt>
<trkpt lat="45.337607" lon="-121.709499"><ele>1942</ele><time>2019-11-22T23:25:00Z</time></trkpt>
<trkpt lat="45.337595" lon="-121.709522"><ele>1941</ele><time>2019-11-22T23:25:00Z</time></trkpt>
<trkpt lat="45.337564" lon="-121.709529"><ele>1939</ele><time>2019-11-22T23:25:00Z</time></trkpt>
<trkpt lat="45.337556" lon="-121.709529"><ele>1939</ele><time>2019-11-22T23:25:00Z</time></trkpt>
<trkpt lat="45.33748" lon="-121.709539"><ele>1936</ele><time>2019-11-22T23:25:00Z</time></trkpt>
<trkpt lat="45.33744" lon="-121.709567"><ele>1935</ele><time>2019-11-22T23:25:00Z</time></trkpt>
<trkpt lat="45.337382" lon="-121.709562"><ele>1933</ele><time>2019-11-22T23:25:00Z</time></trkpt>
<trkpt lat="45.337369" lon="-121.709561"><ele>1933</ele><time>2019-11-22T23:25:00Z</time></trkpt>
<trkpt lat="45.337297" lon="-121.70959"><ele>1931</ele><time>2019-11-22T23:25:00Z</time></trkpt>
<trkpt lat="45.337199" lon="-121.7096"><ele>1929</ele><time>2019-11-22T23:25:00Z</time></trkpt>
<trkpt lat="45.337187" lon="-121.7096"><ele>1929</ele><time>2019-11-22T23:26:00Z</time></trkpt>
<trkpt lat="45.337136" lon="-121.709603"><ele>1926</ele><time>2019-11-22T23:26:00Z</time></trkpt>
<trkpt lat="45.337093" lon="-121.709631"><ele>1926</ele><time>2019-11-22T23:26:00Z</time></trkpt>
<trkpt lat="45.33702" lon="-121.709656"><ele>1924</ele><time>2019-11-22T23:26:00Z</time></trkpt>
<trkpt lat="45.337003" lon="-121.709654"><ele>1924</ele><time>2019-11-22T23:26:00Z</time></trkpt>
<trkpt lat="45.336971" lon="-121.70962"><ele>1924</ele><time>2019-11-22T23:26:00Z</time></trkpt>
<trkpt lat="45.336949" lon="-121.70961"><ele>1924</ele><time>2019-11-22T23:26:00Z</time></trkpt>
<trkpt lat="45.336905" lon="-121.709604"><ele>1923</ele><time>2019-11-22T23:26:00Z</time></trkpt>
<trkpt lat="45.336868" lon="-121.709624"><ele>1923</ele><time>2019-11-22T23:26:00Z</time></trkpt>
<trkpt lat="45.336839" lon="-121.709623"><ele>1922</ele><time>2019-11-22T23:26:00Z</time></trkpt>
<trkpt lat="45.336825" lon="-121.709622"><ele>1921</ele><time>2019-11-22T23:26:00Z</time></trkpt>
<trkpt lat="45.336713" lon="-121.709601"><ele>1919</ele><time>2019-11-22T23:26:00Z</time></trkpt>
<trkpt lat="45.336661" lon="-121.709619"><ele>1919</ele><time>2019-11-22T23:26:00Z</time></trkpt>
<trkpt lat="45.33665" lon="-121.709624"><ele>1919</ele><time>2019-11-22T23:26:00Z</time></trkpt>
<trkpt lat="45.33658" lon="-121.709619"><ele>1919</ele><time>2019-11-22T23:27:00Z</time></trkpt>
<trkpt lat="45.33648" lon="-121.709658"><ele>1918</ele><time>2019-11-22T23:27:00Z</time></trkpt>
<trkpt lat="45.336466" lon="-121.709664"><ele>1918</ele><time>2019-11-22T23:27:00Z</time></trkpt>
<trkpt lat="45.33644" lon="-121.709684"><ele>1916</ele><time>2019-11-22T23:27:00Z</time></trkpt>
<trkpt lat="45.336383" lon="-121.709776"><ele>1913</ele><time>2019-11-22T23:27:00Z</time></trkpt>
<trkpt lat="45.336328" lon="-121.709795"><ele>1912</ele><time>2019-11-22T23:27:00Z</time></trkpt>
<trkpt lat="45.336316" lon="-121.709796"><ele>1912</ele><time>2019-11-22T23:27:00Z</time></trkpt>
<trkpt lat="45.336291" lon="-121.709765"><ele>1910</ele><time>2019-11-22T23:27:00Z</time></trkpt>
<trkpt lat="45.336248" lon="-121.709656"><ele>1908</ele><time>2019-11-22T23:27:00Z</time></trkpt>
<trkpt lat="45.336236" lon="-121.709576"><ele>1907</ele><time>2019-11-22T23:27:00Z</time></trkpt>
<trkpt lat="45.336234" lon="-121.709564"><ele>1907</ele><time>2019-11-22T23:27:00Z</time></trkpt>
<trkpt lat="45.336204" lon="-121.709319"><ele>1905</ele><time>2019-11-22T23:28:00Z</time></trkpt>
<trkpt lat="45.336205" lon="-121.709307"><ele>1904</ele><time>2019-11-22T23:28:00Z</time></trkpt>
<trkpt lat="45.336182" lon="-121.709083"><ele>1898</ele><time>2019-11-22T23:28:00Z</time></trkpt>
<trkpt lat="45.336177" lon="-121.709068"><ele>1897</ele><time>2019-11-22T23:28:00Z</time></trkpt>
<trkpt lat="45.336159" lon="-121.709036"><ele>1896</ele><time>2019-11-22T23:28:00Z</time></trkpt>
<trkpt lat="45.336081" lon="-121.708986"><ele>1894</ele><time>2019-11-22T23:28:00Z</time></trkpt>
<trkpt lat="45.336061" lon="-121.708985"><ele>1894</ele><time>2019-11-22T23:28:00Z</time></trkpt>
<trkpt lat="45.336033" lon="-121.709014"><ele>1894</ele><time>2019-11-22T23:28:00Z</time></trkpt>
<trkpt lat="45.336025" lon="-121.709028"><ele>1894</ele><time>2019-11-22T23:28:00Z</time></trkpt>
<trkpt lat="45.335984" lon="-121.70908"><ele>1893</ele><time>2019-11-22T23:28:00Z</time></trkpt>
<trkpt lat="45.335948" lon="-121.709087"><ele>1891</ele><time>2019-11-22T23:28:00Z</time></trkpt>
<trkpt lat="45.335878" lon="-121.709125"><ele>1891</ele><time>2019-11-22T23:28:00Z</time></trkpt>
<trkpt lat="45.335868" lon="-121.709127"><ele>1891</ele><time>2019-11-22T23:28:00Z</time></trkpt>
<trkpt lat="45.3358" lon="-121.709138"><ele>1889</ele><time>2019-11-22T23:29:00Z</time></trkpt>
<trkpt lat="45.335766" lon="-121.709172"><ele>1888</ele><time>2019-11-22T23:29:00Z</time></trkpt>
<trkpt lat="45.335708" lon="-121.709197"><ele>1887</ele><time>2019-11-22T23:29:00Z</time></trkpt>
<trkpt lat="45.335699" lon="-121.709205"><ele>1886</ele><time>2019-11-22T23:29:00Z</time></trkpt>
<trkpt lat="45.335667" lon="-121.709211"><ele>1886</ele><time>2019-11-22T23:29:00Z</time></trkpt>
<trkpt lat="45.335608" lon="-121.709199"><ele>1885</ele><time>2019-11-22T23:29:00Z</time></trkpt>
<trkpt lat="45.335566" lon="-121.709234"><ele>1884</ele><time>2019-11-22T23:29:00Z</time></trkpt>
<trkpt lat="45.335539" lon="-121.709242"><ele>1884</ele><time>2019-11-22T23:29:00Z</time></trkpt>
<trkpt lat="45.335528" lon="-121.709243"><ele>1884</ele><time>2019-11-22T23:29:00Z</time></trkpt>
<trkpt lat="45.335423" lon="-121.709249"><ele>1880</ele><time>2019-11-22T23:29:00Z</time></trkpt>
<trkpt lat="45.335379" lon="-121.709225"><ele>1877</ele><time>2019-11-22T23:29:00Z</time></trkpt>
<trkpt lat="45.335371" lon="-121.709219"><ele>1877</ele><time>2019-11-22T23:29:00Z</time></trkpt>
<trkpt lat="45.335264" lon="-121.709149"><ele>1873</ele><time>2019-11-22T23:30:00Z</time></trkpt>
<trkpt lat="45.335231" lon="-121.709101"><ele>1874</ele><time>2019-11-22T23:30:00Z</time></trkpt>
<trkpt lat="45.335223" lon="-121.709091"><ele>1873</ele><time>2019-11-22T23:30:00Z</time></trkpt>
<trkpt lat="45.335133" lon="-121.709044"><ele>1873</ele><time>2019-11-22T23:30:00Z</time></trkpt>
<trkpt lat="45.335056" lon="-121.709053"><ele>1870</ele><time>2019-11-22T23:30:00Z</time></trkpt>
<trkpt lat="45.335045" lon="-121.709057"><ele>1869</ele><time>2019-11-22T23:30:00Z</time></trkpt>
<trkpt lat="45.335002" lon="-121.7091"><ele>1867</ele><time>2019-11-22T23:30:00Z</time></trkpt>
<trkpt lat="45.334983" lon="-121.709159"><ele>1866</ele><time>2019-11-22T23:30:00Z</time></trkpt>
<trkpt lat="45.334909" lon="-121.709177"><ele>1864</ele><time>2019-11-22T23:30:00Z</time></trkpt>
<trkpt lat="45.3349" lon="-121.709189"><ele>1866</ele><time>2019-11-22T23:30:00Z</time></trkpt>
<trkpt lat="45.334854" lon="-121.709235"><ele>1864</ele><time>2019-11-22T23:30:00Z</time></trkpt>
<trkpt lat="45.334807" lon="-121.709232"><ele>1865</ele><time>2019-11-22T23:30:00Z</time></trkpt>
<trkpt lat="45.334732" lon="-121.70929"><ele>1863</ele><time>2019-11-22T23:31:00Z</time></trkpt>
<trkpt lat="45.334721" lon="-121.709296"><ele>1863</ele><time>2019-11-22T23:31:00Z</time></trkpt>
<trkpt lat="45.334619" lon="-121.709325"><ele>1862</ele><time>2019-11-22T23:31:00Z</time></trkpt>
<trkpt lat="45.334576" lon="-121.709321"><ele>1861</ele><time>2019-11-22T23:31:00Z</time></trkpt>
<trkpt lat="45.33455" lon="-121.709297"><ele>1861</ele><time>2019-11-22T23:31:00Z</time></trkpt>
<trkpt lat="45.334532" lon="-121.709287"><ele>1860</ele><time>2019-11-22T23:31:00Z</time></trkpt>
<trkpt lat="45.334453" lon="-121.709289"><ele>1862</ele><time>2019-11-22T23:31:00Z</time></trkpt>
<trkpt lat="45.334391" lon="-121.709319"><ele>1860</ele><time>2019-11-22T23:31:00Z</time></trkpt>
<trkpt lat="45.334361" lon="-121.70931"><ele>1860</ele><time>2019-11-22T23:31:00Z</time></trkpt>
<trkpt lat="45.334352" lon="-121.709304"><ele>1860</ele><time>2019-11-22T23:31:00Z</time></trkpt>
<trkpt lat="45.334297" lon="-121.709243"><ele>1860</ele><time>2019-11-22T23:31:00Z</time></trkpt>
<trkpt lat="45.334278" lon="-121.709239"><ele>1860</ele><time>2019-11-22T23:31:00Z</time></trkpt>
<trkpt lat="45.334205" lon="-121.709261"><ele>1862</ele><time>2019-11-22T23:31:00Z</time></trkpt>
<trkpt lat="45.334194" lon="-121.709259"><ele>1862</ele><time>2019-11-22T23:31:00Z</time></trkpt>
<trkpt lat="45.334073" lon="-121.709179"><ele>1858</ele><time>2019-11-22T23:32:00Z</time></trkpt>
<trkpt lat="45.334029" lon="-121.709131"><ele>1858</ele><time>2019-11-22T23:32:00Z</time></trkpt>
<trkpt lat="45.33402" lon="-121.709128"><ele>1858</ele><time>2019-11-22T23:32:00Z</time></trkpt>
<trkpt lat="45.333984" lon="-121.709119"><ele>1857</ele><time>2019-11-22T23:32:00Z</time></trkpt>
<trkpt lat="45.333937" lon="-121.709152"><ele>1856</ele><time>2019-11-22T23:32:00Z</time></trkpt>
<trkpt lat="45.333871" lon="-121.709164"><ele>1853</ele><time>2019-11-22T23:32:00Z</time></trkpt>
<trkpt lat="45.333864" lon="-121.709161"><ele>1853</ele><time>2019-11-22T23:32:00Z</time></trkpt>
<trkpt lat="45.333829" lon="-121.709157"><ele>1853</ele><time>2019-11-22T23:32:00Z</time></trkpt>
<trkpt lat="45.33378" lon="-121.709234"><ele>1852</ele><time>2019-11-22T23:32:00Z</time></trkpt>
<trkpt lat="45.333776" lon="-121.709264"><ele>1851</ele><time>2019-11-22T23:32:00Z</time></trkpt>
<trkpt lat="45.333757" lon="-121.709284"><ele>1850</ele><time>2019-11-22T23:32:00Z</time></trkpt>
<trkpt lat="45.333732" lon="-121.709247"><ele>1850</ele><time>2019-11-22T23:32:00Z</time></trkpt>
<trkpt lat="45.333724" lon="-121.709239"><ele>1849</ele><time>2019-11-22T23:32:00Z</time></trkpt>
<trkpt lat="45.333674" lon="-121.70925"><ele>1849</ele><time>2019-11-22T23:33:00Z</time></trkpt>
<trkpt lat="45.333575" lon="-121.709248"><ele>1849</ele><time>2019-11-22T23:33:00Z</time></trkpt>
<trkpt lat="45.333561" lon="-121.709249"><ele>1849</ele><time>2019-11-22T23:33:00Z</time></trkpt>
<trkpt lat="45.333522" lon="-121.709254"><ele>1847</ele><time>2019-11-22T23:33:00Z</time></trkpt>
<trkpt lat="45.333484" lon="-121.70922"><ele>1841</ele><time>2019-11-22T23:33:00Z</time></trkpt>
<trkpt lat="45.333462" lon="-121.70922"><ele>1841</ele><time>2019-11-22T23:33:00Z</time></trkpt>
<trkpt lat="45.333391" lon="-121.709262"><ele>1841</ele><time>2019-11-22T23:33:00Z</time></trkpt>
<trkpt lat="45.33338" lon="-121.709268"><ele>1843</ele><time>2019-11-22T23:33:00Z</time></trkpt>
<trkpt lat="45.333341" lon="-121.709288"><ele>1843</ele><time>2019-11-22T23:33:00Z</time></trkpt>
<trkpt lat="45.333269" lon="-121.709287"><ele>1843</ele><time>2019-11-22T23:33:00Z</time></trkpt>
<trkpt lat="45.333216" lon="-121.709328"><ele>1845</ele><time>2019-11-22T23:33:00Z</time></trkpt>
<trkpt lat="45.333205" lon="-121.709339"><ele>1845</ele><time>2019-11-22T23:33:00Z</time></trkpt>
<trkpt lat="45.333172" lon="-121.709362"><ele>1845</ele><time>2019-11-22T23:33:00Z</time></trkpt>
<trkpt lat="45.33311" lon="-121.709372"><ele>1846</ele><time>2019-11-22T23:33:00Z</time></trkpt>
<trkpt lat="45.333089" lon="-121.70939"><ele>1845</ele><time>2019-11-22T23:33:00Z</time></trkpt>
<trkpt lat="45.333032" lon="-121.709396"><ele>1845</ele><time>2019-11-22T23:33:00Z</time></trkpt>
<trkpt lat="45.333019" lon="-121.709394"><ele>1845</ele><time>2019-11-22T23:33:00Z</time></trkpt>
<trkpt lat="45.332983" lon="-121.709382"><ele>1843</ele><time>2019-11-22T23:34:00Z</time></trkpt>
<trkpt lat="45.332964" lon="-121.709358"><ele>1838</ele><time>2019-11-22T23:34:00Z</time></trkpt>
<trkpt lat="45.332949" lon="-121.709305"><ele>1833</ele><time>2019-11-22T23:34:00Z</time></trkpt>
<trkpt lat="45.332896" lon="-121.709239"><ele>1832</ele><time>2019-11-22T23:34:00Z</time></trkpt>
<trkpt lat="45.332887" lon="-121.709235"><ele>1833</ele><time>2019-11-22T23:34:00Z</time></trkpt>
<trkpt lat="45.332857" lon="-121.709235"><ele>1831</ele><time>2019-11-22T23:34:00Z</time></trkpt>
<trkpt lat="45.332792" lon="-121.709269"><ele>1832</ele><time>2019-11-22T23:34:00Z</time></trkpt>
<trkpt lat="45.332757" lon="-121.709348"><ele>1831</ele><time>2019-11-22T23:34:00Z</time></trkpt>
<trkpt lat="45.332756" lon="-121.709367"><ele>1831</ele><time>2019-11-22T23:34:00Z</time></trkpt>
<trkpt lat="45.332742" lon="-121.709478"><ele>1830</ele><time>2019-11-22T23:34:00Z</time></trkpt>
<trkpt lat="45.332725" lon="-121.709531"><ele>1831</ele><time>2019-11-22T23:34:00Z</time></trkpt>
<trkpt lat="45.332721" lon="-121.709611"><ele>1831</ele><time>2019-11-22T23:34:00Z</time></trkpt>
<trkpt lat="45.332719" lon="-121.709621"><ele>1831</ele><time>2019-11-22T23:34:00Z</time></trkpt>
<trkpt lat="45.33268" lon="-121.7097"><ele>1829</ele><time>2019-11-22T23:34:00Z</time></trkpt>
<trkpt lat="45.332666" lon="-121.709752"><ele>1829</ele><time>2019-11-22T23:35:00Z</time></trkpt>
<trkpt lat="45.332651" lon="-121.709774"><ele>1829</ele><time>2019-11-22T23:35:00Z</time></trkpt>
<trkpt lat="45.332617" lon="-121.709781"><ele>1827</ele><time>2019-11-22T23:35:00Z</time></trkpt>
<trkpt lat="45.332605" lon="-121.709785"><ele>1826</ele><time>2019-11-22T23:35:00Z</time></trkpt>
<trkpt lat="45.332571" lon="-121.709807"><ele>1829</ele><time>2019-11-22T23:35:00Z</time></trkpt>
<trkpt lat="45.332529" lon="-121.70981"><ele>1829</ele><time>2019-11-22T23:35:00Z</time></trkpt>
<trkpt lat="45.332431" lon="-121.709857"><ele>1826</ele><time>2019-11-22T23:35:00Z</time></trkpt>
<trkpt lat="45.332422" lon="-121.709863"><ele>1826</ele><time>2019-11-22T23:35:00Z</time></trkpt>
<trkpt lat="45.332269" lon="-121.709867"><ele>1822</ele><time>2019-11-22T23:35:00Z</time></trkpt>
<trkpt lat="45.33224" lon="-121.709855"><ele>1820</ele><time>2019-11-22T23:36:00Z</time></trkpt>
<trkpt lat="45.332232" lon="-121.709858"><ele>1820</ele><time>2019-11-22T23:36:00Z</time></trkpt>
<trkpt lat="45.332075" lon="-121.709877"><ele>1817</ele><time>2019-11-22T23:36:00Z</time></trkpt>
<trkpt lat="45.332064" lon="-121.70988"><ele>1817</ele><time>2019-11-22T23:36:00Z</time></trkpt>
<trkpt lat="45.331937" lon="-121.709951"><ele>1815</ele><time>2019-11-22T23:36:00Z</time></trkpt>
<trkpt lat="45.331905" lon="-121.709939"><ele>1815</ele><time>2019-11-22T23:36:00Z</time></trkpt>
<trkpt lat="45.331895" lon="-121.709935"><ele>1814</ele><time>2019-11-22T23:36:00Z</time></trkpt>
<trkpt lat="45.331841" lon="-121.709919"><ele>1814</ele><time>2019-11-22T23:36:00Z</time></trkpt>
<trkpt lat="45.331781" lon="-121.709924"><ele>1814</ele><time>2019-11-22T23:36:00Z</time></trkpt>
<trkpt lat="45.331723" lon="-121.709915"><ele>1813</ele><time>2019-11-22T23:36:00Z</time></trkpt>
<trkpt lat="45.331709" lon="-121.709922"><ele>1814</ele><time>2019-11-22T23:36:00Z</time></trkpt>
<trkpt lat="45.33166" lon="-121.709949"><ele>1812</ele><time>2019-11-22T23:36:00Z</time></trkpt>
<trkpt lat="45.331614" lon="-121.710013"><ele>1811</ele><time>2019-11-22T23:37:00Z</time></trkpt>
<trkpt lat="45.331566" lon="-121.710043"><ele>1810</ele><time>2019-11-22T23:37:00Z</time></trkpt>
<trkpt lat="45.331556" lon="-121.710052"><ele>1810</ele><time>2019-11-22T23:37:00Z</time></trkpt>
<trkpt lat="45.331513" lon="-121.710151"><ele>1809</ele><time>2019-11-22T23:37:00Z</time></trkpt>
<trkpt lat="45.331462" lon="-121.710211"><ele>1808</ele><time>2019-11-22T23:37:00Z</time></trkpt>
<trkpt lat="45.331424" lon="-121.710209"><ele>1807</ele><time>2019-11-22T23:37:00Z</time></trkpt>
<trkpt lat="45.331415" lon="-121.710204"><ele>1807</ele><time>2019-11-22T23:37:00Z</time></trkpt>
<trkpt lat="45.331381" lon="-121.710199"><ele>1808</ele><time>2019-11-22T23:37:00Z</time></trkpt>
<trkpt lat="45.331289" lon="-121.710228"><ele>1809</ele><time>2019-11-22T23:37:00Z</time></trkpt>
<trkpt lat="45.331239" lon="-121.710222"><ele>1809</ele><time>2019-11-22T23:37:00Z</time></trkpt>
<trkpt lat="45.331229" lon="-121.710219"><ele>1810</ele><time>2019-11-22T23:37:00Z</time></trkpt>
<trkpt lat="45.331063" lon="-121.710165"><ele>1808</ele><time>2019-11-22T23:38:00Z</time></trkpt>
<trkpt lat="45.331058" lon="-121.710157"><ele>1806</ele><time>2019-11-22T23:38:00Z</time></trkpt>
<trkpt lat="45.331012" lon="-121.710076"><ele>1805</ele><time>2019-11-22T23:38:00Z</time></trkpt>
<trkpt lat="45.330957" lon="-121.710029"><ele>1806</ele><time>2019-11-22T23:38:00Z</time></trkpt>
<trkpt lat="45.330946" lon="-121.70999"><ele>1805</ele><time>2019-11-22T23:38:00Z</time></trkpt>
<trkpt lat="45.330943" lon="-121.709976"><ele>1804</ele><time>2019-11-22T23:38:00Z</time></trkpt>
<trkpt lat="45.330931" lon="-121.709929"><ele>1804</ele><time>2019-11-22T23:38:00Z</time></trkpt>
<trkpt lat="45.330889" lon="-121.709892"><ele>1803</ele><time>2019-11-22T23:38:00Z</time></trkpt>
<trkpt lat="45.330875" lon="-121.709862"><ele>1800</ele><time>2019-11-22T23:38:00Z</time></trkpt>
<trkpt lat="45.330841" lon="-121.709758"><ele>1800</ele><time>2019-11-22T23:38:00Z</time></trkpt>
<trkpt lat="45.330836" lon="-121.709749"><ele>1800</ele><time>2019-11-22T23:38:00Z</time></trkpt>
<trkpt lat="45.330781" lon="-121.709628"><ele>1800</ele><time>2019-11-22T23:39:00Z</time></trkpt>
<trkpt lat="45.330769" lon="-121.709571"><ele>1799</ele><time>2019-11-22T23:39:00Z</time></trkpt>
<trkpt lat="45.330747" lon="-121.709544"><ele>1798</ele><time>2019-11-22T23:39:00Z</time></trkpt>
<trkpt lat="45.330734" lon="-121.709536"><ele>1798</ele><time>2019-11-22T23:39:00Z</time></trkpt>
<trkpt lat="45.330644" lon="-121.709514"><ele>1803</ele><time>2019-11-22T23:39:00Z</time></trkpt>
<trkpt lat="45.330612" lon="-121.70938"><ele>1800</ele><time>2019-11-22T23:39:00Z</time></trkpt>
<trkpt lat="45.330607" lon="-121.709364"><ele>1800</ele><time>2019-11-22T23:39:00Z</time></trkpt>
<trkpt lat="45.330585" lon="-121.709292"><ele>1801</ele><time>2019-11-22T23:39:00Z</time></trkpt>
<trkpt lat="45.330587" lon="-121.709129"><ele>1798</ele><time>2019-11-22T23:39:00Z</time></trkpt>
<trkpt lat="45.330587" lon="-121.709116"><ele>1798</ele><time>2019-11-22T23:39:00Z</time></trkpt>
<trkpt lat="45.330574" lon="-121.709072"><ele>1798</ele><time>2019-11-22T23:39:00Z</time></trkpt>
<trkpt lat="45.330483" lon="-121.708995"><ele>1795</ele><time>2019-11-22T23:39:00Z</time></trkpt>
<trkpt lat="45.330484" lon="-121.70895"><ele>1795</ele><time>2019-11-22T23:41:00Z</time></trkpt>
</trkseg>
</trk>
</gpx>